<?xml version="1.0" encoding="UTF-8" standalone="no" ?>
<gpx xmlns="http://www.topografix.com/GPX/1/1" xmlns:xsi="http://www.w3.org/2001/XMLSchema-instance" xsi:schemaLocation="http://www.topografix.com/GPX/1/1 http://www.topografix.com/GPX/1/1/gpx.xsd" version="1.1" creator="VisuGPX - https://www.visugpx.com">
  <metadata>
    <name>SO 1106</name>
  </metadata>
  <trk>
    <name><![CDATA[sud ouest epinay sur odon]]></name>
    <trkseg>
      <trkpt lat="49.28619" lon="-0.11979">
        <ele>4.98</ele>
        <time>2025-07-04T09:56:16.000Z</time>
      </trkpt>
      <trkpt lat="49.28613" lon="-0.11972">
        <ele>5.01</ele>
        <time>2025-07-04T09:56:16.001Z</time>
      </trkpt>
      <trkpt lat="49.28605" lon="-0.11961">
        <ele>5.04</ele>
        <time>2025-07-04T09:56:16.004Z</time>
      </trkpt>
      <trkpt lat="49.28591" lon="-0.11985">
        <ele>5.11</ele>
        <time>2025-07-04T09:56:16.010Z</time>
      </trkpt>
      <trkpt lat="49.28586" lon="-0.11979">
        <ele>5.17</ele>
        <time>2025-07-04T09:56:16.017Z</time>
      </trkpt>
      <trkpt lat="49.28565" lon="-0.12015">
        <ele>5.32</ele>
        <time>2025-07-04T09:56:16.029Z</time>
      </trkpt>
      <trkpt lat="49.28557" lon="-0.12029">
        <ele>5.41</ele>
        <time>2025-07-04T09:56:16.043Z</time>
      </trkpt>
      <trkpt lat="49.28537" lon="-0.12066">
        <ele>5.46</ele>
        <time>2025-07-04T09:56:16.062Z</time>
      </trkpt>
      <trkpt lat="49.28516" lon="-0.12102">
        <ele>5.39</ele>
        <time>2025-07-04T09:56:16.086Z</time>
      </trkpt>
      <trkpt lat="49.28496" lon="-0.12138">
        <ele>5.28</ele>
        <time>2025-07-04T09:56:16.115Z</time>
      </trkpt>
      <trkpt lat="49.28476" lon="-0.12175">
        <ele>5.12</ele>
        <time>2025-07-04T09:56:16.149Z</time>
      </trkpt>
      <trkpt lat="49.28455" lon="-0.12212">
        <ele>4.9</ele>
        <time>2025-07-04T09:56:16.188Z</time>
      </trkpt>
      <trkpt lat="49.28447" lon="-0.12227">
        <ele>4.71</ele>
        <time>2025-07-04T09:56:16.230Z</time>
      </trkpt>
      <trkpt lat="49.28426" lon="-0.12263">
        <ele>4.59</ele>
        <time>2025-07-04T09:56:16.277Z</time>
      </trkpt>
      <trkpt lat="49.28405" lon="-0.12299">
        <ele>4.58</ele>
        <time>2025-07-04T09:56:16.329Z</time>
      </trkpt>
      <trkpt lat="49.28384" lon="-0.12335">
        <ele>4.54</ele>
        <time>2025-07-04T09:56:16.386Z</time>
      </trkpt>
      <trkpt lat="49.28368" lon="-0.12363">
        <ele>4.42</ele>
        <time>2025-07-04T09:56:16.447Z</time>
      </trkpt>
      <trkpt lat="49.28354" lon="-0.12386">
        <ele>4.27</ele>
        <time>2025-07-04T09:56:16.511Z</time>
      </trkpt>
      <trkpt lat="49.28337" lon="-0.12391">
        <ele>4.23</ele>
        <time>2025-07-04T09:56:16.578Z</time>
      </trkpt>
      <trkpt lat="49.28329" lon="-0.124">
        <ele>4.19</ele>
        <time>2025-07-04T09:56:16.646Z</time>
      </trkpt>
      <trkpt lat="49.28325" lon="-0.12411">
        <ele>4.14</ele>
        <time>2025-07-04T09:56:16.716Z</time>
      </trkpt>
      <trkpt lat="49.28323" lon="-0.12439">
        <ele>4.03</ele>
        <time>2025-07-04T09:56:16.789Z</time>
      </trkpt>
      <trkpt lat="49.2832" lon="-0.1245">
        <ele>3.97</ele>
        <time>2025-07-04T09:56:16.863Z</time>
      </trkpt>
      <trkpt lat="49.28309" lon="-0.12468">
        <ele>3.92</ele>
        <time>2025-07-04T09:56:16.939Z</time>
      </trkpt>
      <trkpt lat="49.28289" lon="-0.12505">
        <ele>3.81</ele>
        <time>2025-07-04T09:56:17.020Z</time>
      </trkpt>
      <trkpt lat="49.28269" lon="-0.12542">
        <ele>3.64</ele>
        <time>2025-07-04T09:56:17.106Z</time>
      </trkpt>
      <trkpt lat="49.28248" lon="-0.12579">
        <ele>3.58</ele>
        <time>2025-07-04T09:56:17.197Z</time>
      </trkpt>
      <trkpt lat="49.28245" lon="-0.12585">
        <ele>3.51</ele>
        <time>2025-07-04T09:56:17.289Z</time>
      </trkpt>
      <trkpt lat="49.28225" lon="-0.12622">
        <ele>3.51</ele>
        <time>2025-07-04T09:56:17.386Z</time>
      </trkpt>
      <trkpt lat="49.28204" lon="-0.12659">
        <ele>3.51</ele>
        <time>2025-07-04T09:56:17.488Z</time>
      </trkpt>
      <trkpt lat="49.28184" lon="-0.12695">
        <ele>3.55</ele>
        <time>2025-07-04T09:56:17.595Z</time>
      </trkpt>
      <trkpt lat="49.28165" lon="-0.1273">
        <ele>3.52</ele>
        <time>2025-07-04T09:56:17.707Z</time>
      </trkpt>
      <trkpt lat="49.28144" lon="-0.12766">
        <ele>3.51</ele>
        <time>2025-07-04T09:56:17.824Z</time>
      </trkpt>
      <trkpt lat="49.28124" lon="-0.12803">
        <ele>3.44</ele>
        <time>2025-07-04T09:56:17.946Z</time>
      </trkpt>
      <trkpt lat="49.28103" lon="-0.12839">
        <ele>3.42</ele>
        <time>2025-07-04T09:56:18.073Z</time>
      </trkpt>
      <trkpt lat="49.28083" lon="-0.12876">
        <ele>3.45</ele>
        <time>2025-07-04T09:56:18.205Z</time>
      </trkpt>
      <trkpt lat="49.28062" lon="-0.12912">
        <ele>3.49</ele>
        <time>2025-07-04T09:56:18.342Z</time>
      </trkpt>
      <trkpt lat="49.28041" lon="-0.12948">
        <ele>3.48</ele>
        <time>2025-07-04T09:56:18.484Z</time>
      </trkpt>
      <trkpt lat="49.28028" lon="-0.12972">
        <ele>3.52</ele>
        <time>2025-07-04T09:56:18.630Z</time>
      </trkpt>
      <trkpt lat="49.28008" lon="-0.1301">
        <ele>3.55</ele>
        <time>2025-07-04T09:56:18.781Z</time>
      </trkpt>
      <trkpt lat="49.27994" lon="-0.13037">
        <ele>3.54</ele>
        <time>2025-07-04T09:56:18.935Z</time>
      </trkpt>
      <trkpt lat="49.27973" lon="-0.13073">
        <ele>3.5</ele>
        <time>2025-07-04T09:56:19.094Z</time>
      </trkpt>
      <trkpt lat="49.27957" lon="-0.13102">
        <ele>3.52</ele>
        <time>2025-07-04T09:56:19.257Z</time>
      </trkpt>
      <trkpt lat="49.27937" lon="-0.13139">
        <ele>3.54</ele>
        <time>2025-07-04T09:56:19.426Z</time>
      </trkpt>
      <trkpt lat="49.27916" lon="-0.13175">
        <ele>3.5</ele>
        <time>2025-07-04T09:56:19.600Z</time>
      </trkpt>
      <trkpt lat="49.27896" lon="-0.13212">
        <ele>3.45</ele>
        <time>2025-07-04T09:56:19.779Z</time>
      </trkpt>
      <trkpt lat="49.27879" lon="-0.13242">
        <ele>3.48</ele>
        <time>2025-07-04T09:56:19.962Z</time>
      </trkpt>
      <trkpt lat="49.27859" lon="-0.13279">
        <ele>3.53</ele>
        <time>2025-07-04T09:56:20.150Z</time>
      </trkpt>
      <trkpt lat="49.27847" lon="-0.13299">
        <ele>3.56</ele>
        <time>2025-07-04T09:56:20.341Z</time>
      </trkpt>
      <trkpt lat="49.27847" lon="-0.13309">
        <ele>3.59</ele>
        <time>2025-07-04T09:56:20.533Z</time>
      </trkpt>
      <trkpt lat="49.2785" lon="-0.13314">
        <ele>3.62</ele>
        <time>2025-07-04T09:56:20.725Z</time>
      </trkpt>
      <trkpt lat="49.27857" lon="-0.13317">
        <ele>3.64</ele>
        <time>2025-07-04T09:56:20.919Z</time>
      </trkpt>
      <trkpt lat="49.27856" lon="-0.13333">
        <ele>3.65</ele>
        <time>2025-07-04T09:56:21.114Z</time>
      </trkpt>
      <trkpt lat="49.27859" lon="-0.1334">
        <ele>3.65</ele>
        <time>2025-07-04T09:56:21.310Z</time>
      </trkpt>
      <trkpt lat="49.2786" lon="-0.13347">
        <ele>3.66</ele>
        <time>2025-07-04T09:56:21.507Z</time>
      </trkpt>
      <trkpt lat="49.27861" lon="-0.13351">
        <ele>3.68</ele>
        <time>2025-07-04T09:56:21.704Z</time>
      </trkpt>
      <trkpt lat="49.27877" lon="-0.13376">
        <ele>3.65</ele>
        <time>2025-07-04T09:56:21.905Z</time>
      </trkpt>
      <trkpt lat="49.279" lon="-0.13395">
        <ele>3.73</ele>
        <time>2025-07-04T09:56:22.110Z</time>
      </trkpt>
      <trkpt lat="49.27928" lon="-0.13416">
        <ele>3.87</ele>
        <time>2025-07-04T09:56:22.320Z</time>
      </trkpt>
      <trkpt lat="49.27957" lon="-0.13437">
        <ele>3.96</ele>
        <time>2025-07-04T09:56:22.535Z</time>
      </trkpt>
      <trkpt lat="49.27964" lon="-0.13442">
        <ele>4.01</ele>
        <time>2025-07-04T09:56:22.752Z</time>
      </trkpt>
      <trkpt lat="49.27993" lon="-0.1346">
        <ele>4.01</ele>
        <time>2025-07-04T09:56:22.974Z</time>
      </trkpt>
      <trkpt lat="49.28008" lon="-0.13469">
        <ele>4.09</ele>
        <time>2025-07-04T09:56:23.198Z</time>
      </trkpt>
      <trkpt lat="49.28037" lon="-0.13487">
        <ele>4.15</ele>
        <time>2025-07-04T09:56:23.427Z</time>
      </trkpt>
      <trkpt lat="49.28067" lon="-0.13504">
        <ele>4.2</ele>
        <time>2025-07-04T09:56:23.661Z</time>
      </trkpt>
      <trkpt lat="49.28086" lon="-0.13516">
        <ele>4.22</ele>
        <time>2025-07-04T09:56:23.899Z</time>
      </trkpt>
      <trkpt lat="49.28115" lon="-0.13533">
        <ele>4.26</ele>
        <time>2025-07-04T09:56:24.142Z</time>
      </trkpt>
      <trkpt lat="49.28145" lon="-0.1355">
        <ele>4.38</ele>
        <time>2025-07-04T09:56:24.390Z</time>
      </trkpt>
      <trkpt lat="49.28167" lon="-0.13562">
        <ele>4.45</ele>
        <time>2025-07-04T09:56:24.641Z</time>
      </trkpt>
      <trkpt lat="49.28197" lon="-0.13577">
        <ele>4.4</ele>
        <time>2025-07-04T09:56:24.897Z</time>
      </trkpt>
      <trkpt lat="49.28227" lon="-0.13592">
        <ele>4.4</ele>
        <time>2025-07-04T09:56:25.158Z</time>
      </trkpt>
      <trkpt lat="49.28257" lon="-0.13607">
        <ele>4.46</ele>
        <time>2025-07-04T09:56:25.424Z</time>
      </trkpt>
      <trkpt lat="49.28274" lon="-0.13616">
        <ele>4.55</ele>
        <time>2025-07-04T09:56:25.693Z</time>
      </trkpt>
      <trkpt lat="49.28285" lon="-0.13622">
        <ele>4.61</ele>
        <time>2025-07-04T09:56:25.964Z</time>
      </trkpt>
      <trkpt lat="49.28293" lon="-0.13622">
        <ele>4.66</ele>
        <time>2025-07-04T09:56:26.237Z</time>
      </trkpt>
      <trkpt lat="49.28306" lon="-0.13626">
        <ele>4.71</ele>
        <time>2025-07-04T09:56:26.512Z</time>
      </trkpt>
      <trkpt lat="49.28307" lon="-0.13624">
        <ele>4.76</ele>
        <time>2025-07-04T09:56:26.787Z</time>
      </trkpt>
      <trkpt lat="49.28309" lon="-0.13622">
        <ele>4.81</ele>
        <time>2025-07-04T09:56:27.062Z</time>
      </trkpt>
      <trkpt lat="49.28312" lon="-0.1362">
        <ele>4.85</ele>
        <time>2025-07-04T09:56:27.338Z</time>
      </trkpt>
      <trkpt lat="49.28318" lon="-0.1362">
        <ele>4.9</ele>
        <time>2025-07-04T09:56:27.615Z</time>
      </trkpt>
      <trkpt lat="49.28324" lon="-0.13625">
        <ele>4.95</ele>
        <time>2025-07-04T09:56:27.893Z</time>
      </trkpt>
      <trkpt lat="49.28327" lon="-0.13632">
        <ele>4.99</ele>
        <time>2025-07-04T09:56:28.172Z</time>
      </trkpt>
      <trkpt lat="49.28328" lon="-0.13642">
        <ele>5.04</ele>
        <time>2025-07-04T09:56:28.452Z</time>
      </trkpt>
      <trkpt lat="49.28326" lon="-0.1365">
        <ele>5.08</ele>
        <time>2025-07-04T09:56:28.733Z</time>
      </trkpt>
      <trkpt lat="49.28322" lon="-0.13657">
        <ele>5.12</ele>
        <time>2025-07-04T09:56:29.015Z</time>
      </trkpt>
      <trkpt lat="49.28319" lon="-0.13659">
        <ele>5.17</ele>
        <time>2025-07-04T09:56:29.297Z</time>
      </trkpt>
      <trkpt lat="49.28317" lon="-0.13659">
        <ele>5.21</ele>
        <time>2025-07-04T09:56:29.580Z</time>
      </trkpt>
      <trkpt lat="49.28303" lon="-0.13702">
        <ele>5.26</ele>
        <time>2025-07-04T09:56:29.868Z</time>
      </trkpt>
      <trkpt lat="49.28302" lon="-0.13704">
        <ele>5.3</ele>
        <time>2025-07-04T09:56:30.156Z</time>
      </trkpt>
      <trkpt lat="49.28297" lon="-0.13726">
        <ele>5.35</ele>
        <time>2025-07-04T09:56:30.446Z</time>
      </trkpt>
      <trkpt lat="49.28285" lon="-0.1377">
        <ele>5.42</ele>
        <time>2025-07-04T09:56:30.741Z</time>
      </trkpt>
      <trkpt lat="49.2827" lon="-0.13813">
        <ele>5.45</ele>
        <time>2025-07-04T09:56:31.041Z</time>
      </trkpt>
      <trkpt lat="49.28266" lon="-0.13825">
        <ele>5.5</ele>
        <time>2025-07-04T09:56:31.343Z</time>
      </trkpt>
      <trkpt lat="49.28283" lon="-0.13841">
        <ele>5.54</ele>
        <time>2025-07-04T09:56:31.648Z</time>
      </trkpt>
      <trkpt lat="49.28311" lon="-0.13864">
        <ele>5.56</ele>
        <time>2025-07-04T09:56:31.958Z</time>
      </trkpt>
      <trkpt lat="49.28337" lon="-0.13886">
        <ele>5.58</ele>
        <time>2025-07-04T09:56:32.273Z</time>
      </trkpt>
      <trkpt lat="49.28365" lon="-0.13906">
        <ele>5.67</ele>
        <time>2025-07-04T09:56:32.593Z</time>
      </trkpt>
      <trkpt lat="49.28383" lon="-0.13919">
        <ele>5.72</ele>
        <time>2025-07-04T09:56:32.916Z</time>
      </trkpt>
      <trkpt lat="49.28412" lon="-0.13937">
        <ele>5.82</ele>
        <time>2025-07-04T09:56:33.244Z</time>
      </trkpt>
      <trkpt lat="49.28434" lon="-0.1395">
        <ele>5.9</ele>
        <time>2025-07-04T09:56:33.576Z</time>
      </trkpt>
      <trkpt lat="49.28445" lon="-0.13953">
        <ele>5.97</ele>
        <time>2025-07-04T09:56:33.910Z</time>
      </trkpt>
      <trkpt lat="49.28473" lon="-0.13951">
        <ele>5.98</ele>
        <time>2025-07-04T09:56:34.248Z</time>
      </trkpt>
      <trkpt lat="49.28504" lon="-0.1395">
        <ele>6.03</ele>
        <time>2025-07-04T09:56:34.591Z</time>
      </trkpt>
      <trkpt lat="49.28528" lon="-0.1395">
        <ele>6.1</ele>
        <time>2025-07-04T09:56:34.938Z</time>
      </trkpt>
      <trkpt lat="49.28545" lon="-0.1395">
        <ele>6.15</ele>
        <time>2025-07-04T09:56:35.288Z</time>
      </trkpt>
      <trkpt lat="49.28545" lon="-0.13973">
        <ele>6.22</ele>
        <time>2025-07-04T09:56:35.640Z</time>
      </trkpt>
      <trkpt lat="49.28545" lon="-0.14006">
        <ele>6.3</ele>
        <time>2025-07-04T09:56:35.995Z</time>
      </trkpt>
      <trkpt lat="49.28543" lon="-0.14054">
        <ele>6.32</ele>
        <time>2025-07-04T09:56:36.356Z</time>
      </trkpt>
      <trkpt lat="49.28542" lon="-0.14086">
        <ele>6.32</ele>
        <time>2025-07-04T09:56:36.720Z</time>
      </trkpt>
      <trkpt lat="49.28536" lon="-0.14133">
        <ele>6.34</ele>
        <time>2025-07-04T09:56:37.089Z</time>
      </trkpt>
      <trkpt lat="49.2853" lon="-0.1418">
        <ele>6.32</ele>
        <time>2025-07-04T09:56:37.463Z</time>
      </trkpt>
      <trkpt lat="49.28524" lon="-0.14228">
        <ele>6.31</ele>
        <time>2025-07-04T09:56:37.842Z</time>
      </trkpt>
      <trkpt lat="49.28521" lon="-0.14249">
        <ele>6.31</ele>
        <time>2025-07-04T09:56:38.223Z</time>
      </trkpt>
      <trkpt lat="49.28515" lon="-0.14296">
        <ele>6.32</ele>
        <time>2025-07-04T09:56:38.609Z</time>
      </trkpt>
      <trkpt lat="49.28508" lon="-0.14343">
        <ele>6.33</ele>
        <time>2025-07-04T09:56:39.000Z</time>
      </trkpt>
      <trkpt lat="49.28507" lon="-0.14354">
        <ele>6.33</ele>
        <time>2025-07-04T09:56:39.392Z</time>
      </trkpt>
      <trkpt lat="49.28498" lon="-0.144">
        <ele>6.3</ele>
        <time>2025-07-04T09:56:39.790Z</time>
      </trkpt>
      <trkpt lat="49.28493" lon="-0.1443">
        <ele>6.26</ele>
        <time>2025-07-04T09:56:40.191Z</time>
      </trkpt>
      <trkpt lat="49.28482" lon="-0.14475">
        <ele>6.28</ele>
        <time>2025-07-04T09:56:40.597Z</time>
      </trkpt>
      <trkpt lat="49.28473" lon="-0.14515">
        <ele>6.28</ele>
        <time>2025-07-04T09:56:41.007Z</time>
      </trkpt>
      <trkpt lat="49.28466" lon="-0.14558">
        <ele>6.27</ele>
        <time>2025-07-04T09:56:41.422Z</time>
      </trkpt>
      <trkpt lat="49.28463" lon="-0.14606">
        <ele>6.31</ele>
        <time>2025-07-04T09:56:41.842Z</time>
      </trkpt>
      <trkpt lat="49.28459" lon="-0.14654">
        <ele>6.3</ele>
        <time>2025-07-04T09:56:42.267Z</time>
      </trkpt>
      <trkpt lat="49.28456" lon="-0.14702">
        <ele>6.29</ele>
        <time>2025-07-04T09:56:42.697Z</time>
      </trkpt>
      <trkpt lat="49.28456" lon="-0.14702">
        <ele>6.29</ele>
        <time>2025-07-04T09:56:43.127Z</time>
      </trkpt>
      <trkpt lat="49.28453" lon="-0.1475">
        <ele>6.21</ele>
        <time>2025-07-04T09:56:43.562Z</time>
      </trkpt>
      <trkpt lat="49.2845" lon="-0.14798">
        <ele>6.16</ele>
        <time>2025-07-04T09:56:44.002Z</time>
      </trkpt>
      <trkpt lat="49.28447" lon="-0.14846">
        <ele>6.2</ele>
        <time>2025-07-04T09:56:44.447Z</time>
      </trkpt>
      <trkpt lat="49.28444" lon="-0.14894">
        <ele>6.22</ele>
        <time>2025-07-04T09:56:44.897Z</time>
      </trkpt>
      <trkpt lat="49.28442" lon="-0.14942">
        <ele>6.28</ele>
        <time>2025-07-04T09:56:45.352Z</time>
      </trkpt>
      <trkpt lat="49.2844" lon="-0.14967">
        <ele>6.3</ele>
        <time>2025-07-04T09:56:45.810Z</time>
      </trkpt>
      <trkpt lat="49.28437" lon="-0.15015">
        <ele>6.33</ele>
        <time>2025-07-04T09:56:46.273Z</time>
      </trkpt>
      <trkpt lat="49.28434" lon="-0.15063">
        <ele>6.43</ele>
        <time>2025-07-04T09:56:46.741Z</time>
      </trkpt>
      <trkpt lat="49.28433" lon="-0.15083">
        <ele>6.5</ele>
        <time>2025-07-04T09:56:47.211Z</time>
      </trkpt>
      <trkpt lat="49.28433" lon="-0.15131">
        <ele>6.53</ele>
        <time>2025-07-04T09:56:47.686Z</time>
      </trkpt>
      <trkpt lat="49.28433" lon="-0.15172">
        <ele>6.52</ele>
        <time>2025-07-04T09:56:48.165Z</time>
      </trkpt>
      <trkpt lat="49.28435" lon="-0.1522">
        <ele>6.56</ele>
        <time>2025-07-04T09:56:48.649Z</time>
      </trkpt>
      <trkpt lat="49.28436" lon="-0.15258">
        <ele>6.62</ele>
        <time>2025-07-04T09:56:49.137Z</time>
      </trkpt>
      <trkpt lat="49.28437" lon="-0.15306">
        <ele>6.63</ele>
        <time>2025-07-04T09:56:49.631Z</time>
      </trkpt>
      <trkpt lat="49.28439" lon="-0.15354">
        <ele>6.58</ele>
        <time>2025-07-04T09:56:50.130Z</time>
      </trkpt>
      <trkpt lat="49.2844" lon="-0.15402">
        <ele>6.6</ele>
        <time>2025-07-04T09:56:50.634Z</time>
      </trkpt>
      <trkpt lat="49.28441" lon="-0.1545">
        <ele>6.62</ele>
        <time>2025-07-04T09:56:51.143Z</time>
      </trkpt>
      <trkpt lat="49.28443" lon="-0.15498">
        <ele>6.69</ele>
        <time>2025-07-04T09:56:51.657Z</time>
      </trkpt>
      <trkpt lat="49.28443" lon="-0.15503">
        <ele>6.72</ele>
        <time>2025-07-04T09:56:52.171Z</time>
      </trkpt>
      <trkpt lat="49.28445" lon="-0.15551">
        <ele>6.81</ele>
        <time>2025-07-04T09:56:52.690Z</time>
      </trkpt>
      <trkpt lat="49.28447" lon="-0.15599">
        <ele>6.84</ele>
        <time>2025-07-04T09:56:53.214Z</time>
      </trkpt>
      <trkpt lat="49.28449" lon="-0.15647">
        <ele>6.88</ele>
        <time>2025-07-04T09:56:53.743Z</time>
      </trkpt>
      <trkpt lat="49.2845" lon="-0.15695">
        <ele>6.83</ele>
        <time>2025-07-04T09:56:54.277Z</time>
      </trkpt>
      <trkpt lat="49.28452" lon="-0.15743">
        <ele>6.83</ele>
        <time>2025-07-04T09:56:54.816Z</time>
      </trkpt>
      <trkpt lat="49.28454" lon="-0.15787">
        <ele>6.82</ele>
        <time>2025-07-04T09:56:55.360Z</time>
      </trkpt>
      <trkpt lat="49.28456" lon="-0.15835">
        <ele>6.92</ele>
        <time>2025-07-04T09:56:55.909Z</time>
      </trkpt>
      <trkpt lat="49.28457" lon="-0.15883">
        <ele>6.98</ele>
        <time>2025-07-04T09:56:56.463Z</time>
      </trkpt>
      <trkpt lat="49.28459" lon="-0.15931">
        <ele>7.03</ele>
        <time>2025-07-04T09:56:57.022Z</time>
      </trkpt>
      <trkpt lat="49.28459" lon="-0.15946">
        <ele>7.07</ele>
        <time>2025-07-04T09:56:57.583Z</time>
      </trkpt>
      <trkpt lat="49.28462" lon="-0.15994">
        <ele>7.09</ele>
        <time>2025-07-04T09:56:58.149Z</time>
      </trkpt>
      <trkpt lat="49.28465" lon="-0.16042">
        <ele>7.14</ele>
        <time>2025-07-04T09:56:58.720Z</time>
      </trkpt>
      <trkpt lat="49.28469" lon="-0.1609">
        <ele>7.23</ele>
        <time>2025-07-04T09:56:59.296Z</time>
      </trkpt>
      <trkpt lat="49.2847" lon="-0.16112">
        <ele>7.3</ele>
        <time>2025-07-04T09:56:59.874Z</time>
      </trkpt>
      <trkpt lat="49.28473" lon="-0.1616">
        <ele>7.36</ele>
        <time>2025-07-04T09:57:00.457Z</time>
      </trkpt>
      <trkpt lat="49.28474" lon="-0.16167">
        <ele>7.42</ele>
        <time>2025-07-04T09:57:01.041Z</time>
      </trkpt>
      <trkpt lat="49.28475" lon="-0.16212">
        <ele>7.42</ele>
        <time>2025-07-04T09:57:01.630Z</time>
      </trkpt>
      <trkpt lat="49.28471" lon="-0.16258">
        <ele>7.46</ele>
        <time>2025-07-04T09:57:02.224Z</time>
      </trkpt>
      <trkpt lat="49.28466" lon="-0.16305">
        <ele>7.56</ele>
        <time>2025-07-04T09:57:02.823Z</time>
      </trkpt>
      <trkpt lat="49.28465" lon="-0.16314">
        <ele>7.62</ele>
        <time>2025-07-04T09:57:03.422Z</time>
      </trkpt>
      <trkpt lat="49.28459" lon="-0.16361">
        <ele>7.67</ele>
        <time>2025-07-04T09:57:04.026Z</time>
      </trkpt>
      <trkpt lat="49.28454" lon="-0.16396">
        <ele>7.7</ele>
        <time>2025-07-04T09:57:04.634Z</time>
      </trkpt>
      <trkpt lat="49.2845" lon="-0.16444">
        <ele>7.74</ele>
        <time>2025-07-04T09:57:05.247Z</time>
      </trkpt>
      <trkpt lat="49.28447" lon="-0.16492">
        <ele>7.81</ele>
        <time>2025-07-04T09:57:05.865Z</time>
      </trkpt>
      <trkpt lat="49.28444" lon="-0.16539">
        <ele>7.92</ele>
        <time>2025-07-04T09:57:06.488Z</time>
      </trkpt>
      <trkpt lat="49.28442" lon="-0.1656">
        <ele>7.95</ele>
        <time>2025-07-04T09:57:07.114Z</time>
      </trkpt>
      <trkpt lat="49.28442" lon="-0.16594">
        <ele>7.98</ele>
        <time>2025-07-04T09:57:07.743Z</time>
      </trkpt>
      <trkpt lat="49.28445" lon="-0.16642">
        <ele>7.94</ele>
        <time>2025-07-04T09:57:08.377Z</time>
      </trkpt>
      <trkpt lat="49.28447" lon="-0.16687">
        <ele>7.89</ele>
        <time>2025-07-04T09:57:09.016Z</time>
      </trkpt>
      <trkpt lat="49.28449" lon="-0.16735">
        <ele>7.89</ele>
        <time>2025-07-04T09:57:09.660Z</time>
      </trkpt>
      <trkpt lat="49.28449" lon="-0.1675">
        <ele>7.87</ele>
        <time>2025-07-04T09:57:10.305Z</time>
      </trkpt>
      <trkpt lat="49.28446" lon="-0.16798">
        <ele>7.82</ele>
        <time>2025-07-04T09:57:10.955Z</time>
      </trkpt>
      <trkpt lat="49.28446" lon="-0.16804">
        <ele>7.8</ele>
        <time>2025-07-04T09:57:11.606Z</time>
      </trkpt>
      <trkpt lat="49.28441" lon="-0.16851">
        <ele>7.83</ele>
        <time>2025-07-04T09:57:12.262Z</time>
      </trkpt>
      <trkpt lat="49.28435" lon="-0.16899">
        <ele>7.82</ele>
        <time>2025-07-04T09:57:12.923Z</time>
      </trkpt>
      <trkpt lat="49.28433" lon="-0.16917">
        <ele>7.78</ele>
        <time>2025-07-04T09:57:13.586Z</time>
      </trkpt>
      <trkpt lat="49.28429" lon="-0.16955">
        <ele>7.77</ele>
        <time>2025-07-04T09:57:14.253Z</time>
      </trkpt>
      <trkpt lat="49.28428" lon="-0.17003">
        <ele>7.75</ele>
        <time>2025-07-04T09:57:14.925Z</time>
      </trkpt>
      <trkpt lat="49.28428" lon="-0.17008">
        <ele>7.72</ele>
        <time>2025-07-04T09:57:15.598Z</time>
      </trkpt>
      <trkpt lat="49.28433" lon="-0.17056">
        <ele>7.68</ele>
        <time>2025-07-04T09:57:16.276Z</time>
      </trkpt>
      <trkpt lat="49.28436" lon="-0.17089">
        <ele>7.59</ele>
        <time>2025-07-04T09:57:16.957Z</time>
      </trkpt>
      <trkpt lat="49.28442" lon="-0.17136">
        <ele>7.46</ele>
        <time>2025-07-04T09:57:17.643Z</time>
      </trkpt>
      <trkpt lat="49.28447" lon="-0.17184">
        <ele>7.36</ele>
        <time>2025-07-04T09:57:18.334Z</time>
      </trkpt>
      <trkpt lat="49.28453" lon="-0.17231">
        <ele>7.3</ele>
        <time>2025-07-04T09:57:19.030Z</time>
      </trkpt>
      <trkpt lat="49.28458" lon="-0.17278">
        <ele>7.3</ele>
        <time>2025-07-04T09:57:19.731Z</time>
      </trkpt>
      <trkpt lat="49.2846" lon="-0.17291">
        <ele>7.23</ele>
        <time>2025-07-04T09:57:20.434Z</time>
      </trkpt>
      <trkpt lat="49.28466" lon="-0.17338">
        <ele>7.16</ele>
        <time>2025-07-04T09:57:21.142Z</time>
      </trkpt>
      <trkpt lat="49.28471" lon="-0.17386">
        <ele>7.04</ele>
        <time>2025-07-04T09:57:21.855Z</time>
      </trkpt>
      <trkpt lat="49.28477" lon="-0.17433">
        <ele>6.97</ele>
        <time>2025-07-04T09:57:22.573Z</time>
      </trkpt>
      <trkpt lat="49.28479" lon="-0.17451">
        <ele>6.88</ele>
        <time>2025-07-04T09:57:23.293Z</time>
      </trkpt>
      <trkpt lat="49.28484" lon="-0.17498">
        <ele>6.81</ele>
        <time>2025-07-04T09:57:24.018Z</time>
      </trkpt>
      <trkpt lat="49.2849" lon="-0.17546">
        <ele>6.7</ele>
        <time>2025-07-04T09:57:24.748Z</time>
      </trkpt>
      <trkpt lat="49.28495" lon="-0.17589">
        <ele>6.59</ele>
        <time>2025-07-04T09:57:25.483Z</time>
      </trkpt>
      <trkpt lat="49.28496" lon="-0.17613">
        <ele>6.46</ele>
        <time>2025-07-04T09:57:26.220Z</time>
      </trkpt>
      <trkpt lat="49.28496" lon="-0.1765">
        <ele>6.35</ele>
        <time>2025-07-04T09:57:26.961Z</time>
      </trkpt>
      <trkpt lat="49.28491" lon="-0.17698">
        <ele>6.22</ele>
        <time>2025-07-04T09:57:27.707Z</time>
      </trkpt>
      <trkpt lat="49.28491" lon="-0.177">
        <ele>6.09</ele>
        <time>2025-07-04T09:57:28.453Z</time>
      </trkpt>
      <trkpt lat="49.28484" lon="-0.17747">
        <ele>6</ele>
        <time>2025-07-04T09:57:29.204Z</time>
      </trkpt>
      <trkpt lat="49.28477" lon="-0.17794">
        <ele>5.88</ele>
        <time>2025-07-04T09:57:29.960Z</time>
      </trkpt>
      <trkpt lat="49.28476" lon="-0.178">
        <ele>5.74</ele>
        <time>2025-07-04T09:57:30.717Z</time>
      </trkpt>
      <trkpt lat="49.28471" lon="-0.17797">
        <ele>5.6</ele>
        <time>2025-07-04T09:57:31.475Z</time>
      </trkpt>
      <trkpt lat="49.28466" lon="-0.17798">
        <ele>5.45</ele>
        <time>2025-07-04T09:57:32.234Z</time>
      </trkpt>
      <trkpt lat="49.28456" lon="-0.17804">
        <ele>5.3</ele>
        <time>2025-07-04T09:57:32.994Z</time>
      </trkpt>
      <trkpt lat="49.2843" lon="-0.1783">
        <ele>5.12</ele>
        <time>2025-07-04T09:57:33.759Z</time>
      </trkpt>
      <trkpt lat="49.28403" lon="-0.17856">
        <ele>4.9</ele>
        <time>2025-07-04T09:57:34.529Z</time>
      </trkpt>
      <trkpt lat="49.28396" lon="-0.17863">
        <ele>4.73</ele>
        <time>2025-07-04T09:57:35.301Z</time>
      </trkpt>
      <trkpt lat="49.28369" lon="-0.17889">
        <ele>4.55</ele>
        <time>2025-07-04T09:57:36.078Z</time>
      </trkpt>
      <trkpt lat="49.28343" lon="-0.17914">
        <ele>4.37</ele>
        <time>2025-07-04T09:57:36.860Z</time>
      </trkpt>
      <trkpt lat="49.28335" lon="-0.17922">
        <ele>4.2</ele>
        <time>2025-07-04T09:57:37.643Z</time>
      </trkpt>
      <trkpt lat="49.28308" lon="-0.17948">
        <ele>4.05</ele>
        <time>2025-07-04T09:57:38.431Z</time>
      </trkpt>
      <trkpt lat="49.28282" lon="-0.17973">
        <ele>3.89</ele>
        <time>2025-07-04T09:57:39.224Z</time>
      </trkpt>
      <trkpt lat="49.28255" lon="-0.17999">
        <ele>3.73</ele>
        <time>2025-07-04T09:57:40.022Z</time>
      </trkpt>
      <trkpt lat="49.28228" lon="-0.18024">
        <ele>3.58</ele>
        <time>2025-07-04T09:57:40.826Z</time>
      </trkpt>
      <trkpt lat="49.28202" lon="-0.1805">
        <ele>3.46</ele>
        <time>2025-07-04T09:57:41.635Z</time>
      </trkpt>
      <trkpt lat="49.28175" lon="-0.18075">
        <ele>3.34</ele>
        <time>2025-07-04T09:57:42.449Z</time>
      </trkpt>
      <trkpt lat="49.28148" lon="-0.18101">
        <ele>3.19</ele>
        <time>2025-07-04T09:57:43.268Z</time>
      </trkpt>
      <trkpt lat="49.28122" lon="-0.18126">
        <ele>3.04</ele>
        <time>2025-07-04T09:57:44.092Z</time>
      </trkpt>
      <trkpt lat="49.28106" lon="-0.18141">
        <ele>2.9</ele>
        <time>2025-07-04T09:57:44.919Z</time>
      </trkpt>
      <trkpt lat="49.28079" lon="-0.18167">
        <ele>2.79</ele>
        <time>2025-07-04T09:57:45.751Z</time>
      </trkpt>
      <trkpt lat="49.28053" lon="-0.18193">
        <ele>2.66</ele>
        <time>2025-07-04T09:57:46.588Z</time>
      </trkpt>
      <trkpt lat="49.28026" lon="-0.18218">
        <ele>2.57</ele>
        <time>2025-07-04T09:57:47.430Z</time>
      </trkpt>
      <trkpt lat="49.28" lon="-0.18244">
        <ele>2.53</ele>
        <time>2025-07-04T09:57:48.277Z</time>
      </trkpt>
      <trkpt lat="49.27973" lon="-0.1827">
        <ele>2.47</ele>
        <time>2025-07-04T09:57:49.129Z</time>
      </trkpt>
      <trkpt lat="49.27947" lon="-0.18296">
        <ele>2.38</ele>
        <time>2025-07-04T09:57:49.986Z</time>
      </trkpt>
      <trkpt lat="49.2792" lon="-0.18321">
        <ele>2.33</ele>
        <time>2025-07-04T09:57:50.848Z</time>
      </trkpt>
      <trkpt lat="49.27893" lon="-0.18347">
        <ele>2.3</ele>
        <time>2025-07-04T09:57:51.715Z</time>
      </trkpt>
      <trkpt lat="49.27867" lon="-0.18373">
        <ele>2.29</ele>
        <time>2025-07-04T09:57:52.587Z</time>
      </trkpt>
      <trkpt lat="49.2784" lon="-0.18399">
        <ele>2.34</ele>
        <time>2025-07-04T09:57:53.464Z</time>
      </trkpt>
      <trkpt lat="49.27814" lon="-0.18425">
        <ele>2.4</ele>
        <time>2025-07-04T09:57:54.346Z</time>
      </trkpt>
      <trkpt lat="49.27787" lon="-0.1845">
        <ele>2.44</ele>
        <time>2025-07-04T09:57:55.233Z</time>
      </trkpt>
      <trkpt lat="49.27766" lon="-0.18471">
        <ele>2.49</ele>
        <time>2025-07-04T09:57:56.124Z</time>
      </trkpt>
      <trkpt lat="49.27739" lon="-0.18497">
        <ele>2.55</ele>
        <time>2025-07-04T09:57:57.020Z</time>
      </trkpt>
      <trkpt lat="49.27713" lon="-0.18522">
        <ele>2.6</ele>
        <time>2025-07-04T09:57:57.921Z</time>
      </trkpt>
      <trkpt lat="49.27686" lon="-0.18548">
        <ele>2.71</ele>
        <time>2025-07-04T09:57:58.827Z</time>
      </trkpt>
      <trkpt lat="49.2766" lon="-0.18574">
        <ele>2.83</ele>
        <time>2025-07-04T09:57:59.738Z</time>
      </trkpt>
      <trkpt lat="49.27633" lon="-0.18599">
        <ele>2.94</ele>
        <time>2025-07-04T09:58:00.654Z</time>
      </trkpt>
      <trkpt lat="49.27627" lon="-0.18605">
        <ele>3.09</ele>
        <time>2025-07-04T09:58:01.571Z</time>
      </trkpt>
      <trkpt lat="49.276" lon="-0.1863">
        <ele>3.28</ele>
        <time>2025-07-04T09:58:02.493Z</time>
      </trkpt>
      <trkpt lat="49.27573" lon="-0.18655">
        <ele>3.52</ele>
        <time>2025-07-04T09:58:03.421Z</time>
      </trkpt>
      <trkpt lat="49.27547" lon="-0.18681">
        <ele>3.72</ele>
        <time>2025-07-04T09:58:04.354Z</time>
      </trkpt>
      <trkpt lat="49.27526" lon="-0.187">
        <ele>3.97</ele>
        <time>2025-07-04T09:58:05.290Z</time>
      </trkpt>
      <trkpt lat="49.27499" lon="-0.18726">
        <ele>4.22</ele>
        <time>2025-07-04T09:58:06.231Z</time>
      </trkpt>
      <trkpt lat="49.27473" lon="-0.18751">
        <ele>4.47</ele>
        <time>2025-07-04T09:58:07.178Z</time>
      </trkpt>
      <trkpt lat="49.27446" lon="-0.18777">
        <ele>4.81</ele>
        <time>2025-07-04T09:58:08.130Z</time>
      </trkpt>
      <trkpt lat="49.27432" lon="-0.18791">
        <ele>5.16</ele>
        <time>2025-07-04T09:58:09.084Z</time>
      </trkpt>
      <trkpt lat="49.27405" lon="-0.18815">
        <ele>5.57</ele>
        <time>2025-07-04T09:58:10.043Z</time>
      </trkpt>
      <trkpt lat="49.27378" lon="-0.1884">
        <ele>5.97</ele>
        <time>2025-07-04T09:58:11.007Z</time>
      </trkpt>
      <trkpt lat="49.2737" lon="-0.18847">
        <ele>6.34</ele>
        <time>2025-07-04T09:58:11.973Z</time>
      </trkpt>
      <trkpt lat="49.27344" lon="-0.18873">
        <ele>6.69</ele>
        <time>2025-07-04T09:58:12.944Z</time>
      </trkpt>
      <trkpt lat="49.27317" lon="-0.18899">
        <ele>7.09</ele>
        <time>2025-07-04T09:58:13.920Z</time>
      </trkpt>
      <trkpt lat="49.27291" lon="-0.18924">
        <ele>7.54</ele>
        <time>2025-07-04T09:58:14.901Z</time>
      </trkpt>
      <trkpt lat="49.27264" lon="-0.1895">
        <ele>8.01</ele>
        <time>2025-07-04T09:58:15.887Z</time>
      </trkpt>
      <trkpt lat="49.27251" lon="-0.18962">
        <ele>8.47</ele>
        <time>2025-07-04T09:58:16.875Z</time>
      </trkpt>
      <trkpt lat="49.27225" lon="-0.18988">
        <ele>8.97</ele>
        <time>2025-07-04T09:58:17.868Z</time>
      </trkpt>
      <trkpt lat="49.27198" lon="-0.19015">
        <ele>9.48</ele>
        <time>2025-07-04T09:58:18.866Z</time>
      </trkpt>
      <trkpt lat="49.27196" lon="-0.19017">
        <ele>9.9</ele>
        <time>2025-07-04T09:58:19.865Z</time>
      </trkpt>
      <trkpt lat="49.27177" lon="-0.19033">
        <ele>10.32</ele>
        <time>2025-07-04T09:58:20.867Z</time>
      </trkpt>
      <trkpt lat="49.27149" lon="-0.19056">
        <ele>10.7</ele>
        <time>2025-07-04T09:58:21.874Z</time>
      </trkpt>
      <trkpt lat="49.2714" lon="-0.19063">
        <ele>11.08</ele>
        <time>2025-07-04T09:58:22.883Z</time>
      </trkpt>
      <trkpt lat="49.2712" lon="-0.19073">
        <ele>11.48</ele>
        <time>2025-07-04T09:58:23.895Z</time>
      </trkpt>
      <trkpt lat="49.27092" lon="-0.19095">
        <ele>11.93</ele>
        <time>2025-07-04T09:58:24.912Z</time>
      </trkpt>
      <trkpt lat="49.27064" lon="-0.19118">
        <ele>12.32</ele>
        <time>2025-07-04T09:58:25.935Z</time>
      </trkpt>
      <trkpt lat="49.27064" lon="-0.19118">
        <ele>12.63</ele>
        <time>2025-07-04T09:58:26.958Z</time>
      </trkpt>
      <trkpt lat="49.27036" lon="-0.1914">
        <ele>12.93</ele>
        <time>2025-07-04T09:58:27.986Z</time>
      </trkpt>
      <trkpt lat="49.27008" lon="-0.19162">
        <ele>13.18</ele>
        <time>2025-07-04T09:58:29.019Z</time>
      </trkpt>
      <trkpt lat="49.26987" lon="-0.19178">
        <ele>13.42</ele>
        <time>2025-07-04T09:58:30.055Z</time>
      </trkpt>
      <trkpt lat="49.26959" lon="-0.192">
        <ele>13.62</ele>
        <time>2025-07-04T09:58:31.096Z</time>
      </trkpt>
      <trkpt lat="49.26948" lon="-0.19209">
        <ele>13.82</ele>
        <time>2025-07-04T09:58:32.139Z</time>
      </trkpt>
      <trkpt lat="49.26921" lon="-0.19233">
        <ele>14.06</ele>
        <time>2025-07-04T09:58:33.187Z</time>
      </trkpt>
      <trkpt lat="49.26906" lon="-0.19246">
        <ele>14.26</ele>
        <time>2025-07-04T09:58:34.238Z</time>
      </trkpt>
      <trkpt lat="49.26878" lon="-0.19268">
        <ele>14.41</ele>
        <time>2025-07-04T09:58:35.294Z</time>
      </trkpt>
      <trkpt lat="49.26865" lon="-0.19279">
        <ele>14.53</ele>
        <time>2025-07-04T09:58:36.353Z</time>
      </trkpt>
      <trkpt lat="49.26837" lon="-0.19301">
        <ele>14.6</ele>
        <time>2025-07-04T09:58:37.417Z</time>
      </trkpt>
      <trkpt lat="49.26816" lon="-0.19318">
        <ele>14.7</ele>
        <time>2025-07-04T09:58:38.484Z</time>
      </trkpt>
      <trkpt lat="49.26788" lon="-0.19339">
        <ele>14.79</ele>
        <time>2025-07-04T09:58:39.557Z</time>
      </trkpt>
      <trkpt lat="49.26759" lon="-0.19359">
        <ele>14.88</ele>
        <time>2025-07-04T09:58:40.635Z</time>
      </trkpt>
      <trkpt lat="49.26731" lon="-0.1938">
        <ele>14.95</ele>
        <time>2025-07-04T09:58:41.718Z</time>
      </trkpt>
      <trkpt lat="49.26723" lon="-0.19385">
        <ele>15.02</ele>
        <time>2025-07-04T09:58:42.802Z</time>
      </trkpt>
      <trkpt lat="49.26695" lon="-0.19407">
        <ele>15.06</ele>
        <time>2025-07-04T09:58:43.891Z</time>
      </trkpt>
      <trkpt lat="49.26667" lon="-0.19429">
        <ele>15.11</ele>
        <time>2025-07-04T09:58:44.985Z</time>
      </trkpt>
      <trkpt lat="49.26639" lon="-0.19451">
        <ele>15.17</ele>
        <time>2025-07-04T09:58:46.084Z</time>
      </trkpt>
      <trkpt lat="49.26637" lon="-0.19453">
        <ele>15.24</ele>
        <time>2025-07-04T09:58:47.183Z</time>
      </trkpt>
      <trkpt lat="49.26611" lon="-0.19479">
        <ele>15.33</ele>
        <time>2025-07-04T09:58:48.287Z</time>
      </trkpt>
      <trkpt lat="49.26585" lon="-0.19505">
        <ele>15.41</ele>
        <time>2025-07-04T09:58:49.396Z</time>
      </trkpt>
      <trkpt lat="49.26561" lon="-0.19535">
        <ele>15.51</ele>
        <time>2025-07-04T09:58:50.510Z</time>
      </trkpt>
      <trkpt lat="49.26536" lon="-0.19566">
        <ele>15.6</ele>
        <time>2025-07-04T09:58:51.629Z</time>
      </trkpt>
      <trkpt lat="49.26532" lon="-0.19571">
        <ele>15.69</ele>
        <time>2025-07-04T09:58:52.749Z</time>
      </trkpt>
      <trkpt lat="49.26515" lon="-0.19587">
        <ele>15.77</ele>
        <time>2025-07-04T09:58:53.873Z</time>
      </trkpt>
      <trkpt lat="49.26486" lon="-0.19607">
        <ele>15.87</ele>
        <time>2025-07-04T09:58:55.002Z</time>
      </trkpt>
      <trkpt lat="49.2648" lon="-0.19611">
        <ele>15.97</ele>
        <time>2025-07-04T09:58:56.132Z</time>
      </trkpt>
      <trkpt lat="49.26456" lon="-0.19625">
        <ele>16.08</ele>
        <time>2025-07-04T09:58:57.266Z</time>
      </trkpt>
      <trkpt lat="49.26426" lon="-0.19642">
        <ele>16.21</ele>
        <time>2025-07-04T09:58:58.405Z</time>
      </trkpt>
      <trkpt lat="49.26406" lon="-0.19653">
        <ele>16.37</ele>
        <time>2025-07-04T09:58:59.547Z</time>
      </trkpt>
      <trkpt lat="49.26376" lon="-0.19668">
        <ele>16.56</ele>
        <time>2025-07-04T09:59:00.694Z</time>
      </trkpt>
      <trkpt lat="49.26346" lon="-0.19683">
        <ele>16.77</ele>
        <time>2025-07-04T09:59:01.846Z</time>
      </trkpt>
      <trkpt lat="49.26316" lon="-0.19698">
        <ele>16.96</ele>
        <time>2025-07-04T09:59:03.003Z</time>
      </trkpt>
      <trkpt lat="49.26287" lon="-0.19712">
        <ele>17.11</ele>
        <time>2025-07-04T09:59:04.165Z</time>
      </trkpt>
      <trkpt lat="49.26269" lon="-0.19724">
        <ele>17.27</ele>
        <time>2025-07-04T09:59:05.331Z</time>
      </trkpt>
      <trkpt lat="49.26242" lon="-0.19748">
        <ele>17.44</ele>
        <time>2025-07-04T09:59:06.502Z</time>
      </trkpt>
      <trkpt lat="49.26214" lon="-0.19771">
        <ele>17.62</ele>
        <time>2025-07-04T09:59:07.678Z</time>
      </trkpt>
      <trkpt lat="49.26211" lon="-0.19774">
        <ele>17.81</ele>
        <time>2025-07-04T09:59:08.854Z</time>
      </trkpt>
      <trkpt lat="49.26193" lon="-0.19794">
        <ele>18</ele>
        <time>2025-07-04T09:59:10.034Z</time>
      </trkpt>
      <trkpt lat="49.26175" lon="-0.19819">
        <ele>18.19</ele>
        <time>2025-07-04T09:59:11.218Z</time>
      </trkpt>
      <trkpt lat="49.2616" lon="-0.19841">
        <ele>18.38</ele>
        <time>2025-07-04T09:59:12.405Z</time>
      </trkpt>
      <trkpt lat="49.26139" lon="-0.19876">
        <ele>18.61</ele>
        <time>2025-07-04T09:59:13.597Z</time>
      </trkpt>
      <trkpt lat="49.26117" lon="-0.19911">
        <ele>18.85</ele>
        <time>2025-07-04T09:59:14.794Z</time>
      </trkpt>
      <trkpt lat="49.26101" lon="-0.19938">
        <ele>19.1</ele>
        <time>2025-07-04T09:59:15.995Z</time>
      </trkpt>
      <trkpt lat="49.2608" lon="-0.19974">
        <ele>19.34</ele>
        <time>2025-07-04T09:59:17.201Z</time>
      </trkpt>
      <trkpt lat="49.26066" lon="-0.19997">
        <ele>19.61</ele>
        <time>2025-07-04T09:59:18.410Z</time>
      </trkpt>
      <trkpt lat="49.26045" lon="-0.20032">
        <ele>19.94</ele>
        <time>2025-07-04T09:59:19.624Z</time>
      </trkpt>
      <trkpt lat="49.26023" lon="-0.20068">
        <ele>20.28</ele>
        <time>2025-07-04T09:59:20.843Z</time>
      </trkpt>
      <trkpt lat="49.26009" lon="-0.20091">
        <ele>20.58</ele>
        <time>2025-07-04T09:59:22.066Z</time>
      </trkpt>
      <trkpt lat="49.25985" lon="-0.20123">
        <ele>20.92</ele>
        <time>2025-07-04T09:59:23.294Z</time>
      </trkpt>
      <trkpt lat="49.25962" lon="-0.20154">
        <ele>21.32</ele>
        <time>2025-07-04T09:59:24.527Z</time>
      </trkpt>
      <trkpt lat="49.25944" lon="-0.20178">
        <ele>21.73</ele>
        <time>2025-07-04T09:59:25.763Z</time>
      </trkpt>
      <trkpt lat="49.2592" lon="-0.20208">
        <ele>22.19</ele>
        <time>2025-07-04T09:59:27.005Z</time>
      </trkpt>
      <trkpt lat="49.25912" lon="-0.20218">
        <ele>22.61</ele>
        <time>2025-07-04T09:59:28.248Z</time>
      </trkpt>
      <trkpt lat="49.25888" lon="-0.20248">
        <ele>23.06</ele>
        <time>2025-07-04T09:59:29.496Z</time>
      </trkpt>
      <trkpt lat="49.25863" lon="-0.20279">
        <ele>23.51</ele>
        <time>2025-07-04T09:59:30.749Z</time>
      </trkpt>
      <trkpt lat="49.25842" lon="-0.20305">
        <ele>23.95</ele>
        <time>2025-07-04T09:59:32.007Z</time>
      </trkpt>
      <trkpt lat="49.25817" lon="-0.20335">
        <ele>24.4</ele>
        <time>2025-07-04T09:59:33.270Z</time>
      </trkpt>
      <trkpt lat="49.25793" lon="-0.20364">
        <ele>24.87</ele>
        <time>2025-07-04T09:59:34.538Z</time>
      </trkpt>
      <trkpt lat="49.25768" lon="-0.20394">
        <ele>25.36</ele>
        <time>2025-07-04T09:59:35.811Z</time>
      </trkpt>
      <trkpt lat="49.25757" lon="-0.20407">
        <ele>25.83</ele>
        <time>2025-07-04T09:59:37.086Z</time>
      </trkpt>
      <trkpt lat="49.25732" lon="-0.20437">
        <ele>26.31</ele>
        <time>2025-07-04T09:59:38.366Z</time>
      </trkpt>
      <trkpt lat="49.25708" lon="-0.20467">
        <ele>26.7</ele>
        <time>2025-07-04T09:59:39.651Z</time>
      </trkpt>
      <trkpt lat="49.25694" lon="-0.20484">
        <ele>27.1</ele>
        <time>2025-07-04T09:59:40.939Z</time>
      </trkpt>
      <trkpt lat="49.25669" lon="-0.20513">
        <ele>27.53</ele>
        <time>2025-07-04T09:59:42.232Z</time>
      </trkpt>
      <trkpt lat="49.25655" lon="-0.20529">
        <ele>27.95</ele>
        <time>2025-07-04T09:59:43.528Z</time>
      </trkpt>
      <trkpt lat="49.25628" lon="-0.20555">
        <ele>28.35</ele>
        <time>2025-07-04T09:59:44.829Z</time>
      </trkpt>
      <trkpt lat="49.2562" lon="-0.20563">
        <ele>28.75</ele>
        <time>2025-07-04T09:59:46.131Z</time>
      </trkpt>
      <trkpt lat="49.25593" lon="-0.20589">
        <ele>29.17</ele>
        <time>2025-07-04T09:59:47.438Z</time>
      </trkpt>
      <trkpt lat="49.25585" lon="-0.20597">
        <ele>29.55</ele>
        <time>2025-07-04T09:59:48.747Z</time>
      </trkpt>
      <trkpt lat="49.2556" lon="-0.20627">
        <ele>29.95</ele>
        <time>2025-07-04T09:59:50.061Z</time>
      </trkpt>
      <trkpt lat="49.2555" lon="-0.20639">
        <ele>30.33</ele>
        <time>2025-07-04T09:59:51.377Z</time>
      </trkpt>
      <trkpt lat="49.25526" lon="-0.2067">
        <ele>30.72</ele>
        <time>2025-07-04T09:59:52.698Z</time>
      </trkpt>
      <trkpt lat="49.25517" lon="-0.20682">
        <ele>31.03</ele>
        <time>2025-07-04T09:59:54.021Z</time>
      </trkpt>
      <trkpt lat="49.255" lon="-0.20697">
        <ele>31.33</ele>
        <time>2025-07-04T09:59:55.347Z</time>
      </trkpt>
      <trkpt lat="49.25472" lon="-0.20718">
        <ele>31.62</ele>
        <time>2025-07-04T09:59:56.678Z</time>
      </trkpt>
      <trkpt lat="49.25444" lon="-0.2074">
        <ele>31.9</ele>
        <time>2025-07-04T09:59:58.014Z</time>
      </trkpt>
      <trkpt lat="49.25415" lon="-0.20761">
        <ele>32.19</ele>
        <time>2025-07-04T09:59:59.355Z</time>
      </trkpt>
      <trkpt lat="49.25387" lon="-0.20782">
        <ele>32.48</ele>
        <time>2025-07-04T10:00:00.701Z</time>
      </trkpt>
      <trkpt lat="49.25373" lon="-0.20793">
        <ele>32.72</ele>
        <time>2025-07-04T10:00:02.050Z</time>
      </trkpt>
      <trkpt lat="49.25343" lon="-0.20809">
        <ele>32.9</ele>
        <time>2025-07-04T10:00:03.404Z</time>
      </trkpt>
      <trkpt lat="49.25314" lon="-0.20825">
        <ele>33.04</ele>
        <time>2025-07-04T10:00:04.763Z</time>
      </trkpt>
      <trkpt lat="49.25309" lon="-0.20827">
        <ele>33.24</ele>
        <time>2025-07-04T10:00:06.123Z</time>
      </trkpt>
      <trkpt lat="49.25279" lon="-0.20843">
        <ele>33.44</ele>
        <time>2025-07-04T10:00:07.488Z</time>
      </trkpt>
      <trkpt lat="49.2525" lon="-0.20859">
        <ele>33.65</ele>
        <time>2025-07-04T10:00:08.858Z</time>
      </trkpt>
      <trkpt lat="49.25228" lon="-0.2087">
        <ele>33.83</ele>
        <time>2025-07-04T10:00:10.231Z</time>
      </trkpt>
      <trkpt lat="49.25199" lon="-0.20887">
        <ele>34.02</ele>
        <time>2025-07-04T10:00:11.609Z</time>
      </trkpt>
      <trkpt lat="49.25169" lon="-0.20905">
        <ele>34.24</ele>
        <time>2025-07-04T10:00:12.992Z</time>
      </trkpt>
      <trkpt lat="49.2514" lon="-0.20922">
        <ele>34.46</ele>
        <time>2025-07-04T10:00:14.380Z</time>
      </trkpt>
      <trkpt lat="49.25135" lon="-0.20925">
        <ele>34.67</ele>
        <time>2025-07-04T10:00:15.769Z</time>
      </trkpt>
      <trkpt lat="49.25106" lon="-0.20945">
        <ele>34.9</ele>
        <time>2025-07-04T10:00:17.163Z</time>
      </trkpt>
      <trkpt lat="49.25078" lon="-0.20964">
        <ele>35.13</ele>
        <time>2025-07-04T10:00:18.562Z</time>
      </trkpt>
      <trkpt lat="49.25049" lon="-0.20984">
        <ele>35.48</ele>
        <time>2025-07-04T10:00:19.966Z</time>
      </trkpt>
      <trkpt lat="49.25031" lon="-0.20998">
        <ele>35.78</ele>
        <time>2025-07-04T10:00:21.374Z</time>
      </trkpt>
      <trkpt lat="49.25005" lon="-0.21024">
        <ele>36.07</ele>
        <time>2025-07-04T10:00:22.787Z</time>
      </trkpt>
      <trkpt lat="49.25004" lon="-0.21025">
        <ele>36.37</ele>
        <time>2025-07-04T10:00:24.200Z</time>
      </trkpt>
      <trkpt lat="49.24982" lon="-0.21049">
        <ele>36.68</ele>
        <time>2025-07-04T10:00:25.617Z</time>
      </trkpt>
      <trkpt lat="49.24959" lon="-0.2107">
        <ele>37.06</ele>
        <time>2025-07-04T10:00:27.038Z</time>
      </trkpt>
      <trkpt lat="49.24941" lon="-0.21082">
        <ele>37.39</ele>
        <time>2025-07-04T10:00:28.463Z</time>
      </trkpt>
      <trkpt lat="49.24911" lon="-0.21098">
        <ele>37.69</ele>
        <time>2025-07-04T10:00:29.893Z</time>
      </trkpt>
      <trkpt lat="49.24881" lon="-0.21113">
        <ele>38.06</ele>
        <time>2025-07-04T10:00:31.328Z</time>
      </trkpt>
      <trkpt lat="49.24874" lon="-0.21117">
        <ele>38.5</ele>
        <time>2025-07-04T10:00:32.764Z</time>
      </trkpt>
      <trkpt lat="49.24852" lon="-0.21129">
        <ele>38.99</ele>
        <time>2025-07-04T10:00:34.204Z</time>
      </trkpt>
      <trkpt lat="49.24823" lon="-0.21147">
        <ele>39.54</ele>
        <time>2025-07-04T10:00:35.649Z</time>
      </trkpt>
      <trkpt lat="49.24794" lon="-0.21167">
        <ele>40.09</ele>
        <time>2025-07-04T10:00:37.099Z</time>
      </trkpt>
      <trkpt lat="49.24765" lon="-0.21186">
        <ele>40.68</ele>
        <time>2025-07-04T10:00:38.554Z</time>
      </trkpt>
      <trkpt lat="49.24745" lon="-0.212">
        <ele>41.24</ele>
        <time>2025-07-04T10:00:40.012Z</time>
      </trkpt>
      <trkpt lat="49.24717" lon="-0.21221">
        <ele>41.79</ele>
        <time>2025-07-04T10:00:41.475Z</time>
      </trkpt>
      <trkpt lat="49.24688" lon="-0.21241">
        <ele>42.38</ele>
        <time>2025-07-04T10:00:42.943Z</time>
      </trkpt>
      <trkpt lat="49.24672" lon="-0.21253">
        <ele>42.98</ele>
        <time>2025-07-04T10:00:44.414Z</time>
      </trkpt>
      <trkpt lat="49.24661" lon="-0.21267">
        <ele>43.59</ele>
        <time>2025-07-04T10:00:45.888Z</time>
      </trkpt>
      <trkpt lat="49.24643" lon="-0.2129">
        <ele>44.23</ele>
        <time>2025-07-04T10:00:47.365Z</time>
      </trkpt>
      <trkpt lat="49.24623" lon="-0.21327">
        <ele>44.96</ele>
        <time>2025-07-04T10:00:48.847Z</time>
      </trkpt>
      <trkpt lat="49.24604" lon="-0.2136">
        <ele>45.63</ele>
        <time>2025-07-04T10:00:50.334Z</time>
      </trkpt>
      <trkpt lat="49.24585" lon="-0.21399">
        <ele>46.31</ele>
        <time>2025-07-04T10:00:51.826Z</time>
      </trkpt>
      <trkpt lat="49.24577" lon="-0.21416">
        <ele>47</ele>
        <time>2025-07-04T10:00:53.320Z</time>
      </trkpt>
      <trkpt lat="49.24557" lon="-0.21453">
        <ele>47.7</ele>
        <time>2025-07-04T10:00:54.819Z</time>
      </trkpt>
      <trkpt lat="49.24537" lon="-0.21491">
        <ele>48.41</ele>
        <time>2025-07-04T10:00:56.323Z</time>
      </trkpt>
      <trkpt lat="49.24518" lon="-0.21528">
        <ele>49.13</ele>
        <time>2025-07-04T10:00:57.832Z</time>
      </trkpt>
      <trkpt lat="49.24498" lon="-0.21565">
        <ele>49.85</ele>
        <time>2025-07-04T10:00:59.346Z</time>
      </trkpt>
      <trkpt lat="49.24489" lon="-0.21582">
        <ele>50.6</ele>
        <time>2025-07-04T10:01:00.863Z</time>
      </trkpt>
      <trkpt lat="49.24469" lon="-0.21619">
        <ele>51.41</ele>
        <time>2025-07-04T10:01:02.385Z</time>
      </trkpt>
      <trkpt lat="49.2445" lon="-0.21657">
        <ele>52.25</ele>
        <time>2025-07-04T10:01:03.912Z</time>
      </trkpt>
      <trkpt lat="49.2443" lon="-0.21694">
        <ele>53</ele>
        <time>2025-07-04T10:01:05.444Z</time>
      </trkpt>
      <trkpt lat="49.2441" lon="-0.21732">
        <ele>53.73</ele>
        <time>2025-07-04T10:01:06.981Z</time>
      </trkpt>
      <trkpt lat="49.2439" lon="-0.21769">
        <ele>54.47</ele>
        <time>2025-07-04T10:01:08.523Z</time>
      </trkpt>
      <trkpt lat="49.24371" lon="-0.21807">
        <ele>55.15</ele>
        <time>2025-07-04T10:01:10.070Z</time>
      </trkpt>
      <trkpt lat="49.24351" lon="-0.21844">
        <ele>55.77</ele>
        <time>2025-07-04T10:01:11.622Z</time>
      </trkpt>
      <trkpt lat="49.24338" lon="-0.21869">
        <ele>56.38</ele>
        <time>2025-07-04T10:01:13.177Z</time>
      </trkpt>
      <trkpt lat="49.24318" lon="-0.21907">
        <ele>56.98</ele>
        <time>2025-07-04T10:01:14.737Z</time>
      </trkpt>
      <trkpt lat="49.24299" lon="-0.21944">
        <ele>57.53</ele>
        <time>2025-07-04T10:01:16.302Z</time>
      </trkpt>
      <trkpt lat="49.24281" lon="-0.21979">
        <ele>58.09</ele>
        <time>2025-07-04T10:01:17.872Z</time>
      </trkpt>
      <trkpt lat="49.24261" lon="-0.22017">
        <ele>58.56</ele>
        <time>2025-07-04T10:01:19.447Z</time>
      </trkpt>
      <trkpt lat="49.24253" lon="-0.22033">
        <ele>58.97</ele>
        <time>2025-07-04T10:01:21.024Z</time>
      </trkpt>
      <trkpt lat="49.24235" lon="-0.22073">
        <ele>59.34</ele>
        <time>2025-07-04T10:01:22.606Z</time>
      </trkpt>
      <trkpt lat="49.24219" lon="-0.22108">
        <ele>59.77</ele>
        <time>2025-07-04T10:01:24.193Z</time>
      </trkpt>
      <trkpt lat="49.24207" lon="-0.22152">
        <ele>60.09</ele>
        <time>2025-07-04T10:01:25.785Z</time>
      </trkpt>
      <trkpt lat="49.24197" lon="-0.22187">
        <ele>60.24</ele>
        <time>2025-07-04T10:01:27.381Z</time>
      </trkpt>
      <trkpt lat="49.24189" lon="-0.22214">
        <ele>60.37</ele>
        <time>2025-07-04T10:01:28.980Z</time>
      </trkpt>
      <trkpt lat="49.24174" lon="-0.22256">
        <ele>60.4</ele>
        <time>2025-07-04T10:01:30.584Z</time>
      </trkpt>
      <trkpt lat="49.24158" lon="-0.22298">
        <ele>60.45</ele>
        <time>2025-07-04T10:01:32.193Z</time>
      </trkpt>
      <trkpt lat="49.2415" lon="-0.22321">
        <ele>60.42</ele>
        <time>2025-07-04T10:01:33.805Z</time>
      </trkpt>
      <trkpt lat="49.24135" lon="-0.22363">
        <ele>60.36</ele>
        <time>2025-07-04T10:01:35.422Z</time>
      </trkpt>
      <trkpt lat="49.24129" lon="-0.22381">
        <ele>60.21</ele>
        <time>2025-07-04T10:01:37.041Z</time>
      </trkpt>
      <trkpt lat="49.24117" lon="-0.22426">
        <ele>59.99</ele>
        <time>2025-07-04T10:01:38.665Z</time>
      </trkpt>
      <trkpt lat="49.24112" lon="-0.22447">
        <ele>59.71</ele>
        <time>2025-07-04T10:01:40.291Z</time>
      </trkpt>
      <trkpt lat="49.24096" lon="-0.22488">
        <ele>59.38</ele>
        <time>2025-07-04T10:01:41.922Z</time>
      </trkpt>
      <trkpt lat="49.24095" lon="-0.22491">
        <ele>58.94</ele>
        <time>2025-07-04T10:01:43.554Z</time>
      </trkpt>
      <trkpt lat="49.24075" lon="-0.22528">
        <ele>58.49</ele>
        <time>2025-07-04T10:01:45.191Z</time>
      </trkpt>
      <trkpt lat="49.24067" lon="-0.22541">
        <ele>57.89</ele>
        <time>2025-07-04T10:01:46.830Z</time>
      </trkpt>
      <trkpt lat="49.24045" lon="-0.22575">
        <ele>57.21</ele>
        <time>2025-07-04T10:01:48.474Z</time>
      </trkpt>
      <trkpt lat="49.24041" lon="-0.2258">
        <ele>56.5</ele>
        <time>2025-07-04T10:01:50.118Z</time>
      </trkpt>
      <trkpt lat="49.24017" lon="-0.22611">
        <ele>55.73</ele>
        <time>2025-07-04T10:01:51.767Z</time>
      </trkpt>
      <trkpt lat="49.23993" lon="-0.22643">
        <ele>54.85</ele>
        <time>2025-07-04T10:01:53.421Z</time>
      </trkpt>
      <trkpt lat="49.23991" lon="-0.22646">
        <ele>53.96</ele>
        <time>2025-07-04T10:01:55.076Z</time>
      </trkpt>
      <trkpt lat="49.2397" lon="-0.22681">
        <ele>52.94</ele>
        <time>2025-07-04T10:01:56.736Z</time>
      </trkpt>
      <trkpt lat="49.23954" lon="-0.22707">
        <ele>51.93</ele>
        <time>2025-07-04T10:01:58.400Z</time>
      </trkpt>
      <trkpt lat="49.23931" lon="-0.2274">
        <ele>50.78</ele>
        <time>2025-07-04T10:02:00.069Z</time>
      </trkpt>
      <trkpt lat="49.23928" lon="-0.22745">
        <ele>49.69</ele>
        <time>2025-07-04T10:02:01.738Z</time>
      </trkpt>
      <trkpt lat="49.23903" lon="-0.22774">
        <ele>48.42</ele>
        <time>2025-07-04T10:02:03.413Z</time>
      </trkpt>
      <trkpt lat="49.2388" lon="-0.228">
        <ele>47.2</ele>
        <time>2025-07-04T10:02:05.092Z</time>
      </trkpt>
      <trkpt lat="49.23863" lon="-0.22825">
        <ele>46.03</ele>
        <time>2025-07-04T10:02:06.775Z</time>
      </trkpt>
      <trkpt lat="49.23853" lon="-0.22847">
        <ele>44.8</ele>
        <time>2025-07-04T10:02:08.461Z</time>
      </trkpt>
      <trkpt lat="49.23845" lon="-0.22872">
        <ele>43.6</ele>
        <time>2025-07-04T10:02:10.150Z</time>
      </trkpt>
      <trkpt lat="49.2384" lon="-0.22888">
        <ele>42.43</ele>
        <time>2025-07-04T10:02:11.840Z</time>
      </trkpt>
      <trkpt lat="49.23831" lon="-0.22934">
        <ele>41.21</ele>
        <time>2025-07-04T10:02:13.535Z</time>
      </trkpt>
      <trkpt lat="49.23828" lon="-0.2295">
        <ele>40.08</ele>
        <time>2025-07-04T10:02:15.232Z</time>
      </trkpt>
      <trkpt lat="49.23821" lon="-0.22997">
        <ele>38.96</ele>
        <time>2025-07-04T10:02:16.934Z</time>
      </trkpt>
      <trkpt lat="49.2382" lon="-0.23004">
        <ele>37.87</ele>
        <time>2025-07-04T10:02:18.637Z</time>
      </trkpt>
      <trkpt lat="49.23814" lon="-0.23028">
        <ele>36.8</ele>
        <time>2025-07-04T10:02:20.343Z</time>
      </trkpt>
      <trkpt lat="49.23804" lon="-0.23052">
        <ele>35.73</ele>
        <time>2025-07-04T10:02:22.052Z</time>
      </trkpt>
      <trkpt lat="49.2379" lon="-0.23085">
        <ele>34.7</ele>
        <time>2025-07-04T10:02:23.765Z</time>
      </trkpt>
      <trkpt lat="49.23779" lon="-0.23121">
        <ele>33.71</ele>
        <time>2025-07-04T10:02:25.482Z</time>
      </trkpt>
      <trkpt lat="49.23771" lon="-0.23168">
        <ele>32.67</ele>
        <time>2025-07-04T10:02:27.204Z</time>
      </trkpt>
      <trkpt lat="49.2377" lon="-0.23177">
        <ele>31.72</ele>
        <time>2025-07-04T10:02:28.927Z</time>
      </trkpt>
      <trkpt lat="49.2377" lon="-0.23179">
        <ele>30.83</ele>
        <time>2025-07-04T10:02:30.650Z</time>
      </trkpt>
      <trkpt lat="49.23764" lon="-0.23226">
        <ele>29.92</ele>
        <time>2025-07-04T10:02:32.378Z</time>
      </trkpt>
      <trkpt lat="49.23758" lon="-0.23268">
        <ele>29.05</ele>
        <time>2025-07-04T10:02:34.111Z</time>
      </trkpt>
      <trkpt lat="49.23752" lon="-0.23305">
        <ele>28.28</ele>
        <time>2025-07-04T10:02:35.848Z</time>
      </trkpt>
      <trkpt lat="49.23738" lon="-0.23348">
        <ele>27.51</ele>
        <time>2025-07-04T10:02:37.590Z</time>
      </trkpt>
      <trkpt lat="49.23738" lon="-0.2335">
        <ele>26.8</ele>
        <time>2025-07-04T10:02:39.332Z</time>
      </trkpt>
      <trkpt lat="49.23723" lon="-0.23391">
        <ele>26.12</ele>
        <time>2025-07-04T10:02:41.079Z</time>
      </trkpt>
      <trkpt lat="49.23711" lon="-0.23426">
        <ele>25.42</ele>
        <time>2025-07-04T10:02:42.830Z</time>
      </trkpt>
      <trkpt lat="49.23699" lon="-0.2347">
        <ele>24.74</ele>
        <time>2025-07-04T10:02:44.586Z</time>
      </trkpt>
      <trkpt lat="49.2369" lon="-0.23502">
        <ele>24.15</ele>
        <time>2025-07-04T10:02:46.346Z</time>
      </trkpt>
      <trkpt lat="49.2368" lon="-0.23548">
        <ele>23.59</ele>
        <time>2025-07-04T10:02:48.111Z</time>
      </trkpt>
      <trkpt lat="49.23673" lon="-0.23583">
        <ele>23.1</ele>
        <time>2025-07-04T10:02:49.880Z</time>
      </trkpt>
      <trkpt lat="49.23666" lon="-0.23625">
        <ele>22.64</ele>
        <time>2025-07-04T10:02:51.653Z</time>
      </trkpt>
      <trkpt lat="49.23657" lon="-0.23671">
        <ele>22.17</ele>
        <time>2025-07-04T10:02:53.431Z</time>
      </trkpt>
      <trkpt lat="49.23651" lon="-0.23704">
        <ele>21.78</ele>
        <time>2025-07-04T10:02:55.213Z</time>
      </trkpt>
      <trkpt lat="49.23641" lon="-0.2375">
        <ele>21.39</ele>
        <time>2025-07-04T10:02:57.000Z</time>
      </trkpt>
      <trkpt lat="49.23632" lon="-0.23796">
        <ele>21.1</ele>
        <time>2025-07-04T10:02:58.792Z</time>
      </trkpt>
      <trkpt lat="49.23629" lon="-0.23809">
        <ele>20.8</ele>
        <time>2025-07-04T10:03:00.585Z</time>
      </trkpt>
      <trkpt lat="49.23622" lon="-0.23837">
        <ele>20.52</ele>
        <time>2025-07-04T10:03:02.382Z</time>
      </trkpt>
      <trkpt lat="49.23609" lon="-0.23881">
        <ele>20.26</ele>
        <time>2025-07-04T10:03:04.184Z</time>
      </trkpt>
      <trkpt lat="49.23601" lon="-0.23911">
        <ele>20.05</ele>
        <time>2025-07-04T10:03:05.989Z</time>
      </trkpt>
      <trkpt lat="49.23586" lon="-0.23954">
        <ele>19.83</ele>
        <time>2025-07-04T10:03:07.799Z</time>
      </trkpt>
      <trkpt lat="49.23582" lon="-0.23966">
        <ele>19.64</ele>
        <time>2025-07-04T10:03:09.611Z</time>
      </trkpt>
      <trkpt lat="49.2357" lon="-0.2401">
        <ele>19.49</ele>
        <time>2025-07-04T10:03:11.428Z</time>
      </trkpt>
      <trkpt lat="49.23559" lon="-0.24055">
        <ele>19.32</ele>
        <time>2025-07-04T10:03:13.250Z</time>
      </trkpt>
      <trkpt lat="49.23548" lon="-0.241">
        <ele>19.14</ele>
        <time>2025-07-04T10:03:15.077Z</time>
      </trkpt>
      <trkpt lat="49.23536" lon="-0.24145">
        <ele>18.99</ele>
        <time>2025-07-04T10:03:16.909Z</time>
      </trkpt>
      <trkpt lat="49.23525" lon="-0.2419">
        <ele>18.8</ele>
        <time>2025-07-04T10:03:18.746Z</time>
      </trkpt>
      <trkpt lat="49.23524" lon="-0.24195">
        <ele>18.68</ele>
        <time>2025-07-04T10:03:20.583Z</time>
      </trkpt>
      <trkpt lat="49.23515" lon="-0.24241">
        <ele>18.56</ele>
        <time>2025-07-04T10:03:22.425Z</time>
      </trkpt>
      <trkpt lat="49.23506" lon="-0.24287">
        <ele>18.44</ele>
        <time>2025-07-04T10:03:24.272Z</time>
      </trkpt>
      <trkpt lat="49.23504" lon="-0.24295">
        <ele>18.33</ele>
        <time>2025-07-04T10:03:26.120Z</time>
      </trkpt>
      <trkpt lat="49.23493" lon="-0.2434">
        <ele>18.24</ele>
        <time>2025-07-04T10:03:27.973Z</time>
      </trkpt>
      <trkpt lat="49.23485" lon="-0.24372">
        <ele>18.15</ele>
        <time>2025-07-04T10:03:29.830Z</time>
      </trkpt>
      <trkpt lat="49.23472" lon="-0.24416">
        <ele>18.02</ele>
        <time>2025-07-04T10:03:31.692Z</time>
      </trkpt>
      <trkpt lat="49.23464" lon="-0.24445">
        <ele>17.93</ele>
        <time>2025-07-04T10:03:33.557Z</time>
      </trkpt>
      <trkpt lat="49.2345" lon="-0.24488">
        <ele>17.8</ele>
        <time>2025-07-04T10:03:35.427Z</time>
      </trkpt>
      <trkpt lat="49.23447" lon="-0.24498">
        <ele>17.69</ele>
        <time>2025-07-04T10:03:37.298Z</time>
      </trkpt>
      <trkpt lat="49.23437" lon="-0.24521">
        <ele>17.59</ele>
        <time>2025-07-04T10:03:39.172Z</time>
      </trkpt>
      <trkpt lat="49.23419" lon="-0.2456">
        <ele>17.48</ele>
        <time>2025-07-04T10:03:41.051Z</time>
      </trkpt>
      <trkpt lat="49.23412" lon="-0.24574">
        <ele>17.37</ele>
        <time>2025-07-04T10:03:42.932Z</time>
      </trkpt>
      <trkpt lat="49.23392" lon="-0.24611">
        <ele>17.25</ele>
        <time>2025-07-04T10:03:44.818Z</time>
      </trkpt>
      <trkpt lat="49.23385" lon="-0.24624">
        <ele>17.13</ele>
        <time>2025-07-04T10:03:46.706Z</time>
      </trkpt>
      <trkpt lat="49.23365" lon="-0.24661">
        <ele>17</ele>
        <time>2025-07-04T10:03:48.599Z</time>
      </trkpt>
      <trkpt lat="49.23364" lon="-0.24662">
        <ele>16.86</ele>
        <time>2025-07-04T10:03:50.492Z</time>
      </trkpt>
      <trkpt lat="49.23355" lon="-0.24684">
        <ele>16.69</ele>
        <time>2025-07-04T10:03:52.388Z</time>
      </trkpt>
      <trkpt lat="49.23349" lon="-0.24706">
        <ele>16.53</ele>
        <time>2025-07-04T10:03:54.286Z</time>
      </trkpt>
      <trkpt lat="49.23344" lon="-0.24732">
        <ele>16.36</ele>
        <time>2025-07-04T10:03:56.187Z</time>
      </trkpt>
      <trkpt lat="49.23335" lon="-0.24778">
        <ele>16.19</ele>
        <time>2025-07-04T10:03:58.093Z</time>
      </trkpt>
      <trkpt lat="49.23328" lon="-0.2481">
        <ele>16</ele>
        <time>2025-07-04T10:04:00.003Z</time>
      </trkpt>
      <trkpt lat="49.23318" lon="-0.24854">
        <ele>15.85</ele>
        <time>2025-07-04T10:04:01.918Z</time>
      </trkpt>
      <trkpt lat="49.23307" lon="-0.24899">
        <ele>15.65</ele>
        <time>2025-07-04T10:04:03.838Z</time>
      </trkpt>
      <trkpt lat="49.23297" lon="-0.24945">
        <ele>15.43</ele>
        <time>2025-07-04T10:04:05.763Z</time>
      </trkpt>
      <trkpt lat="49.23293" lon="-0.24961">
        <ele>15.2</ele>
        <time>2025-07-04T10:04:07.690Z</time>
      </trkpt>
      <trkpt lat="49.2328" lon="-0.25005">
        <ele>14.97</ele>
        <time>2025-07-04T10:04:09.622Z</time>
      </trkpt>
      <trkpt lat="49.23267" lon="-0.25049">
        <ele>14.74</ele>
        <time>2025-07-04T10:04:11.559Z</time>
      </trkpt>
      <trkpt lat="49.23262" lon="-0.25066">
        <ele>14.52</ele>
        <time>2025-07-04T10:04:13.498Z</time>
      </trkpt>
      <trkpt lat="49.23246" lon="-0.25108">
        <ele>14.29</ele>
        <time>2025-07-04T10:04:15.442Z</time>
      </trkpt>
      <trkpt lat="49.23231" lon="-0.25149">
        <ele>14.06</ele>
        <time>2025-07-04T10:04:17.391Z</time>
      </trkpt>
      <trkpt lat="49.23224" lon="-0.25167">
        <ele>13.82</ele>
        <time>2025-07-04T10:04:19.342Z</time>
      </trkpt>
      <trkpt lat="49.23219" lon="-0.2518">
        <ele>13.59</ele>
        <time>2025-07-04T10:04:21.294Z</time>
      </trkpt>
      <trkpt lat="49.23203" lon="-0.25222">
        <ele>13.33</ele>
        <time>2025-07-04T10:04:23.252Z</time>
      </trkpt>
      <trkpt lat="49.23203" lon="-0.25222">
        <ele>13.09</ele>
        <time>2025-07-04T10:04:25.210Z</time>
      </trkpt>
      <trkpt lat="49.23185" lon="-0.25262">
        <ele>12.84</ele>
        <time>2025-07-04T10:04:27.173Z</time>
      </trkpt>
      <trkpt lat="49.23175" lon="-0.25285">
        <ele>12.59</ele>
        <time>2025-07-04T10:04:29.139Z</time>
      </trkpt>
      <trkpt lat="49.23157" lon="-0.25324">
        <ele>12.32</ele>
        <time>2025-07-04T10:04:31.110Z</time>
      </trkpt>
      <trkpt lat="49.2314" lon="-0.25362">
        <ele>12.08</ele>
        <time>2025-07-04T10:04:33.085Z</time>
      </trkpt>
      <trkpt lat="49.23136" lon="-0.25381">
        <ele>11.83</ele>
        <time>2025-07-04T10:04:35.062Z</time>
      </trkpt>
      <trkpt lat="49.23135" lon="-0.25401">
        <ele>11.59</ele>
        <time>2025-07-04T10:04:37.042Z</time>
      </trkpt>
      <trkpt lat="49.23137" lon="-0.2541">
        <ele>11.35</ele>
        <time>2025-07-04T10:04:39.023Z</time>
      </trkpt>
      <trkpt lat="49.23146" lon="-0.2543">
        <ele>11.11</ele>
        <time>2025-07-04T10:04:41.006Z</time>
      </trkpt>
      <trkpt lat="49.23148" lon="-0.25438">
        <ele>10.87</ele>
        <time>2025-07-04T10:04:42.990Z</time>
      </trkpt>
      <trkpt lat="49.23147" lon="-0.25445">
        <ele>10.65</ele>
        <time>2025-07-04T10:04:44.975Z</time>
      </trkpt>
      <trkpt lat="49.2314" lon="-0.25461">
        <ele>10.46</ele>
        <time>2025-07-04T10:04:46.962Z</time>
      </trkpt>
      <trkpt lat="49.23125" lon="-0.25441">
        <ele>10.2</ele>
        <time>2025-07-04T10:04:48.952Z</time>
      </trkpt>
      <trkpt lat="49.23113" lon="-0.25424">
        <ele>9.97</ele>
        <time>2025-07-04T10:04:50.945Z</time>
      </trkpt>
      <trkpt lat="49.23102" lon="-0.25403">
        <ele>9.77</ele>
        <time>2025-07-04T10:04:52.940Z</time>
      </trkpt>
      <trkpt lat="49.23092" lon="-0.25411">
        <ele>9.57</ele>
        <time>2025-07-04T10:04:54.937Z</time>
      </trkpt>
      <trkpt lat="49.23065" lon="-0.25435">
        <ele>9.4</ele>
        <time>2025-07-04T10:04:56.939Z</time>
      </trkpt>
      <trkpt lat="49.23043" lon="-0.25453">
        <ele>9.28</ele>
        <time>2025-07-04T10:04:58.945Z</time>
      </trkpt>
      <trkpt lat="49.23013" lon="-0.25466">
        <ele>9.17</ele>
        <time>2025-07-04T10:05:00.956Z</time>
      </trkpt>
      <trkpt lat="49.2301" lon="-0.25467">
        <ele>9.06</ele>
        <time>2025-07-04T10:05:02.968Z</time>
      </trkpt>
      <trkpt lat="49.22983" lon="-0.25477">
        <ele>8.94</ele>
        <time>2025-07-04T10:05:04.984Z</time>
      </trkpt>
      <trkpt lat="49.22959" lon="-0.2549">
        <ele>8.88</ele>
        <time>2025-07-04T10:05:07.004Z</time>
      </trkpt>
      <trkpt lat="49.22936" lon="-0.25504">
        <ele>8.84</ele>
        <time>2025-07-04T10:05:09.028Z</time>
      </trkpt>
      <trkpt lat="49.22908" lon="-0.25526">
        <ele>8.79</ele>
        <time>2025-07-04T10:05:11.057Z</time>
      </trkpt>
      <trkpt lat="49.22885" lon="-0.25544">
        <ele>8.85</ele>
        <time>2025-07-04T10:05:13.090Z</time>
      </trkpt>
      <trkpt lat="49.22868" lon="-0.25556">
        <ele>8.91</ele>
        <time>2025-07-04T10:05:15.126Z</time>
      </trkpt>
      <trkpt lat="49.22857" lon="-0.25565">
        <ele>9</ele>
        <time>2025-07-04T10:05:17.164Z</time>
      </trkpt>
      <trkpt lat="49.2285" lon="-0.25576">
        <ele>9.1</ele>
        <time>2025-07-04T10:05:19.204Z</time>
      </trkpt>
      <trkpt lat="49.22841" lon="-0.25591">
        <ele>9.23</ele>
        <time>2025-07-04T10:05:21.246Z</time>
      </trkpt>
      <trkpt lat="49.22825" lon="-0.25626">
        <ele>9.35</ele>
        <time>2025-07-04T10:05:23.293Z</time>
      </trkpt>
      <trkpt lat="49.22807" lon="-0.25665">
        <ele>9.57</ele>
        <time>2025-07-04T10:05:25.345Z</time>
      </trkpt>
      <trkpt lat="49.22806" lon="-0.25666">
        <ele>9.86</ele>
        <time>2025-07-04T10:05:27.397Z</time>
      </trkpt>
      <trkpt lat="49.228" lon="-0.25689">
        <ele>10.16</ele>
        <time>2025-07-04T10:05:29.451Z</time>
      </trkpt>
      <trkpt lat="49.22798" lon="-0.25718">
        <ele>10.57</ele>
        <time>2025-07-04T10:05:31.508Z</time>
      </trkpt>
      <trkpt lat="49.22798" lon="-0.25765">
        <ele>10.99</ele>
        <time>2025-07-04T10:05:33.570Z</time>
      </trkpt>
      <trkpt lat="49.22795" lon="-0.25786">
        <ele>11.45</ele>
        <time>2025-07-04T10:05:35.635Z</time>
      </trkpt>
      <trkpt lat="49.22787" lon="-0.25812">
        <ele>11.98</ele>
        <time>2025-07-04T10:05:37.703Z</time>
      </trkpt>
      <trkpt lat="49.22776" lon="-0.25835">
        <ele>12.56</ele>
        <time>2025-07-04T10:05:39.774Z</time>
      </trkpt>
      <trkpt lat="49.22758" lon="-0.25859">
        <ele>13.23</ele>
        <time>2025-07-04T10:05:41.848Z</time>
      </trkpt>
      <trkpt lat="49.22746" lon="-0.25874">
        <ele>13.92</ele>
        <time>2025-07-04T10:05:43.925Z</time>
      </trkpt>
      <trkpt lat="49.22723" lon="-0.25901">
        <ele>14.69</ele>
        <time>2025-07-04T10:05:46.007Z</time>
      </trkpt>
      <trkpt lat="49.22698" lon="-0.2593">
        <ele>15.48</ele>
        <time>2025-07-04T10:05:48.094Z</time>
      </trkpt>
      <trkpt lat="49.22673" lon="-0.25959">
        <ele>16.22</ele>
        <time>2025-07-04T10:05:50.186Z</time>
      </trkpt>
      <trkpt lat="49.22652" lon="-0.25983">
        <ele>16.98</ele>
        <time>2025-07-04T10:05:52.282Z</time>
      </trkpt>
      <trkpt lat="49.22636" lon="-0.26015">
        <ele>17.79</ele>
        <time>2025-07-04T10:05:54.382Z</time>
      </trkpt>
      <trkpt lat="49.22622" lon="-0.26058">
        <ele>18.6</ele>
        <time>2025-07-04T10:05:56.487Z</time>
      </trkpt>
      <trkpt lat="49.22615" lon="-0.2608">
        <ele>19.44</ele>
        <time>2025-07-04T10:05:58.595Z</time>
      </trkpt>
      <trkpt lat="49.22603" lon="-0.26125">
        <ele>20.28</ele>
        <time>2025-07-04T10:06:00.708Z</time>
      </trkpt>
      <trkpt lat="49.22602" lon="-0.26129">
        <ele>21.12</ele>
        <time>2025-07-04T10:06:02.821Z</time>
      </trkpt>
      <trkpt lat="49.22598" lon="-0.26152">
        <ele>21.97</ele>
        <time>2025-07-04T10:06:04.937Z</time>
      </trkpt>
      <trkpt lat="49.22592" lon="-0.26199">
        <ele>22.85</ele>
        <time>2025-07-04T10:06:07.058Z</time>
      </trkpt>
      <trkpt lat="49.22591" lon="-0.26204">
        <ele>23.71</ele>
        <time>2025-07-04T10:06:09.179Z</time>
      </trkpt>
      <trkpt lat="49.22583" lon="-0.26251">
        <ele>24.64</ele>
        <time>2025-07-04T10:06:11.305Z</time>
      </trkpt>
      <trkpt lat="49.22582" lon="-0.26257">
        <ele>25.48</ele>
        <time>2025-07-04T10:06:13.432Z</time>
      </trkpt>
      <trkpt lat="49.22573" lon="-0.26297">
        <ele>26.37</ele>
        <time>2025-07-04T10:06:15.563Z</time>
      </trkpt>
      <trkpt lat="49.22557" lon="-0.26338">
        <ele>27.21</ele>
        <time>2025-07-04T10:06:17.699Z</time>
      </trkpt>
      <trkpt lat="49.22555" lon="-0.26344">
        <ele>28.01</ele>
        <time>2025-07-04T10:06:19.836Z</time>
      </trkpt>
      <trkpt lat="49.22539" lon="-0.26385">
        <ele>28.91</ele>
        <time>2025-07-04T10:06:21.978Z</time>
      </trkpt>
      <trkpt lat="49.22522" lon="-0.26426">
        <ele>29.8</ele>
        <time>2025-07-04T10:06:24.125Z</time>
      </trkpt>
      <trkpt lat="49.22521" lon="-0.2643">
        <ele>30.54</ele>
        <time>2025-07-04T10:06:26.273Z</time>
      </trkpt>
      <trkpt lat="49.22505" lon="-0.26472">
        <ele>31.26</ele>
        <time>2025-07-04T10:06:28.426Z</time>
      </trkpt>
      <trkpt lat="49.22497" lon="-0.26493">
        <ele>31.94</ele>
        <time>2025-07-04T10:06:30.581Z</time>
      </trkpt>
      <trkpt lat="49.22483" lon="-0.26536">
        <ele>32.58</ele>
        <time>2025-07-04T10:06:32.741Z</time>
      </trkpt>
      <trkpt lat="49.22481" lon="-0.26544">
        <ele>33.18</ele>
        <time>2025-07-04T10:06:34.902Z</time>
      </trkpt>
      <trkpt lat="49.22469" lon="-0.26589">
        <ele>33.76</ele>
        <time>2025-07-04T10:06:37.068Z</time>
      </trkpt>
      <trkpt lat="49.22457" lon="-0.26633">
        <ele>34.31</ele>
        <time>2025-07-04T10:06:39.239Z</time>
      </trkpt>
      <trkpt lat="49.22445" lon="-0.26678">
        <ele>34.79</ele>
        <time>2025-07-04T10:06:41.415Z</time>
      </trkpt>
      <trkpt lat="49.22444" lon="-0.26683">
        <ele>35.24</ele>
        <time>2025-07-04T10:06:43.592Z</time>
      </trkpt>
      <trkpt lat="49.2243" lon="-0.26726">
        <ele>35.66</ele>
        <time>2025-07-04T10:06:45.774Z</time>
      </trkpt>
      <trkpt lat="49.22415" lon="-0.26769">
        <ele>36.08</ele>
        <time>2025-07-04T10:06:47.961Z</time>
      </trkpt>
      <trkpt lat="49.22407" lon="-0.26794">
        <ele>36.41</ele>
        <time>2025-07-04T10:06:50.151Z</time>
      </trkpt>
      <trkpt lat="49.22392" lon="-0.26836">
        <ele>36.72</ele>
        <time>2025-07-04T10:06:52.346Z</time>
      </trkpt>
      <trkpt lat="49.22385" lon="-0.26854">
        <ele>36.97</ele>
        <time>2025-07-04T10:06:54.543Z</time>
      </trkpt>
      <trkpt lat="49.22368" lon="-0.26894">
        <ele>37.25</ele>
        <time>2025-07-04T10:06:56.745Z</time>
      </trkpt>
      <trkpt lat="49.2235" lon="-0.26934">
        <ele>37.47</ele>
        <time>2025-07-04T10:06:58.952Z</time>
      </trkpt>
      <trkpt lat="49.22333" lon="-0.26975">
        <ele>37.61</ele>
        <time>2025-07-04T10:07:01.164Z</time>
      </trkpt>
      <trkpt lat="49.2233" lon="-0.26982">
        <ele>37.75</ele>
        <time>2025-07-04T10:07:03.377Z</time>
      </trkpt>
      <trkpt lat="49.22313" lon="-0.27023">
        <ele>37.82</ele>
        <time>2025-07-04T10:07:05.595Z</time>
      </trkpt>
      <trkpt lat="49.22297" lon="-0.27064">
        <ele>37.9</ele>
        <time>2025-07-04T10:07:07.818Z</time>
      </trkpt>
      <trkpt lat="49.2229" lon="-0.27081">
        <ele>37.96</ele>
        <time>2025-07-04T10:07:10.044Z</time>
      </trkpt>
      <trkpt lat="49.22273" lon="-0.27121">
        <ele>38.05</ele>
        <time>2025-07-04T10:07:12.275Z</time>
      </trkpt>
      <trkpt lat="49.22267" lon="-0.27135">
        <ele>38.08</ele>
        <time>2025-07-04T10:07:14.507Z</time>
      </trkpt>
      <trkpt lat="49.22255" lon="-0.27157">
        <ele>38.06</ele>
        <time>2025-07-04T10:07:16.742Z</time>
      </trkpt>
      <trkpt lat="49.22234" lon="-0.27185">
        <ele>38.06</ele>
        <time>2025-07-04T10:07:18.982Z</time>
      </trkpt>
      <trkpt lat="49.22214" lon="-0.27205">
        <ele>38.04</ele>
        <time>2025-07-04T10:07:21.226Z</time>
      </trkpt>
      <trkpt lat="49.22193" lon="-0.27221">
        <ele>37.9</ele>
        <time>2025-07-04T10:07:23.473Z</time>
      </trkpt>
      <trkpt lat="49.22175" lon="-0.27235">
        <ele>37.75</ele>
        <time>2025-07-04T10:07:25.724Z</time>
      </trkpt>
      <trkpt lat="49.22165" lon="-0.27248">
        <ele>37.63</ele>
        <time>2025-07-04T10:07:27.977Z</time>
      </trkpt>
      <trkpt lat="49.22161" lon="-0.27257">
        <ele>37.52</ele>
        <time>2025-07-04T10:07:30.231Z</time>
      </trkpt>
      <trkpt lat="49.22164" lon="-0.27263">
        <ele>37.43</ele>
        <time>2025-07-04T10:07:32.486Z</time>
      </trkpt>
      <trkpt lat="49.22166" lon="-0.27281">
        <ele>37.34</ele>
        <time>2025-07-04T10:07:34.743Z</time>
      </trkpt>
      <trkpt lat="49.22181" lon="-0.27307">
        <ele>37.29</ele>
        <time>2025-07-04T10:07:37.003Z</time>
      </trkpt>
      <trkpt lat="49.22188" lon="-0.27322">
        <ele>37.15</ele>
        <time>2025-07-04T10:07:39.265Z</time>
      </trkpt>
      <trkpt lat="49.22188" lon="-0.27337">
        <ele>36.99</ele>
        <time>2025-07-04T10:07:41.529Z</time>
      </trkpt>
      <trkpt lat="49.22193" lon="-0.27351">
        <ele>36.84</ele>
        <time>2025-07-04T10:07:43.794Z</time>
      </trkpt>
      <trkpt lat="49.22187" lon="-0.27352">
        <ele>36.72</ele>
        <time>2025-07-04T10:07:46.060Z</time>
      </trkpt>
      <trkpt lat="49.22169" lon="-0.27359">
        <ele>36.59</ele>
        <time>2025-07-04T10:07:48.329Z</time>
      </trkpt>
      <trkpt lat="49.22145" lon="-0.27368">
        <ele>36.44</ele>
        <time>2025-07-04T10:07:50.602Z</time>
      </trkpt>
      <trkpt lat="49.22126" lon="-0.27381">
        <ele>36.3</ele>
        <time>2025-07-04T10:07:52.879Z</time>
      </trkpt>
      <trkpt lat="49.2211" lon="-0.27394">
        <ele>36.22</ele>
        <time>2025-07-04T10:07:55.158Z</time>
      </trkpt>
      <trkpt lat="49.22105" lon="-0.274">
        <ele>36.14</ele>
        <time>2025-07-04T10:07:57.439Z</time>
      </trkpt>
      <trkpt lat="49.22105" lon="-0.27412">
        <ele>36.07</ele>
        <time>2025-07-04T10:07:59.721Z</time>
      </trkpt>
      <trkpt lat="49.22111" lon="-0.27436">
        <ele>36.05</ele>
        <time>2025-07-04T10:08:02.005Z</time>
      </trkpt>
      <trkpt lat="49.22112" lon="-0.27441">
        <ele>36.01</ele>
        <time>2025-07-04T10:08:04.290Z</time>
      </trkpt>
      <trkpt lat="49.22111" lon="-0.27454">
        <ele>35.98</ele>
        <time>2025-07-04T10:08:06.576Z</time>
      </trkpt>
      <trkpt lat="49.22092" lon="-0.27493">
        <ele>35.93</ele>
        <time>2025-07-04T10:08:08.867Z</time>
      </trkpt>
      <trkpt lat="49.22079" lon="-0.27521">
        <ele>35.86</ele>
        <time>2025-07-04T10:08:11.162Z</time>
      </trkpt>
      <trkpt lat="49.22062" lon="-0.27562">
        <ele>35.79</ele>
        <time>2025-07-04T10:08:13.462Z</time>
      </trkpt>
      <trkpt lat="49.22061" lon="-0.27565">
        <ele>35.8</ele>
        <time>2025-07-04T10:08:15.763Z</time>
      </trkpt>
      <trkpt lat="49.22057" lon="-0.27581">
        <ele>35.83</ele>
        <time>2025-07-04T10:08:18.065Z</time>
      </trkpt>
      <trkpt lat="49.22045" lon="-0.27625">
        <ele>35.91</ele>
        <time>2025-07-04T10:08:20.372Z</time>
      </trkpt>
      <trkpt lat="49.22035" lon="-0.27659">
        <ele>36.03</ele>
        <time>2025-07-04T10:08:22.683Z</time>
      </trkpt>
      <trkpt lat="49.22021" lon="-0.27702">
        <ele>36.12</ele>
        <time>2025-07-04T10:08:24.999Z</time>
      </trkpt>
      <trkpt lat="49.22013" lon="-0.27729">
        <ele>36.19</ele>
        <time>2025-07-04T10:08:27.318Z</time>
      </trkpt>
      <trkpt lat="49.22001" lon="-0.27765">
        <ele>36.26</ele>
        <time>2025-07-04T10:08:29.642Z</time>
      </trkpt>
      <trkpt lat="49.21985" lon="-0.27806">
        <ele>36.43</ele>
        <time>2025-07-04T10:08:31.971Z</time>
      </trkpt>
      <trkpt lat="49.21982" lon="-0.27813">
        <ele>36.54</ele>
        <time>2025-07-04T10:08:34.300Z</time>
      </trkpt>
      <trkpt lat="49.21964" lon="-0.27853">
        <ele>36.69</ele>
        <time>2025-07-04T10:08:36.635Z</time>
      </trkpt>
      <trkpt lat="49.21949" lon="-0.27886">
        <ele>36.79</ele>
        <time>2025-07-04T10:08:38.974Z</time>
      </trkpt>
      <trkpt lat="49.21929" lon="-0.27923">
        <ele>36.95</ele>
        <time>2025-07-04T10:08:41.318Z</time>
      </trkpt>
      <trkpt lat="49.21926" lon="-0.27928">
        <ele>37.08</ele>
        <time>2025-07-04T10:08:43.663Z</time>
      </trkpt>
      <trkpt lat="49.21904" lon="-0.27962">
        <ele>37.23</ele>
        <time>2025-07-04T10:08:46.013Z</time>
      </trkpt>
      <trkpt lat="49.21882" lon="-0.27997">
        <ele>37.39</ele>
        <time>2025-07-04T10:08:48.368Z</time>
      </trkpt>
      <trkpt lat="49.21879" lon="-0.28002">
        <ele>37.52</ele>
        <time>2025-07-04T10:08:50.723Z</time>
      </trkpt>
      <trkpt lat="49.21857" lon="-0.28036">
        <ele>37.61</ele>
        <time>2025-07-04T10:08:53.083Z</time>
      </trkpt>
      <trkpt lat="49.21834" lon="-0.2807">
        <ele>37.73</ele>
        <time>2025-07-04T10:08:55.448Z</time>
      </trkpt>
      <trkpt lat="49.21834" lon="-0.2807">
        <ele>37.87</ele>
        <time>2025-07-04T10:08:57.813Z</time>
      </trkpt>
      <trkpt lat="49.21815" lon="-0.28108">
        <ele>37.99</ele>
        <time>2025-07-04T10:09:00.184Z</time>
      </trkpt>
      <trkpt lat="49.21809" lon="-0.28119">
        <ele>38.14</ele>
        <time>2025-07-04T10:09:02.556Z</time>
      </trkpt>
      <trkpt lat="49.21794" lon="-0.28154">
        <ele>38.3</ele>
        <time>2025-07-04T10:09:04.932Z</time>
      </trkpt>
      <trkpt lat="49.21786" lon="-0.28174">
        <ele>38.46</ele>
        <time>2025-07-04T10:09:07.311Z</time>
      </trkpt>
      <trkpt lat="49.21781" lon="-0.28198">
        <ele>38.58</ele>
        <time>2025-07-04T10:09:09.693Z</time>
      </trkpt>
      <trkpt lat="49.21775" lon="-0.28228">
        <ele>38.73</ele>
        <time>2025-07-04T10:09:12.078Z</time>
      </trkpt>
      <trkpt lat="49.21767" lon="-0.28275">
        <ele>38.88</ele>
        <time>2025-07-04T10:09:14.468Z</time>
      </trkpt>
      <trkpt lat="49.21763" lon="-0.28301">
        <ele>38.96</ele>
        <time>2025-07-04T10:09:16.861Z</time>
      </trkpt>
      <trkpt lat="49.2176" lon="-0.28319">
        <ele>39.07</ele>
        <time>2025-07-04T10:09:19.256Z</time>
      </trkpt>
      <trkpt lat="49.2175" lon="-0.28365">
        <ele>39.17</ele>
        <time>2025-07-04T10:09:21.656Z</time>
      </trkpt>
      <trkpt lat="49.21747" lon="-0.28379">
        <ele>39.23</ele>
        <time>2025-07-04T10:09:24.057Z</time>
      </trkpt>
      <trkpt lat="49.21734" lon="-0.28423">
        <ele>39.32</ele>
        <time>2025-07-04T10:09:26.463Z</time>
      </trkpt>
      <trkpt lat="49.21722" lon="-0.28467">
        <ele>39.46</ele>
        <time>2025-07-04T10:09:28.874Z</time>
      </trkpt>
      <trkpt lat="49.2172" lon="-0.28474">
        <ele>39.51</ele>
        <time>2025-07-04T10:09:31.286Z</time>
      </trkpt>
      <trkpt lat="49.21706" lon="-0.28517">
        <ele>39.57</ele>
        <time>2025-07-04T10:09:33.703Z</time>
      </trkpt>
      <trkpt lat="49.21693" lon="-0.28561">
        <ele>39.58</ele>
        <time>2025-07-04T10:09:36.125Z</time>
      </trkpt>
      <trkpt lat="49.21686" lon="-0.28583">
        <ele>39.56</ele>
        <time>2025-07-04T10:09:38.550Z</time>
      </trkpt>
      <trkpt lat="49.21672" lon="-0.28626">
        <ele>39.49</ele>
        <time>2025-07-04T10:09:40.980Z</time>
      </trkpt>
      <trkpt lat="49.21661" lon="-0.28659">
        <ele>39.43</ele>
        <time>2025-07-04T10:09:43.414Z</time>
      </trkpt>
      <trkpt lat="49.21645" lon="-0.287">
        <ele>39.34</ele>
        <time>2025-07-04T10:09:45.853Z</time>
      </trkpt>
      <trkpt lat="49.21633" lon="-0.28729">
        <ele>39.28</ele>
        <time>2025-07-04T10:09:48.295Z</time>
      </trkpt>
      <trkpt lat="49.21615" lon="-0.28769">
        <ele>39.23</ele>
        <time>2025-07-04T10:09:50.742Z</time>
      </trkpt>
      <trkpt lat="49.21598" lon="-0.28807">
        <ele>39.16</ele>
        <time>2025-07-04T10:09:53.194Z</time>
      </trkpt>
      <trkpt lat="49.2158" lon="-0.28846">
        <ele>39.11</ele>
        <time>2025-07-04T10:09:55.651Z</time>
      </trkpt>
      <trkpt lat="49.21562" lon="-0.28886">
        <ele>38.99</ele>
        <time>2025-07-04T10:09:58.113Z</time>
      </trkpt>
      <trkpt lat="49.21553" lon="-0.28905">
        <ele>38.88</ele>
        <time>2025-07-04T10:10:00.578Z</time>
      </trkpt>
      <trkpt lat="49.2154" lon="-0.28927">
        <ele>38.75</ele>
        <time>2025-07-04T10:10:03.046Z</time>
      </trkpt>
      <trkpt lat="49.21517" lon="-0.28951">
        <ele>38.65</ele>
        <time>2025-07-04T10:10:05.518Z</time>
      </trkpt>
      <trkpt lat="49.21489" lon="-0.28974">
        <ele>38.55</ele>
        <time>2025-07-04T10:10:07.995Z</time>
      </trkpt>
      <trkpt lat="49.21473" lon="-0.28988">
        <ele>38.52</ele>
        <time>2025-07-04T10:10:10.475Z</time>
      </trkpt>
      <trkpt lat="49.21446" lon="-0.29012">
        <ele>38.5</ele>
        <time>2025-07-04T10:10:12.960Z</time>
      </trkpt>
      <trkpt lat="49.21431" lon="-0.29026">
        <ele>38.47</ele>
        <time>2025-07-04T10:10:15.448Z</time>
      </trkpt>
      <trkpt lat="49.21404" lon="-0.29052">
        <ele>38.43</ele>
        <time>2025-07-04T10:10:17.941Z</time>
      </trkpt>
      <trkpt lat="49.21378" lon="-0.29078">
        <ele>38.37</ele>
        <time>2025-07-04T10:10:20.439Z</time>
      </trkpt>
      <trkpt lat="49.21351" lon="-0.29104">
        <ele>38.32</ele>
        <time>2025-07-04T10:10:22.942Z</time>
      </trkpt>
      <trkpt lat="49.21348" lon="-0.29107">
        <ele>38.31</ele>
        <time>2025-07-04T10:10:25.446Z</time>
      </trkpt>
      <trkpt lat="49.21321" lon="-0.29133">
        <ele>38.26</ele>
        <time>2025-07-04T10:10:27.955Z</time>
      </trkpt>
      <trkpt lat="49.21295" lon="-0.29159">
        <ele>38.26</ele>
        <time>2025-07-04T10:10:30.469Z</time>
      </trkpt>
      <trkpt lat="49.21272" lon="-0.29181">
        <ele>38.32</ele>
        <time>2025-07-04T10:10:32.987Z</time>
      </trkpt>
      <trkpt lat="49.21246" lon="-0.29209">
        <ele>38.43</ele>
        <time>2025-07-04T10:10:35.510Z</time>
      </trkpt>
      <trkpt lat="49.21228" lon="-0.29229">
        <ele>38.53</ele>
        <time>2025-07-04T10:10:38.037Z</time>
      </trkpt>
      <trkpt lat="49.21204" lon="-0.29259">
        <ele>38.64</ele>
        <time>2025-07-04T10:10:40.569Z</time>
      </trkpt>
      <trkpt lat="49.21185" lon="-0.29282">
        <ele>38.74</ele>
        <time>2025-07-04T10:10:43.105Z</time>
      </trkpt>
      <trkpt lat="49.21158" lon="-0.29307">
        <ele>38.89</ele>
        <time>2025-07-04T10:10:45.646Z</time>
      </trkpt>
      <trkpt lat="49.21134" lon="-0.2933">
        <ele>39.13</ele>
        <time>2025-07-04T10:10:48.192Z</time>
      </trkpt>
      <trkpt lat="49.21106" lon="-0.29353">
        <ele>39.33</ele>
        <time>2025-07-04T10:10:50.743Z</time>
      </trkpt>
      <trkpt lat="49.21086" lon="-0.29369">
        <ele>39.53</ele>
        <time>2025-07-04T10:10:53.297Z</time>
      </trkpt>
      <trkpt lat="49.2106" lon="-0.29396">
        <ele>39.77</ele>
        <time>2025-07-04T10:10:55.856Z</time>
      </trkpt>
      <trkpt lat="49.21053" lon="-0.29404">
        <ele>39.99</ele>
        <time>2025-07-04T10:10:58.417Z</time>
      </trkpt>
      <trkpt lat="49.21034" lon="-0.29425">
        <ele>40.24</ele>
        <time>2025-07-04T10:11:00.981Z</time>
      </trkpt>
      <trkpt lat="49.2103" lon="-0.29434">
        <ele>40.43</ele>
        <time>2025-07-04T10:11:03.547Z</time>
      </trkpt>
      <trkpt lat="49.2101" lon="-0.29454">
        <ele>40.63</ele>
        <time>2025-07-04T10:11:06.116Z</time>
      </trkpt>
      <trkpt lat="49.20987" lon="-0.29481">
        <ele>40.78</ele>
        <time>2025-07-04T10:11:08.690Z</time>
      </trkpt>
      <trkpt lat="49.20975" lon="-0.2949">
        <ele>40.94</ele>
        <time>2025-07-04T10:11:11.266Z</time>
      </trkpt>
      <trkpt lat="49.2095" lon="-0.2952">
        <ele>41.13</ele>
        <time>2025-07-04T10:11:13.847Z</time>
      </trkpt>
      <trkpt lat="49.20926" lon="-0.2955">
        <ele>41.33</ele>
        <time>2025-07-04T10:11:16.433Z</time>
      </trkpt>
      <trkpt lat="49.20901" lon="-0.29579">
        <ele>41.42</ele>
        <time>2025-07-04T10:11:19.024Z</time>
      </trkpt>
      <trkpt lat="49.20882" lon="-0.29602">
        <ele>41.54</ele>
        <time>2025-07-04T10:11:21.619Z</time>
      </trkpt>
      <trkpt lat="49.20857" lon="-0.29632">
        <ele>41.61</ele>
        <time>2025-07-04T10:11:24.219Z</time>
      </trkpt>
      <trkpt lat="49.20833" lon="-0.29662">
        <ele>41.61</ele>
        <time>2025-07-04T10:11:26.824Z</time>
      </trkpt>
      <trkpt lat="49.20817" lon="-0.29681">
        <ele>41.62</ele>
        <time>2025-07-04T10:11:29.432Z</time>
      </trkpt>
      <trkpt lat="49.20801" lon="-0.29698">
        <ele>41.62</ele>
        <time>2025-07-04T10:11:32.044Z</time>
      </trkpt>
      <trkpt lat="49.20776" lon="-0.29728">
        <ele>41.52</ele>
        <time>2025-07-04T10:11:34.661Z</time>
      </trkpt>
      <trkpt lat="49.20774" lon="-0.29731">
        <ele>41.46</ele>
        <time>2025-07-04T10:11:37.278Z</time>
      </trkpt>
      <trkpt lat="49.20771" lon="-0.29735">
        <ele>41.36</ele>
        <time>2025-07-04T10:11:39.896Z</time>
      </trkpt>
      <trkpt lat="49.20747" lon="-0.29766">
        <ele>41.24</ele>
        <time>2025-07-04T10:11:42.519Z</time>
      </trkpt>
      <trkpt lat="49.20723" lon="-0.29797">
        <ele>41.13</ele>
        <time>2025-07-04T10:11:45.147Z</time>
      </trkpt>
      <trkpt lat="49.20699" lon="-0.29828">
        <ele>40.93</ele>
        <time>2025-07-04T10:11:47.780Z</time>
      </trkpt>
      <trkpt lat="49.20693" lon="-0.29836">
        <ele>40.73</ele>
        <time>2025-07-04T10:11:50.414Z</time>
      </trkpt>
      <trkpt lat="49.20669" lon="-0.29867">
        <ele>40.47</ele>
        <time>2025-07-04T10:11:53.053Z</time>
      </trkpt>
      <trkpt lat="49.20645" lon="-0.29899">
        <ele>40.17</ele>
        <time>2025-07-04T10:11:55.697Z</time>
      </trkpt>
      <trkpt lat="49.20622" lon="-0.2993">
        <ele>39.83</ele>
        <time>2025-07-04T10:11:58.346Z</time>
      </trkpt>
      <trkpt lat="49.20598" lon="-0.29962">
        <ele>39.51</ele>
        <time>2025-07-04T10:12:01.000Z</time>
      </trkpt>
      <trkpt lat="49.20574" lon="-0.29993">
        <ele>39.18</ele>
        <time>2025-07-04T10:12:03.659Z</time>
      </trkpt>
      <trkpt lat="49.2055" lon="-0.30025">
        <ele>38.87</ele>
        <time>2025-07-04T10:12:06.323Z</time>
      </trkpt>
      <trkpt lat="49.20532" lon="-0.30049">
        <ele>38.57</ele>
        <time>2025-07-04T10:12:08.991Z</time>
      </trkpt>
      <trkpt lat="49.20508" lon="-0.3008">
        <ele>38.22</ele>
        <time>2025-07-04T10:12:11.664Z</time>
      </trkpt>
      <trkpt lat="49.20506" lon="-0.30083">
        <ele>37.87</ele>
        <time>2025-07-04T10:12:14.338Z</time>
      </trkpt>
      <trkpt lat="49.20479" lon="-0.30108">
        <ele>37.54</ele>
        <time>2025-07-04T10:12:17.017Z</time>
      </trkpt>
      <trkpt lat="49.20452" lon="-0.30132">
        <ele>37.12</ele>
        <time>2025-07-04T10:12:19.701Z</time>
      </trkpt>
      <trkpt lat="49.2043" lon="-0.30152">
        <ele>36.64</ele>
        <time>2025-07-04T10:12:22.389Z</time>
      </trkpt>
      <trkpt lat="49.20416" lon="-0.30166">
        <ele>36.19</ele>
        <time>2025-07-04T10:12:25.080Z</time>
      </trkpt>
      <trkpt lat="49.20407" lon="-0.30175">
        <ele>35.75</ele>
        <time>2025-07-04T10:12:27.772Z</time>
      </trkpt>
      <trkpt lat="49.2039" lon="-0.30193">
        <ele>35.31</ele>
        <time>2025-07-04T10:12:30.468Z</time>
      </trkpt>
      <trkpt lat="49.2037" lon="-0.30219">
        <ele>34.86</ele>
        <time>2025-07-04T10:12:33.168Z</time>
      </trkpt>
      <trkpt lat="49.20359" lon="-0.30234">
        <ele>34.38</ele>
        <time>2025-07-04T10:12:35.870Z</time>
      </trkpt>
      <trkpt lat="49.20358" lon="-0.3024">
        <ele>33.89</ele>
        <time>2025-07-04T10:12:38.573Z</time>
      </trkpt>
      <trkpt lat="49.20356" lon="-0.30243">
        <ele>33.38</ele>
        <time>2025-07-04T10:12:41.276Z</time>
      </trkpt>
      <trkpt lat="49.20348" lon="-0.30267">
        <ele>32.88</ele>
        <time>2025-07-04T10:12:43.982Z</time>
      </trkpt>
      <trkpt lat="49.2034" lon="-0.30279">
        <ele>32.34</ele>
        <time>2025-07-04T10:12:46.690Z</time>
      </trkpt>
      <trkpt lat="49.20328" lon="-0.30309">
        <ele>31.76</ele>
        <time>2025-07-04T10:12:49.402Z</time>
      </trkpt>
      <trkpt lat="49.20316" lon="-0.30349">
        <ele>31.14</ele>
        <time>2025-07-04T10:12:52.118Z</time>
      </trkpt>
      <trkpt lat="49.20311" lon="-0.30379">
        <ele>30.49</ele>
        <time>2025-07-04T10:12:54.837Z</time>
      </trkpt>
      <trkpt lat="49.20304" lon="-0.30419">
        <ele>29.79</ele>
        <time>2025-07-04T10:12:57.561Z</time>
      </trkpt>
      <trkpt lat="49.20285" lon="-0.30458">
        <ele>29.14</ele>
        <time>2025-07-04T10:13:00.290Z</time>
      </trkpt>
      <trkpt lat="49.20267" lon="-0.30496">
        <ele>28.43</ele>
        <time>2025-07-04T10:13:03.024Z</time>
      </trkpt>
      <trkpt lat="49.20257" lon="-0.30516">
        <ele>27.71</ele>
        <time>2025-07-04T10:13:05.761Z</time>
      </trkpt>
      <trkpt lat="49.20226" lon="-0.3052">
        <ele>27.02</ele>
        <time>2025-07-04T10:13:08.502Z</time>
      </trkpt>
      <trkpt lat="49.20222" lon="-0.30568">
        <ele>26.23</ele>
        <time>2025-07-04T10:13:11.249Z</time>
      </trkpt>
      <trkpt lat="49.20219" lon="-0.30594">
        <ele>25.43</ele>
        <time>2025-07-04T10:13:13.998Z</time>
      </trkpt>
      <trkpt lat="49.20219" lon="-0.30612">
        <ele>24.63</ele>
        <time>2025-07-04T10:13:16.749Z</time>
      </trkpt>
      <trkpt lat="49.20214" lon="-0.30612">
        <ele>23.86</ele>
        <time>2025-07-04T10:13:19.501Z</time>
      </trkpt>
      <trkpt lat="49.20203" lon="-0.30624">
        <ele>23.02</ele>
        <time>2025-07-04T10:13:22.255Z</time>
      </trkpt>
      <trkpt lat="49.20179" lon="-0.30656">
        <ele>22.1</ele>
        <time>2025-07-04T10:13:25.014Z</time>
      </trkpt>
      <trkpt lat="49.20176" lon="-0.3066">
        <ele>21.3</ele>
        <time>2025-07-04T10:13:27.774Z</time>
      </trkpt>
      <trkpt lat="49.20152" lon="-0.30691">
        <ele>20.51</ele>
        <time>2025-07-04T10:13:30.539Z</time>
      </trkpt>
      <trkpt lat="49.20134" lon="-0.30715">
        <ele>19.77</ele>
        <time>2025-07-04T10:13:33.308Z</time>
      </trkpt>
      <trkpt lat="49.20117" lon="-0.30735">
        <ele>18.97</ele>
        <time>2025-07-04T10:13:36.080Z</time>
      </trkpt>
      <trkpt lat="49.20092" lon="-0.30765">
        <ele>18.12</ele>
        <time>2025-07-04T10:13:38.857Z</time>
      </trkpt>
      <trkpt lat="49.2009" lon="-0.30768">
        <ele>17.31</ele>
        <time>2025-07-04T10:13:41.635Z</time>
      </trkpt>
      <trkpt lat="49.20065" lon="-0.30797">
        <ele>16.49</ele>
        <time>2025-07-04T10:13:44.418Z</time>
      </trkpt>
      <trkpt lat="49.20052" lon="-0.30818">
        <ele>15.68</ele>
        <time>2025-07-04T10:13:47.204Z</time>
      </trkpt>
      <trkpt lat="49.20035" lon="-0.30854">
        <ele>14.88</ele>
        <time>2025-07-04T10:13:49.994Z</time>
      </trkpt>
      <trkpt lat="49.20021" lon="-0.3089">
        <ele>14.08</ele>
        <time>2025-07-04T10:13:52.789Z</time>
      </trkpt>
      <trkpt lat="49.20018" lon="-0.3091">
        <ele>13.26</ele>
        <time>2025-07-04T10:13:55.586Z</time>
      </trkpt>
      <trkpt lat="49.20017" lon="-0.3095">
        <ele>12.38</ele>
        <time>2025-07-04T10:13:58.387Z</time>
      </trkpt>
      <trkpt lat="49.20029" lon="-0.30995">
        <ele>11.5</ele>
        <time>2025-07-04T10:14:01.193Z</time>
      </trkpt>
      <trkpt lat="49.20041" lon="-0.31039">
        <ele>10.65</ele>
        <time>2025-07-04T10:14:04.004Z</time>
      </trkpt>
      <trkpt lat="49.20044" lon="-0.31052">
        <ele>9.93</ele>
        <time>2025-07-04T10:14:06.817Z</time>
      </trkpt>
      <trkpt lat="49.20051" lon="-0.31078">
        <ele>9.24</ele>
        <time>2025-07-04T10:14:09.633Z</time>
      </trkpt>
      <trkpt lat="49.20058" lon="-0.31101">
        <ele>8.6</ele>
        <time>2025-07-04T10:14:12.451Z</time>
      </trkpt>
      <trkpt lat="49.20027" lon="-0.31111">
        <ele>8.02</ele>
        <time>2025-07-04T10:14:15.274Z</time>
      </trkpt>
      <trkpt lat="49.20005" lon="-0.31119">
        <ele>7.48</ele>
        <time>2025-07-04T10:14:18.101Z</time>
      </trkpt>
      <trkpt lat="49.19974" lon="-0.31124">
        <ele>7.03</ele>
        <time>2025-07-04T10:14:20.933Z</time>
      </trkpt>
      <trkpt lat="49.19969" lon="-0.31125">
        <ele>6.59</ele>
        <time>2025-07-04T10:14:23.766Z</time>
      </trkpt>
      <trkpt lat="49.19957" lon="-0.31126">
        <ele>6.2</ele>
        <time>2025-07-04T10:14:26.601Z</time>
      </trkpt>
      <trkpt lat="49.19926" lon="-0.31129">
        <ele>5.88</ele>
        <time>2025-07-04T10:14:29.441Z</time>
      </trkpt>
      <trkpt lat="49.19914" lon="-0.3113">
        <ele>5.57</ele>
        <time>2025-07-04T10:14:32.283Z</time>
      </trkpt>
      <trkpt lat="49.19883" lon="-0.31131">
        <ele>5.29</ele>
        <time>2025-07-04T10:14:35.130Z</time>
      </trkpt>
      <trkpt lat="49.19851" lon="-0.31132">
        <ele>5.05</ele>
        <time>2025-07-04T10:14:37.982Z</time>
      </trkpt>
      <trkpt lat="49.19848" lon="-0.31132">
        <ele>4.84</ele>
        <time>2025-07-04T10:14:40.834Z</time>
      </trkpt>
      <trkpt lat="49.19828" lon="-0.31131">
        <ele>4.69</ele>
        <time>2025-07-04T10:14:43.689Z</time>
      </trkpt>
      <trkpt lat="49.19797" lon="-0.31131">
        <ele>4.6</ele>
        <time>2025-07-04T10:14:46.550Z</time>
      </trkpt>
      <trkpt lat="49.19765" lon="-0.31131">
        <ele>4.51</ele>
        <time>2025-07-04T10:14:49.416Z</time>
      </trkpt>
      <trkpt lat="49.19755" lon="-0.31131">
        <ele>4.4</ele>
        <time>2025-07-04T10:14:52.283Z</time>
      </trkpt>
      <trkpt lat="49.19724" lon="-0.31132">
        <ele>4.26</ele>
        <time>2025-07-04T10:14:55.155Z</time>
      </trkpt>
      <trkpt lat="49.19692" lon="-0.31133">
        <ele>4.18</ele>
        <time>2025-07-04T10:14:58.032Z</time>
      </trkpt>
      <trkpt lat="49.19689" lon="-0.31133">
        <ele>4.19</ele>
        <time>2025-07-04T10:15:00.910Z</time>
      </trkpt>
      <trkpt lat="49.19662" lon="-0.31137">
        <ele>4.25</ele>
        <time>2025-07-04T10:15:03.792Z</time>
      </trkpt>
      <trkpt lat="49.19631" lon="-0.31142">
        <ele>4.31</ele>
        <time>2025-07-04T10:15:06.679Z</time>
      </trkpt>
      <trkpt lat="49.19609" lon="-0.31145">
        <ele>4.46</ele>
        <time>2025-07-04T10:15:09.570Z</time>
      </trkpt>
      <trkpt lat="49.19578" lon="-0.31152">
        <ele>4.64</ele>
        <time>2025-07-04T10:15:12.466Z</time>
      </trkpt>
      <trkpt lat="49.19561" lon="-0.31156">
        <ele>4.8</ele>
        <time>2025-07-04T10:15:15.364Z</time>
      </trkpt>
      <trkpt lat="49.19543" lon="-0.31164">
        <ele>4.96</ele>
        <time>2025-07-04T10:15:18.265Z</time>
      </trkpt>
      <trkpt lat="49.19523" lon="-0.31178">
        <ele>5.15</ele>
        <time>2025-07-04T10:15:21.170Z</time>
      </trkpt>
      <trkpt lat="49.19513" lon="-0.31188">
        <ele>5.38</ele>
        <time>2025-07-04T10:15:24.077Z</time>
      </trkpt>
      <trkpt lat="49.19491" lon="-0.31207">
        <ele>5.61</ele>
        <time>2025-07-04T10:15:26.988Z</time>
      </trkpt>
      <trkpt lat="49.19464" lon="-0.31233">
        <ele>5.91</ele>
        <time>2025-07-04T10:15:29.904Z</time>
      </trkpt>
      <trkpt lat="49.19439" lon="-0.31257">
        <ele>6.25</ele>
        <time>2025-07-04T10:15:32.825Z</time>
      </trkpt>
      <trkpt lat="49.19418" lon="-0.3127">
        <ele>6.57</ele>
        <time>2025-07-04T10:15:35.749Z</time>
      </trkpt>
      <trkpt lat="49.19393" lon="-0.3128">
        <ele>6.96</ele>
        <time>2025-07-04T10:15:38.677Z</time>
      </trkpt>
      <trkpt lat="49.19381" lon="-0.31282">
        <ele>7.36</ele>
        <time>2025-07-04T10:15:41.607Z</time>
      </trkpt>
      <trkpt lat="49.19365" lon="-0.31284">
        <ele>7.79</ele>
        <time>2025-07-04T10:15:44.540Z</time>
      </trkpt>
      <trkpt lat="49.19352" lon="-0.31283">
        <ele>8.23</ele>
        <time>2025-07-04T10:15:47.475Z</time>
      </trkpt>
      <trkpt lat="49.1934" lon="-0.31281">
        <ele>8.6</ele>
        <time>2025-07-04T10:15:50.412Z</time>
      </trkpt>
      <trkpt lat="49.19319" lon="-0.31274">
        <ele>9.02</ele>
        <time>2025-07-04T10:15:53.352Z</time>
      </trkpt>
      <trkpt lat="49.19305" lon="-0.31265">
        <ele>9.43</ele>
        <time>2025-07-04T10:15:56.295Z</time>
      </trkpt>
      <trkpt lat="49.19275" lon="-0.31249">
        <ele>10.01</ele>
        <time>2025-07-04T10:15:59.243Z</time>
      </trkpt>
      <trkpt lat="49.19273" lon="-0.31248">
        <ele>10.45</ele>
        <time>2025-07-04T10:16:02.191Z</time>
      </trkpt>
      <trkpt lat="49.19243" lon="-0.31235">
        <ele>10.93</ele>
        <time>2025-07-04T10:16:05.144Z</time>
      </trkpt>
      <trkpt lat="49.19239" lon="-0.31233">
        <ele>11.34</ele>
        <time>2025-07-04T10:16:08.098Z</time>
      </trkpt>
      <trkpt lat="49.19221" lon="-0.31228">
        <ele>11.77</ele>
        <time>2025-07-04T10:16:11.055Z</time>
      </trkpt>
      <trkpt lat="49.19204" lon="-0.31225">
        <ele>12.18</ele>
        <time>2025-07-04T10:16:14.015Z</time>
      </trkpt>
      <trkpt lat="49.19192" lon="-0.31225">
        <ele>12.57</ele>
        <time>2025-07-04T10:16:16.977Z</time>
      </trkpt>
      <trkpt lat="49.19177" lon="-0.31225">
        <ele>12.91</ele>
        <time>2025-07-04T10:16:19.941Z</time>
      </trkpt>
      <trkpt lat="49.19146" lon="-0.31227">
        <ele>13.2</ele>
        <time>2025-07-04T10:16:22.910Z</time>
      </trkpt>
      <trkpt lat="49.19114" lon="-0.31229">
        <ele>13.46</ele>
        <time>2025-07-04T10:16:25.884Z</time>
      </trkpt>
      <trkpt lat="49.19113" lon="-0.31229">
        <ele>13.66</ele>
        <time>2025-07-04T10:16:28.858Z</time>
      </trkpt>
      <trkpt lat="49.19082" lon="-0.31234">
        <ele>13.81</ele>
        <time>2025-07-04T10:16:31.837Z</time>
      </trkpt>
      <trkpt lat="49.1905" lon="-0.31239">
        <ele>13.85</ele>
        <time>2025-07-04T10:16:34.821Z</time>
      </trkpt>
      <trkpt lat="49.19037" lon="-0.31241">
        <ele>13.92</ele>
        <time>2025-07-04T10:16:37.807Z</time>
      </trkpt>
      <trkpt lat="49.19006" lon="-0.3125">
        <ele>13.94</ele>
        <time>2025-07-04T10:16:40.799Z</time>
      </trkpt>
      <trkpt lat="49.18975" lon="-0.31259">
        <ele>13.96</ele>
        <time>2025-07-04T10:16:43.796Z</time>
      </trkpt>
      <trkpt lat="49.18957" lon="-0.31264">
        <ele>13.91</ele>
        <time>2025-07-04T10:16:46.796Z</time>
      </trkpt>
      <trkpt lat="49.18926" lon="-0.31274">
        <ele>13.8</ele>
        <time>2025-07-04T10:16:49.801Z</time>
      </trkpt>
      <trkpt lat="49.18895" lon="-0.31284">
        <ele>13.68</ele>
        <time>2025-07-04T10:16:52.811Z</time>
      </trkpt>
      <trkpt lat="49.18865" lon="-0.31293">
        <ele>13.55</ele>
        <time>2025-07-04T10:16:55.826Z</time>
      </trkpt>
      <trkpt lat="49.18841" lon="-0.31301">
        <ele>13.38</ele>
        <time>2025-07-04T10:16:58.844Z</time>
      </trkpt>
      <trkpt lat="49.18813" lon="-0.31313">
        <ele>13.23</ele>
        <time>2025-07-04T10:17:01.867Z</time>
      </trkpt>
      <trkpt lat="49.18784" lon="-0.3133">
        <ele>13.05</ele>
        <time>2025-07-04T10:17:04.895Z</time>
      </trkpt>
      <trkpt lat="49.18776" lon="-0.31335">
        <ele>12.8</ele>
        <time>2025-07-04T10:17:07.925Z</time>
      </trkpt>
      <trkpt lat="49.18762" lon="-0.31346">
        <ele>12.52</ele>
        <time>2025-07-04T10:17:10.957Z</time>
      </trkpt>
      <trkpt lat="49.18735" lon="-0.3137">
        <ele>12.2</ele>
        <time>2025-07-04T10:17:13.994Z</time>
      </trkpt>
      <trkpt lat="49.18708" lon="-0.31394">
        <ele>11.81</ele>
        <time>2025-07-04T10:17:17.036Z</time>
      </trkpt>
      <trkpt lat="49.187" lon="-0.31401">
        <ele>11.43</ele>
        <time>2025-07-04T10:17:20.080Z</time>
      </trkpt>
      <trkpt lat="49.18673" lon="-0.31427">
        <ele>11</ele>
        <time>2025-07-04T10:17:23.129Z</time>
      </trkpt>
      <trkpt lat="49.18647" lon="-0.31453">
        <ele>10.6</ele>
        <time>2025-07-04T10:17:26.183Z</time>
      </trkpt>
      <trkpt lat="49.1862" lon="-0.31478">
        <ele>10.16</ele>
        <time>2025-07-04T10:17:29.242Z</time>
      </trkpt>
      <trkpt lat="49.18594" lon="-0.31504">
        <ele>9.69</ele>
        <time>2025-07-04T10:17:32.306Z</time>
      </trkpt>
      <trkpt lat="49.1859" lon="-0.31508">
        <ele>9.3</ele>
        <time>2025-07-04T10:17:35.370Z</time>
      </trkpt>
      <trkpt lat="49.18565" lon="-0.31537">
        <ele>8.83</ele>
        <time>2025-07-04T10:17:38.439Z</time>
      </trkpt>
      <trkpt lat="49.1854" lon="-0.31567">
        <ele>8.39</ele>
        <time>2025-07-04T10:17:41.513Z</time>
      </trkpt>
      <trkpt lat="49.18538" lon="-0.31569">
        <ele>8.03</ele>
        <time>2025-07-04T10:17:44.588Z</time>
      </trkpt>
      <trkpt lat="49.18515" lon="-0.31601">
        <ele>7.67</ele>
        <time>2025-07-04T10:17:47.668Z</time>
      </trkpt>
      <trkpt lat="49.18491" lon="-0.31633">
        <ele>7.36</ele>
        <time>2025-07-04T10:17:50.753Z</time>
      </trkpt>
      <trkpt lat="49.18488" lon="-0.31637">
        <ele>7.04</ele>
        <time>2025-07-04T10:17:53.839Z</time>
      </trkpt>
      <trkpt lat="49.18474" lon="-0.31661">
        <ele>6.74</ele>
        <time>2025-07-04T10:17:56.928Z</time>
      </trkpt>
      <trkpt lat="49.18453" lon="-0.31697">
        <ele>6.44</ele>
        <time>2025-07-04T10:18:00.022Z</time>
      </trkpt>
      <trkpt lat="49.18444" lon="-0.31714">
        <ele>6.19</ele>
        <time>2025-07-04T10:18:03.118Z</time>
      </trkpt>
      <trkpt lat="49.18424" lon="-0.31751">
        <ele>5.95</ele>
        <time>2025-07-04T10:18:06.219Z</time>
      </trkpt>
      <trkpt lat="49.18404" lon="-0.31788">
        <ele>5.76</ele>
        <time>2025-07-04T10:18:09.325Z</time>
      </trkpt>
      <trkpt lat="49.18384" lon="-0.31826">
        <ele>5.56</ele>
        <time>2025-07-04T10:18:12.436Z</time>
      </trkpt>
      <trkpt lat="49.18384" lon="-0.31826">
        <ele>5.39</ele>
        <time>2025-07-04T10:18:15.548Z</time>
      </trkpt>
      <trkpt lat="49.18366" lon="-0.31865">
        <ele>5.22</ele>
        <time>2025-07-04T10:18:18.665Z</time>
      </trkpt>
      <trkpt lat="49.18353" lon="-0.31893">
        <ele>5.08</ele>
        <time>2025-07-04T10:18:21.785Z</time>
      </trkpt>
      <trkpt lat="49.18341" lon="-0.31909">
        <ele>5.02</ele>
        <time>2025-07-04T10:18:24.908Z</time>
      </trkpt>
      <trkpt lat="49.18328" lon="-0.31918">
        <ele>4.97</ele>
        <time>2025-07-04T10:18:28.033Z</time>
      </trkpt>
      <trkpt lat="49.18309" lon="-0.31921">
        <ele>4.91</ele>
        <time>2025-07-04T10:18:31.161Z</time>
      </trkpt>
      <trkpt lat="49.18299" lon="-0.31921">
        <ele>4.84</ele>
        <time>2025-07-04T10:18:34.291Z</time>
      </trkpt>
      <trkpt lat="49.183" lon="-0.31935">
        <ele>4.82</ele>
        <time>2025-07-04T10:18:37.422Z</time>
      </trkpt>
      <trkpt lat="49.18298" lon="-0.31952">
        <ele>4.78</ele>
        <time>2025-07-04T10:18:40.555Z</time>
      </trkpt>
      <trkpt lat="49.18296" lon="-0.31976">
        <ele>4.74</ele>
        <time>2025-07-04T10:18:43.690Z</time>
      </trkpt>
      <trkpt lat="49.18286" lon="-0.32021">
        <ele>4.66</ele>
        <time>2025-07-04T10:18:46.831Z</time>
      </trkpt>
      <trkpt lat="49.18285" lon="-0.32025">
        <ele>4.62</ele>
        <time>2025-07-04T10:18:49.972Z</time>
      </trkpt>
      <trkpt lat="49.18271" lon="-0.32068">
        <ele>4.58</ele>
        <time>2025-07-04T10:18:53.118Z</time>
      </trkpt>
      <trkpt lat="49.18256" lon="-0.3211">
        <ele>4.6</ele>
        <time>2025-07-04T10:18:56.269Z</time>
      </trkpt>
      <trkpt lat="49.18251" lon="-0.32125">
        <ele>4.61</ele>
        <time>2025-07-04T10:18:59.422Z</time>
      </trkpt>
      <trkpt lat="49.18236" lon="-0.32167">
        <ele>4.61</ele>
        <time>2025-07-04T10:19:02.580Z</time>
      </trkpt>
      <trkpt lat="49.18221" lon="-0.3221">
        <ele>4.51</ele>
        <time>2025-07-04T10:19:05.743Z</time>
      </trkpt>
      <trkpt lat="49.18206" lon="-0.32252">
        <ele>4.44</ele>
        <time>2025-07-04T10:19:08.911Z</time>
      </trkpt>
      <trkpt lat="49.18204" lon="-0.32259">
        <ele>4.42</ele>
        <time>2025-07-04T10:19:12.080Z</time>
      </trkpt>
      <trkpt lat="49.1819" lon="-0.32302">
        <ele>4.46</ele>
        <time>2025-07-04T10:19:15.254Z</time>
      </trkpt>
      <trkpt lat="49.18176" lon="-0.32345">
        <ele>4.44</ele>
        <time>2025-07-04T10:19:18.433Z</time>
      </trkpt>
      <trkpt lat="49.18161" lon="-0.32388">
        <ele>4.42</ele>
        <time>2025-07-04T10:19:21.617Z</time>
      </trkpt>
      <trkpt lat="49.18148" lon="-0.32428">
        <ele>4.5</ele>
        <time>2025-07-04T10:19:24.806Z</time>
      </trkpt>
      <trkpt lat="49.18134" lon="-0.32471">
        <ele>4.52</ele>
        <time>2025-07-04T10:19:28.000Z</time>
      </trkpt>
      <trkpt lat="49.18123" lon="-0.32506">
        <ele>4.55</ele>
        <time>2025-07-04T10:19:31.198Z</time>
      </trkpt>
      <trkpt lat="49.18111" lon="-0.3255">
        <ele>4.49</ele>
        <time>2025-07-04T10:19:34.401Z</time>
      </trkpt>
      <trkpt lat="49.18099" lon="-0.32591">
        <ele>4.39</ele>
        <time>2025-07-04T10:19:37.608Z</time>
      </trkpt>
      <trkpt lat="49.18088" lon="-0.32636">
        <ele>4.4</ele>
        <time>2025-07-04T10:19:40.820Z</time>
      </trkpt>
      <trkpt lat="49.18077" lon="-0.32681">
        <ele>4.37</ele>
        <time>2025-07-04T10:19:44.038Z</time>
      </trkpt>
      <trkpt lat="49.18066" lon="-0.32726">
        <ele>4.27</ele>
        <time>2025-07-04T10:19:47.261Z</time>
      </trkpt>
      <trkpt lat="49.18055" lon="-0.32771">
        <ele>4.29</ele>
        <time>2025-07-04T10:19:50.489Z</time>
      </trkpt>
      <trkpt lat="49.18048" lon="-0.32802">
        <ele>4.41</ele>
        <time>2025-07-04T10:19:53.720Z</time>
      </trkpt>
      <trkpt lat="49.18038" lon="-0.32848">
        <ele>4.66</ele>
        <time>2025-07-04T10:19:56.956Z</time>
      </trkpt>
      <trkpt lat="49.18029" lon="-0.32893">
        <ele>4.82</ele>
        <time>2025-07-04T10:20:00.197Z</time>
      </trkpt>
      <trkpt lat="49.18027" lon="-0.32902">
        <ele>4.92</ele>
        <time>2025-07-04T10:20:03.439Z</time>
      </trkpt>
      <trkpt lat="49.18017" lon="-0.32948">
        <ele>5.02</ele>
        <time>2025-07-04T10:20:06.686Z</time>
      </trkpt>
      <trkpt lat="49.18009" lon="-0.32987">
        <ele>5.17</ele>
        <time>2025-07-04T10:20:09.937Z</time>
      </trkpt>
      <trkpt lat="49.18001" lon="-0.33033">
        <ele>5.36</ele>
        <time>2025-07-04T10:20:13.193Z</time>
      </trkpt>
      <trkpt lat="49.17992" lon="-0.3308">
        <ele>5.54</ele>
        <time>2025-07-04T10:20:16.455Z</time>
      </trkpt>
      <trkpt lat="49.17991" lon="-0.33087">
        <ele>5.68</ele>
        <time>2025-07-04T10:20:19.717Z</time>
      </trkpt>
      <trkpt lat="49.17984" lon="-0.33134">
        <ele>5.84</ele>
        <time>2025-07-04T10:20:22.984Z</time>
      </trkpt>
      <trkpt lat="49.17977" lon="-0.33181">
        <ele>6</ele>
        <time>2025-07-04T10:20:26.256Z</time>
      </trkpt>
      <trkpt lat="49.17977" lon="-0.33184">
        <ele>6.15</ele>
        <time>2025-07-04T10:20:29.529Z</time>
      </trkpt>
      <trkpt lat="49.17972" lon="-0.33231">
        <ele>6.33</ele>
        <time>2025-07-04T10:20:32.807Z</time>
      </trkpt>
      <trkpt lat="49.17967" lon="-0.33279">
        <ele>6.5</ele>
        <time>2025-07-04T10:20:36.090Z</time>
      </trkpt>
      <trkpt lat="49.17961" lon="-0.33326">
        <ele>6.65</ele>
        <time>2025-07-04T10:20:39.378Z</time>
      </trkpt>
      <trkpt lat="49.17961" lon="-0.3333">
        <ele>6.79</ele>
        <time>2025-07-04T10:20:42.666Z</time>
      </trkpt>
      <trkpt lat="49.17958" lon="-0.33366">
        <ele>6.87</ele>
        <time>2025-07-04T10:20:45.958Z</time>
      </trkpt>
      <trkpt lat="49.17955" lon="-0.33414">
        <ele>6.91</ele>
        <time>2025-07-04T10:20:49.255Z</time>
      </trkpt>
      <trkpt lat="49.17952" lon="-0.33462">
        <ele>7.05</ele>
        <time>2025-07-04T10:20:52.557Z</time>
      </trkpt>
      <trkpt lat="49.1795" lon="-0.33487">
        <ele>7.22</ele>
        <time>2025-07-04T10:20:55.862Z</time>
      </trkpt>
      <trkpt lat="49.17949" lon="-0.33535">
        <ele>7.39</ele>
        <time>2025-07-04T10:20:59.172Z</time>
      </trkpt>
      <trkpt lat="49.17948" lon="-0.33583">
        <ele>7.6</ele>
        <time>2025-07-04T10:21:02.487Z</time>
      </trkpt>
      <trkpt lat="49.17948" lon="-0.33585">
        <ele>7.74</ele>
        <time>2025-07-04T10:21:05.802Z</time>
      </trkpt>
      <trkpt lat="49.17948" lon="-0.33633">
        <ele>7.92</ele>
        <time>2025-07-04T10:21:09.122Z</time>
      </trkpt>
      <trkpt lat="49.17948" lon="-0.33681">
        <ele>8.01</ele>
        <time>2025-07-04T10:21:12.447Z</time>
      </trkpt>
      <trkpt lat="49.17948" lon="-0.33729">
        <ele>8.11</ele>
        <time>2025-07-04T10:21:15.777Z</time>
      </trkpt>
      <trkpt lat="49.17948" lon="-0.33735">
        <ele>8.22</ele>
        <time>2025-07-04T10:21:19.108Z</time>
      </trkpt>
      <trkpt lat="49.17949" lon="-0.33783">
        <ele>8.35</ele>
        <time>2025-07-04T10:21:22.444Z</time>
      </trkpt>
      <trkpt lat="49.1795" lon="-0.33831">
        <ele>8.47</ele>
        <time>2025-07-04T10:21:25.785Z</time>
      </trkpt>
      <trkpt lat="49.1795" lon="-0.33879">
        <ele>8.61</ele>
        <time>2025-07-04T10:21:29.131Z</time>
      </trkpt>
      <trkpt lat="49.17951" lon="-0.33915">
        <ele>8.77</ele>
        <time>2025-07-04T10:21:32.481Z</time>
      </trkpt>
      <trkpt lat="49.17952" lon="-0.33963">
        <ele>8.86</ele>
        <time>2025-07-04T10:21:35.836Z</time>
      </trkpt>
      <trkpt lat="49.17952" lon="-0.33997">
        <ele>8.9</ele>
        <time>2025-07-04T10:21:39.194Z</time>
      </trkpt>
      <trkpt lat="49.17953" lon="-0.34045">
        <ele>8.93</ele>
        <time>2025-07-04T10:21:42.557Z</time>
      </trkpt>
      <trkpt lat="49.17954" lon="-0.34076">
        <ele>9.01</ele>
        <time>2025-07-04T10:21:45.924Z</time>
      </trkpt>
      <trkpt lat="49.17955" lon="-0.34124">
        <ele>9.01</ele>
        <time>2025-07-04T10:21:49.296Z</time>
      </trkpt>
      <trkpt lat="49.17955" lon="-0.34172">
        <ele>8.95</ele>
        <time>2025-07-04T10:21:52.673Z</time>
      </trkpt>
      <trkpt lat="49.17956" lon="-0.3422">
        <ele>8.96</ele>
        <time>2025-07-04T10:21:56.055Z</time>
      </trkpt>
      <trkpt lat="49.17957" lon="-0.34268">
        <ele>9.05</ele>
        <time>2025-07-04T10:21:59.442Z</time>
      </trkpt>
      <trkpt lat="49.17958" lon="-0.34316">
        <ele>9.11</ele>
        <time>2025-07-04T10:22:02.834Z</time>
      </trkpt>
      <trkpt lat="49.17958" lon="-0.34364">
        <ele>9.11</ele>
        <time>2025-07-04T10:22:06.231Z</time>
      </trkpt>
      <trkpt lat="49.17959" lon="-0.3441">
        <ele>9.13</ele>
        <time>2025-07-04T10:22:09.633Z</time>
      </trkpt>
      <trkpt lat="49.1796" lon="-0.34458">
        <ele>9.13</ele>
        <time>2025-07-04T10:22:13.040Z</time>
      </trkpt>
      <trkpt lat="49.17962" lon="-0.34506">
        <ele>9.03</ele>
        <time>2025-07-04T10:22:16.452Z</time>
      </trkpt>
      <trkpt lat="49.17963" lon="-0.34554">
        <ele>9.06</ele>
        <time>2025-07-04T10:22:19.869Z</time>
      </trkpt>
      <trkpt lat="49.17964" lon="-0.34602">
        <ele>9.22</ele>
        <time>2025-07-04T10:22:23.291Z</time>
      </trkpt>
      <trkpt lat="49.17965" lon="-0.3465">
        <ele>9.3</ele>
        <time>2025-07-04T10:22:26.718Z</time>
      </trkpt>
      <trkpt lat="49.17967" lon="-0.34698">
        <ele>9.3</ele>
        <time>2025-07-04T10:22:30.150Z</time>
      </trkpt>
      <trkpt lat="49.17967" lon="-0.34712">
        <ele>9.33</ele>
        <time>2025-07-04T10:22:33.584Z</time>
      </trkpt>
      <trkpt lat="49.17968" lon="-0.3476">
        <ele>9.4</ele>
        <time>2025-07-04T10:22:37.023Z</time>
      </trkpt>
      <trkpt lat="49.17968" lon="-0.34762">
        <ele>9.4</ele>
        <time>2025-07-04T10:22:40.462Z</time>
      </trkpt>
      <trkpt lat="49.17966" lon="-0.34801">
        <ele>9.4</ele>
        <time>2025-07-04T10:22:43.905Z</time>
      </trkpt>
      <trkpt lat="49.17961" lon="-0.34835">
        <ele>9.27</ele>
        <time>2025-07-04T10:22:47.352Z</time>
      </trkpt>
      <trkpt lat="49.17954" lon="-0.34859">
        <ele>9.12</ele>
        <time>2025-07-04T10:22:50.801Z</time>
      </trkpt>
      <trkpt lat="49.17951" lon="-0.3487">
        <ele>9.09</ele>
        <time>2025-07-04T10:22:54.252Z</time>
      </trkpt>
      <trkpt lat="49.17954" lon="-0.34878">
        <ele>9.04</ele>
        <time>2025-07-04T10:22:57.704Z</time>
      </trkpt>
      <trkpt lat="49.17949" lon="-0.3489">
        <ele>9.03</ele>
        <time>2025-07-04T10:23:01.157Z</time>
      </trkpt>
      <trkpt lat="49.17947" lon="-0.34899">
        <ele>9.05</ele>
        <time>2025-07-04T10:23:04.611Z</time>
      </trkpt>
      <trkpt lat="49.17949" lon="-0.34903">
        <ele>9.03</ele>
        <time>2025-07-04T10:23:08.066Z</time>
      </trkpt>
      <trkpt lat="49.1794" lon="-0.34924">
        <ele>9.11</ele>
        <time>2025-07-04T10:23:11.523Z</time>
      </trkpt>
      <trkpt lat="49.17936" lon="-0.34921">
        <ele>9.1</ele>
        <time>2025-07-04T10:23:14.981Z</time>
      </trkpt>
      <trkpt lat="49.17927" lon="-0.34934">
        <ele>9.17</ele>
        <time>2025-07-04T10:23:18.441Z</time>
      </trkpt>
      <trkpt lat="49.17925" lon="-0.34935">
        <ele>9.17</ele>
        <time>2025-07-04T10:23:21.901Z</time>
      </trkpt>
      <trkpt lat="49.17907" lon="-0.34974">
        <ele>9.24</ele>
        <time>2025-07-04T10:23:25.366Z</time>
      </trkpt>
      <trkpt lat="49.17889" lon="-0.35013">
        <ele>9.05</ele>
        <time>2025-07-04T10:23:28.836Z</time>
      </trkpt>
      <trkpt lat="49.1788" lon="-0.35032">
        <ele>8.97</ele>
        <time>2025-07-04T10:23:32.309Z</time>
      </trkpt>
      <trkpt lat="49.17862" lon="-0.35072">
        <ele>8.97</ele>
        <time>2025-07-04T10:23:35.787Z</time>
      </trkpt>
      <trkpt lat="49.17844" lon="-0.35111">
        <ele>8.95</ele>
        <time>2025-07-04T10:23:39.270Z</time>
      </trkpt>
      <trkpt lat="49.17826" lon="-0.35151">
        <ele>8.9</ele>
        <time>2025-07-04T10:23:42.758Z</time>
      </trkpt>
      <trkpt lat="49.17811" lon="-0.35185">
        <ele>8.88</ele>
        <time>2025-07-04T10:23:46.250Z</time>
      </trkpt>
      <trkpt lat="49.17793" lon="-0.35225">
        <ele>8.91</ele>
        <time>2025-07-04T10:23:49.747Z</time>
      </trkpt>
      <trkpt lat="49.17776" lon="-0.35264">
        <ele>8.98</ele>
        <time>2025-07-04T10:23:53.249Z</time>
      </trkpt>
      <trkpt lat="49.17775" lon="-0.35266">
        <ele>8.99</ele>
        <time>2025-07-04T10:23:56.751Z</time>
      </trkpt>
      <trkpt lat="49.17801" lon="-0.35293">
        <ele>9.02</ele>
        <time>2025-07-04T10:24:00.259Z</time>
      </trkpt>
      <trkpt lat="49.17805" lon="-0.35297">
        <ele>9.06</ele>
        <time>2025-07-04T10:24:03.767Z</time>
      </trkpt>
      <trkpt lat="49.17822" lon="-0.35315">
        <ele>9.15</ele>
        <time>2025-07-04T10:24:07.279Z</time>
      </trkpt>
      <trkpt lat="49.1782" lon="-0.3532">
        <ele>9.17</ele>
        <time>2025-07-04T10:24:10.791Z</time>
      </trkpt>
      <trkpt lat="49.17814" lon="-0.35333">
        <ele>9.2</ele>
        <time>2025-07-04T10:24:14.305Z</time>
      </trkpt>
      <trkpt lat="49.17812" lon="-0.35339">
        <ele>9.23</ele>
        <time>2025-07-04T10:24:17.820Z</time>
      </trkpt>
      <trkpt lat="49.17812" lon="-0.35347">
        <ele>9.27</ele>
        <time>2025-07-04T10:24:21.335Z</time>
      </trkpt>
      <trkpt lat="49.17794" lon="-0.35386">
        <ele>9.35</ele>
        <time>2025-07-04T10:24:24.855Z</time>
      </trkpt>
      <trkpt lat="49.17776" lon="-0.35426">
        <ele>9.44</ele>
        <time>2025-07-04T10:24:28.380Z</time>
      </trkpt>
      <trkpt lat="49.17758" lon="-0.35465">
        <ele>9.46</ele>
        <time>2025-07-04T10:24:31.911Z</time>
      </trkpt>
      <trkpt lat="49.1774" lon="-0.35505">
        <ele>9.36</ele>
        <time>2025-07-04T10:24:35.447Z</time>
      </trkpt>
      <trkpt lat="49.17738" lon="-0.3551">
        <ele>9.37</ele>
        <time>2025-07-04T10:24:38.983Z</time>
      </trkpt>
      <trkpt lat="49.17733" lon="-0.35511">
        <ele>9.37</ele>
        <time>2025-07-04T10:24:42.520Z</time>
      </trkpt>
      <trkpt lat="49.1773" lon="-0.35512">
        <ele>9.39</ele>
        <time>2025-07-04T10:24:46.058Z</time>
      </trkpt>
      <trkpt lat="49.17728" lon="-0.35517">
        <ele>9.4</ele>
        <time>2025-07-04T10:24:49.596Z</time>
      </trkpt>
      <trkpt lat="49.17738" lon="-0.35522">
        <ele>9.44</ele>
        <time>2025-07-04T10:24:53.136Z</time>
      </trkpt>
      <trkpt lat="49.17728" lon="-0.35517">
        <ele>9.4</ele>
        <time>2025-07-04T10:24:56.678Z</time>
      </trkpt>
      <trkpt lat="49.17715" lon="-0.35507">
        <ele>9.44</ele>
        <time>2025-07-04T10:25:00.222Z</time>
      </trkpt>
      <trkpt lat="49.17689" lon="-0.3548">
        <ele>9.45</ele>
        <time>2025-07-04T10:25:03.771Z</time>
      </trkpt>
      <trkpt lat="49.17688" lon="-0.35479">
        <ele>9.47</ele>
        <time>2025-07-04T10:25:07.320Z</time>
      </trkpt>
      <trkpt lat="49.17676" lon="-0.35462">
        <ele>9.58</ele>
        <time>2025-07-04T10:25:10.872Z</time>
      </trkpt>
      <trkpt lat="49.17658" lon="-0.35501">
        <ele>9.63</ele>
        <time>2025-07-04T10:25:14.429Z</time>
      </trkpt>
      <trkpt lat="49.1764" lon="-0.35541">
        <ele>9.62</ele>
        <time>2025-07-04T10:25:17.991Z</time>
      </trkpt>
      <trkpt lat="49.17622" lon="-0.3558">
        <ele>9.64</ele>
        <time>2025-07-04T10:25:21.558Z</time>
      </trkpt>
      <trkpt lat="49.17604" lon="-0.3562">
        <ele>9.64</ele>
        <time>2025-07-04T10:25:25.130Z</time>
      </trkpt>
      <trkpt lat="49.17604" lon="-0.3562">
        <ele>9.65</ele>
        <time>2025-07-04T10:25:28.702Z</time>
      </trkpt>
      <trkpt lat="49.17586" lon="-0.35659">
        <ele>9.68</ele>
        <time>2025-07-04T10:25:32.279Z</time>
      </trkpt>
      <trkpt lat="49.17581" lon="-0.3567">
        <ele>9.71</ele>
        <time>2025-07-04T10:25:35.857Z</time>
      </trkpt>
      <trkpt lat="49.17571" lon="-0.35692">
        <ele>9.75</ele>
        <time>2025-07-04T10:25:39.438Z</time>
      </trkpt>
      <trkpt lat="49.17581" lon="-0.35708">
        <ele>9.75</ele>
        <time>2025-07-04T10:25:43.021Z</time>
      </trkpt>
      <trkpt lat="49.17603" lon="-0.35743">
        <ele>9.73</ele>
        <time>2025-07-04T10:25:46.609Z</time>
      </trkpt>
      <trkpt lat="49.17613" lon="-0.35759">
        <ele>9.75</ele>
        <time>2025-07-04T10:25:50.200Z</time>
      </trkpt>
      <trkpt lat="49.1762" lon="-0.35763">
        <ele>9.75</ele>
        <time>2025-07-04T10:25:53.792Z</time>
      </trkpt>
      <trkpt lat="49.17618" lon="-0.35768">
        <ele>9.71</ele>
        <time>2025-07-04T10:25:57.385Z</time>
      </trkpt>
      <trkpt lat="49.17615" lon="-0.35773">
        <ele>9.67</ele>
        <time>2025-07-04T10:26:00.978Z</time>
      </trkpt>
      <trkpt lat="49.17615" lon="-0.35779">
        <ele>9.62</ele>
        <time>2025-07-04T10:26:04.572Z</time>
      </trkpt>
      <trkpt lat="49.17613" lon="-0.35786">
        <ele>9.55</ele>
        <time>2025-07-04T10:26:08.167Z</time>
      </trkpt>
      <trkpt lat="49.17592" lon="-0.35822">
        <ele>9.43</ele>
        <time>2025-07-04T10:26:11.767Z</time>
      </trkpt>
      <trkpt lat="49.1758" lon="-0.35842">
        <ele>9.36</ele>
        <time>2025-07-04T10:26:15.370Z</time>
      </trkpt>
      <trkpt lat="49.17559" lon="-0.35877">
        <ele>9.31</ele>
        <time>2025-07-04T10:26:18.978Z</time>
      </trkpt>
      <trkpt lat="49.17537" lon="-0.35912">
        <ele>9.19</ele>
        <time>2025-07-04T10:26:22.591Z</time>
      </trkpt>
      <trkpt lat="49.17531" lon="-0.35922">
        <ele>9.1</ele>
        <time>2025-07-04T10:26:26.205Z</time>
      </trkpt>
      <trkpt lat="49.17509" lon="-0.35957">
        <ele>9.01</ele>
        <time>2025-07-04T10:26:29.824Z</time>
      </trkpt>
      <trkpt lat="49.17488" lon="-0.35992">
        <ele>8.96</ele>
        <time>2025-07-04T10:26:33.448Z</time>
      </trkpt>
      <trkpt lat="49.17466" lon="-0.36027">
        <ele>8.85</ele>
        <time>2025-07-04T10:26:37.077Z</time>
      </trkpt>
      <trkpt lat="49.17445" lon="-0.36062">
        <ele>8.7</ele>
        <time>2025-07-04T10:26:40.711Z</time>
      </trkpt>
      <trkpt lat="49.17423" lon="-0.36097">
        <ele>8.59</ele>
        <time>2025-07-04T10:26:44.350Z</time>
      </trkpt>
      <trkpt lat="49.17402" lon="-0.36132">
        <ele>8.5</ele>
        <time>2025-07-04T10:26:47.994Z</time>
      </trkpt>
      <trkpt lat="49.1738" lon="-0.36167">
        <ele>8.39</ele>
        <time>2025-07-04T10:26:51.643Z</time>
      </trkpt>
      <trkpt lat="49.17359" lon="-0.36202">
        <ele>8.28</ele>
        <time>2025-07-04T10:26:55.298Z</time>
      </trkpt>
      <trkpt lat="49.17337" lon="-0.36237">
        <ele>8.18</ele>
        <time>2025-07-04T10:26:58.958Z</time>
      </trkpt>
      <trkpt lat="49.17321" lon="-0.36263">
        <ele>8.05</ele>
        <time>2025-07-04T10:27:02.621Z</time>
      </trkpt>
      <trkpt lat="49.17299" lon="-0.36298">
        <ele>7.89</ele>
        <time>2025-07-04T10:27:06.289Z</time>
      </trkpt>
      <trkpt lat="49.17278" lon="-0.36333">
        <ele>7.81</ele>
        <time>2025-07-04T10:27:09.962Z</time>
      </trkpt>
      <trkpt lat="49.17256" lon="-0.36368">
        <ele>7.7</ele>
        <time>2025-07-04T10:27:13.640Z</time>
      </trkpt>
      <trkpt lat="49.17234" lon="-0.36402">
        <ele>7.59</ele>
        <time>2025-07-04T10:27:17.323Z</time>
      </trkpt>
      <trkpt lat="49.17221" lon="-0.36424">
        <ele>7.49</ele>
        <time>2025-07-04T10:27:21.010Z</time>
      </trkpt>
      <trkpt lat="49.172" lon="-0.36459">
        <ele>7.38</ele>
        <time>2025-07-04T10:27:24.702Z</time>
      </trkpt>
      <trkpt lat="49.17185" lon="-0.36483">
        <ele>7.24</ele>
        <time>2025-07-04T10:27:28.397Z</time>
      </trkpt>
      <trkpt lat="49.17181" lon="-0.36524">
        <ele>7.16</ele>
        <time>2025-07-04T10:27:32.096Z</time>
      </trkpt>
      <trkpt lat="49.17176" lon="-0.36571">
        <ele>7.02</ele>
        <time>2025-07-04T10:27:35.800Z</time>
      </trkpt>
      <trkpt lat="49.1717" lon="-0.36619">
        <ele>6.84</ele>
        <time>2025-07-04T10:27:39.510Z</time>
      </trkpt>
      <trkpt lat="49.1717" lon="-0.36619">
        <ele>6.72</ele>
        <time>2025-07-04T10:27:43.220Z</time>
      </trkpt>
      <trkpt lat="49.17139" lon="-0.36616">
        <ele>6.64</ele>
        <time>2025-07-04T10:27:46.935Z</time>
      </trkpt>
      <trkpt lat="49.17128" lon="-0.36615">
        <ele>6.55</ele>
        <time>2025-07-04T10:27:50.651Z</time>
      </trkpt>
      <trkpt lat="49.17124" lon="-0.36618">
        <ele>6.42</ele>
        <time>2025-07-04T10:27:54.368Z</time>
      </trkpt>
      <trkpt lat="49.1712" lon="-0.36624">
        <ele>6.29</ele>
        <time>2025-07-04T10:27:58.086Z</time>
      </trkpt>
      <trkpt lat="49.17106" lon="-0.36663">
        <ele>6.14</ele>
        <time>2025-07-04T10:28:01.809Z</time>
      </trkpt>
      <trkpt lat="49.17099" lon="-0.36676">
        <ele>6.02</ele>
        <time>2025-07-04T10:28:05.533Z</time>
      </trkpt>
      <trkpt lat="49.17088" lon="-0.36687">
        <ele>5.89</ele>
        <time>2025-07-04T10:28:09.259Z</time>
      </trkpt>
      <trkpt lat="49.17063" lon="-0.36705">
        <ele>5.76</ele>
        <time>2025-07-04T10:28:12.990Z</time>
      </trkpt>
      <trkpt lat="49.17046" lon="-0.36707">
        <ele>5.62</ele>
        <time>2025-07-04T10:28:16.724Z</time>
      </trkpt>
      <trkpt lat="49.17028" lon="-0.36708">
        <ele>5.49</ele>
        <time>2025-07-04T10:28:20.460Z</time>
      </trkpt>
      <trkpt lat="49.17027" lon="-0.3671">
        <ele>5.37</ele>
        <time>2025-07-04T10:28:24.197Z</time>
      </trkpt>
      <trkpt lat="49.17026" lon="-0.36712">
        <ele>5.25</ele>
        <time>2025-07-04T10:28:27.934Z</time>
      </trkpt>
      <trkpt lat="49.17012" lon="-0.3671">
        <ele>5.14</ele>
        <time>2025-07-04T10:28:31.673Z</time>
      </trkpt>
      <trkpt lat="49.16982" lon="-0.36695">
        <ele>5.02</ele>
        <time>2025-07-04T10:28:35.417Z</time>
      </trkpt>
      <trkpt lat="49.16977" lon="-0.36693">
        <ele>4.91</ele>
        <time>2025-07-04T10:28:39.162Z</time>
      </trkpt>
      <trkpt lat="49.16972" lon="-0.36692">
        <ele>4.8</ele>
        <time>2025-07-04T10:28:42.908Z</time>
      </trkpt>
      <trkpt lat="49.16964" lon="-0.36694">
        <ele>4.7</ele>
        <time>2025-07-04T10:28:46.655Z</time>
      </trkpt>
      <trkpt lat="49.16959" lon="-0.36699">
        <ele>4.6</ele>
        <time>2025-07-04T10:28:50.403Z</time>
      </trkpt>
      <trkpt lat="49.16946" lon="-0.36715">
        <ele>4.49</ele>
        <time>2025-07-04T10:28:54.154Z</time>
      </trkpt>
      <trkpt lat="49.16928" lon="-0.36739">
        <ele>4.4</ele>
        <time>2025-07-04T10:28:57.909Z</time>
      </trkpt>
      <trkpt lat="49.16905" lon="-0.36771">
        <ele>4.33</ele>
        <time>2025-07-04T10:29:01.669Z</time>
      </trkpt>
      <trkpt lat="49.16881" lon="-0.36803">
        <ele>4.24</ele>
        <time>2025-07-04T10:29:05.434Z</time>
      </trkpt>
      <trkpt lat="49.16858" lon="-0.36835">
        <ele>4.05</ele>
        <time>2025-07-04T10:29:09.204Z</time>
      </trkpt>
      <trkpt lat="49.16834" lon="-0.36867">
        <ele>4.03</ele>
        <time>2025-07-04T10:29:12.979Z</time>
      </trkpt>
      <trkpt lat="49.16819" lon="-0.36888">
        <ele>4.07</ele>
        <time>2025-07-04T10:29:16.757Z</time>
      </trkpt>
      <trkpt lat="49.16796" lon="-0.3692">
        <ele>4.14</ele>
        <time>2025-07-04T10:29:20.540Z</time>
      </trkpt>
      <trkpt lat="49.16772" lon="-0.36952">
        <ele>4.16</ele>
        <time>2025-07-04T10:29:24.328Z</time>
      </trkpt>
      <trkpt lat="49.16749" lon="-0.36984">
        <ele>4.23</ele>
        <time>2025-07-04T10:29:28.121Z</time>
      </trkpt>
      <trkpt lat="49.16725" lon="-0.37016">
        <ele>4.3</ele>
        <time>2025-07-04T10:29:31.919Z</time>
      </trkpt>
      <trkpt lat="49.16702" lon="-0.37049">
        <ele>4.34</ele>
        <time>2025-07-04T10:29:35.722Z</time>
      </trkpt>
      <trkpt lat="49.16679" lon="-0.37081">
        <ele>4.44</ele>
        <time>2025-07-04T10:29:39.530Z</time>
      </trkpt>
      <trkpt lat="49.16655" lon="-0.37113">
        <ele>4.7</ele>
        <time>2025-07-04T10:29:43.343Z</time>
      </trkpt>
      <trkpt lat="49.16634" lon="-0.37142">
        <ele>4.92</ele>
        <time>2025-07-04T10:29:47.161Z</time>
      </trkpt>
      <trkpt lat="49.16611" lon="-0.37174">
        <ele>5.01</ele>
        <time>2025-07-04T10:29:50.984Z</time>
      </trkpt>
      <trkpt lat="49.16587" lon="-0.37206">
        <ele>5.09</ele>
        <time>2025-07-04T10:29:54.812Z</time>
      </trkpt>
      <trkpt lat="49.16564" lon="-0.37238">
        <ele>5.3</ele>
        <time>2025-07-04T10:29:58.645Z</time>
      </trkpt>
      <trkpt lat="49.1654" lon="-0.3727">
        <ele>5.62</ele>
        <time>2025-07-04T10:30:02.483Z</time>
      </trkpt>
      <trkpt lat="49.16517" lon="-0.37302">
        <ele>5.91</ele>
        <time>2025-07-04T10:30:06.326Z</time>
      </trkpt>
      <trkpt lat="49.16494" lon="-0.37334">
        <ele>6.17</ele>
        <time>2025-07-04T10:30:10.174Z</time>
      </trkpt>
      <trkpt lat="49.1647" lon="-0.37366">
        <ele>6.36</ele>
        <time>2025-07-04T10:30:14.027Z</time>
      </trkpt>
      <trkpt lat="49.16447" lon="-0.37399">
        <ele>6.63</ele>
        <time>2025-07-04T10:30:17.885Z</time>
      </trkpt>
      <trkpt lat="49.16423" lon="-0.37431">
        <ele>6.94</ele>
        <time>2025-07-04T10:30:21.748Z</time>
      </trkpt>
      <trkpt lat="49.164" lon="-0.37463">
        <ele>7.21</ele>
        <time>2025-07-04T10:30:25.616Z</time>
      </trkpt>
      <trkpt lat="49.16385" lon="-0.37483">
        <ele>7.48</ele>
        <time>2025-07-04T10:30:29.488Z</time>
      </trkpt>
      <trkpt lat="49.16364" lon="-0.37519">
        <ele>7.74</ele>
        <time>2025-07-04T10:30:33.365Z</time>
      </trkpt>
      <trkpt lat="49.16355" lon="-0.37534">
        <ele>8.03</ele>
        <time>2025-07-04T10:30:37.244Z</time>
      </trkpt>
      <trkpt lat="49.16349" lon="-0.3755">
        <ele>8.33</ele>
        <time>2025-07-04T10:30:41.125Z</time>
      </trkpt>
      <trkpt lat="49.16342" lon="-0.37597">
        <ele>8.67</ele>
        <time>2025-07-04T10:30:45.011Z</time>
      </trkpt>
      <trkpt lat="49.1634" lon="-0.37615">
        <ele>8.97</ele>
        <time>2025-07-04T10:30:48.899Z</time>
      </trkpt>
      <trkpt lat="49.16336" lon="-0.37645">
        <ele>9.27</ele>
        <time>2025-07-04T10:30:52.790Z</time>
      </trkpt>
      <trkpt lat="49.16323" lon="-0.37688">
        <ele>9.62</ele>
        <time>2025-07-04T10:30:56.686Z</time>
      </trkpt>
      <trkpt lat="49.1632" lon="-0.37697">
        <ele>9.89</ele>
        <time>2025-07-04T10:31:00.583Z</time>
      </trkpt>
      <trkpt lat="49.16308" lon="-0.37722">
        <ele>10.15</ele>
        <time>2025-07-04T10:31:04.483Z</time>
      </trkpt>
      <trkpt lat="49.1629" lon="-0.37748">
        <ele>10.38</ele>
        <time>2025-07-04T10:31:08.387Z</time>
      </trkpt>
      <trkpt lat="49.16275" lon="-0.37761">
        <ele>10.56</ele>
        <time>2025-07-04T10:31:12.294Z</time>
      </trkpt>
      <trkpt lat="49.16256" lon="-0.37774">
        <ele>10.74</ele>
        <time>2025-07-04T10:31:16.204Z</time>
      </trkpt>
      <trkpt lat="49.16226" lon="-0.37787">
        <ele>10.96</ele>
        <time>2025-07-04T10:31:20.119Z</time>
      </trkpt>
      <trkpt lat="49.16195" lon="-0.378">
        <ele>11.21</ele>
        <time>2025-07-04T10:31:24.039Z</time>
      </trkpt>
      <trkpt lat="49.16195" lon="-0.378">
        <ele>11.37</ele>
        <time>2025-07-04T10:31:27.959Z</time>
      </trkpt>
      <trkpt lat="49.16165" lon="-0.37813">
        <ele>11.54</ele>
        <time>2025-07-04T10:31:31.884Z</time>
      </trkpt>
      <trkpt lat="49.16135" lon="-0.37827">
        <ele>11.6</ele>
        <time>2025-07-04T10:31:35.815Z</time>
      </trkpt>
      <trkpt lat="49.16104" lon="-0.3784">
        <ele>11.68</ele>
        <time>2025-07-04T10:31:39.751Z</time>
      </trkpt>
      <trkpt lat="49.16104" lon="-0.3784">
        <ele>11.78</ele>
        <time>2025-07-04T10:31:43.687Z</time>
      </trkpt>
      <trkpt lat="49.16074" lon="-0.37854">
        <ele>11.85</ele>
        <time>2025-07-04T10:31:47.628Z</time>
      </trkpt>
      <trkpt lat="49.16044" lon="-0.37867">
        <ele>11.89</ele>
        <time>2025-07-04T10:31:51.574Z</time>
      </trkpt>
      <trkpt lat="49.16013" lon="-0.37881">
        <ele>11.99</ele>
        <time>2025-07-04T10:31:55.525Z</time>
      </trkpt>
      <trkpt lat="49.15983" lon="-0.37894">
        <ele>12.09</ele>
        <time>2025-07-04T10:31:59.481Z</time>
      </trkpt>
      <trkpt lat="49.15953" lon="-0.37908">
        <ele>12.12</ele>
        <time>2025-07-04T10:32:03.442Z</time>
      </trkpt>
      <trkpt lat="49.15923" lon="-0.37921">
        <ele>12.1</ele>
        <time>2025-07-04T10:32:07.408Z</time>
      </trkpt>
      <trkpt lat="49.15921" lon="-0.37922">
        <ele>12.12</ele>
        <time>2025-07-04T10:32:11.374Z</time>
      </trkpt>
      <trkpt lat="49.15891" lon="-0.37936">
        <ele>12.07</ele>
        <time>2025-07-04T10:32:15.345Z</time>
      </trkpt>
      <trkpt lat="49.15861" lon="-0.37949">
        <ele>12.07</ele>
        <time>2025-07-04T10:32:19.321Z</time>
      </trkpt>
      <trkpt lat="49.15846" lon="-0.37956">
        <ele>12.1</ele>
        <time>2025-07-04T10:32:23.300Z</time>
      </trkpt>
      <trkpt lat="49.15823" lon="-0.3797">
        <ele>12.16</ele>
        <time>2025-07-04T10:32:27.283Z</time>
      </trkpt>
      <trkpt lat="49.15813" lon="-0.3798">
        <ele>12.15</ele>
        <time>2025-07-04T10:32:31.268Z</time>
      </trkpt>
      <trkpt lat="49.15796" lon="-0.38008">
        <ele>12.14</ele>
        <time>2025-07-04T10:32:35.257Z</time>
      </trkpt>
      <trkpt lat="49.15787" lon="-0.3804">
        <ele>12.12</ele>
        <time>2025-07-04T10:32:39.249Z</time>
      </trkpt>
      <trkpt lat="49.15785" lon="-0.38066">
        <ele>12.1</ele>
        <time>2025-07-04T10:32:43.244Z</time>
      </trkpt>
      <trkpt lat="49.15792" lon="-0.38113">
        <ele>12.08</ele>
        <time>2025-07-04T10:32:47.244Z</time>
      </trkpt>
      <trkpt lat="49.15796" lon="-0.38138">
        <ele>12.05</ele>
        <time>2025-07-04T10:32:51.247Z</time>
      </trkpt>
      <trkpt lat="49.15805" lon="-0.38184">
        <ele>11.95</ele>
        <time>2025-07-04T10:32:55.255Z</time>
      </trkpt>
      <trkpt lat="49.15813" lon="-0.3823">
        <ele>11.85</ele>
        <time>2025-07-04T10:32:59.268Z</time>
      </trkpt>
      <trkpt lat="49.15822" lon="-0.38277">
        <ele>11.88</ele>
        <time>2025-07-04T10:33:03.286Z</time>
      </trkpt>
      <trkpt lat="49.1583" lon="-0.38323">
        <ele>11.84</ele>
        <time>2025-07-04T10:33:07.309Z</time>
      </trkpt>
      <trkpt lat="49.15839" lon="-0.38369">
        <ele>11.85</ele>
        <time>2025-07-04T10:33:11.337Z</time>
      </trkpt>
      <trkpt lat="49.15847" lon="-0.38415">
        <ele>11.83</ele>
        <time>2025-07-04T10:33:15.370Z</time>
      </trkpt>
      <trkpt lat="49.15848" lon="-0.38418">
        <ele>11.74</ele>
        <time>2025-07-04T10:33:19.403Z</time>
      </trkpt>
      <trkpt lat="49.15857" lon="-0.38464">
        <ele>11.71</ele>
        <time>2025-07-04T10:33:23.441Z</time>
      </trkpt>
      <trkpt lat="49.15865" lon="-0.3851">
        <ele>11.55</ele>
        <time>2025-07-04T10:33:27.484Z</time>
      </trkpt>
      <trkpt lat="49.15874" lon="-0.38556">
        <ele>11.38</ele>
        <time>2025-07-04T10:33:31.532Z</time>
      </trkpt>
      <trkpt lat="49.15883" lon="-0.38602">
        <ele>11.21</ele>
        <time>2025-07-04T10:33:35.585Z</time>
      </trkpt>
      <trkpt lat="49.15892" lon="-0.38649">
        <ele>11.08</ele>
        <time>2025-07-04T10:33:39.644Z</time>
      </trkpt>
      <trkpt lat="49.15895" lon="-0.38667">
        <ele>10.9</ele>
        <time>2025-07-04T10:33:43.705Z</time>
      </trkpt>
      <trkpt lat="49.15901" lon="-0.38684">
        <ele>10.7</ele>
        <time>2025-07-04T10:33:47.768Z</time>
      </trkpt>
      <trkpt lat="49.1591" lon="-0.3873">
        <ele>10.42</ele>
        <time>2025-07-04T10:33:51.836Z</time>
      </trkpt>
      <trkpt lat="49.1591" lon="-0.3873">
        <ele>10.19</ele>
        <time>2025-07-04T10:33:55.904Z</time>
      </trkpt>
      <trkpt lat="49.15893" lon="-0.38735">
        <ele>9.91</ele>
        <time>2025-07-04T10:33:59.974Z</time>
      </trkpt>
      <trkpt lat="49.15867" lon="-0.38742">
        <ele>9.58</ele>
        <time>2025-07-04T10:34:04.049Z</time>
      </trkpt>
      <trkpt lat="49.15846" lon="-0.38754">
        <ele>9.25</ele>
        <time>2025-07-04T10:34:08.127Z</time>
      </trkpt>
      <trkpt lat="49.1582" lon="-0.38775">
        <ele>8.95</ele>
        <time>2025-07-04T10:34:12.210Z</time>
      </trkpt>
      <trkpt lat="49.15796" lon="-0.388">
        <ele>8.64</ele>
        <time>2025-07-04T10:34:16.298Z</time>
      </trkpt>
      <trkpt lat="49.1577" lon="-0.38827">
        <ele>8.37</ele>
        <time>2025-07-04T10:34:20.391Z</time>
      </trkpt>
      <trkpt lat="49.15756" lon="-0.38842">
        <ele>8.12</ele>
        <time>2025-07-04T10:34:24.486Z</time>
      </trkpt>
      <trkpt lat="49.15729" lon="-0.38866">
        <ele>7.87</ele>
        <time>2025-07-04T10:34:28.586Z</time>
      </trkpt>
      <trkpt lat="49.15716" lon="-0.38877">
        <ele>7.62</ele>
        <time>2025-07-04T10:34:32.689Z</time>
      </trkpt>
      <trkpt lat="49.157" lon="-0.38895">
        <ele>7.36</ele>
        <time>2025-07-04T10:34:36.795Z</time>
      </trkpt>
      <trkpt lat="49.15698" lon="-0.38899">
        <ele>7.12</ele>
        <time>2025-07-04T10:34:40.901Z</time>
      </trkpt>
      <trkpt lat="49.15699" lon="-0.38909">
        <ele>6.89</ele>
        <time>2025-07-04T10:34:45.009Z</time>
      </trkpt>
      <trkpt lat="49.157" lon="-0.38932">
        <ele>6.68</ele>
        <time>2025-07-04T10:34:49.119Z</time>
      </trkpt>
      <trkpt lat="49.15696" lon="-0.3896">
        <ele>6.47</ele>
        <time>2025-07-04T10:34:53.232Z</time>
      </trkpt>
      <trkpt lat="49.15685" lon="-0.39005">
        <ele>6.29</ele>
        <time>2025-07-04T10:34:57.350Z</time>
      </trkpt>
      <trkpt lat="49.15684" lon="-0.39011">
        <ele>6.16</ele>
        <time>2025-07-04T10:35:01.469Z</time>
      </trkpt>
      <trkpt lat="49.15675" lon="-0.39044">
        <ele>6.06</ele>
        <time>2025-07-04T10:35:05.591Z</time>
      </trkpt>
      <trkpt lat="49.15661" lon="-0.39087">
        <ele>6</ele>
        <time>2025-07-04T10:35:09.718Z</time>
      </trkpt>
      <trkpt lat="49.1566" lon="-0.39089">
        <ele>5.94</ele>
        <time>2025-07-04T10:35:13.846Z</time>
      </trkpt>
      <trkpt lat="49.15646" lon="-0.39132">
        <ele>5.92</ele>
        <time>2025-07-04T10:35:17.979Z</time>
      </trkpt>
      <trkpt lat="49.15635" lon="-0.39164">
        <ele>5.92</ele>
        <time>2025-07-04T10:35:22.116Z</time>
      </trkpt>
      <trkpt lat="49.15634" lon="-0.39173">
        <ele>5.96</ele>
        <time>2025-07-04T10:35:26.253Z</time>
      </trkpt>
      <trkpt lat="49.15636" lon="-0.39175">
        <ele>6.03</ele>
        <time>2025-07-04T10:35:30.391Z</time>
      </trkpt>
      <trkpt lat="49.15638" lon="-0.39182">
        <ele>6.14</ele>
        <time>2025-07-04T10:35:34.530Z</time>
      </trkpt>
      <trkpt lat="49.15636" lon="-0.39188">
        <ele>6.29</ele>
        <time>2025-07-04T10:35:38.669Z</time>
      </trkpt>
      <trkpt lat="49.15632" lon="-0.39189">
        <ele>6.48</ele>
        <time>2025-07-04T10:35:42.809Z</time>
      </trkpt>
      <trkpt lat="49.15628" lon="-0.39186">
        <ele>6.7</ele>
        <time>2025-07-04T10:35:46.950Z</time>
      </trkpt>
      <trkpt lat="49.15618" lon="-0.39199">
        <ele>6.97</ele>
        <time>2025-07-04T10:35:51.093Z</time>
      </trkpt>
      <trkpt lat="49.156" lon="-0.39238">
        <ele>7.27</ele>
        <time>2025-07-04T10:35:55.241Z</time>
      </trkpt>
      <trkpt lat="49.15581" lon="-0.39277">
        <ele>7.62</ele>
        <time>2025-07-04T10:35:59.394Z</time>
      </trkpt>
      <trkpt lat="49.15579" lon="-0.39282">
        <ele>8</ele>
        <time>2025-07-04T10:36:03.548Z</time>
      </trkpt>
      <trkpt lat="49.15564" lon="-0.39325">
        <ele>8.46</ele>
        <time>2025-07-04T10:36:07.707Z</time>
      </trkpt>
      <trkpt lat="49.15555" lon="-0.39352">
        <ele>8.94</ele>
        <time>2025-07-04T10:36:11.869Z</time>
      </trkpt>
      <trkpt lat="49.15538" lon="-0.39393">
        <ele>9.46</ele>
        <time>2025-07-04T10:36:16.036Z</time>
      </trkpt>
      <trkpt lat="49.15538" lon="-0.39394">
        <ele>10</ele>
        <time>2025-07-04T10:36:20.203Z</time>
      </trkpt>
      <trkpt lat="49.1552" lon="-0.39433">
        <ele>10.61</ele>
        <time>2025-07-04T10:36:24.375Z</time>
      </trkpt>
      <trkpt lat="49.15515" lon="-0.39443">
        <ele>11.23</ele>
        <time>2025-07-04T10:36:28.548Z</time>
      </trkpt>
      <trkpt lat="49.15495" lon="-0.3948">
        <ele>11.91</ele>
        <time>2025-07-04T10:36:32.726Z</time>
      </trkpt>
      <trkpt lat="49.15475" lon="-0.39517">
        <ele>12.62</ele>
        <time>2025-07-04T10:36:36.909Z</time>
      </trkpt>
      <trkpt lat="49.15455" lon="-0.39554">
        <ele>13.36</ele>
        <time>2025-07-04T10:36:41.097Z</time>
      </trkpt>
      <trkpt lat="49.15435" lon="-0.39591">
        <ele>14.19</ele>
        <time>2025-07-04T10:36:45.291Z</time>
      </trkpt>
      <trkpt lat="49.1543" lon="-0.39601">
        <ele>14.95</ele>
        <time>2025-07-04T10:36:49.486Z</time>
      </trkpt>
      <trkpt lat="49.1541" lon="-0.39638">
        <ele>15.76</ele>
        <time>2025-07-04T10:36:53.686Z</time>
      </trkpt>
      <trkpt lat="49.1539" lon="-0.39675">
        <ele>16.55</ele>
        <time>2025-07-04T10:36:57.891Z</time>
      </trkpt>
      <trkpt lat="49.15373" lon="-0.39708">
        <ele>17.34</ele>
        <time>2025-07-04T10:37:02.100Z</time>
      </trkpt>
      <trkpt lat="49.15353" lon="-0.39745">
        <ele>18.18</ele>
        <time>2025-07-04T10:37:06.314Z</time>
      </trkpt>
      <trkpt lat="49.15334" lon="-0.39783">
        <ele>19.04</ele>
        <time>2025-07-04T10:37:10.533Z</time>
      </trkpt>
      <trkpt lat="49.15318" lon="-0.39813">
        <ele>19.9</ele>
        <time>2025-07-04T10:37:14.756Z</time>
      </trkpt>
      <trkpt lat="49.153" lon="-0.39852">
        <ele>20.83</ele>
        <time>2025-07-04T10:37:18.984Z</time>
      </trkpt>
      <trkpt lat="49.15281" lon="-0.39891">
        <ele>21.69</ele>
        <time>2025-07-04T10:37:23.218Z</time>
      </trkpt>
      <trkpt lat="49.15263" lon="-0.39929">
        <ele>22.47</ele>
        <time>2025-07-04T10:37:27.457Z</time>
      </trkpt>
      <trkpt lat="49.15258" lon="-0.39939">
        <ele>23.24</ele>
        <time>2025-07-04T10:37:31.697Z</time>
      </trkpt>
      <trkpt lat="49.1524" lon="-0.39979">
        <ele>24.03</ele>
        <time>2025-07-04T10:37:35.942Z</time>
      </trkpt>
      <trkpt lat="49.15222" lon="-0.40018">
        <ele>24.76</ele>
        <time>2025-07-04T10:37:40.192Z</time>
      </trkpt>
      <trkpt lat="49.15208" lon="-0.4005">
        <ele>25.48</ele>
        <time>2025-07-04T10:37:44.446Z</time>
      </trkpt>
      <trkpt lat="49.15208" lon="-0.40053">
        <ele>26.16</ele>
        <time>2025-07-04T10:37:48.700Z</time>
      </trkpt>
      <trkpt lat="49.15201" lon="-0.40055">
        <ele>26.83</ele>
        <time>2025-07-04T10:37:52.955Z</time>
      </trkpt>
      <trkpt lat="49.15175" lon="-0.40064">
        <ele>27.53</ele>
        <time>2025-07-04T10:37:57.215Z</time>
      </trkpt>
      <trkpt lat="49.15144" lon="-0.40076">
        <ele>28.15</ele>
        <time>2025-07-04T10:38:01.480Z</time>
      </trkpt>
      <trkpt lat="49.15138" lon="-0.40078">
        <ele>28.71</ele>
        <time>2025-07-04T10:38:05.746Z</time>
      </trkpt>
      <trkpt lat="49.15108" lon="-0.40092">
        <ele>29.24</ele>
        <time>2025-07-04T10:38:10.017Z</time>
      </trkpt>
      <trkpt lat="49.15094" lon="-0.40099">
        <ele>29.71</ele>
        <time>2025-07-04T10:38:14.290Z</time>
      </trkpt>
      <trkpt lat="49.1507" lon="-0.40112">
        <ele>30.14</ele>
        <time>2025-07-04T10:38:18.567Z</time>
      </trkpt>
      <trkpt lat="49.15041" lon="-0.40131">
        <ele>30.59</ele>
        <time>2025-07-04T10:38:22.849Z</time>
      </trkpt>
      <trkpt lat="49.15039" lon="-0.40133">
        <ele>30.94</ele>
        <time>2025-07-04T10:38:27.132Z</time>
      </trkpt>
      <trkpt lat="49.15023" lon="-0.40144">
        <ele>31.26</ele>
        <time>2025-07-04T10:38:31.417Z</time>
      </trkpt>
      <trkpt lat="49.14994" lon="-0.40163">
        <ele>31.58</ele>
        <time>2025-07-04T10:38:35.708Z</time>
      </trkpt>
      <trkpt lat="49.14965" lon="-0.40183">
        <ele>31.88</ele>
        <time>2025-07-04T10:38:40.004Z</time>
      </trkpt>
      <trkpt lat="49.14937" lon="-0.40202">
        <ele>32.09</ele>
        <time>2025-07-04T10:38:44.305Z</time>
      </trkpt>
      <trkpt lat="49.14908" lon="-0.40221">
        <ele>32.19</ele>
        <time>2025-07-04T10:38:48.611Z</time>
      </trkpt>
      <trkpt lat="49.14879" lon="-0.40241">
        <ele>32.26</ele>
        <time>2025-07-04T10:38:52.922Z</time>
      </trkpt>
      <trkpt lat="49.14856" lon="-0.40256">
        <ele>32.3</ele>
        <time>2025-07-04T10:38:57.237Z</time>
      </trkpt>
      <trkpt lat="49.14827" lon="-0.40275">
        <ele>32.3</ele>
        <time>2025-07-04T10:39:01.557Z</time>
      </trkpt>
      <trkpt lat="49.14798" lon="-0.40293">
        <ele>32.33</ele>
        <time>2025-07-04T10:39:05.882Z</time>
      </trkpt>
      <trkpt lat="49.14791" lon="-0.40298">
        <ele>32.33</ele>
        <time>2025-07-04T10:39:10.208Z</time>
      </trkpt>
      <trkpt lat="49.14762" lon="-0.40316">
        <ele>32.32</ele>
        <time>2025-07-04T10:39:14.539Z</time>
      </trkpt>
      <trkpt lat="49.14733" lon="-0.40334">
        <ele>32.24</ele>
        <time>2025-07-04T10:39:18.875Z</time>
      </trkpt>
      <trkpt lat="49.14703" lon="-0.40352">
        <ele>32.1</ele>
        <time>2025-07-04T10:39:23.216Z</time>
      </trkpt>
      <trkpt lat="49.14674" lon="-0.4037">
        <ele>31.96</ele>
        <time>2025-07-04T10:39:27.562Z</time>
      </trkpt>
      <trkpt lat="49.14645" lon="-0.40388">
        <ele>31.82</ele>
        <time>2025-07-04T10:39:31.913Z</time>
      </trkpt>
      <trkpt lat="49.14616" lon="-0.40405">
        <ele>31.66</ele>
        <time>2025-07-04T10:39:36.269Z</time>
      </trkpt>
      <trkpt lat="49.14615" lon="-0.40406">
        <ele>31.5</ele>
        <time>2025-07-04T10:39:40.625Z</time>
      </trkpt>
      <trkpt lat="49.14586" lon="-0.40424">
        <ele>31.35</ele>
        <time>2025-07-04T10:39:44.986Z</time>
      </trkpt>
      <trkpt lat="49.14557" lon="-0.40441">
        <ele>31.24</ele>
        <time>2025-07-04T10:39:49.352Z</time>
      </trkpt>
      <trkpt lat="49.14527" lon="-0.40459">
        <ele>31.08</ele>
        <time>2025-07-04T10:39:53.723Z</time>
      </trkpt>
      <trkpt lat="49.14498" lon="-0.40477">
        <ele>30.88</ele>
        <time>2025-07-04T10:39:58.100Z</time>
      </trkpt>
      <trkpt lat="49.14469" lon="-0.40495">
        <ele>30.64</ele>
        <time>2025-07-04T10:40:02.482Z</time>
      </trkpt>
      <trkpt lat="49.1444" lon="-0.40512">
        <ele>30.43</ele>
        <time>2025-07-04T10:40:06.869Z</time>
      </trkpt>
      <trkpt lat="49.14414" lon="-0.40528">
        <ele>30.3</ele>
        <time>2025-07-04T10:40:11.260Z</time>
      </trkpt>
      <trkpt lat="49.14401" lon="-0.40536">
        <ele>30.18</ele>
        <time>2025-07-04T10:40:15.653Z</time>
      </trkpt>
      <trkpt lat="49.14372" lon="-0.40554">
        <ele>30.12</ele>
        <time>2025-07-04T10:40:20.051Z</time>
      </trkpt>
      <trkpt lat="49.14364" lon="-0.40559">
        <ele>29.98</ele>
        <time>2025-07-04T10:40:24.451Z</time>
      </trkpt>
      <trkpt lat="49.14335" lon="-0.40573">
        <ele>29.82</ele>
        <time>2025-07-04T10:40:28.856Z</time>
      </trkpt>
      <trkpt lat="49.14304" lon="-0.40581">
        <ele>29.68</ele>
        <time>2025-07-04T10:40:33.266Z</time>
      </trkpt>
      <trkpt lat="49.14298" lon="-0.40582">
        <ele>29.58</ele>
        <time>2025-07-04T10:40:37.677Z</time>
      </trkpt>
      <trkpt lat="49.14267" lon="-0.40584">
        <ele>29.52</ele>
        <time>2025-07-04T10:40:42.093Z</time>
      </trkpt>
      <trkpt lat="49.14257" lon="-0.40585">
        <ele>29.47</ele>
        <time>2025-07-04T10:40:46.510Z</time>
      </trkpt>
      <trkpt lat="49.14226" lon="-0.40586">
        <ele>29.46</ele>
        <time>2025-07-04T10:40:50.932Z</time>
      </trkpt>
      <trkpt lat="49.14225" lon="-0.40586">
        <ele>29.45</ele>
        <time>2025-07-04T10:40:55.354Z</time>
      </trkpt>
      <trkpt lat="49.14194" lon="-0.40589">
        <ele>29.5</ele>
        <time>2025-07-04T10:40:59.781Z</time>
      </trkpt>
      <trkpt lat="49.14186" lon="-0.4059">
        <ele>29.53</ele>
        <time>2025-07-04T10:41:04.210Z</time>
      </trkpt>
      <trkpt lat="49.14167" lon="-0.40595">
        <ele>29.59</ele>
        <time>2025-07-04T10:41:08.642Z</time>
      </trkpt>
      <trkpt lat="49.14147" lon="-0.406">
        <ele>29.68</ele>
        <time>2025-07-04T10:41:13.077Z</time>
      </trkpt>
      <trkpt lat="49.14116" lon="-0.40611">
        <ele>29.79</ele>
        <time>2025-07-04T10:41:17.517Z</time>
      </trkpt>
      <trkpt lat="49.14096" lon="-0.40619">
        <ele>29.88</ele>
        <time>2025-07-04T10:41:21.960Z</time>
      </trkpt>
      <trkpt lat="49.14065" lon="-0.4063">
        <ele>30.02</ele>
        <time>2025-07-04T10:41:26.408Z</time>
      </trkpt>
      <trkpt lat="49.14045" lon="-0.40638">
        <ele>30.19</ele>
        <time>2025-07-04T10:41:30.860Z</time>
      </trkpt>
      <trkpt lat="49.14016" lon="-0.40649">
        <ele>30.38</ele>
        <time>2025-07-04T10:41:35.316Z</time>
      </trkpt>
      <trkpt lat="49.1399" lon="-0.4066">
        <ele>30.61</ele>
        <time>2025-07-04T10:41:39.777Z</time>
      </trkpt>
      <trkpt lat="49.13971" lon="-0.40674">
        <ele>30.81</ele>
        <time>2025-07-04T10:41:44.241Z</time>
      </trkpt>
      <trkpt lat="49.13952" lon="-0.4069">
        <ele>31.04</ele>
        <time>2025-07-04T10:41:48.709Z</time>
      </trkpt>
      <trkpt lat="49.13926" lon="-0.40718">
        <ele>31.25</ele>
        <time>2025-07-04T10:41:53.182Z</time>
      </trkpt>
      <trkpt lat="49.13901" lon="-0.40746">
        <ele>31.44</ele>
        <time>2025-07-04T10:41:57.660Z</time>
      </trkpt>
      <trkpt lat="49.13886" lon="-0.40762">
        <ele>31.68</ele>
        <time>2025-07-04T10:42:02.141Z</time>
      </trkpt>
      <trkpt lat="49.1386" lon="-0.4079">
        <ele>31.96</ele>
        <time>2025-07-04T10:42:06.627Z</time>
      </trkpt>
      <trkpt lat="49.13835" lon="-0.40818">
        <ele>32.22</ele>
        <time>2025-07-04T10:42:11.118Z</time>
      </trkpt>
      <trkpt lat="49.13809" lon="-0.40846">
        <ele>32.52</ele>
        <time>2025-07-04T10:42:15.614Z</time>
      </trkpt>
      <trkpt lat="49.13784" lon="-0.40874">
        <ele>32.88</ele>
        <time>2025-07-04T10:42:20.115Z</time>
      </trkpt>
      <trkpt lat="49.13758" lon="-0.40902">
        <ele>33.2</ele>
        <time>2025-07-04T10:42:24.621Z</time>
      </trkpt>
      <trkpt lat="49.13751" lon="-0.4091">
        <ele>33.48</ele>
        <time>2025-07-04T10:42:29.128Z</time>
      </trkpt>
      <trkpt lat="49.13725" lon="-0.40938">
        <ele>33.81</ele>
        <time>2025-07-04T10:42:33.640Z</time>
      </trkpt>
      <trkpt lat="49.137" lon="-0.40966">
        <ele>34.13</ele>
        <time>2025-07-04T10:42:38.157Z</time>
      </trkpt>
      <trkpt lat="49.13674" lon="-0.40994">
        <ele>34.46</ele>
        <time>2025-07-04T10:42:42.679Z</time>
      </trkpt>
      <trkpt lat="49.13649" lon="-0.41022">
        <ele>34.82</ele>
        <time>2025-07-04T10:42:47.206Z</time>
      </trkpt>
      <trkpt lat="49.13623" lon="-0.4105">
        <ele>35.15</ele>
        <time>2025-07-04T10:42:51.738Z</time>
      </trkpt>
      <trkpt lat="49.13609" lon="-0.41066">
        <ele>35.47</ele>
        <time>2025-07-04T10:42:56.273Z</time>
      </trkpt>
      <trkpt lat="49.13584" lon="-0.41094">
        <ele>35.84</ele>
        <time>2025-07-04T10:43:00.813Z</time>
      </trkpt>
      <trkpt lat="49.13561" lon="-0.41119">
        <ele>36.24</ele>
        <time>2025-07-04T10:43:05.358Z</time>
      </trkpt>
      <trkpt lat="49.13536" lon="-0.41147">
        <ele>36.63</ele>
        <time>2025-07-04T10:43:09.908Z</time>
      </trkpt>
      <trkpt lat="49.13517" lon="-0.41168">
        <ele>37.02</ele>
        <time>2025-07-04T10:43:14.461Z</time>
      </trkpt>
      <trkpt lat="49.13496" lon="-0.41195">
        <ele>37.38</ele>
        <time>2025-07-04T10:43:19.019Z</time>
      </trkpt>
      <trkpt lat="49.13475" lon="-0.41227">
        <ele>37.78</ele>
        <time>2025-07-04T10:43:23.582Z</time>
      </trkpt>
      <trkpt lat="49.13455" lon="-0.41259">
        <ele>38.24</ele>
        <time>2025-07-04T10:43:28.149Z</time>
      </trkpt>
      <trkpt lat="49.13438" lon="-0.41279">
        <ele>38.73</ele>
        <time>2025-07-04T10:43:32.720Z</time>
      </trkpt>
      <trkpt lat="49.13443" lon="-0.41288">
        <ele>39.17</ele>
        <time>2025-07-04T10:43:37.292Z</time>
      </trkpt>
      <trkpt lat="49.13444" lon="-0.41298">
        <ele>39.65</ele>
        <time>2025-07-04T10:43:41.865Z</time>
      </trkpt>
      <trkpt lat="49.13442" lon="-0.41309">
        <ele>40.15</ele>
        <time>2025-07-04T10:43:46.439Z</time>
      </trkpt>
      <trkpt lat="49.13438" lon="-0.41316">
        <ele>40.66</ele>
        <time>2025-07-04T10:43:51.014Z</time>
      </trkpt>
      <trkpt lat="49.13431" lon="-0.41319">
        <ele>41.19</ele>
        <time>2025-07-04T10:43:55.590Z</time>
      </trkpt>
      <trkpt lat="49.13424" lon="-0.41317">
        <ele>41.72</ele>
        <time>2025-07-04T10:44:00.168Z</time>
      </trkpt>
      <trkpt lat="49.13421" lon="-0.41314">
        <ele>42.27</ele>
        <time>2025-07-04T10:44:04.746Z</time>
      </trkpt>
      <trkpt lat="49.13404" lon="-0.41354">
        <ele>42.87</ele>
        <time>2025-07-04T10:44:09.329Z</time>
      </trkpt>
      <trkpt lat="49.13397" lon="-0.4137">
        <ele>43.47</ele>
        <time>2025-07-04T10:44:13.914Z</time>
      </trkpt>
      <trkpt lat="49.13378" lon="-0.41404">
        <ele>44.13</ele>
        <time>2025-07-04T10:44:18.504Z</time>
      </trkpt>
      <trkpt lat="49.13357" lon="-0.4144">
        <ele>44.84</ele>
        <time>2025-07-04T10:44:23.099Z</time>
      </trkpt>
      <trkpt lat="49.13341" lon="-0.41468">
        <ele>45.49</ele>
        <time>2025-07-04T10:44:27.698Z</time>
      </trkpt>
      <trkpt lat="49.13321" lon="-0.41505">
        <ele>46.14</ele>
        <time>2025-07-04T10:44:32.302Z</time>
      </trkpt>
      <trkpt lat="49.133" lon="-0.41541">
        <ele>46.85</ele>
        <time>2025-07-04T10:44:36.911Z</time>
      </trkpt>
      <trkpt lat="49.13292" lon="-0.41556">
        <ele>47.54</ele>
        <time>2025-07-04T10:44:41.522Z</time>
      </trkpt>
      <trkpt lat="49.13274" lon="-0.41594">
        <ele>48.31</ele>
        <time>2025-07-04T10:44:46.138Z</time>
      </trkpt>
      <trkpt lat="49.13255" lon="-0.41632">
        <ele>49.01</ele>
        <time>2025-07-04T10:44:50.759Z</time>
      </trkpt>
      <trkpt lat="49.13246" lon="-0.41649">
        <ele>49.69</ele>
        <time>2025-07-04T10:44:55.382Z</time>
      </trkpt>
      <trkpt lat="49.13226" lon="-0.41686">
        <ele>50.38</ele>
        <time>2025-07-04T10:45:00.010Z</time>
      </trkpt>
      <trkpt lat="49.13223" lon="-0.41691">
        <ele>51.07</ele>
        <time>2025-07-04T10:45:04.639Z</time>
      </trkpt>
      <trkpt lat="49.13203" lon="-0.41728">
        <ele>51.8</ele>
        <time>2025-07-04T10:45:09.273Z</time>
      </trkpt>
      <trkpt lat="49.13182" lon="-0.41764">
        <ele>52.57</ele>
        <time>2025-07-04T10:45:13.912Z</time>
      </trkpt>
      <trkpt lat="49.13165" lon="-0.41795">
        <ele>53.32</ele>
        <time>2025-07-04T10:45:18.555Z</time>
      </trkpt>
      <trkpt lat="49.13161" lon="-0.41801">
        <ele>54.01</ele>
        <time>2025-07-04T10:45:23.199Z</time>
      </trkpt>
      <trkpt lat="49.13142" lon="-0.41839">
        <ele>54.71</ele>
        <time>2025-07-04T10:45:27.848Z</time>
      </trkpt>
      <trkpt lat="49.13124" lon="-0.41873">
        <ele>55.37</ele>
        <time>2025-07-04T10:45:32.502Z</time>
      </trkpt>
      <trkpt lat="49.13105" lon="-0.41911">
        <ele>56.02</ele>
        <time>2025-07-04T10:45:37.161Z</time>
      </trkpt>
      <trkpt lat="49.13085" lon="-0.41948">
        <ele>56.65</ele>
        <time>2025-07-04T10:45:41.825Z</time>
      </trkpt>
      <trkpt lat="49.13073" lon="-0.41972">
        <ele>57.27</ele>
        <time>2025-07-04T10:45:46.492Z</time>
      </trkpt>
      <trkpt lat="49.13054" lon="-0.4201">
        <ele>57.91</ele>
        <time>2025-07-04T10:45:51.164Z</time>
      </trkpt>
      <trkpt lat="49.13051" lon="-0.42015">
        <ele>58.51</ele>
        <time>2025-07-04T10:45:55.837Z</time>
      </trkpt>
      <trkpt lat="49.13035" lon="-0.42041">
        <ele>59.12</ele>
        <time>2025-07-04T10:46:00.513Z</time>
      </trkpt>
      <trkpt lat="49.13014" lon="-0.42076">
        <ele>59.72</ele>
        <time>2025-07-04T10:46:05.194Z</time>
      </trkpt>
      <trkpt lat="49.12993" lon="-0.42112">
        <ele>60.27</ele>
        <time>2025-07-04T10:46:09.881Z</time>
      </trkpt>
      <trkpt lat="49.1299" lon="-0.42116">
        <ele>60.82</ele>
        <time>2025-07-04T10:46:14.568Z</time>
      </trkpt>
      <trkpt lat="49.12966" lon="-0.42147">
        <ele>61.36</ele>
        <time>2025-07-04T10:46:19.260Z</time>
      </trkpt>
      <trkpt lat="49.12944" lon="-0.42174">
        <ele>61.92</ele>
        <time>2025-07-04T10:46:23.957Z</time>
      </trkpt>
      <trkpt lat="49.12919" lon="-0.42203">
        <ele>62.47</ele>
        <time>2025-07-04T10:46:28.659Z</time>
      </trkpt>
      <trkpt lat="49.12903" lon="-0.42222">
        <ele>62.99</ele>
        <time>2025-07-04T10:46:33.364Z</time>
      </trkpt>
      <trkpt lat="49.12878" lon="-0.42251">
        <ele>63.5</ele>
        <time>2025-07-04T10:46:38.074Z</time>
      </trkpt>
      <trkpt lat="49.12853" lon="-0.42281">
        <ele>63.99</ele>
        <time>2025-07-04T10:46:42.789Z</time>
      </trkpt>
      <trkpt lat="49.12849" lon="-0.42286">
        <ele>64.44</ele>
        <time>2025-07-04T10:46:47.505Z</time>
      </trkpt>
      <trkpt lat="49.12836" lon="-0.423">
        <ele>64.88</ele>
        <time>2025-07-04T10:46:52.223Z</time>
      </trkpt>
      <trkpt lat="49.12833" lon="-0.42306">
        <ele>65.3</ele>
        <time>2025-07-04T10:46:56.942Z</time>
      </trkpt>
      <trkpt lat="49.12817" lon="-0.42323">
        <ele>65.72</ele>
        <time>2025-07-04T10:47:01.664Z</time>
      </trkpt>
      <trkpt lat="49.12798" lon="-0.42343">
        <ele>66.1</ele>
        <time>2025-07-04T10:47:06.390Z</time>
      </trkpt>
      <trkpt lat="49.12792" lon="-0.42354">
        <ele>66.47</ele>
        <time>2025-07-04T10:47:11.118Z</time>
      </trkpt>
      <trkpt lat="49.12789" lon="-0.42366">
        <ele>66.82</ele>
        <time>2025-07-04T10:47:15.847Z</time>
      </trkpt>
      <trkpt lat="49.1279" lon="-0.42372">
        <ele>67.15</ele>
        <time>2025-07-04T10:47:20.577Z</time>
      </trkpt>
      <trkpt lat="49.12789" lon="-0.42383">
        <ele>67.47</ele>
        <time>2025-07-04T10:47:25.308Z</time>
      </trkpt>
      <trkpt lat="49.12786" lon="-0.42387">
        <ele>67.77</ele>
        <time>2025-07-04T10:47:30.039Z</time>
      </trkpt>
      <trkpt lat="49.12787" lon="-0.42404">
        <ele>68.03</ele>
        <time>2025-07-04T10:47:34.772Z</time>
      </trkpt>
      <trkpt lat="49.12791" lon="-0.4242">
        <ele>68.3</ele>
        <time>2025-07-04T10:47:39.507Z</time>
      </trkpt>
      <trkpt lat="49.12801" lon="-0.42439">
        <ele>68.58</ele>
        <time>2025-07-04T10:47:44.245Z</time>
      </trkpt>
      <trkpt lat="49.12822" lon="-0.42466">
        <ele>68.84</ele>
        <time>2025-07-04T10:47:48.987Z</time>
      </trkpt>
      <trkpt lat="49.12827" lon="-0.42473">
        <ele>69.08</ele>
        <time>2025-07-04T10:47:53.730Z</time>
      </trkpt>
      <trkpt lat="49.12828" lon="-0.42479">
        <ele>69.32</ele>
        <time>2025-07-04T10:47:58.474Z</time>
      </trkpt>
      <trkpt lat="49.12849" lon="-0.42515">
        <ele>69.56</ele>
        <time>2025-07-04T10:48:03.223Z</time>
      </trkpt>
      <trkpt lat="49.12869" lon="-0.42552">
        <ele>69.83</ele>
        <time>2025-07-04T10:48:07.977Z</time>
      </trkpt>
      <trkpt lat="49.1289" lon="-0.42588">
        <ele>70.07</ele>
        <time>2025-07-04T10:48:12.736Z</time>
      </trkpt>
      <trkpt lat="49.1291" lon="-0.42624">
        <ele>70.32</ele>
        <time>2025-07-04T10:48:17.500Z</time>
      </trkpt>
      <trkpt lat="49.12919" lon="-0.4264">
        <ele>70.49</ele>
        <time>2025-07-04T10:48:22.266Z</time>
      </trkpt>
      <trkpt lat="49.12939" lon="-0.42676">
        <ele>70.67</ele>
        <time>2025-07-04T10:48:27.037Z</time>
      </trkpt>
      <trkpt lat="49.1296" lon="-0.42713">
        <ele>70.79</ele>
        <time>2025-07-04T10:48:31.813Z</time>
      </trkpt>
      <trkpt lat="49.1298" lon="-0.42749">
        <ele>70.89</ele>
        <time>2025-07-04T10:48:36.594Z</time>
      </trkpt>
      <trkpt lat="49.12989" lon="-0.42765">
        <ele>71.03</ele>
        <time>2025-07-04T10:48:41.377Z</time>
      </trkpt>
      <trkpt lat="49.13011" lon="-0.42799">
        <ele>71.21</ele>
        <time>2025-07-04T10:48:46.165Z</time>
      </trkpt>
      <trkpt lat="49.13033" lon="-0.42834">
        <ele>71.35</ele>
        <time>2025-07-04T10:48:50.958Z</time>
      </trkpt>
      <trkpt lat="49.13041" lon="-0.42847">
        <ele>71.4</ele>
        <time>2025-07-04T10:48:55.753Z</time>
      </trkpt>
      <trkpt lat="49.13061" lon="-0.42884">
        <ele>71.39</ele>
        <time>2025-07-04T10:49:00.553Z</time>
      </trkpt>
      <trkpt lat="49.13081" lon="-0.42921">
        <ele>71.33</ele>
        <time>2025-07-04T10:49:05.358Z</time>
      </trkpt>
      <trkpt lat="49.13101" lon="-0.42958">
        <ele>71.26</ele>
        <time>2025-07-04T10:49:10.168Z</time>
      </trkpt>
      <trkpt lat="49.13122" lon="-0.42994">
        <ele>71.2</ele>
        <time>2025-07-04T10:49:14.983Z</time>
      </trkpt>
      <trkpt lat="49.13124" lon="-0.42999">
        <ele>71.15</ele>
        <time>2025-07-04T10:49:19.799Z</time>
      </trkpt>
      <trkpt lat="49.13145" lon="-0.43035">
        <ele>71.13</ele>
        <time>2025-07-04T10:49:24.620Z</time>
      </trkpt>
      <trkpt lat="49.13165" lon="-0.43071">
        <ele>71.11</ele>
        <time>2025-07-04T10:49:29.446Z</time>
      </trkpt>
      <trkpt lat="49.13186" lon="-0.43108">
        <ele>71.01</ele>
        <time>2025-07-04T10:49:34.277Z</time>
      </trkpt>
      <trkpt lat="49.13206" lon="-0.43144">
        <ele>70.89</ele>
        <time>2025-07-04T10:49:39.113Z</time>
      </trkpt>
      <trkpt lat="49.13227" lon="-0.4318">
        <ele>70.73</ele>
        <time>2025-07-04T10:49:43.954Z</time>
      </trkpt>
      <trkpt lat="49.13248" lon="-0.43216">
        <ele>70.58</ele>
        <time>2025-07-04T10:49:48.800Z</time>
      </trkpt>
      <trkpt lat="49.13268" lon="-0.43253">
        <ele>70.52</ele>
        <time>2025-07-04T10:49:53.651Z</time>
      </trkpt>
      <trkpt lat="49.13289" lon="-0.43289">
        <ele>70.39</ele>
        <time>2025-07-04T10:49:58.507Z</time>
      </trkpt>
      <trkpt lat="49.1331" lon="-0.43325">
        <ele>70.28</ele>
        <time>2025-07-04T10:50:03.368Z</time>
      </trkpt>
      <trkpt lat="49.1331" lon="-0.43326">
        <ele>70.16</ele>
        <time>2025-07-04T10:50:08.230Z</time>
      </trkpt>
      <trkpt lat="49.13324" lon="-0.43351">
        <ele>70</ele>
        <time>2025-07-04T10:50:13.095Z</time>
      </trkpt>
      <trkpt lat="49.13337" lon="-0.43381">
        <ele>69.84</ele>
        <time>2025-07-04T10:50:17.964Z</time>
      </trkpt>
      <trkpt lat="49.13345" lon="-0.43402">
        <ele>69.69</ele>
        <time>2025-07-04T10:50:22.835Z</time>
      </trkpt>
      <trkpt lat="49.13355" lon="-0.43447">
        <ele>69.56</ele>
        <time>2025-07-04T10:50:27.711Z</time>
      </trkpt>
      <trkpt lat="49.1336" lon="-0.43469">
        <ele>69.49</ele>
        <time>2025-07-04T10:50:32.590Z</time>
      </trkpt>
      <trkpt lat="49.13366" lon="-0.43505">
        <ele>69.46</ele>
        <time>2025-07-04T10:50:37.473Z</time>
      </trkpt>
      <trkpt lat="49.13375" lon="-0.43538">
        <ele>69.39</ele>
        <time>2025-07-04T10:50:42.359Z</time>
      </trkpt>
      <trkpt lat="49.13384" lon="-0.43566">
        <ele>69.36</ele>
        <time>2025-07-04T10:50:47.249Z</time>
      </trkpt>
      <trkpt lat="49.13392" lon="-0.43567">
        <ele>69.3</ele>
        <time>2025-07-04T10:50:52.140Z</time>
      </trkpt>
      <trkpt lat="49.13401" lon="-0.43575">
        <ele>69.23</ele>
        <time>2025-07-04T10:50:57.033Z</time>
      </trkpt>
      <trkpt lat="49.13404" lon="-0.43588">
        <ele>69.2</ele>
        <time>2025-07-04T10:51:01.927Z</time>
      </trkpt>
      <trkpt lat="49.13404" lon="-0.43599">
        <ele>69.18</ele>
        <time>2025-07-04T10:51:06.822Z</time>
      </trkpt>
      <trkpt lat="49.13399" lon="-0.43615">
        <ele>69.18</ele>
        <time>2025-07-04T10:51:11.719Z</time>
      </trkpt>
      <trkpt lat="49.13399" lon="-0.43632">
        <ele>69.19</ele>
        <time>2025-07-04T10:51:16.618Z</time>
      </trkpt>
      <trkpt lat="49.13405" lon="-0.43679">
        <ele>69.17</ele>
        <time>2025-07-04T10:51:21.522Z</time>
      </trkpt>
      <trkpt lat="49.13407" lon="-0.43693">
        <ele>69.15</ele>
        <time>2025-07-04T10:51:26.427Z</time>
      </trkpt>
      <trkpt lat="49.13417" lon="-0.43738">
        <ele>69.16</ele>
        <time>2025-07-04T10:51:31.337Z</time>
      </trkpt>
      <trkpt lat="49.13428" lon="-0.43784">
        <ele>69.19</ele>
        <time>2025-07-04T10:51:36.253Z</time>
      </trkpt>
      <trkpt lat="49.13438" lon="-0.43829">
        <ele>69.22</ele>
        <time>2025-07-04T10:51:41.174Z</time>
      </trkpt>
      <trkpt lat="49.13438" lon="-0.43829">
        <ele>69.26</ele>
        <time>2025-07-04T10:51:46.095Z</time>
      </trkpt>
      <trkpt lat="49.13444" lon="-0.43876">
        <ele>69.3</ele>
        <time>2025-07-04T10:51:51.021Z</time>
      </trkpt>
      <trkpt lat="49.13444" lon="-0.43924">
        <ele>69.38</ele>
        <time>2025-07-04T10:51:55.952Z</time>
      </trkpt>
      <trkpt lat="49.13443" lon="-0.43972">
        <ele>69.42</ele>
        <time>2025-07-04T10:52:00.888Z</time>
      </trkpt>
      <trkpt lat="49.13443" lon="-0.4402">
        <ele>69.48</ele>
        <time>2025-07-04T10:52:05.829Z</time>
      </trkpt>
      <trkpt lat="49.13443" lon="-0.44025">
        <ele>69.58</ele>
        <time>2025-07-04T10:52:10.770Z</time>
      </trkpt>
      <trkpt lat="49.13442" lon="-0.44073">
        <ele>69.72</ele>
        <time>2025-07-04T10:52:15.716Z</time>
      </trkpt>
      <trkpt lat="49.13441" lon="-0.44121">
        <ele>69.81</ele>
        <time>2025-07-04T10:52:20.667Z</time>
      </trkpt>
      <trkpt lat="49.13441" lon="-0.44145">
        <ele>69.91</ele>
        <time>2025-07-04T10:52:25.621Z</time>
      </trkpt>
      <trkpt lat="49.13441" lon="-0.44193">
        <ele>70.06</ele>
        <time>2025-07-04T10:52:30.580Z</time>
      </trkpt>
      <trkpt lat="49.13441" lon="-0.442">
        <ele>70.2</ele>
        <time>2025-07-04T10:52:35.540Z</time>
      </trkpt>
      <trkpt lat="49.13441" lon="-0.4424">
        <ele>70.37</ele>
        <time>2025-07-04T10:52:40.504Z</time>
      </trkpt>
      <trkpt lat="49.13443" lon="-0.44275">
        <ele>70.52</ele>
        <time>2025-07-04T10:52:45.472Z</time>
      </trkpt>
      <trkpt lat="49.13452" lon="-0.44315">
        <ele>70.69</ele>
        <time>2025-07-04T10:52:50.444Z</time>
      </trkpt>
      <trkpt lat="49.13457" lon="-0.44331">
        <ele>70.85</ele>
        <time>2025-07-04T10:52:55.418Z</time>
      </trkpt>
      <trkpt lat="49.13469" lon="-0.44359">
        <ele>71.04</ele>
        <time>2025-07-04T10:53:00.395Z</time>
      </trkpt>
      <trkpt lat="49.13482" lon="-0.4438">
        <ele>71.19</ele>
        <time>2025-07-04T10:53:05.375Z</time>
      </trkpt>
      <trkpt lat="49.13497" lon="-0.444">
        <ele>71.36</ele>
        <time>2025-07-04T10:53:10.359Z</time>
      </trkpt>
      <trkpt lat="49.13524" lon="-0.44424">
        <ele>71.54</ele>
        <time>2025-07-04T10:53:15.348Z</time>
      </trkpt>
      <trkpt lat="49.1354" lon="-0.44437">
        <ele>71.72</ele>
        <time>2025-07-04T10:53:20.339Z</time>
      </trkpt>
      <trkpt lat="49.13568" lon="-0.4446">
        <ele>71.87</ele>
        <time>2025-07-04T10:53:25.336Z</time>
      </trkpt>
      <trkpt lat="49.13595" lon="-0.44483">
        <ele>71.96</ele>
        <time>2025-07-04T10:53:30.338Z</time>
      </trkpt>
      <trkpt lat="49.13615" lon="-0.44499">
        <ele>72.06</ele>
        <time>2025-07-04T10:53:35.343Z</time>
      </trkpt>
      <trkpt lat="49.13643" lon="-0.44521">
        <ele>72.16</ele>
        <time>2025-07-04T10:53:40.353Z</time>
      </trkpt>
      <trkpt lat="49.13648" lon="-0.44525">
        <ele>72.29</ele>
        <time>2025-07-04T10:53:45.364Z</time>
      </trkpt>
      <trkpt lat="49.13676" lon="-0.44548">
        <ele>72.42</ele>
        <time>2025-07-04T10:53:50.380Z</time>
      </trkpt>
      <trkpt lat="49.13704" lon="-0.4457">
        <ele>72.56</ele>
        <time>2025-07-04T10:53:55.401Z</time>
      </trkpt>
      <trkpt lat="49.13731" lon="-0.44593">
        <ele>72.66</ele>
        <time>2025-07-04T10:54:00.427Z</time>
      </trkpt>
      <trkpt lat="49.13759" lon="-0.44615">
        <ele>72.76</ele>
        <time>2025-07-04T10:54:05.458Z</time>
      </trkpt>
      <trkpt lat="49.13787" lon="-0.44638">
        <ele>72.78</ele>
        <time>2025-07-04T10:54:10.494Z</time>
      </trkpt>
      <trkpt lat="49.13799" lon="-0.44648">
        <ele>72.79</ele>
        <time>2025-07-04T10:54:15.533Z</time>
      </trkpt>
      <trkpt lat="49.13822" lon="-0.44671">
        <ele>72.79</ele>
        <time>2025-07-04T10:54:20.576Z</time>
      </trkpt>
      <trkpt lat="49.13843" lon="-0.44693">
        <ele>72.77</ele>
        <time>2025-07-04T10:54:25.623Z</time>
      </trkpt>
      <trkpt lat="49.13868" lon="-0.44722">
        <ele>72.75</ele>
        <time>2025-07-04T10:54:30.675Z</time>
      </trkpt>
      <trkpt lat="49.13884" lon="-0.44741">
        <ele>72.68</ele>
        <time>2025-07-04T10:54:35.730Z</time>
      </trkpt>
      <trkpt lat="49.1391" lon="-0.44768">
        <ele>72.58</ele>
        <time>2025-07-04T10:54:40.790Z</time>
      </trkpt>
      <trkpt lat="49.13936" lon="-0.44795">
        <ele>72.47</ele>
        <time>2025-07-04T10:54:45.855Z</time>
      </trkpt>
      <trkpt lat="49.13944" lon="-0.44804">
        <ele>72.32</ele>
        <time>2025-07-04T10:54:50.922Z</time>
      </trkpt>
      <trkpt lat="49.13971" lon="-0.44828">
        <ele>72.12</ele>
        <time>2025-07-04T10:54:55.994Z</time>
      </trkpt>
      <trkpt lat="49.13986" lon="-0.4484">
        <ele>71.88</ele>
        <time>2025-07-04T10:55:01.069Z</time>
      </trkpt>
      <trkpt lat="49.14013" lon="-0.44863">
        <ele>71.65</ele>
        <time>2025-07-04T10:55:06.149Z</time>
      </trkpt>
      <trkpt lat="49.14041" lon="-0.44887">
        <ele>71.39</ele>
        <time>2025-07-04T10:55:11.234Z</time>
      </trkpt>
      <trkpt lat="49.14062" lon="-0.44905">
        <ele>70.99</ele>
        <time>2025-07-04T10:55:16.323Z</time>
      </trkpt>
      <trkpt lat="49.14089" lon="-0.44929">
        <ele>70.54</ele>
        <time>2025-07-04T10:55:21.417Z</time>
      </trkpt>
      <trkpt lat="49.14117" lon="-0.44953">
        <ele>70.12</ele>
        <time>2025-07-04T10:55:26.516Z</time>
      </trkpt>
      <trkpt lat="49.14132" lon="-0.44966">
        <ele>69.72</ele>
        <time>2025-07-04T10:55:31.618Z</time>
      </trkpt>
      <trkpt lat="49.14159" lon="-0.44992">
        <ele>69.26</ele>
        <time>2025-07-04T10:55:36.725Z</time>
      </trkpt>
      <trkpt lat="49.14185" lon="-0.45017">
        <ele>68.78</ele>
        <time>2025-07-04T10:55:41.837Z</time>
      </trkpt>
      <trkpt lat="49.14212" lon="-0.45043">
        <ele>68.23</ele>
        <time>2025-07-04T10:55:46.954Z</time>
      </trkpt>
      <trkpt lat="49.14224" lon="-0.45055">
        <ele>67.69</ele>
        <time>2025-07-04T10:55:52.073Z</time>
      </trkpt>
      <trkpt lat="49.1425" lon="-0.45082">
        <ele>67.05</ele>
        <time>2025-07-04T10:55:57.197Z</time>
      </trkpt>
      <trkpt lat="49.14261" lon="-0.45094">
        <ele>66.5</ele>
        <time>2025-07-04T10:56:02.323Z</time>
      </trkpt>
      <trkpt lat="49.14287" lon="-0.45122">
        <ele>65.88</ele>
        <time>2025-07-04T10:56:07.454Z</time>
      </trkpt>
      <trkpt lat="49.14313" lon="-0.45149">
        <ele>65.27</ele>
        <time>2025-07-04T10:56:12.590Z</time>
      </trkpt>
      <trkpt lat="49.14338" lon="-0.45177">
        <ele>64.65</ele>
        <time>2025-07-04T10:56:17.731Z</time>
      </trkpt>
      <trkpt lat="49.14364" lon="-0.45204">
        <ele>64.06</ele>
        <time>2025-07-04T10:56:22.877Z</time>
      </trkpt>
      <trkpt lat="49.14374" lon="-0.45215">
        <ele>63.45</ele>
        <time>2025-07-04T10:56:28.025Z</time>
      </trkpt>
      <trkpt lat="49.14395" lon="-0.45242">
        <ele>62.86</ele>
        <time>2025-07-04T10:56:33.178Z</time>
      </trkpt>
      <trkpt lat="49.14416" lon="-0.45277">
        <ele>62.29</ele>
        <time>2025-07-04T10:56:38.336Z</time>
      </trkpt>
      <trkpt lat="49.14433" lon="-0.45305">
        <ele>61.72</ele>
        <time>2025-07-04T10:56:43.498Z</time>
      </trkpt>
      <trkpt lat="49.14456" lon="-0.45338">
        <ele>61.18</ele>
        <time>2025-07-04T10:56:48.665Z</time>
      </trkpt>
      <trkpt lat="49.1446" lon="-0.45344">
        <ele>60.69</ele>
        <time>2025-07-04T10:56:53.833Z</time>
      </trkpt>
      <trkpt lat="49.14472" lon="-0.45357">
        <ele>60.21</ele>
        <time>2025-07-04T10:56:59.003Z</time>
      </trkpt>
      <trkpt lat="49.14491" lon="-0.45385">
        <ele>59.79</ele>
        <time>2025-07-04T10:57:04.177Z</time>
      </trkpt>
      <trkpt lat="49.14496" lon="-0.45389">
        <ele>59.4</ele>
        <time>2025-07-04T10:57:09.352Z</time>
      </trkpt>
      <trkpt lat="49.14498" lon="-0.45394">
        <ele>59.05</ele>
        <time>2025-07-04T10:57:14.528Z</time>
      </trkpt>
      <trkpt lat="49.145" lon="-0.45402">
        <ele>58.74</ele>
        <time>2025-07-04T10:57:19.705Z</time>
      </trkpt>
      <trkpt lat="49.14498" lon="-0.45412">
        <ele>58.47</ele>
        <time>2025-07-04T10:57:24.883Z</time>
      </trkpt>
      <trkpt lat="49.14495" lon="-0.45418">
        <ele>58.24</ele>
        <time>2025-07-04T10:57:30.062Z</time>
      </trkpt>
      <trkpt lat="49.14482" lon="-0.45462">
        <ele>58.07</ele>
        <time>2025-07-04T10:57:35.246Z</time>
      </trkpt>
      <trkpt lat="49.1448" lon="-0.4547">
        <ele>57.93</ele>
        <time>2025-07-04T10:57:40.431Z</time>
      </trkpt>
      <trkpt lat="49.14466" lon="-0.45507">
        <ele>57.81</ele>
        <time>2025-07-04T10:57:45.620Z</time>
      </trkpt>
      <trkpt lat="49.14446" lon="-0.45544">
        <ele>57.78</ele>
        <time>2025-07-04T10:57:50.814Z</time>
      </trkpt>
      <trkpt lat="49.14438" lon="-0.4556">
        <ele>57.78</ele>
        <time>2025-07-04T10:57:56.010Z</time>
      </trkpt>
      <trkpt lat="49.14417" lon="-0.45596">
        <ele>57.83</ele>
        <time>2025-07-04T10:58:01.211Z</time>
      </trkpt>
      <trkpt lat="49.14396" lon="-0.45631">
        <ele>57.92</ele>
        <time>2025-07-04T10:58:06.417Z</time>
      </trkpt>
      <trkpt lat="49.14375" lon="-0.45667">
        <ele>58.07</ele>
        <time>2025-07-04T10:58:11.628Z</time>
      </trkpt>
      <trkpt lat="49.14373" lon="-0.4567">
        <ele>58.23</ele>
        <time>2025-07-04T10:58:16.840Z</time>
      </trkpt>
      <trkpt lat="49.14351" lon="-0.45704">
        <ele>58.42</ele>
        <time>2025-07-04T10:58:22.057Z</time>
      </trkpt>
      <trkpt lat="49.14331" lon="-0.45736">
        <ele>58.69</ele>
        <time>2025-07-04T10:58:27.278Z</time>
      </trkpt>
      <trkpt lat="49.14307" lon="-0.45767">
        <ele>59</ele>
        <time>2025-07-04T10:58:32.504Z</time>
      </trkpt>
      <trkpt lat="49.14294" lon="-0.45783">
        <ele>59.33</ele>
        <time>2025-07-04T10:58:37.733Z</time>
      </trkpt>
      <trkpt lat="49.14269" lon="-0.45812">
        <ele>59.68</ele>
        <time>2025-07-04T10:58:42.967Z</time>
      </trkpt>
      <trkpt lat="49.14244" lon="-0.45841">
        <ele>60.06</ele>
        <time>2025-07-04T10:58:48.206Z</time>
      </trkpt>
      <trkpt lat="49.14225" lon="-0.45862">
        <ele>60.49</ele>
        <time>2025-07-04T10:58:53.449Z</time>
      </trkpt>
      <trkpt lat="49.14201" lon="-0.45892">
        <ele>60.97</ele>
        <time>2025-07-04T10:58:58.697Z</time>
      </trkpt>
      <trkpt lat="49.14197" lon="-0.45897">
        <ele>61.46</ele>
        <time>2025-07-04T10:59:03.946Z</time>
      </trkpt>
      <trkpt lat="49.14172" lon="-0.45927">
        <ele>61.99</ele>
        <time>2025-07-04T10:59:09.200Z</time>
      </trkpt>
      <trkpt lat="49.14158" lon="-0.45944">
        <ele>62.56</ele>
        <time>2025-07-04T10:59:14.457Z</time>
      </trkpt>
      <trkpt lat="49.14135" lon="-0.45977">
        <ele>63.13</ele>
        <time>2025-07-04T10:59:19.719Z</time>
      </trkpt>
      <trkpt lat="49.14129" lon="-0.45986">
        <ele>63.78</ele>
        <time>2025-07-04T10:59:24.982Z</time>
      </trkpt>
      <trkpt lat="49.14107" lon="-0.46016">
        <ele>64.4</ele>
        <time>2025-07-04T10:59:30.250Z</time>
      </trkpt>
      <trkpt lat="49.14095" lon="-0.46042">
        <ele>65.09</ele>
        <time>2025-07-04T10:59:35.521Z</time>
      </trkpt>
      <trkpt lat="49.14088" lon="-0.46073">
        <ele>65.86</ele>
        <time>2025-07-04T10:59:40.796Z</time>
      </trkpt>
      <trkpt lat="49.14084" lon="-0.46102">
        <ele>66.66</ele>
        <time>2025-07-04T10:59:46.074Z</time>
      </trkpt>
      <trkpt lat="49.14078" lon="-0.46125">
        <ele>67.51</ele>
        <time>2025-07-04T10:59:51.354Z</time>
      </trkpt>
      <trkpt lat="49.14064" lon="-0.46167">
        <ele>68.44</ele>
        <time>2025-07-04T10:59:56.639Z</time>
      </trkpt>
      <trkpt lat="49.1405" lon="-0.4621">
        <ele>69.36</ele>
        <time>2025-07-04T11:00:01.929Z</time>
      </trkpt>
      <trkpt lat="49.14047" lon="-0.46218">
        <ele>70.21</ele>
        <time>2025-07-04T11:00:07.220Z</time>
      </trkpt>
      <trkpt lat="49.14031" lon="-0.4626">
        <ele>71.08</ele>
        <time>2025-07-04T11:00:12.516Z</time>
      </trkpt>
      <trkpt lat="49.14016" lon="-0.46301">
        <ele>71.91</ele>
        <time>2025-07-04T11:00:17.817Z</time>
      </trkpt>
      <trkpt lat="49.14" lon="-0.46343">
        <ele>72.77</ele>
        <time>2025-07-04T11:00:23.123Z</time>
      </trkpt>
      <trkpt lat="49.13987" lon="-0.46379">
        <ele>73.67</ele>
        <time>2025-07-04T11:00:28.434Z</time>
      </trkpt>
      <trkpt lat="49.13977" lon="-0.46408">
        <ele>74.57</ele>
        <time>2025-07-04T11:00:33.748Z</time>
      </trkpt>
      <trkpt lat="49.13959" lon="-0.46447">
        <ele>75.47</ele>
        <time>2025-07-04T11:00:39.067Z</time>
      </trkpt>
      <trkpt lat="49.13958" lon="-0.46448">
        <ele>76.3</ele>
        <time>2025-07-04T11:00:44.386Z</time>
      </trkpt>
      <trkpt lat="49.13939" lon="-0.46486">
        <ele>77.14</ele>
        <time>2025-07-04T11:00:49.710Z</time>
      </trkpt>
      <trkpt lat="49.13919" lon="-0.46524">
        <ele>78.02</ele>
        <time>2025-07-04T11:00:55.039Z</time>
      </trkpt>
      <trkpt lat="49.13913" lon="-0.46536">
        <ele>78.83</ele>
        <time>2025-07-04T11:01:00.370Z</time>
      </trkpt>
      <trkpt lat="49.13892" lon="-0.46572">
        <ele>79.63</ele>
        <time>2025-07-04T11:01:05.706Z</time>
      </trkpt>
      <trkpt lat="49.13872" lon="-0.46609">
        <ele>80.38</ele>
        <time>2025-07-04T11:01:11.047Z</time>
      </trkpt>
      <trkpt lat="49.13851" lon="-0.46645">
        <ele>81.1</ele>
        <time>2025-07-04T11:01:16.393Z</time>
      </trkpt>
      <trkpt lat="49.1385" lon="-0.46647">
        <ele>81.79</ele>
        <time>2025-07-04T11:01:21.740Z</time>
      </trkpt>
      <trkpt lat="49.1383" lon="-0.46683">
        <ele>82.54</ele>
        <time>2025-07-04T11:01:27.092Z</time>
      </trkpt>
      <trkpt lat="49.13809" lon="-0.4672">
        <ele>83.19</ele>
        <time>2025-07-04T11:01:32.449Z</time>
      </trkpt>
      <trkpt lat="49.138" lon="-0.46736">
        <ele>83.78</ele>
        <time>2025-07-04T11:01:37.808Z</time>
      </trkpt>
      <trkpt lat="49.1378" lon="-0.46773">
        <ele>84.31</ele>
        <time>2025-07-04T11:01:43.172Z</time>
      </trkpt>
      <trkpt lat="49.1376" lon="-0.46809">
        <ele>84.79</ele>
        <time>2025-07-04T11:01:48.541Z</time>
      </trkpt>
      <trkpt lat="49.13739" lon="-0.46846">
        <ele>85.24</ele>
        <time>2025-07-04T11:01:53.915Z</time>
      </trkpt>
      <trkpt lat="49.13719" lon="-0.46883">
        <ele>85.72</ele>
        <time>2025-07-04T11:01:59.294Z</time>
      </trkpt>
      <trkpt lat="49.13702" lon="-0.46914">
        <ele>86.15</ele>
        <time>2025-07-04T11:02:04.677Z</time>
      </trkpt>
      <trkpt lat="49.13682" lon="-0.46951">
        <ele>86.55</ele>
        <time>2025-07-04T11:02:10.065Z</time>
      </trkpt>
      <trkpt lat="49.13666" lon="-0.46982">
        <ele>86.91</ele>
        <time>2025-07-04T11:02:15.457Z</time>
      </trkpt>
      <trkpt lat="49.13646" lon="-0.47019">
        <ele>87.19</ele>
        <time>2025-07-04T11:02:20.854Z</time>
      </trkpt>
      <trkpt lat="49.13626" lon="-0.47056">
        <ele>87.46</ele>
        <time>2025-07-04T11:02:26.256Z</time>
      </trkpt>
      <trkpt lat="49.13606" lon="-0.47094">
        <ele>87.69</ele>
        <time>2025-07-04T11:02:31.664Z</time>
      </trkpt>
      <trkpt lat="49.13594" lon="-0.47117">
        <ele>87.88</ele>
        <time>2025-07-04T11:02:37.075Z</time>
      </trkpt>
      <trkpt lat="49.13575" lon="-0.47155">
        <ele>88.02</ele>
        <time>2025-07-04T11:02:42.491Z</time>
      </trkpt>
      <trkpt lat="49.13572" lon="-0.47161">
        <ele>88.07</ele>
        <time>2025-07-04T11:02:47.908Z</time>
      </trkpt>
      <trkpt lat="49.13569" lon="-0.4718">
        <ele>88.07</ele>
        <time>2025-07-04T11:02:53.327Z</time>
      </trkpt>
      <trkpt lat="49.13572" lon="-0.47228">
        <ele>88</ele>
        <time>2025-07-04T11:02:58.751Z</time>
      </trkpt>
      <trkpt lat="49.13575" lon="-0.47276">
        <ele>87.93</ele>
        <time>2025-07-04T11:03:04.180Z</time>
      </trkpt>
      <trkpt lat="49.13576" lon="-0.47301">
        <ele>87.8</ele>
        <time>2025-07-04T11:03:09.611Z</time>
      </trkpt>
      <trkpt lat="49.13572" lon="-0.47335">
        <ele>87.65</ele>
        <time>2025-07-04T11:03:15.046Z</time>
      </trkpt>
      <trkpt lat="49.13563" lon="-0.47381">
        <ele>87.44</ele>
        <time>2025-07-04T11:03:20.486Z</time>
      </trkpt>
      <trkpt lat="49.13554" lon="-0.47427">
        <ele>87.19</ele>
        <time>2025-07-04T11:03:25.931Z</time>
      </trkpt>
      <trkpt lat="49.13553" lon="-0.47431">
        <ele>86.92</ele>
        <time>2025-07-04T11:03:31.376Z</time>
      </trkpt>
      <trkpt lat="49.13547" lon="-0.47478">
        <ele>86.56</ele>
        <time>2025-07-04T11:03:36.827Z</time>
      </trkpt>
      <trkpt lat="49.13546" lon="-0.47482">
        <ele>86.23</ele>
        <time>2025-07-04T11:03:42.278Z</time>
      </trkpt>
      <trkpt lat="49.13542" lon="-0.4753">
        <ele>85.86</ele>
        <time>2025-07-04T11:03:47.734Z</time>
      </trkpt>
      <trkpt lat="49.13541" lon="-0.47537">
        <ele>85.47</ele>
        <time>2025-07-04T11:03:53.191Z</time>
      </trkpt>
      <trkpt lat="49.13538" lon="-0.47554">
        <ele>85.06</ele>
        <time>2025-07-04T11:03:58.650Z</time>
      </trkpt>
      <trkpt lat="49.13534" lon="-0.47566">
        <ele>84.63</ele>
        <time>2025-07-04T11:04:04.110Z</time>
      </trkpt>
      <trkpt lat="49.13524" lon="-0.47583">
        <ele>84.15</ele>
        <time>2025-07-04T11:04:09.572Z</time>
      </trkpt>
      <trkpt lat="49.13499" lon="-0.47609">
        <ele>83.62</ele>
        <time>2025-07-04T11:04:15.039Z</time>
      </trkpt>
      <trkpt lat="49.13472" lon="-0.47633">
        <ele>83.12</ele>
        <time>2025-07-04T11:04:20.511Z</time>
      </trkpt>
      <trkpt lat="49.13461" lon="-0.47643">
        <ele>82.65</ele>
        <time>2025-07-04T11:04:25.985Z</time>
      </trkpt>
      <trkpt lat="49.13434" lon="-0.47669">
        <ele>82.18</ele>
        <time>2025-07-04T11:04:31.464Z</time>
      </trkpt>
      <trkpt lat="49.13427" lon="-0.47676">
        <ele>81.7</ele>
        <time>2025-07-04T11:04:36.945Z</time>
      </trkpt>
      <trkpt lat="49.13409" lon="-0.47698">
        <ele>81.21</ele>
        <time>2025-07-04T11:04:42.430Z</time>
      </trkpt>
      <trkpt lat="49.134" lon="-0.47713">
        <ele>80.75</ele>
        <time>2025-07-04T11:04:47.917Z</time>
      </trkpt>
      <trkpt lat="49.13382" lon="-0.47753">
        <ele>80.32</ele>
        <time>2025-07-04T11:04:53.409Z</time>
      </trkpt>
      <trkpt lat="49.13366" lon="-0.47789">
        <ele>79.94</ele>
        <time>2025-07-04T11:04:58.905Z</time>
      </trkpt>
      <trkpt lat="49.13348" lon="-0.47826">
        <ele>79.54</ele>
        <time>2025-07-04T11:05:04.406Z</time>
      </trkpt>
      <trkpt lat="49.13326" lon="-0.47855">
        <ele>79.13</ele>
        <time>2025-07-04T11:05:09.912Z</time>
      </trkpt>
      <trkpt lat="49.13308" lon="-0.47872">
        <ele>78.74</ele>
        <time>2025-07-04T11:05:15.421Z</time>
      </trkpt>
      <trkpt lat="49.13279" lon="-0.4789">
        <ele>78.33</ele>
        <time>2025-07-04T11:05:20.935Z</time>
      </trkpt>
      <trkpt lat="49.13262" lon="-0.47901">
        <ele>77.95</ele>
        <time>2025-07-04T11:05:26.452Z</time>
      </trkpt>
      <trkpt lat="49.13233" lon="-0.47919">
        <ele>77.61</ele>
        <time>2025-07-04T11:05:31.974Z</time>
      </trkpt>
      <trkpt lat="49.13204" lon="-0.47937">
        <ele>77.25</ele>
        <time>2025-07-04T11:05:37.501Z</time>
      </trkpt>
      <trkpt lat="49.13202" lon="-0.47938">
        <ele>76.96</ele>
        <time>2025-07-04T11:05:43.029Z</time>
      </trkpt>
      <trkpt lat="49.13189" lon="-0.47945">
        <ele>76.66</ele>
        <time>2025-07-04T11:05:48.559Z</time>
      </trkpt>
      <trkpt lat="49.13173" lon="-0.47951">
        <ele>76.4</ele>
        <time>2025-07-04T11:05:54.091Z</time>
      </trkpt>
      <trkpt lat="49.13147" lon="-0.47953">
        <ele>76.18</ele>
        <time>2025-07-04T11:05:59.628Z</time>
      </trkpt>
      <trkpt lat="49.13121" lon="-0.47954">
        <ele>76.01</ele>
        <time>2025-07-04T11:06:05.169Z</time>
      </trkpt>
      <trkpt lat="49.13109" lon="-0.4796">
        <ele>75.84</ele>
        <time>2025-07-04T11:06:10.712Z</time>
      </trkpt>
      <trkpt lat="49.13098" lon="-0.47967">
        <ele>75.71</ele>
        <time>2025-07-04T11:06:16.257Z</time>
      </trkpt>
      <trkpt lat="49.13082" lon="-0.47981">
        <ele>75.63</ele>
        <time>2025-07-04T11:06:21.805Z</time>
      </trkpt>
      <trkpt lat="49.13057" lon="-0.4801">
        <ele>75.58</ele>
        <time>2025-07-04T11:06:27.358Z</time>
      </trkpt>
      <trkpt lat="49.13032" lon="-0.48039">
        <ele>75.55</ele>
        <time>2025-07-04T11:06:32.916Z</time>
      </trkpt>
      <trkpt lat="49.13026" lon="-0.48046">
        <ele>75.59</ele>
        <time>2025-07-04T11:06:38.475Z</time>
      </trkpt>
      <trkpt lat="49.13001" lon="-0.48075">
        <ele>75.69</ele>
        <time>2025-07-04T11:06:44.039Z</time>
      </trkpt>
      <trkpt lat="49.12978" lon="-0.48102">
        <ele>75.83</ele>
        <time>2025-07-04T11:06:49.608Z</time>
      </trkpt>
      <trkpt lat="49.12954" lon="-0.48133">
        <ele>75.96</ele>
        <time>2025-07-04T11:06:55.182Z</time>
      </trkpt>
      <trkpt lat="49.1293" lon="-0.48165">
        <ele>76.13</ele>
        <time>2025-07-04T11:07:00.761Z</time>
      </trkpt>
      <trkpt lat="49.12906" lon="-0.48196">
        <ele>76.38</ele>
        <time>2025-07-04T11:07:06.345Z</time>
      </trkpt>
      <trkpt lat="49.12888" lon="-0.4822">
        <ele>76.66</ele>
        <time>2025-07-04T11:07:11.933Z</time>
      </trkpt>
      <trkpt lat="49.12867" lon="-0.48255">
        <ele>76.97</ele>
        <time>2025-07-04T11:07:17.526Z</time>
      </trkpt>
      <trkpt lat="49.12845" lon="-0.48291">
        <ele>77.37</ele>
        <time>2025-07-04T11:07:23.124Z</time>
      </trkpt>
      <trkpt lat="49.12844" lon="-0.48293">
        <ele>77.71</ele>
        <time>2025-07-04T11:07:28.722Z</time>
      </trkpt>
      <trkpt lat="49.12825" lon="-0.48327">
        <ele>78.13</ele>
        <time>2025-07-04T11:07:34.325Z</time>
      </trkpt>
      <trkpt lat="49.1281" lon="-0.48369">
        <ele>78.49</ele>
        <time>2025-07-04T11:07:39.933Z</time>
      </trkpt>
      <trkpt lat="49.12796" lon="-0.48411">
        <ele>78.89</ele>
        <time>2025-07-04T11:07:45.546Z</time>
      </trkpt>
      <trkpt lat="49.12777" lon="-0.48449">
        <ele>79.37</ele>
        <time>2025-07-04T11:07:51.164Z</time>
      </trkpt>
      <trkpt lat="49.12763" lon="-0.48476">
        <ele>79.85</ele>
        <time>2025-07-04T11:07:56.785Z</time>
      </trkpt>
      <trkpt lat="49.12748" lon="-0.48515">
        <ele>80.32</ele>
        <time>2025-07-04T11:08:02.411Z</time>
      </trkpt>
      <trkpt lat="49.12742" lon="-0.48535">
        <ele>80.79</ele>
        <time>2025-07-04T11:08:08.039Z</time>
      </trkpt>
      <trkpt lat="49.12731" lon="-0.4858">
        <ele>81.25</ele>
        <time>2025-07-04T11:08:13.672Z</time>
      </trkpt>
      <trkpt lat="49.12726" lon="-0.48599">
        <ele>81.71</ele>
        <time>2025-07-04T11:08:19.308Z</time>
      </trkpt>
      <trkpt lat="49.12715" lon="-0.4864">
        <ele>82.2</ele>
        <time>2025-07-04T11:08:24.948Z</time>
      </trkpt>
      <trkpt lat="49.12705" lon="-0.48667">
        <ele>82.68</ele>
        <time>2025-07-04T11:08:30.591Z</time>
      </trkpt>
      <trkpt lat="49.12688" lon="-0.48701">
        <ele>83.21</ele>
        <time>2025-07-04T11:08:36.239Z</time>
      </trkpt>
      <trkpt lat="49.12665" lon="-0.48734">
        <ele>83.71</ele>
        <time>2025-07-04T11:08:41.892Z</time>
      </trkpt>
      <trkpt lat="49.12642" lon="-0.48767">
        <ele>84.23</ele>
        <time>2025-07-04T11:08:47.550Z</time>
      </trkpt>
      <trkpt lat="49.12626" lon="-0.48791">
        <ele>84.75</ele>
        <time>2025-07-04T11:08:53.212Z</time>
      </trkpt>
      <trkpt lat="49.12605" lon="-0.48826">
        <ele>85.25</ele>
        <time>2025-07-04T11:08:58.879Z</time>
      </trkpt>
      <trkpt lat="49.12601" lon="-0.48832">
        <ele>85.72</ele>
        <time>2025-07-04T11:09:04.547Z</time>
      </trkpt>
      <trkpt lat="49.12581" lon="-0.48869">
        <ele>86.17</ele>
        <time>2025-07-04T11:09:10.220Z</time>
      </trkpt>
      <trkpt lat="49.12561" lon="-0.48906">
        <ele>86.61</ele>
        <time>2025-07-04T11:09:15.898Z</time>
      </trkpt>
      <trkpt lat="49.12541" lon="-0.48943">
        <ele>87.04</ele>
        <time>2025-07-04T11:09:21.581Z</time>
      </trkpt>
      <trkpt lat="49.12521" lon="-0.4898">
        <ele>87.49</ele>
        <time>2025-07-04T11:09:27.269Z</time>
      </trkpt>
      <trkpt lat="49.125" lon="-0.49016">
        <ele>87.87</ele>
        <time>2025-07-04T11:09:32.962Z</time>
      </trkpt>
      <trkpt lat="49.12499" lon="-0.49019">
        <ele>88.24</ele>
        <time>2025-07-04T11:09:38.655Z</time>
      </trkpt>
      <trkpt lat="49.12477" lon="-0.49054">
        <ele>88.58</ele>
        <time>2025-07-04T11:09:44.353Z</time>
      </trkpt>
      <trkpt lat="49.12456" lon="-0.49089">
        <ele>88.96</ele>
        <time>2025-07-04T11:09:50.056Z</time>
      </trkpt>
      <trkpt lat="49.12443" lon="-0.4911">
        <ele>89.3</ele>
        <time>2025-07-04T11:09:55.762Z</time>
      </trkpt>
      <trkpt lat="49.12445" lon="-0.49114">
        <ele>89.61</ele>
        <time>2025-07-04T11:10:01.469Z</time>
      </trkpt>
      <trkpt lat="49.12442" lon="-0.49121">
        <ele>89.9</ele>
        <time>2025-07-04T11:10:07.177Z</time>
      </trkpt>
      <trkpt lat="49.1243" lon="-0.49146">
        <ele>90.19</ele>
        <time>2025-07-04T11:10:12.888Z</time>
      </trkpt>
      <trkpt lat="49.1241" lon="-0.49183">
        <ele>90.45</ele>
        <time>2025-07-04T11:10:18.604Z</time>
      </trkpt>
      <trkpt lat="49.12395" lon="-0.49211">
        <ele>90.69</ele>
        <time>2025-07-04T11:10:24.324Z</time>
      </trkpt>
      <trkpt lat="49.12374" lon="-0.49247">
        <ele>90.93</ele>
        <time>2025-07-04T11:10:30.049Z</time>
      </trkpt>
      <trkpt lat="49.12354" lon="-0.49284">
        <ele>91.15</ele>
        <time>2025-07-04T11:10:35.779Z</time>
      </trkpt>
      <trkpt lat="49.12333" lon="-0.4932">
        <ele>91.33</ele>
        <time>2025-07-04T11:10:41.514Z</time>
      </trkpt>
      <trkpt lat="49.12313" lon="-0.49356">
        <ele>91.49</ele>
        <time>2025-07-04T11:10:47.254Z</time>
      </trkpt>
      <trkpt lat="49.12292" lon="-0.49393">
        <ele>91.64</ele>
        <time>2025-07-04T11:10:52.999Z</time>
      </trkpt>
      <trkpt lat="49.12275" lon="-0.49423">
        <ele>91.79</ele>
        <time>2025-07-04T11:10:58.748Z</time>
      </trkpt>
      <trkpt lat="49.12258" lon="-0.49453">
        <ele>91.93</ele>
        <time>2025-07-04T11:11:04.501Z</time>
      </trkpt>
      <trkpt lat="49.12238" lon="-0.4949">
        <ele>91.98</ele>
        <time>2025-07-04T11:11:10.259Z</time>
      </trkpt>
      <trkpt lat="49.12217" lon="-0.49526">
        <ele>92.08</ele>
        <time>2025-07-04T11:11:16.022Z</time>
      </trkpt>
      <trkpt lat="49.12201" lon="-0.49556">
        <ele>92.15</ele>
        <time>2025-07-04T11:11:21.789Z</time>
      </trkpt>
      <trkpt lat="49.12182" lon="-0.49594">
        <ele>92.2</ele>
        <time>2025-07-04T11:11:27.562Z</time>
      </trkpt>
      <trkpt lat="49.12164" lon="-0.49628">
        <ele>92.22</ele>
        <time>2025-07-04T11:11:33.339Z</time>
      </trkpt>
      <trkpt lat="49.12157" lon="-0.49647">
        <ele>92.23</ele>
        <time>2025-07-04T11:11:39.118Z</time>
      </trkpt>
      <trkpt lat="49.12144" lon="-0.4969">
        <ele>92.21</ele>
        <time>2025-07-04T11:11:44.902Z</time>
      </trkpt>
      <trkpt lat="49.12134" lon="-0.49722">
        <ele>92.2</ele>
        <time>2025-07-04T11:11:50.690Z</time>
      </trkpt>
      <trkpt lat="49.12124" lon="-0.49768">
        <ele>92.15</ele>
        <time>2025-07-04T11:11:56.483Z</time>
      </trkpt>
      <trkpt lat="49.1212" lon="-0.49789">
        <ele>92.12</ele>
        <time>2025-07-04T11:12:02.278Z</time>
      </trkpt>
      <trkpt lat="49.12112" lon="-0.49836">
        <ele>92.05</ele>
        <time>2025-07-04T11:12:08.079Z</time>
      </trkpt>
      <trkpt lat="49.12105" lon="-0.49882">
        <ele>91.98</ele>
        <time>2025-07-04T11:12:13.885Z</time>
      </trkpt>
      <trkpt lat="49.12099" lon="-0.49918">
        <ele>91.91</ele>
        <time>2025-07-04T11:12:19.694Z</time>
      </trkpt>
      <trkpt lat="49.1209" lon="-0.49956">
        <ele>91.87</ele>
        <time>2025-07-04T11:12:25.508Z</time>
      </trkpt>
      <trkpt lat="49.12082" lon="-0.49981">
        <ele>91.82</ele>
        <time>2025-07-04T11:12:31.325Z</time>
      </trkpt>
      <trkpt lat="49.1206" lon="-0.50016">
        <ele>91.79</ele>
        <time>2025-07-04T11:12:37.147Z</time>
      </trkpt>
      <trkpt lat="49.12059" lon="-0.50018">
        <ele>91.79</ele>
        <time>2025-07-04T11:12:42.969Z</time>
      </trkpt>
      <trkpt lat="49.12033" lon="-0.50046">
        <ele>91.81</ele>
        <time>2025-07-04T11:12:48.796Z</time>
      </trkpt>
      <trkpt lat="49.12032" lon="-0.50047">
        <ele>91.84</ele>
        <time>2025-07-04T11:12:54.623Z</time>
      </trkpt>
      <trkpt lat="49.12013" lon="-0.50063">
        <ele>91.91</ele>
        <time>2025-07-04T11:13:00.454Z</time>
      </trkpt>
      <trkpt lat="49.11984" lon="-0.50082">
        <ele>92.01</ele>
        <time>2025-07-04T11:13:06.290Z</time>
      </trkpt>
      <trkpt lat="49.11982" lon="-0.50083">
        <ele>92.08</ele>
        <time>2025-07-04T11:13:12.126Z</time>
      </trkpt>
      <trkpt lat="49.11952" lon="-0.50098">
        <ele>92.2</ele>
        <time>2025-07-04T11:13:17.967Z</time>
      </trkpt>
      <trkpt lat="49.1193" lon="-0.5011">
        <ele>92.3</ele>
        <time>2025-07-04T11:13:23.812Z</time>
      </trkpt>
      <trkpt lat="49.119" lon="-0.50123">
        <ele>92.41</ele>
        <time>2025-07-04T11:13:29.662Z</time>
      </trkpt>
      <trkpt lat="49.11893" lon="-0.50126">
        <ele>92.53</ele>
        <time>2025-07-04T11:13:35.513Z</time>
      </trkpt>
      <trkpt lat="49.11862" lon="-0.50137">
        <ele>92.67</ele>
        <time>2025-07-04T11:13:41.369Z</time>
      </trkpt>
      <trkpt lat="49.11839" lon="-0.50145">
        <ele>92.81</ele>
        <time>2025-07-04T11:13:47.229Z</time>
      </trkpt>
      <trkpt lat="49.11809" lon="-0.50159">
        <ele>92.98</ele>
        <time>2025-07-04T11:13:53.094Z</time>
      </trkpt>
      <trkpt lat="49.11806" lon="-0.5016">
        <ele>93.15</ele>
        <time>2025-07-04T11:13:58.959Z</time>
      </trkpt>
      <trkpt lat="49.11777" lon="-0.50178">
        <ele>93.31</ele>
        <time>2025-07-04T11:14:04.830Z</time>
      </trkpt>
      <trkpt lat="49.11768" lon="-0.50184">
        <ele>93.48</ele>
        <time>2025-07-04T11:14:10.702Z</time>
      </trkpt>
      <trkpt lat="49.11749" lon="-0.502">
        <ele>93.65</ele>
        <time>2025-07-04T11:14:16.578Z</time>
      </trkpt>
      <trkpt lat="49.11723" lon="-0.50225">
        <ele>93.83</ele>
        <time>2025-07-04T11:14:22.458Z</time>
      </trkpt>
      <trkpt lat="49.11698" lon="-0.50253">
        <ele>93.98</ele>
        <time>2025-07-04T11:14:28.344Z</time>
      </trkpt>
      <trkpt lat="49.11688" lon="-0.50264">
        <ele>94.14</ele>
        <time>2025-07-04T11:14:34.231Z</time>
      </trkpt>
      <trkpt lat="49.11665" lon="-0.50297">
        <ele>94.31</ele>
        <time>2025-07-04T11:14:40.123Z</time>
      </trkpt>
      <trkpt lat="49.11662" lon="-0.50302">
        <ele>94.47</ele>
        <time>2025-07-04T11:14:46.016Z</time>
      </trkpt>
      <trkpt lat="49.11647" lon="-0.50334">
        <ele>94.63</ele>
        <time>2025-07-04T11:14:51.913Z</time>
      </trkpt>
      <trkpt lat="49.1164" lon="-0.50364">
        <ele>94.77</ele>
        <time>2025-07-04T11:14:57.814Z</time>
      </trkpt>
      <trkpt lat="49.11637" lon="-0.50386">
        <ele>94.89</ele>
        <time>2025-07-04T11:15:03.717Z</time>
      </trkpt>
      <trkpt lat="49.11635" lon="-0.50434">
        <ele>95.05</ele>
        <time>2025-07-04T11:15:09.625Z</time>
      </trkpt>
      <trkpt lat="49.11634" lon="-0.50482">
        <ele>95.17</ele>
        <time>2025-07-04T11:15:15.538Z</time>
      </trkpt>
      <trkpt lat="49.11632" lon="-0.5053">
        <ele>95.29</ele>
        <time>2025-07-04T11:15:21.456Z</time>
      </trkpt>
      <trkpt lat="49.11632" lon="-0.50537">
        <ele>95.32</ele>
        <time>2025-07-04T11:15:27.375Z</time>
      </trkpt>
      <trkpt lat="49.11629" lon="-0.50585">
        <ele>95.34</ele>
        <time>2025-07-04T11:15:33.299Z</time>
      </trkpt>
      <trkpt lat="49.11626" lon="-0.50619">
        <ele>95.32</ele>
        <time>2025-07-04T11:15:39.227Z</time>
      </trkpt>
      <trkpt lat="49.11621" lon="-0.50666">
        <ele>95.27</ele>
        <time>2025-07-04T11:15:45.160Z</time>
      </trkpt>
      <trkpt lat="49.11617" lon="-0.507">
        <ele>95.11</ele>
        <time>2025-07-04T11:15:51.096Z</time>
      </trkpt>
      <trkpt lat="49.11613" lon="-0.50727">
        <ele>94.93</ele>
        <time>2025-07-04T11:15:57.035Z</time>
      </trkpt>
      <trkpt lat="49.116" lon="-0.50771">
        <ele>94.73</ele>
        <time>2025-07-04T11:16:02.979Z</time>
      </trkpt>
      <trkpt lat="49.11596" lon="-0.50785">
        <ele>94.46</ele>
        <time>2025-07-04T11:16:08.925Z</time>
      </trkpt>
      <trkpt lat="49.11619" lon="-0.50818">
        <ele>94.12</ele>
        <time>2025-07-04T11:16:14.876Z</time>
      </trkpt>
      <trkpt lat="49.11642" lon="-0.50851">
        <ele>93.7</ele>
        <time>2025-07-04T11:16:20.832Z</time>
      </trkpt>
      <trkpt lat="49.11643" lon="-0.50852">
        <ele>93.3</ele>
        <time>2025-07-04T11:16:26.788Z</time>
      </trkpt>
      <trkpt lat="49.11663" lon="-0.50889">
        <ele>92.81</ele>
        <time>2025-07-04T11:16:32.749Z</time>
      </trkpt>
      <trkpt lat="49.1168" lon="-0.50919">
        <ele>92.25</ele>
        <time>2025-07-04T11:16:38.714Z</time>
      </trkpt>
      <trkpt lat="49.11701" lon="-0.50955">
        <ele>91.71</ele>
        <time>2025-07-04T11:16:44.684Z</time>
      </trkpt>
      <trkpt lat="49.11722" lon="-0.5099">
        <ele>91.09</ele>
        <time>2025-07-04T11:16:50.659Z</time>
      </trkpt>
      <trkpt lat="49.11727" lon="-0.50998">
        <ele>90.52</ele>
        <time>2025-07-04T11:16:56.636Z</time>
      </trkpt>
      <trkpt lat="49.11749" lon="-0.51032">
        <ele>89.84</ele>
        <time>2025-07-04T11:17:02.618Z</time>
      </trkpt>
      <trkpt lat="49.11761" lon="-0.5105">
        <ele>89.21</ele>
        <time>2025-07-04T11:17:08.602Z</time>
      </trkpt>
      <trkpt lat="49.11778" lon="-0.51074">
        <ele>88.53</ele>
        <time>2025-07-04T11:17:14.590Z</time>
      </trkpt>
      <trkpt lat="49.11785" lon="-0.51088">
        <ele>87.91</ele>
        <time>2025-07-04T11:17:20.580Z</time>
      </trkpt>
      <trkpt lat="49.11787" lon="-0.51108">
        <ele>87.28</ele>
        <time>2025-07-04T11:17:26.572Z</time>
      </trkpt>
      <trkpt lat="49.11778" lon="-0.51151">
        <ele>86.7</ele>
        <time>2025-07-04T11:17:32.569Z</time>
      </trkpt>
      <trkpt lat="49.11767" lon="-0.51196">
        <ele>86.08</ele>
        <time>2025-07-04T11:17:38.571Z</time>
      </trkpt>
      <trkpt lat="49.11757" lon="-0.51241">
        <ele>85.45</ele>
        <time>2025-07-04T11:17:44.578Z</time>
      </trkpt>
      <trkpt lat="49.11758" lon="-0.51253">
        <ele>84.82</ele>
        <time>2025-07-04T11:17:50.586Z</time>
      </trkpt>
      <trkpt lat="49.11762" lon="-0.51263">
        <ele>84.22</ele>
        <time>2025-07-04T11:17:56.595Z</time>
      </trkpt>
      <trkpt lat="49.11778" lon="-0.51296">
        <ele>83.6</ele>
        <time>2025-07-04T11:18:02.609Z</time>
      </trkpt>
      <trkpt lat="49.11787" lon="-0.5132">
        <ele>83</ele>
        <time>2025-07-04T11:18:08.625Z</time>
      </trkpt>
      <trkpt lat="49.11798" lon="-0.51365">
        <ele>82.41</ele>
        <time>2025-07-04T11:18:14.646Z</time>
      </trkpt>
      <trkpt lat="49.11808" lon="-0.5141">
        <ele>81.82</ele>
        <time>2025-07-04T11:18:20.673Z</time>
      </trkpt>
      <trkpt lat="49.11818" lon="-0.51452">
        <ele>81.28</ele>
        <time>2025-07-04T11:18:26.704Z</time>
      </trkpt>
      <trkpt lat="49.11825" lon="-0.5149">
        <ele>80.75</ele>
        <time>2025-07-04T11:18:32.739Z</time>
      </trkpt>
      <trkpt lat="49.11826" lon="-0.51514">
        <ele>80.25</ele>
        <time>2025-07-04T11:18:38.777Z</time>
      </trkpt>
      <trkpt lat="49.11826" lon="-0.51554">
        <ele>79.75</ele>
        <time>2025-07-04T11:18:44.819Z</time>
      </trkpt>
      <trkpt lat="49.11822" lon="-0.51587">
        <ele>79.38</ele>
        <time>2025-07-04T11:18:50.865Z</time>
      </trkpt>
      <trkpt lat="49.11802" lon="-0.51623">
        <ele>79.05</ele>
        <time>2025-07-04T11:18:56.916Z</time>
      </trkpt>
      <trkpt lat="49.11785" lon="-0.51653">
        <ele>78.74</ele>
        <time>2025-07-04T11:19:02.971Z</time>
      </trkpt>
      <trkpt lat="49.11768" lon="-0.51693">
        <ele>78.42</ele>
        <time>2025-07-04T11:19:09.031Z</time>
      </trkpt>
      <trkpt lat="49.11767" lon="-0.51695">
        <ele>78.13</ele>
        <time>2025-07-04T11:19:15.091Z</time>
      </trkpt>
      <trkpt lat="49.11753" lon="-0.5173">
        <ele>77.91</ele>
        <time>2025-07-04T11:19:21.155Z</time>
      </trkpt>
      <trkpt lat="49.11734" lon="-0.51768">
        <ele>77.68</ele>
        <time>2025-07-04T11:19:27.224Z</time>
      </trkpt>
      <trkpt lat="49.11723" lon="-0.51789">
        <ele>77.48</ele>
        <time>2025-07-04T11:19:33.296Z</time>
      </trkpt>
      <trkpt lat="49.11702" lon="-0.51825">
        <ele>77.3</ele>
        <time>2025-07-04T11:19:39.373Z</time>
      </trkpt>
      <trkpt lat="49.11687" lon="-0.51851">
        <ele>77.18</ele>
        <time>2025-07-04T11:19:45.454Z</time>
      </trkpt>
      <trkpt lat="49.11664" lon="-0.51883">
        <ele>77.14</ele>
        <time>2025-07-04T11:19:51.540Z</time>
      </trkpt>
      <trkpt lat="49.11646" lon="-0.51907">
        <ele>77.08</ele>
        <time>2025-07-04T11:19:57.630Z</time>
      </trkpt>
      <trkpt lat="49.11628" lon="-0.51927">
        <ele>77.02</ele>
        <time>2025-07-04T11:20:03.723Z</time>
      </trkpt>
      <trkpt lat="49.11603" lon="-0.51955">
        <ele>76.93</ele>
        <time>2025-07-04T11:20:09.821Z</time>
      </trkpt>
      <trkpt lat="49.11577" lon="-0.51984">
        <ele>76.83</ele>
        <time>2025-07-04T11:20:15.924Z</time>
      </trkpt>
      <trkpt lat="49.11575" lon="-0.51986">
        <ele>76.85</ele>
        <time>2025-07-04T11:20:22.028Z</time>
      </trkpt>
      <trkpt lat="49.11549" lon="-0.52014">
        <ele>76.83</ele>
        <time>2025-07-04T11:20:28.137Z</time>
      </trkpt>
      <trkpt lat="49.11524" lon="-0.52042">
        <ele>76.83</ele>
        <time>2025-07-04T11:20:34.251Z</time>
      </trkpt>
      <trkpt lat="49.11521" lon="-0.52045">
        <ele>76.94</ele>
        <time>2025-07-04T11:20:40.365Z</time>
      </trkpt>
      <trkpt lat="49.11496" lon="-0.52074">
        <ele>76.99</ele>
        <time>2025-07-04T11:20:46.484Z</time>
      </trkpt>
      <trkpt lat="49.11474" lon="-0.52098">
        <ele>77.11</ele>
        <time>2025-07-04T11:20:52.608Z</time>
      </trkpt>
      <trkpt lat="49.11449" lon="-0.52128">
        <ele>77.28</ele>
        <time>2025-07-04T11:20:58.737Z</time>
      </trkpt>
      <trkpt lat="49.11447" lon="-0.52131">
        <ele>77.55</ele>
        <time>2025-07-04T11:21:04.866Z</time>
      </trkpt>
      <trkpt lat="49.11421" lon="-0.52157">
        <ele>77.86</ele>
        <time>2025-07-04T11:21:11.000Z</time>
      </trkpt>
      <trkpt lat="49.11411" lon="-0.52167">
        <ele>78.2</ele>
        <time>2025-07-04T11:21:17.136Z</time>
      </trkpt>
      <trkpt lat="49.11385" lon="-0.52194">
        <ele>78.6</ele>
        <time>2025-07-04T11:21:23.277Z</time>
      </trkpt>
      <trkpt lat="49.11377" lon="-0.52202">
        <ele>79.02</ele>
        <time>2025-07-04T11:21:29.420Z</time>
      </trkpt>
      <trkpt lat="49.11368" lon="-0.52215">
        <ele>79.49</ele>
        <time>2025-07-04T11:21:35.565Z</time>
      </trkpt>
      <trkpt lat="49.11348" lon="-0.52252">
        <ele>80.02</ele>
        <time>2025-07-04T11:21:41.715Z</time>
      </trkpt>
      <trkpt lat="49.11342" lon="-0.52263">
        <ele>80.49</ele>
        <time>2025-07-04T11:21:47.866Z</time>
      </trkpt>
      <trkpt lat="49.1132" lon="-0.52298">
        <ele>81.03</ele>
        <time>2025-07-04T11:21:54.022Z</time>
      </trkpt>
      <trkpt lat="49.11319" lon="-0.523">
        <ele>81.46</ele>
        <time>2025-07-04T11:22:00.179Z</time>
      </trkpt>
      <trkpt lat="49.11297" lon="-0.52335">
        <ele>81.96</ele>
        <time>2025-07-04T11:22:06.341Z</time>
      </trkpt>
      <trkpt lat="49.11293" lon="-0.52342">
        <ele>82.37</ele>
        <time>2025-07-04T11:22:12.504Z</time>
      </trkpt>
      <trkpt lat="49.11278" lon="-0.5238">
        <ele>82.81</ele>
        <time>2025-07-04T11:22:18.671Z</time>
      </trkpt>
      <trkpt lat="49.11271" lon="-0.52427">
        <ele>83.21</ele>
        <time>2025-07-04T11:22:24.843Z</time>
      </trkpt>
      <trkpt lat="49.11265" lon="-0.52474">
        <ele>83.56</ele>
        <time>2025-07-04T11:22:31.020Z</time>
      </trkpt>
      <trkpt lat="49.1126" lon="-0.52509">
        <ele>83.77</ele>
        <time>2025-07-04T11:22:37.201Z</time>
      </trkpt>
      <trkpt lat="49.11254" lon="-0.52525">
        <ele>83.95</ele>
        <time>2025-07-04T11:22:43.384Z</time>
      </trkpt>
      <trkpt lat="49.11236" lon="-0.52546">
        <ele>84.1</ele>
        <time>2025-07-04T11:22:49.571Z</time>
      </trkpt>
      <trkpt lat="49.11218" lon="-0.52565">
        <ele>84.14</ele>
        <time>2025-07-04T11:22:55.761Z</time>
      </trkpt>
      <trkpt lat="49.11215" lon="-0.52572">
        <ele>84.1</ele>
        <time>2025-07-04T11:23:01.952Z</time>
      </trkpt>
      <trkpt lat="49.11204" lon="-0.52607">
        <ele>83.96</ele>
        <time>2025-07-04T11:23:08.147Z</time>
      </trkpt>
      <trkpt lat="49.1119" lon="-0.5265">
        <ele>83.78</ele>
        <time>2025-07-04T11:23:14.347Z</time>
      </trkpt>
      <trkpt lat="49.11188" lon="-0.52656">
        <ele>83.51</ele>
        <time>2025-07-04T11:23:20.548Z</time>
      </trkpt>
      <trkpt lat="49.11177" lon="-0.52689">
        <ele>83.16</ele>
        <time>2025-07-04T11:23:26.753Z</time>
      </trkpt>
      <trkpt lat="49.1117" lon="-0.52733">
        <ele>82.72</ele>
        <time>2025-07-04T11:23:32.963Z</time>
      </trkpt>
      <trkpt lat="49.11167" lon="-0.52781">
        <ele>82.14</ele>
        <time>2025-07-04T11:23:39.178Z</time>
      </trkpt>
      <trkpt lat="49.11163" lon="-0.52828">
        <ele>81.58</ele>
        <time>2025-07-04T11:23:45.398Z</time>
      </trkpt>
      <trkpt lat="49.11162" lon="-0.52847">
        <ele>80.91</ele>
        <time>2025-07-04T11:23:51.620Z</time>
      </trkpt>
      <trkpt lat="49.11156" lon="-0.52894">
        <ele>80.18</ele>
        <time>2025-07-04T11:23:57.847Z</time>
      </trkpt>
      <trkpt lat="49.1115" lon="-0.52941">
        <ele>79.29</ele>
        <time>2025-07-04T11:24:04.079Z</time>
      </trkpt>
      <trkpt lat="49.11148" lon="-0.52955">
        <ele>78.35</ele>
        <time>2025-07-04T11:24:10.312Z</time>
      </trkpt>
      <trkpt lat="49.11141" lon="-0.53002">
        <ele>77.26</ele>
        <time>2025-07-04T11:24:16.550Z</time>
      </trkpt>
      <trkpt lat="49.11135" lon="-0.53049">
        <ele>76.08</ele>
        <time>2025-07-04T11:24:22.793Z</time>
      </trkpt>
      <trkpt lat="49.11128" lon="-0.53096">
        <ele>74.89</ele>
        <time>2025-07-04T11:24:29.041Z</time>
      </trkpt>
      <trkpt lat="49.11125" lon="-0.53116">
        <ele>73.74</ele>
        <time>2025-07-04T11:24:35.292Z</time>
      </trkpt>
      <trkpt lat="49.1112" lon="-0.53163">
        <ele>72.49</ele>
        <time>2025-07-04T11:24:41.548Z</time>
      </trkpt>
      <trkpt lat="49.11115" lon="-0.53202">
        <ele>71.26</ele>
        <time>2025-07-04T11:24:47.808Z</time>
      </trkpt>
      <trkpt lat="49.11112" lon="-0.53232">
        <ele>70.05</ele>
        <time>2025-07-04T11:24:54.071Z</time>
      </trkpt>
      <trkpt lat="49.11113" lon="-0.53251">
        <ele>68.88</ele>
        <time>2025-07-04T11:25:00.336Z</time>
      </trkpt>
      <trkpt lat="49.11117" lon="-0.53281">
        <ele>67.75</ele>
        <time>2025-07-04T11:25:06.604Z</time>
      </trkpt>
      <trkpt lat="49.11131" lon="-0.53318">
        <ele>66.58</ele>
        <time>2025-07-04T11:25:12.877Z</time>
      </trkpt>
      <trkpt lat="49.11145" lon="-0.53351">
        <ele>65.36</ele>
        <time>2025-07-04T11:25:19.154Z</time>
      </trkpt>
      <trkpt lat="49.11156" lon="-0.53384">
        <ele>64.11</ele>
        <time>2025-07-04T11:25:25.435Z</time>
      </trkpt>
      <trkpt lat="49.11162" lon="-0.53421">
        <ele>62.85</ele>
        <time>2025-07-04T11:25:31.720Z</time>
      </trkpt>
      <trkpt lat="49.11162" lon="-0.53454">
        <ele>61.61</ele>
        <time>2025-07-04T11:25:38.008Z</time>
      </trkpt>
      <trkpt lat="49.11159" lon="-0.53502">
        <ele>60.41</ele>
        <time>2025-07-04T11:25:44.301Z</time>
      </trkpt>
      <trkpt lat="49.11157" lon="-0.53532">
        <ele>59.38</ele>
        <time>2025-07-04T11:25:50.597Z</time>
      </trkpt>
      <trkpt lat="49.11155" lon="-0.5358">
        <ele>58.45</ele>
        <time>2025-07-04T11:25:56.898Z</time>
      </trkpt>
      <trkpt lat="49.11152" lon="-0.53628">
        <ele>57.62</ele>
        <time>2025-07-04T11:26:03.205Z</time>
      </trkpt>
      <trkpt lat="49.1115" lon="-0.53675">
        <ele>56.91</ele>
        <time>2025-07-04T11:26:09.517Z</time>
      </trkpt>
      <trkpt lat="49.11148" lon="-0.53712">
        <ele>56.29</ele>
        <time>2025-07-04T11:26:15.832Z</time>
      </trkpt>
      <trkpt lat="49.11145" lon="-0.53745">
        <ele>55.75</ele>
        <time>2025-07-04T11:26:22.151Z</time>
      </trkpt>
      <trkpt lat="49.11137" lon="-0.53789">
        <ele>55.28</ele>
        <time>2025-07-04T11:26:28.475Z</time>
      </trkpt>
      <trkpt lat="49.11123" lon="-0.53832">
        <ele>54.83</ele>
        <time>2025-07-04T11:26:34.804Z</time>
      </trkpt>
      <trkpt lat="49.11122" lon="-0.53836">
        <ele>54.45</ele>
        <time>2025-07-04T11:26:41.133Z</time>
      </trkpt>
      <trkpt lat="49.11111" lon="-0.53862">
        <ele>54.16</ele>
        <time>2025-07-04T11:26:47.465Z</time>
      </trkpt>
      <trkpt lat="49.11091" lon="-0.53899">
        <ele>53.95</ele>
        <time>2025-07-04T11:26:53.803Z</time>
      </trkpt>
      <trkpt lat="49.1108" lon="-0.53921">
        <ele>53.81</ele>
        <time>2025-07-04T11:27:00.143Z</time>
      </trkpt>
      <trkpt lat="49.11069" lon="-0.53944">
        <ele>53.77</ele>
        <time>2025-07-04T11:27:06.486Z</time>
      </trkpt>
      <trkpt lat="49.11052" lon="-0.53984">
        <ele>53.83</ele>
        <time>2025-07-04T11:27:12.834Z</time>
      </trkpt>
      <trkpt lat="49.11051" lon="-0.53986">
        <ele>53.89</ele>
        <time>2025-07-04T11:27:19.183Z</time>
      </trkpt>
      <trkpt lat="49.11039" lon="-0.5403">
        <ele>54.1</ele>
        <time>2025-07-04T11:27:25.537Z</time>
      </trkpt>
      <trkpt lat="49.11036" lon="-0.54041">
        <ele>54.28</ele>
        <time>2025-07-04T11:27:31.892Z</time>
      </trkpt>
      <trkpt lat="49.11027" lon="-0.54076">
        <ele>54.53</ele>
        <time>2025-07-04T11:27:38.251Z</time>
      </trkpt>
      <trkpt lat="49.11015" lon="-0.5412">
        <ele>54.77</ele>
        <time>2025-07-04T11:27:44.615Z</time>
      </trkpt>
      <trkpt lat="49.11009" lon="-0.54142">
        <ele>55.09</ele>
        <time>2025-07-04T11:27:50.981Z</time>
      </trkpt>
      <trkpt lat="49.10993" lon="-0.54183">
        <ele>55.45</ele>
        <time>2025-07-04T11:27:57.352Z</time>
      </trkpt>
      <trkpt lat="49.10987" lon="-0.54197">
        <ele>55.87</ele>
        <time>2025-07-04T11:28:03.725Z</time>
      </trkpt>
      <trkpt lat="49.10967" lon="-0.54234">
        <ele>56.39</ele>
        <time>2025-07-04T11:28:10.103Z</time>
      </trkpt>
      <trkpt lat="49.10947" lon="-0.54271">
        <ele>56.92</ele>
        <time>2025-07-04T11:28:16.486Z</time>
      </trkpt>
      <trkpt lat="49.10934" lon="-0.54295">
        <ele>57.48</ele>
        <time>2025-07-04T11:28:22.873Z</time>
      </trkpt>
      <trkpt lat="49.10915" lon="-0.54333">
        <ele>58.05</ele>
        <time>2025-07-04T11:28:29.265Z</time>
      </trkpt>
      <trkpt lat="49.1091" lon="-0.54344">
        <ele>58.62</ele>
        <time>2025-07-04T11:28:35.658Z</time>
      </trkpt>
      <trkpt lat="49.109" lon="-0.5438">
        <ele>59.23</ele>
        <time>2025-07-04T11:28:42.055Z</time>
      </trkpt>
      <trkpt lat="49.10892" lon="-0.54415">
        <ele>59.85</ele>
        <time>2025-07-04T11:28:48.456Z</time>
      </trkpt>
      <trkpt lat="49.10884" lon="-0.54461">
        <ele>60.58</ele>
        <time>2025-07-04T11:28:54.862Z</time>
      </trkpt>
      <trkpt lat="49.10884" lon="-0.54463">
        <ele>61.21</ele>
        <time>2025-07-04T11:29:01.268Z</time>
      </trkpt>
      <trkpt lat="49.10873" lon="-0.54508">
        <ele>61.9</ele>
        <time>2025-07-04T11:29:07.679Z</time>
      </trkpt>
      <trkpt lat="49.10872" lon="-0.54513">
        <ele>62.53</ele>
        <time>2025-07-04T11:29:14.091Z</time>
      </trkpt>
      <trkpt lat="49.10855" lon="-0.54553">
        <ele>63.15</ele>
        <time>2025-07-04T11:29:20.508Z</time>
      </trkpt>
      <trkpt lat="49.10853" lon="-0.54558">
        <ele>63.76</ele>
        <time>2025-07-04T11:29:26.925Z</time>
      </trkpt>
      <trkpt lat="49.10833" lon="-0.5459">
        <ele>64.39</ele>
        <time>2025-07-04T11:29:33.347Z</time>
      </trkpt>
      <trkpt lat="49.10819" lon="-0.54611">
        <ele>65</ele>
        <time>2025-07-04T11:29:39.772Z</time>
      </trkpt>
      <trkpt lat="49.10797" lon="-0.54633">
        <ele>65.59</ele>
        <time>2025-07-04T11:29:46.201Z</time>
      </trkpt>
      <trkpt lat="49.10769" lon="-0.54655">
        <ele>66.18</ele>
        <time>2025-07-04T11:29:52.635Z</time>
      </trkpt>
      <trkpt lat="49.10741" lon="-0.54678">
        <ele>66.75</ele>
        <time>2025-07-04T11:29:59.074Z</time>
      </trkpt>
      <trkpt lat="49.10725" lon="-0.54691">
        <ele>67.29</ele>
        <time>2025-07-04T11:30:05.516Z</time>
      </trkpt>
      <trkpt lat="49.10698" lon="-0.54714">
        <ele>67.83</ele>
        <time>2025-07-04T11:30:11.963Z</time>
      </trkpt>
      <trkpt lat="49.10685" lon="-0.54725">
        <ele>68.36</ele>
        <time>2025-07-04T11:30:18.413Z</time>
      </trkpt>
      <trkpt lat="49.10666" lon="-0.54744">
        <ele>68.84</ele>
        <time>2025-07-04T11:30:24.866Z</time>
      </trkpt>
      <trkpt lat="49.10658" lon="-0.54757">
        <ele>69.32</ele>
        <time>2025-07-04T11:30:31.321Z</time>
      </trkpt>
      <trkpt lat="49.10641" lon="-0.5479">
        <ele>69.74</ele>
        <time>2025-07-04T11:30:37.781Z</time>
      </trkpt>
      <trkpt lat="49.10632" lon="-0.54814">
        <ele>70.15</ele>
        <time>2025-07-04T11:30:44.244Z</time>
      </trkpt>
      <trkpt lat="49.10627" lon="-0.54838">
        <ele>70.59</ele>
        <time>2025-07-04T11:30:50.709Z</time>
      </trkpt>
      <trkpt lat="49.10627" lon="-0.54856">
        <ele>71.05</ele>
        <time>2025-07-04T11:30:57.176Z</time>
      </trkpt>
      <trkpt lat="49.10627" lon="-0.54866">
        <ele>71.49</ele>
        <time>2025-07-04T11:31:03.644Z</time>
      </trkpt>
      <trkpt lat="49.10632" lon="-0.54913">
        <ele>72.04</ele>
        <time>2025-07-04T11:31:10.117Z</time>
      </trkpt>
      <trkpt lat="49.10632" lon="-0.54914">
        <ele>72.42</ele>
        <time>2025-07-04T11:31:16.590Z</time>
      </trkpt>
      <trkpt lat="49.10631" lon="-0.54938">
        <ele>72.85</ele>
        <time>2025-07-04T11:31:23.066Z</time>
      </trkpt>
      <trkpt lat="49.10624" lon="-0.54965">
        <ele>73.25</ele>
        <time>2025-07-04T11:31:29.545Z</time>
      </trkpt>
      <trkpt lat="49.10613" lon="-0.54986">
        <ele>73.6</ele>
        <time>2025-07-04T11:31:36.027Z</time>
      </trkpt>
      <trkpt lat="49.10585" lon="-0.55009">
        <ele>73.92</ele>
        <time>2025-07-04T11:31:42.514Z</time>
      </trkpt>
      <trkpt lat="49.1058" lon="-0.55013">
        <ele>74.18</ele>
        <time>2025-07-04T11:31:49.002Z</time>
      </trkpt>
      <trkpt lat="49.10558" lon="-0.55032">
        <ele>74.47</ele>
        <time>2025-07-04T11:31:55.494Z</time>
      </trkpt>
      <trkpt lat="49.10548" lon="-0.55043">
        <ele>74.68</ele>
        <time>2025-07-04T11:32:01.988Z</time>
      </trkpt>
      <trkpt lat="49.10526" lon="-0.55078">
        <ele>74.91</ele>
        <time>2025-07-04T11:32:08.487Z</time>
      </trkpt>
      <trkpt lat="49.10525" lon="-0.5508">
        <ele>75.03</ele>
        <time>2025-07-04T11:32:14.986Z</time>
      </trkpt>
      <trkpt lat="49.10509" lon="-0.55103">
        <ele>75.11</ele>
        <time>2025-07-04T11:32:21.489Z</time>
      </trkpt>
      <trkpt lat="49.10494" lon="-0.55121">
        <ele>75.13</ele>
        <time>2025-07-04T11:32:27.995Z</time>
      </trkpt>
      <trkpt lat="49.1047" lon="-0.55151">
        <ele>75.05</ele>
        <time>2025-07-04T11:32:34.506Z</time>
      </trkpt>
      <trkpt lat="49.1045" lon="-0.55176">
        <ele>74.97</ele>
        <time>2025-07-04T11:32:41.021Z</time>
      </trkpt>
      <trkpt lat="49.10439" lon="-0.55192">
        <ele>74.92</ele>
        <time>2025-07-04T11:32:47.538Z</time>
      </trkpt>
      <trkpt lat="49.1042" lon="-0.5523">
        <ele>74.83</ele>
        <time>2025-07-04T11:32:54.060Z</time>
      </trkpt>
      <trkpt lat="49.10419" lon="-0.55232">
        <ele>74.74</ele>
        <time>2025-07-04T11:33:00.583Z</time>
      </trkpt>
      <trkpt lat="49.10408" lon="-0.55271">
        <ele>74.54</ele>
        <time>2025-07-04T11:33:07.110Z</time>
      </trkpt>
      <trkpt lat="49.10395" lon="-0.55299">
        <ele>74.34</ele>
        <time>2025-07-04T11:33:13.641Z</time>
      </trkpt>
      <trkpt lat="49.10387" lon="-0.55309">
        <ele>74.17</ele>
        <time>2025-07-04T11:33:20.173Z</time>
      </trkpt>
      <trkpt lat="49.1038" lon="-0.55316">
        <ele>74.01</ele>
        <time>2025-07-04T11:33:26.707Z</time>
      </trkpt>
      <trkpt lat="49.10369" lon="-0.55327">
        <ele>73.86</ele>
        <time>2025-07-04T11:33:33.243Z</time>
      </trkpt>
      <trkpt lat="49.10351" lon="-0.55355">
        <ele>73.74</ele>
        <time>2025-07-04T11:33:39.783Z</time>
      </trkpt>
      <trkpt lat="49.1033" lon="-0.55375">
        <ele>73.65</ele>
        <time>2025-07-04T11:33:46.327Z</time>
      </trkpt>
      <trkpt lat="49.10312" lon="-0.55389">
        <ele>73.54</ele>
        <time>2025-07-04T11:33:52.874Z</time>
      </trkpt>
      <trkpt lat="49.1029" lon="-0.55423">
        <ele>73.49</ele>
        <time>2025-07-04T11:33:59.426Z</time>
      </trkpt>
      <trkpt lat="49.1028" lon="-0.55437">
        <ele>73.35</ele>
        <time>2025-07-04T11:34:05.980Z</time>
      </trkpt>
      <trkpt lat="49.1026" lon="-0.55475">
        <ele>73.2</ele>
        <time>2025-07-04T11:34:12.539Z</time>
      </trkpt>
      <trkpt lat="49.10256" lon="-0.55483">
        <ele>73.06</ele>
        <time>2025-07-04T11:34:19.099Z</time>
      </trkpt>
      <trkpt lat="49.10246" lon="-0.55504">
        <ele>72.92</ele>
        <time>2025-07-04T11:34:25.662Z</time>
      </trkpt>
      <trkpt lat="49.1023" lon="-0.55545">
        <ele>72.83</ele>
        <time>2025-07-04T11:34:32.230Z</time>
      </trkpt>
      <trkpt lat="49.10227" lon="-0.55552">
        <ele>72.72</ele>
        <time>2025-07-04T11:34:38.799Z</time>
      </trkpt>
      <trkpt lat="49.10216" lon="-0.55584">
        <ele>72.64</ele>
        <time>2025-07-04T11:34:45.372Z</time>
      </trkpt>
      <trkpt lat="49.10204" lon="-0.55629">
        <ele>72.54</ele>
        <time>2025-07-04T11:34:51.950Z</time>
      </trkpt>
      <trkpt lat="49.10193" lon="-0.55673">
        <ele>72.43</ele>
        <time>2025-07-04T11:34:58.533Z</time>
      </trkpt>
      <trkpt lat="49.10181" lon="-0.55718">
        <ele>72.42</ele>
        <time>2025-07-04T11:35:05.121Z</time>
      </trkpt>
      <trkpt lat="49.10178" lon="-0.55729">
        <ele>72.39</ele>
        <time>2025-07-04T11:35:11.710Z</time>
      </trkpt>
      <trkpt lat="49.10169" lon="-0.55775">
        <ele>72.38</ele>
        <time>2025-07-04T11:35:18.304Z</time>
      </trkpt>
      <trkpt lat="49.10163" lon="-0.55808">
        <ele>72.33</ele>
        <time>2025-07-04T11:35:24.902Z</time>
      </trkpt>
      <trkpt lat="49.10154" lon="-0.55854">
        <ele>72.35</ele>
        <time>2025-07-04T11:35:31.505Z</time>
      </trkpt>
      <trkpt lat="49.10154" lon="-0.55854">
        <ele>72.39</ele>
        <time>2025-07-04T11:35:38.108Z</time>
      </trkpt>
      <trkpt lat="49.1014" lon="-0.55897">
        <ele>72.44</ele>
        <time>2025-07-04T11:35:44.716Z</time>
      </trkpt>
      <trkpt lat="49.10134" lon="-0.55917">
        <ele>72.5</ele>
        <time>2025-07-04T11:35:51.326Z</time>
      </trkpt>
      <trkpt lat="49.10127" lon="-0.55943">
        <ele>72.6</ele>
        <time>2025-07-04T11:35:57.939Z</time>
      </trkpt>
      <trkpt lat="49.10119" lon="-0.55989">
        <ele>72.76</ele>
        <time>2025-07-04T11:36:04.557Z</time>
      </trkpt>
      <trkpt lat="49.10111" lon="-0.56036">
        <ele>72.92</ele>
        <time>2025-07-04T11:36:11.180Z</time>
      </trkpt>
      <trkpt lat="49.1011" lon="-0.5604">
        <ele>73.11</ele>
        <time>2025-07-04T11:36:17.804Z</time>
      </trkpt>
      <trkpt lat="49.10103" lon="-0.56087">
        <ele>73.29</ele>
        <time>2025-07-04T11:36:24.433Z</time>
      </trkpt>
      <trkpt lat="49.10097" lon="-0.56132">
        <ele>73.59</ele>
        <time>2025-07-04T11:36:31.067Z</time>
      </trkpt>
      <trkpt lat="49.10092" lon="-0.56157">
        <ele>73.89</ele>
        <time>2025-07-04T11:36:37.703Z</time>
      </trkpt>
      <trkpt lat="49.10084" lon="-0.56184">
        <ele>74.18</ele>
        <time>2025-07-04T11:36:44.343Z</time>
      </trkpt>
      <trkpt lat="49.10075" lon="-0.56207">
        <ele>74.53</ele>
        <time>2025-07-04T11:36:50.985Z</time>
      </trkpt>
      <trkpt lat="49.10066" lon="-0.56225">
        <ele>74.91</ele>
        <time>2025-07-04T11:36:57.630Z</time>
      </trkpt>
      <trkpt lat="49.10044" lon="-0.56259">
        <ele>75.34</ele>
        <time>2025-07-04T11:37:04.280Z</time>
      </trkpt>
      <trkpt lat="49.10041" lon="-0.56263">
        <ele>75.74</ele>
        <time>2025-07-04T11:37:10.930Z</time>
      </trkpt>
      <trkpt lat="49.10021" lon="-0.56301">
        <ele>76.18</ele>
        <time>2025-07-04T11:37:17.585Z</time>
      </trkpt>
      <trkpt lat="49.10005" lon="-0.56332">
        <ele>76.69</ele>
        <time>2025-07-04T11:37:24.245Z</time>
      </trkpt>
      <trkpt lat="49.09987" lon="-0.56371">
        <ele>77.23</ele>
        <time>2025-07-04T11:37:30.910Z</time>
      </trkpt>
      <trkpt lat="49.09969" lon="-0.56411">
        <ele>77.65</ele>
        <time>2025-07-04T11:37:37.580Z</time>
      </trkpt>
      <trkpt lat="49.0996" lon="-0.56431">
        <ele>78.11</ele>
        <time>2025-07-04T11:37:44.252Z</time>
      </trkpt>
      <trkpt lat="49.09943" lon="-0.56472">
        <ele>78.66</ele>
        <time>2025-07-04T11:37:50.929Z</time>
      </trkpt>
      <trkpt lat="49.09926" lon="-0.56512">
        <ele>79.16</ele>
        <time>2025-07-04T11:37:57.611Z</time>
      </trkpt>
      <trkpt lat="49.09921" lon="-0.56525">
        <ele>79.61</ele>
        <time>2025-07-04T11:38:04.295Z</time>
      </trkpt>
      <trkpt lat="49.09905" lon="-0.56567">
        <ele>80.07</ele>
        <time>2025-07-04T11:38:10.984Z</time>
      </trkpt>
      <trkpt lat="49.09896" lon="-0.56592">
        <ele>80.54</ele>
        <time>2025-07-04T11:38:17.676Z</time>
      </trkpt>
      <trkpt lat="49.09883" lon="-0.56636">
        <ele>80.95</ele>
        <time>2025-07-04T11:38:24.373Z</time>
      </trkpt>
      <trkpt lat="49.0988" lon="-0.56646">
        <ele>81.33</ele>
        <time>2025-07-04T11:38:31.071Z</time>
      </trkpt>
      <trkpt lat="49.09869" lon="-0.56691">
        <ele>81.59</ele>
        <time>2025-07-04T11:38:37.774Z</time>
      </trkpt>
      <trkpt lat="49.09862" lon="-0.56717">
        <ele>81.91</ele>
        <time>2025-07-04T11:38:44.480Z</time>
      </trkpt>
      <trkpt lat="49.09854" lon="-0.5673">
        <ele>82.24</ele>
        <time>2025-07-04T11:38:51.188Z</time>
      </trkpt>
      <trkpt lat="49.09846" lon="-0.5674">
        <ele>82.58</ele>
        <time>2025-07-04T11:38:57.898Z</time>
      </trkpt>
      <trkpt lat="49.09831" lon="-0.56752">
        <ele>82.9</ele>
        <time>2025-07-04T11:39:04.611Z</time>
      </trkpt>
      <trkpt lat="49.09801" lon="-0.56765">
        <ele>83.26</ele>
        <time>2025-07-04T11:39:11.329Z</time>
      </trkpt>
      <trkpt lat="49.09797" lon="-0.56767">
        <ele>83.58</ele>
        <time>2025-07-04T11:39:18.047Z</time>
      </trkpt>
      <trkpt lat="49.09778" lon="-0.56775">
        <ele>83.9</ele>
        <time>2025-07-04T11:39:24.768Z</time>
      </trkpt>
      <trkpt lat="49.09757" lon="-0.56792">
        <ele>84.21</ele>
        <time>2025-07-04T11:39:31.493Z</time>
      </trkpt>
      <trkpt lat="49.09735" lon="-0.56821">
        <ele>84.52</ele>
        <time>2025-07-04T11:39:38.223Z</time>
      </trkpt>
      <trkpt lat="49.09715" lon="-0.56858">
        <ele>84.84</ele>
        <time>2025-07-04T11:39:44.958Z</time>
      </trkpt>
      <trkpt lat="49.09703" lon="-0.56886">
        <ele>85.07</ele>
        <time>2025-07-04T11:39:51.696Z</time>
      </trkpt>
      <trkpt lat="49.09688" lon="-0.56928">
        <ele>85.29</ele>
        <time>2025-07-04T11:39:58.439Z</time>
      </trkpt>
      <trkpt lat="49.09673" lon="-0.5697">
        <ele>85.47</ele>
        <time>2025-07-04T11:40:05.188Z</time>
      </trkpt>
      <trkpt lat="49.09658" lon="-0.57012">
        <ele>85.6</ele>
        <time>2025-07-04T11:40:11.942Z</time>
      </trkpt>
      <trkpt lat="49.09657" lon="-0.57014">
        <ele>85.68</ele>
        <time>2025-07-04T11:40:18.696Z</time>
      </trkpt>
      <trkpt lat="49.09642" lon="-0.57056">
        <ele>85.67</ele>
        <time>2025-07-04T11:40:25.455Z</time>
      </trkpt>
      <trkpt lat="49.0964" lon="-0.5706">
        <ele>85.66</ele>
        <time>2025-07-04T11:40:32.214Z</time>
      </trkpt>
      <trkpt lat="49.09621" lon="-0.57095">
        <ele>85.63</ele>
        <time>2025-07-04T11:40:38.978Z</time>
      </trkpt>
      <trkpt lat="49.09598" lon="-0.57128">
        <ele>85.58</ele>
        <time>2025-07-04T11:40:45.747Z</time>
      </trkpt>
      <trkpt lat="49.0959" lon="-0.57141">
        <ele>85.47</ele>
        <time>2025-07-04T11:40:52.518Z</time>
      </trkpt>
      <trkpt lat="49.09575" lon="-0.57172">
        <ele>85.39</ele>
        <time>2025-07-04T11:40:59.293Z</time>
      </trkpt>
      <trkpt lat="49.09561" lon="-0.57215">
        <ele>85.15</ele>
        <time>2025-07-04T11:41:06.073Z</time>
      </trkpt>
      <trkpt lat="49.09557" lon="-0.57229">
        <ele>84.88</ele>
        <time>2025-07-04T11:41:12.855Z</time>
      </trkpt>
      <trkpt lat="49.09548" lon="-0.57275">
        <ele>84.5</ele>
        <time>2025-07-04T11:41:19.642Z</time>
      </trkpt>
      <trkpt lat="49.09538" lon="-0.5732">
        <ele>84.16</ele>
        <time>2025-07-04T11:41:26.434Z</time>
      </trkpt>
      <trkpt lat="49.09537" lon="-0.57326">
        <ele>83.81</ele>
        <time>2025-07-04T11:41:33.226Z</time>
      </trkpt>
      <trkpt lat="49.09528" lon="-0.57372">
        <ele>83.49</ele>
        <time>2025-07-04T11:41:40.023Z</time>
      </trkpt>
      <trkpt lat="49.09526" lon="-0.57382">
        <ele>83.08</ele>
        <time>2025-07-04T11:41:46.822Z</time>
      </trkpt>
      <trkpt lat="49.09513" lon="-0.57367">
        <ele>82.56</ele>
        <time>2025-07-04T11:41:53.623Z</time>
      </trkpt>
      <trkpt lat="49.09492" lon="-0.57354">
        <ele>81.99</ele>
        <time>2025-07-04T11:42:00.428Z</time>
      </trkpt>
      <trkpt lat="49.09473" lon="-0.57345">
        <ele>81.43</ele>
        <time>2025-07-04T11:42:07.236Z</time>
      </trkpt>
      <trkpt lat="49.09459" lon="-0.57338">
        <ele>80.88</ele>
        <time>2025-07-04T11:42:14.046Z</time>
      </trkpt>
      <trkpt lat="49.09454" lon="-0.57354">
        <ele>80.36</ele>
        <time>2025-07-04T11:42:20.858Z</time>
      </trkpt>
      <trkpt lat="49.09446" lon="-0.57367">
        <ele>79.81</ele>
        <time>2025-07-04T11:42:27.672Z</time>
      </trkpt>
      <trkpt lat="49.0944" lon="-0.5738">
        <ele>79.27</ele>
        <time>2025-07-04T11:42:34.488Z</time>
      </trkpt>
      <trkpt lat="49.09422" lon="-0.57415">
        <ele>78.68</ele>
        <time>2025-07-04T11:42:41.308Z</time>
      </trkpt>
      <trkpt lat="49.09402" lon="-0.57452">
        <ele>78.04</ele>
        <time>2025-07-04T11:42:48.134Z</time>
      </trkpt>
      <trkpt lat="49.09383" lon="-0.5749">
        <ele>77.47</ele>
        <time>2025-07-04T11:42:54.965Z</time>
      </trkpt>
      <trkpt lat="49.09375" lon="-0.57504">
        <ele>76.93</ele>
        <time>2025-07-04T11:43:01.797Z</time>
      </trkpt>
      <trkpt lat="49.09356" lon="-0.57542">
        <ele>76.4</ele>
        <time>2025-07-04T11:43:08.635Z</time>
      </trkpt>
      <trkpt lat="49.09336" lon="-0.5758">
        <ele>75.89</ele>
        <time>2025-07-04T11:43:15.478Z</time>
      </trkpt>
      <trkpt lat="49.09335" lon="-0.57582">
        <ele>75.4</ele>
        <time>2025-07-04T11:43:22.321Z</time>
      </trkpt>
      <trkpt lat="49.09317" lon="-0.57622">
        <ele>74.93</ele>
        <time>2025-07-04T11:43:29.169Z</time>
      </trkpt>
      <trkpt lat="49.0931" lon="-0.57638">
        <ele>74.48</ele>
        <time>2025-07-04T11:43:36.019Z</time>
      </trkpt>
      <trkpt lat="49.09294" lon="-0.57679">
        <ele>74.03</ele>
        <time>2025-07-04T11:43:42.874Z</time>
      </trkpt>
      <trkpt lat="49.09286" lon="-0.57699">
        <ele>73.6</ele>
        <time>2025-07-04T11:43:49.731Z</time>
      </trkpt>
      <trkpt lat="49.09271" lon="-0.57741">
        <ele>73.19</ele>
        <time>2025-07-04T11:43:56.594Z</time>
      </trkpt>
      <trkpt lat="49.09264" lon="-0.57762">
        <ele>72.82</ele>
        <time>2025-07-04T11:44:03.459Z</time>
      </trkpt>
      <trkpt lat="49.09251" lon="-0.57805">
        <ele>72.54</ele>
        <time>2025-07-04T11:44:10.329Z</time>
      </trkpt>
      <trkpt lat="49.09237" lon="-0.57849">
        <ele>72.19</ele>
        <time>2025-07-04T11:44:17.204Z</time>
      </trkpt>
      <trkpt lat="49.09224" lon="-0.57892">
        <ele>71.83</ele>
        <time>2025-07-04T11:44:24.084Z</time>
      </trkpt>
      <trkpt lat="49.09211" lon="-0.57936">
        <ele>71.57</ele>
        <time>2025-07-04T11:44:30.969Z</time>
      </trkpt>
      <trkpt lat="49.092" lon="-0.57972">
        <ele>71.32</ele>
        <time>2025-07-04T11:44:37.858Z</time>
      </trkpt>
      <trkpt lat="49.09192" lon="-0.58001">
        <ele>71.11</ele>
        <time>2025-07-04T11:44:44.751Z</time>
      </trkpt>
      <trkpt lat="49.09178" lon="-0.58044">
        <ele>70.91</ele>
        <time>2025-07-04T11:44:51.649Z</time>
      </trkpt>
      <trkpt lat="49.09164" lon="-0.58086">
        <ele>70.7</ele>
        <time>2025-07-04T11:44:58.552Z</time>
      </trkpt>
      <trkpt lat="49.09149" lon="-0.58128">
        <ele>70.48</ele>
        <time>2025-07-04T11:45:05.460Z</time>
      </trkpt>
      <trkpt lat="49.09148" lon="-0.58132">
        <ele>70.38</ele>
        <time>2025-07-04T11:45:12.368Z</time>
      </trkpt>
      <trkpt lat="49.09144" lon="-0.58158">
        <ele>70.32</ele>
        <time>2025-07-04T11:45:19.279Z</time>
      </trkpt>
      <trkpt lat="49.09142" lon="-0.58184">
        <ele>70.33</ele>
        <time>2025-07-04T11:45:26.193Z</time>
      </trkpt>
      <trkpt lat="49.0914" lon="-0.58212">
        <ele>70.38</ele>
        <time>2025-07-04T11:45:33.110Z</time>
      </trkpt>
      <trkpt lat="49.09134" lon="-0.58244">
        <ele>70.45</ele>
        <time>2025-07-04T11:45:40.030Z</time>
      </trkpt>
      <trkpt lat="49.09121" lon="-0.58287">
        <ele>70.6</ele>
        <time>2025-07-04T11:45:46.955Z</time>
      </trkpt>
      <trkpt lat="49.09107" lon="-0.5833">
        <ele>70.7</ele>
        <time>2025-07-04T11:45:53.885Z</time>
      </trkpt>
      <trkpt lat="49.09095" lon="-0.58367">
        <ele>70.84</ele>
        <time>2025-07-04T11:46:00.820Z</time>
      </trkpt>
      <trkpt lat="49.09084" lon="-0.58412">
        <ele>71.04</ele>
        <time>2025-07-04T11:46:07.760Z</time>
      </trkpt>
      <trkpt lat="49.09073" lon="-0.58457">
        <ele>71.29</ele>
        <time>2025-07-04T11:46:14.705Z</time>
      </trkpt>
      <trkpt lat="49.09073" lon="-0.58458">
        <ele>71.59</ele>
        <time>2025-07-04T11:46:21.650Z</time>
      </trkpt>
      <trkpt lat="49.09066" lon="-0.58493">
        <ele>71.9</ele>
        <time>2025-07-04T11:46:28.599Z</time>
      </trkpt>
      <trkpt lat="49.09056" lon="-0.58538">
        <ele>72.24</ele>
        <time>2025-07-04T11:46:35.553Z</time>
      </trkpt>
      <trkpt lat="49.09046" lon="-0.58584">
        <ele>72.72</ele>
        <time>2025-07-04T11:46:42.512Z</time>
      </trkpt>
      <trkpt lat="49.09039" lon="-0.58616">
        <ele>73.22</ele>
        <time>2025-07-04T11:46:49.474Z</time>
      </trkpt>
      <trkpt lat="49.0903" lon="-0.58662">
        <ele>73.75</ele>
        <time>2025-07-04T11:46:56.441Z</time>
      </trkpt>
      <trkpt lat="49.09021" lon="-0.58708">
        <ele>74.35</ele>
        <time>2025-07-04T11:47:03.413Z</time>
      </trkpt>
      <trkpt lat="49.09013" lon="-0.58747">
        <ele>75.01</ele>
        <time>2025-07-04T11:47:10.390Z</time>
      </trkpt>
      <trkpt lat="49.09019" lon="-0.58782">
        <ele>75.77</ele>
        <time>2025-07-04T11:47:17.370Z</time>
      </trkpt>
      <trkpt lat="49.0903" lon="-0.58793">
        <ele>76.56</ele>
        <time>2025-07-04T11:47:24.353Z</time>
      </trkpt>
      <trkpt lat="49.09036" lon="-0.58798">
        <ele>77.36</ele>
        <time>2025-07-04T11:47:31.337Z</time>
      </trkpt>
      <trkpt lat="49.09034" lon="-0.58815">
        <ele>78.18</ele>
        <time>2025-07-04T11:47:38.322Z</time>
      </trkpt>
      <trkpt lat="49.09027" lon="-0.58859">
        <ele>79.01</ele>
        <time>2025-07-04T11:47:45.312Z</time>
      </trkpt>
      <trkpt lat="49.0903" lon="-0.58872">
        <ele>79.95</ele>
        <time>2025-07-04T11:47:52.304Z</time>
      </trkpt>
      <trkpt lat="49.09043" lon="-0.58889">
        <ele>80.94</ele>
        <time>2025-07-04T11:47:59.298Z</time>
      </trkpt>
      <trkpt lat="49.09043" lon="-0.58909">
        <ele>81.93</ele>
        <time>2025-07-04T11:48:06.294Z</time>
      </trkpt>
      <trkpt lat="49.09032" lon="-0.58954">
        <ele>83</ele>
        <time>2025-07-04T11:48:13.296Z</time>
      </trkpt>
      <trkpt lat="49.09029" lon="-0.58967">
        <ele>84.04</ele>
        <time>2025-07-04T11:48:20.299Z</time>
      </trkpt>
      <trkpt lat="49.09018" lon="-0.59012">
        <ele>85.13</ele>
        <time>2025-07-04T11:48:27.307Z</time>
      </trkpt>
      <trkpt lat="49.09006" lon="-0.59056">
        <ele>86.27</ele>
        <time>2025-07-04T11:48:34.320Z</time>
      </trkpt>
      <trkpt lat="49.08995" lon="-0.59101">
        <ele>87.43</ele>
        <time>2025-07-04T11:48:41.338Z</time>
      </trkpt>
      <trkpt lat="49.08993" lon="-0.5911">
        <ele>88.56</ele>
        <time>2025-07-04T11:48:48.357Z</time>
      </trkpt>
      <trkpt lat="49.08992" lon="-0.59121">
        <ele>89.69</ele>
        <time>2025-07-04T11:48:55.377Z</time>
      </trkpt>
      <trkpt lat="49.08993" lon="-0.59129">
        <ele>90.84</ele>
        <time>2025-07-04T11:49:02.398Z</time>
      </trkpt>
      <trkpt lat="49.0901" lon="-0.5915">
        <ele>92.1</ele>
        <time>2025-07-04T11:49:09.423Z</time>
      </trkpt>
      <trkpt lat="49.09033" lon="-0.59182">
        <ele>93.38</ele>
        <time>2025-07-04T11:49:16.453Z</time>
      </trkpt>
      <trkpt lat="49.09038" lon="-0.59189">
        <ele>94.56</ele>
        <time>2025-07-04T11:49:23.484Z</time>
      </trkpt>
      <trkpt lat="49.0905" lon="-0.59208">
        <ele>95.76</ele>
        <time>2025-07-04T11:49:30.517Z</time>
      </trkpt>
      <trkpt lat="49.09066" lon="-0.59236">
        <ele>97.02</ele>
        <time>2025-07-04T11:49:37.554Z</time>
      </trkpt>
      <trkpt lat="49.09073" lon="-0.59251">
        <ele>98.14</ele>
        <time>2025-07-04T11:49:44.593Z</time>
      </trkpt>
      <trkpt lat="49.09086" lon="-0.59272">
        <ele>99.32</ele>
        <time>2025-07-04T11:49:51.635Z</time>
      </trkpt>
      <trkpt lat="49.09104" lon="-0.59295">
        <ele>100.47</ele>
        <time>2025-07-04T11:49:58.681Z</time>
      </trkpt>
      <trkpt lat="49.09122" lon="-0.59311">
        <ele>101.63</ele>
        <time>2025-07-04T11:50:05.730Z</time>
      </trkpt>
      <trkpt lat="49.09129" lon="-0.59317">
        <ele>102.71</ele>
        <time>2025-07-04T11:50:12.781Z</time>
      </trkpt>
      <trkpt lat="49.09134" lon="-0.59363">
        <ele>103.81</ele>
        <time>2025-07-04T11:50:19.837Z</time>
      </trkpt>
      <trkpt lat="49.09143" lon="-0.59409">
        <ele>104.85</ele>
        <time>2025-07-04T11:50:26.898Z</time>
      </trkpt>
      <trkpt lat="49.09146" lon="-0.59423">
        <ele>105.82</ele>
        <time>2025-07-04T11:50:33.960Z</time>
      </trkpt>
      <trkpt lat="49.09152" lon="-0.5947">
        <ele>106.79</ele>
        <time>2025-07-04T11:50:41.027Z</time>
      </trkpt>
      <trkpt lat="49.09153" lon="-0.59477">
        <ele>107.67</ele>
        <time>2025-07-04T11:50:48.095Z</time>
      </trkpt>
      <trkpt lat="49.09155" lon="-0.59525">
        <ele>108.45</ele>
        <time>2025-07-04T11:50:55.168Z</time>
      </trkpt>
      <trkpt lat="49.09157" lon="-0.59559">
        <ele>109.2</ele>
        <time>2025-07-04T11:51:02.245Z</time>
      </trkpt>
      <trkpt lat="49.09156" lon="-0.59607">
        <ele>109.99</ele>
        <time>2025-07-04T11:51:09.327Z</time>
      </trkpt>
      <trkpt lat="49.09156" lon="-0.59626">
        <ele>110.75</ele>
        <time>2025-07-04T11:51:16.411Z</time>
      </trkpt>
      <trkpt lat="49.09151" lon="-0.59661">
        <ele>111.48</ele>
        <time>2025-07-04T11:51:23.498Z</time>
      </trkpt>
      <trkpt lat="49.09142" lon="-0.59706">
        <ele>112.14</ele>
        <time>2025-07-04T11:51:30.590Z</time>
      </trkpt>
      <trkpt lat="49.09134" lon="-0.59753">
        <ele>112.71</ele>
        <time>2025-07-04T11:51:37.687Z</time>
      </trkpt>
      <trkpt lat="49.0913" lon="-0.5978">
        <ele>113.25</ele>
        <time>2025-07-04T11:51:44.787Z</time>
      </trkpt>
      <trkpt lat="49.09127" lon="-0.59815">
        <ele>113.8</ele>
        <time>2025-07-04T11:51:51.891Z</time>
      </trkpt>
      <trkpt lat="49.09124" lon="-0.59863">
        <ele>114.34</ele>
        <time>2025-07-04T11:51:59.000Z</time>
      </trkpt>
      <trkpt lat="49.09121" lon="-0.5991">
        <ele>114.75</ele>
        <time>2025-07-04T11:52:06.114Z</time>
      </trkpt>
      <trkpt lat="49.09111" lon="-0.59944">
        <ele>115.14</ele>
        <time>2025-07-04T11:52:13.232Z</time>
      </trkpt>
      <trkpt lat="49.09098" lon="-0.59984">
        <ele>115.55</ele>
        <time>2025-07-04T11:52:20.355Z</time>
      </trkpt>
      <trkpt lat="49.09082" lon="-0.60025">
        <ele>115.87</ele>
        <time>2025-07-04T11:52:27.483Z</time>
      </trkpt>
      <trkpt lat="49.0908" lon="-0.60031">
        <ele>116.14</ele>
        <time>2025-07-04T11:52:34.612Z</time>
      </trkpt>
      <trkpt lat="49.09071" lon="-0.60077">
        <ele>116.35</ele>
        <time>2025-07-04T11:52:41.746Z</time>
      </trkpt>
      <trkpt lat="49.09067" lon="-0.60094">
        <ele>116.53</ele>
        <time>2025-07-04T11:52:48.881Z</time>
      </trkpt>
      <trkpt lat="49.09062" lon="-0.60133">
        <ele>116.66</ele>
        <time>2025-07-04T11:52:56.021Z</time>
      </trkpt>
      <trkpt lat="49.09054" lon="-0.60174">
        <ele>116.72</ele>
        <time>2025-07-04T11:53:03.165Z</time>
      </trkpt>
      <trkpt lat="49.09042" lon="-0.60218">
        <ele>116.79</ele>
        <time>2025-07-04T11:53:10.314Z</time>
      </trkpt>
      <trkpt lat="49.09034" lon="-0.6025">
        <ele>116.85</ele>
        <time>2025-07-04T11:53:17.467Z</time>
      </trkpt>
      <trkpt lat="49.09026" lon="-0.60296">
        <ele>116.88</ele>
        <time>2025-07-04T11:53:24.625Z</time>
      </trkpt>
      <trkpt lat="49.09017" lon="-0.60342">
        <ele>116.89</ele>
        <time>2025-07-04T11:53:31.788Z</time>
      </trkpt>
      <trkpt lat="49.0901" lon="-0.60383">
        <ele>116.84</ele>
        <time>2025-07-04T11:53:38.955Z</time>
      </trkpt>
      <trkpt lat="49.08998" lon="-0.60428">
        <ele>116.74</ele>
        <time>2025-07-04T11:53:46.127Z</time>
      </trkpt>
      <trkpt lat="49.08993" lon="-0.60448">
        <ele>116.6</ele>
        <time>2025-07-04T11:53:53.302Z</time>
      </trkpt>
      <trkpt lat="49.08978" lon="-0.6049">
        <ele>116.46</ele>
        <time>2025-07-04T11:54:00.482Z</time>
      </trkpt>
      <trkpt lat="49.08964" lon="-0.60533">
        <ele>116.27</ele>
        <time>2025-07-04T11:54:07.667Z</time>
      </trkpt>
      <trkpt lat="49.0896" lon="-0.60543">
        <ele>116.06</ele>
        <time>2025-07-04T11:54:14.853Z</time>
      </trkpt>
      <trkpt lat="49.08944" lon="-0.60563">
        <ele>115.78</ele>
        <time>2025-07-04T11:54:22.042Z</time>
      </trkpt>
      <trkpt lat="49.08947" lon="-0.6058">
        <ele>115.51</ele>
        <time>2025-07-04T11:54:29.233Z</time>
      </trkpt>
      <trkpt lat="49.08949" lon="-0.60594">
        <ele>115.21</ele>
        <time>2025-07-04T11:54:36.426Z</time>
      </trkpt>
      <trkpt lat="49.08954" lon="-0.60608">
        <ele>114.9</ele>
        <time>2025-07-04T11:54:43.620Z</time>
      </trkpt>
      <trkpt lat="49.08964" lon="-0.60625">
        <ele>114.6</ele>
        <time>2025-07-04T11:54:50.817Z</time>
      </trkpt>
      <trkpt lat="49.08983" lon="-0.60649">
        <ele>114.29</ele>
        <time>2025-07-04T11:54:58.018Z</time>
      </trkpt>
      <trkpt lat="49.08992" lon="-0.60662">
        <ele>113.91</ele>
        <time>2025-07-04T11:55:05.221Z</time>
      </trkpt>
      <trkpt lat="49.08996" lon="-0.60671">
        <ele>113.51</ele>
        <time>2025-07-04T11:55:12.425Z</time>
      </trkpt>
      <trkpt lat="49.09" lon="-0.60688">
        <ele>113.06</ele>
        <time>2025-07-04T11:55:19.631Z</time>
      </trkpt>
      <trkpt lat="49.09" lon="-0.60703">
        <ele>112.57</ele>
        <time>2025-07-04T11:55:26.838Z</time>
      </trkpt>
      <trkpt lat="49.08997" lon="-0.60726">
        <ele>112</ele>
        <time>2025-07-04T11:55:34.048Z</time>
      </trkpt>
      <trkpt lat="49.08992" lon="-0.60744">
        <ele>111.44</ele>
        <time>2025-07-04T11:55:41.260Z</time>
      </trkpt>
      <trkpt lat="49.08975" lon="-0.60784">
        <ele>110.89</ele>
        <time>2025-07-04T11:55:48.477Z</time>
      </trkpt>
      <trkpt lat="49.08974" lon="-0.60787">
        <ele>110.33</ele>
        <time>2025-07-04T11:55:55.694Z</time>
      </trkpt>
      <trkpt lat="49.0896" lon="-0.60812">
        <ele>109.77</ele>
        <time>2025-07-04T11:56:02.915Z</time>
      </trkpt>
      <trkpt lat="49.08954" lon="-0.6082">
        <ele>109.16</ele>
        <time>2025-07-04T11:56:10.137Z</time>
      </trkpt>
      <trkpt lat="49.08943" lon="-0.60832">
        <ele>108.51</ele>
        <time>2025-07-04T11:56:17.361Z</time>
      </trkpt>
      <trkpt lat="49.08915" lon="-0.60855">
        <ele>107.84</ele>
        <time>2025-07-04T11:56:24.590Z</time>
      </trkpt>
      <trkpt lat="49.08914" lon="-0.60856">
        <ele>107.14</ele>
        <time>2025-07-04T11:56:31.819Z</time>
      </trkpt>
      <trkpt lat="49.08895" lon="-0.6087">
        <ele>106.4</ele>
        <time>2025-07-04T11:56:39.052Z</time>
      </trkpt>
      <trkpt lat="49.08868" lon="-0.60884">
        <ele>105.58</ele>
        <time>2025-07-04T11:56:46.289Z</time>
      </trkpt>
      <trkpt lat="49.08838" lon="-0.609">
        <ele>104.75</ele>
        <time>2025-07-04T11:56:53.531Z</time>
      </trkpt>
      <trkpt lat="49.08809" lon="-0.60916">
        <ele>103.91</ele>
        <time>2025-07-04T11:57:00.778Z</time>
      </trkpt>
      <trkpt lat="49.08806" lon="-0.60917">
        <ele>103.08</ele>
        <time>2025-07-04T11:57:08.026Z</time>
      </trkpt>
      <trkpt lat="49.08798" lon="-0.60921">
        <ele>102.21</ele>
        <time>2025-07-04T11:57:15.275Z</time>
      </trkpt>
      <trkpt lat="49.08772" lon="-0.60948">
        <ele>101.31</ele>
        <time>2025-07-04T11:57:22.529Z</time>
      </trkpt>
      <trkpt lat="49.08767" lon="-0.60953">
        <ele>100.43</ele>
        <time>2025-07-04T11:57:29.784Z</time>
      </trkpt>
      <trkpt lat="49.08742" lon="-0.60982">
        <ele>99.52</ele>
        <time>2025-07-04T11:57:37.044Z</time>
      </trkpt>
      <trkpt lat="49.08734" lon="-0.60992">
        <ele>98.59</ele>
        <time>2025-07-04T11:57:44.306Z</time>
      </trkpt>
      <trkpt lat="49.08713" lon="-0.61017">
        <ele>97.61</ele>
        <time>2025-07-04T11:57:51.572Z</time>
      </trkpt>
      <trkpt lat="49.08695" lon="-0.61037">
        <ele>96.63</ele>
        <time>2025-07-04T11:57:58.842Z</time>
      </trkpt>
      <trkpt lat="49.08668" lon="-0.61061">
        <ele>95.62</ele>
        <time>2025-07-04T11:58:06.117Z</time>
      </trkpt>
      <trkpt lat="49.08667" lon="-0.61062">
        <ele>94.73</ele>
        <time>2025-07-04T11:58:13.392Z</time>
      </trkpt>
      <trkpt lat="49.08641" lon="-0.61088">
        <ele>93.78</ele>
        <time>2025-07-04T11:58:20.672Z</time>
      </trkpt>
      <trkpt lat="49.08618" lon="-0.61111">
        <ele>92.9</ele>
        <time>2025-07-04T11:58:27.956Z</time>
      </trkpt>
      <trkpt lat="49.08592" lon="-0.61139">
        <ele>91.97</ele>
        <time>2025-07-04T11:58:35.245Z</time>
      </trkpt>
      <trkpt lat="49.08567" lon="-0.61167">
        <ele>91.06</ele>
        <time>2025-07-04T11:58:42.539Z</time>
      </trkpt>
      <trkpt lat="49.08549" lon="-0.61187">
        <ele>90.2</ele>
        <time>2025-07-04T11:58:49.837Z</time>
      </trkpt>
      <trkpt lat="49.08523" lon="-0.61214">
        <ele>89.37</ele>
        <time>2025-07-04T11:58:57.140Z</time>
      </trkpt>
      <trkpt lat="49.08499" lon="-0.61238">
        <ele>88.59</ele>
        <time>2025-07-04T11:59:04.448Z</time>
      </trkpt>
      <trkpt lat="49.08472" lon="-0.61262">
        <ele>87.85</ele>
        <time>2025-07-04T11:59:11.761Z</time>
      </trkpt>
      <trkpt lat="49.08445" lon="-0.61286">
        <ele>87.19</ele>
        <time>2025-07-04T11:59:19.079Z</time>
      </trkpt>
      <trkpt lat="49.08439" lon="-0.61291">
        <ele>86.56</ele>
        <time>2025-07-04T11:59:26.398Z</time>
      </trkpt>
      <trkpt lat="49.08411" lon="-0.61313">
        <ele>86</ele>
        <time>2025-07-04T11:59:33.722Z</time>
      </trkpt>
      <trkpt lat="49.08407" lon="-0.61316">
        <ele>85.44</ele>
        <time>2025-07-04T11:59:41.046Z</time>
      </trkpt>
      <trkpt lat="49.08379" lon="-0.61339">
        <ele>84.93</ele>
        <time>2025-07-04T11:59:48.375Z</time>
      </trkpt>
      <trkpt lat="49.0837" lon="-0.61346">
        <ele>84.46</ele>
        <time>2025-07-04T11:59:55.706Z</time>
      </trkpt>
      <trkpt lat="49.08347" lon="-0.61367">
        <ele>84</ele>
        <time>2025-07-04T12:00:03.041Z</time>
      </trkpt>
      <trkpt lat="49.08327" lon="-0.61389">
        <ele>83.57</ele>
        <time>2025-07-04T12:00:10.380Z</time>
      </trkpt>
      <trkpt lat="49.08303" lon="-0.6142">
        <ele>83.17</ele>
        <time>2025-07-04T12:00:17.724Z</time>
      </trkpt>
      <trkpt lat="49.08302" lon="-0.61422">
        <ele>82.9</ele>
        <time>2025-07-04T12:00:25.069Z</time>
      </trkpt>
      <trkpt lat="49.08281" lon="-0.61457">
        <ele>82.66</ele>
        <time>2025-07-04T12:00:32.419Z</time>
      </trkpt>
      <trkpt lat="49.08273" lon="-0.6147">
        <ele>82.48</ele>
        <time>2025-07-04T12:00:39.771Z</time>
      </trkpt>
      <trkpt lat="49.08253" lon="-0.61507">
        <ele>82.31</ele>
        <time>2025-07-04T12:00:47.128Z</time>
      </trkpt>
      <trkpt lat="49.08242" lon="-0.61527">
        <ele>82.19</ele>
        <time>2025-07-04T12:00:54.487Z</time>
      </trkpt>
      <trkpt lat="49.08222" lon="-0.61564">
        <ele>82.08</ele>
        <time>2025-07-04T12:01:01.851Z</time>
      </trkpt>
      <trkpt lat="49.08212" lon="-0.61581">
        <ele>82.11</ele>
        <time>2025-07-04T12:01:09.218Z</time>
      </trkpt>
      <trkpt lat="49.0819" lon="-0.61615">
        <ele>82.23</ele>
        <time>2025-07-04T12:01:16.590Z</time>
      </trkpt>
      <trkpt lat="49.08187" lon="-0.6162">
        <ele>82.35</ele>
        <time>2025-07-04T12:01:23.962Z</time>
      </trkpt>
      <trkpt lat="49.08164" lon="-0.61652">
        <ele>82.48</ele>
        <time>2025-07-04T12:01:31.340Z</time>
      </trkpt>
      <trkpt lat="49.08145" lon="-0.61677">
        <ele>82.64</ele>
        <time>2025-07-04T12:01:38.721Z</time>
      </trkpt>
      <trkpt lat="49.08119" lon="-0.61704">
        <ele>82.86</ele>
        <time>2025-07-04T12:01:46.108Z</time>
      </trkpt>
      <trkpt lat="49.08117" lon="-0.61706">
        <ele>83.1</ele>
        <time>2025-07-04T12:01:53.495Z</time>
      </trkpt>
      <trkpt lat="49.08093" lon="-0.61729">
        <ele>83.37</ele>
        <time>2025-07-04T12:02:00.886Z</time>
      </trkpt>
      <trkpt lat="49.08065" lon="-0.61752">
        <ele>83.66</ele>
        <time>2025-07-04T12:02:08.282Z</time>
      </trkpt>
      <trkpt lat="49.08039" lon="-0.61773">
        <ele>83.96</ele>
        <time>2025-07-04T12:02:15.683Z</time>
      </trkpt>
      <trkpt lat="49.08016" lon="-0.61795">
        <ele>84.32</ele>
        <time>2025-07-04T12:02:23.089Z</time>
      </trkpt>
      <trkpt lat="49.08001" lon="-0.61811">
        <ele>84.69</ele>
        <time>2025-07-04T12:02:30.498Z</time>
      </trkpt>
      <trkpt lat="49.07977" lon="-0.61841">
        <ele>85.09</ele>
        <time>2025-07-04T12:02:37.912Z</time>
      </trkpt>
      <trkpt lat="49.07959" lon="-0.61863">
        <ele>85.49</ele>
        <time>2025-07-04T12:02:45.329Z</time>
      </trkpt>
      <trkpt lat="49.07935" lon="-0.61893">
        <ele>85.88</ele>
        <time>2025-07-04T12:02:52.751Z</time>
      </trkpt>
      <trkpt lat="49.0791" lon="-0.61924">
        <ele>86.29</ele>
        <time>2025-07-04T12:03:00.178Z</time>
      </trkpt>
      <trkpt lat="49.07886" lon="-0.61954">
        <ele>86.66</ele>
        <time>2025-07-04T12:03:07.610Z</time>
      </trkpt>
      <trkpt lat="49.07883" lon="-0.61958">
        <ele>86.91</ele>
        <time>2025-07-04T12:03:15.043Z</time>
      </trkpt>
      <trkpt lat="49.07859" lon="-0.61988">
        <ele>87.18</ele>
        <time>2025-07-04T12:03:22.481Z</time>
      </trkpt>
      <trkpt lat="49.0785" lon="-0.61999">
        <ele>87.37</ele>
        <time>2025-07-04T12:03:29.921Z</time>
      </trkpt>
      <trkpt lat="49.07833" lon="-0.62014">
        <ele>87.47</ele>
        <time>2025-07-04T12:03:37.364Z</time>
      </trkpt>
      <trkpt lat="49.0782" lon="-0.62023">
        <ele>87.55</ele>
        <time>2025-07-04T12:03:44.809Z</time>
      </trkpt>
      <trkpt lat="49.0779" lon="-0.62038">
        <ele>87.6</ele>
        <time>2025-07-04T12:03:52.259Z</time>
      </trkpt>
      <trkpt lat="49.07786" lon="-0.6204">
        <ele>87.6</ele>
        <time>2025-07-04T12:03:59.710Z</time>
      </trkpt>
      <trkpt lat="49.07758" lon="-0.62056">
        <ele>87.53</ele>
        <time>2025-07-04T12:04:07.166Z</time>
      </trkpt>
      <trkpt lat="49.07749" lon="-0.62057">
        <ele>87.44</ele>
        <time>2025-07-04T12:04:14.623Z</time>
      </trkpt>
      <trkpt lat="49.07733" lon="-0.62055">
        <ele>87.27</ele>
        <time>2025-07-04T12:04:22.083Z</time>
      </trkpt>
      <trkpt lat="49.07702" lon="-0.62045">
        <ele>86.96</ele>
        <time>2025-07-04T12:04:29.548Z</time>
      </trkpt>
      <trkpt lat="49.07681" lon="-0.62038">
        <ele>86.69</ele>
        <time>2025-07-04T12:04:37.016Z</time>
      </trkpt>
      <trkpt lat="49.07673" lon="-0.62038">
        <ele>86.43</ele>
        <time>2025-07-04T12:04:44.486Z</time>
      </trkpt>
      <trkpt lat="49.07665" lon="-0.62041">
        <ele>86.15</ele>
        <time>2025-07-04T12:04:51.957Z</time>
      </trkpt>
      <trkpt lat="49.0764" lon="-0.62057">
        <ele>85.84</ele>
        <time>2025-07-04T12:04:59.432Z</time>
      </trkpt>
      <trkpt lat="49.07628" lon="-0.62054">
        <ele>85.51</ele>
        <time>2025-07-04T12:05:06.909Z</time>
      </trkpt>
      <trkpt lat="49.0762" lon="-0.62048">
        <ele>85.17</ele>
        <time>2025-07-04T12:05:14.388Z</time>
      </trkpt>
      <trkpt lat="49.07634" lon="-0.62005">
        <ele>84.8</ele>
        <time>2025-07-04T12:05:21.872Z</time>
      </trkpt>
      <trkpt lat="49.07639" lon="-0.61989">
        <ele>84.46</ele>
        <time>2025-07-04T12:05:29.357Z</time>
      </trkpt>
      <trkpt lat="49.07652" lon="-0.61946">
        <ele>84.09</ele>
        <time>2025-07-04T12:05:36.848Z</time>
      </trkpt>
      <trkpt lat="49.07661" lon="-0.61918">
        <ele>83.72</ele>
        <time>2025-07-04T12:05:44.342Z</time>
      </trkpt>
      <trkpt lat="49.07666" lon="-0.61873">
        <ele>83.33</ele>
        <time>2025-07-04T12:05:51.841Z</time>
      </trkpt>
      <trkpt lat="49.07665" lon="-0.61846">
        <ele>82.95</ele>
        <time>2025-07-04T12:05:59.342Z</time>
      </trkpt>
      <trkpt lat="49.07661" lon="-0.61823">
        <ele>82.58</ele>
        <time>2025-07-04T12:06:06.846Z</time>
      </trkpt>
      <trkpt lat="49.07654" lon="-0.61794">
        <ele>82.22</ele>
        <time>2025-07-04T12:06:14.353Z</time>
      </trkpt>
      <trkpt lat="49.07645" lon="-0.61775">
        <ele>81.93</ele>
        <time>2025-07-04T12:06:21.863Z</time>
      </trkpt>
      <trkpt lat="49.07642" lon="-0.61768">
        <ele>81.67</ele>
        <time>2025-07-04T12:06:29.373Z</time>
      </trkpt>
      <trkpt lat="49.07626" lon="-0.61739">
        <ele>81.45</ele>
        <time>2025-07-04T12:06:36.887Z</time>
      </trkpt>
      <trkpt lat="49.07601" lon="-0.6171">
        <ele>81.29</ele>
        <time>2025-07-04T12:06:44.407Z</time>
      </trkpt>
      <trkpt lat="49.07576" lon="-0.61681">
        <ele>81.09</ele>
        <time>2025-07-04T12:06:51.932Z</time>
      </trkpt>
      <trkpt lat="49.07553" lon="-0.61654">
        <ele>80.94</ele>
        <time>2025-07-04T12:06:59.461Z</time>
      </trkpt>
      <trkpt lat="49.07528" lon="-0.61624">
        <ele>80.81</ele>
        <time>2025-07-04T12:07:06.995Z</time>
      </trkpt>
      <trkpt lat="49.07504" lon="-0.61594">
        <ele>80.74</ele>
        <time>2025-07-04T12:07:14.534Z</time>
      </trkpt>
      <trkpt lat="49.07479" lon="-0.61565">
        <ele>80.63</ele>
        <time>2025-07-04T12:07:22.078Z</time>
      </trkpt>
      <trkpt lat="49.07454" lon="-0.61535">
        <ele>80.56</ele>
        <time>2025-07-04T12:07:29.627Z</time>
      </trkpt>
      <trkpt lat="49.07438" lon="-0.61515">
        <ele>80.51</ele>
        <time>2025-07-04T12:07:37.180Z</time>
      </trkpt>
      <trkpt lat="49.07413" lon="-0.61485">
        <ele>80.51</ele>
        <time>2025-07-04T12:07:44.738Z</time>
      </trkpt>
      <trkpt lat="49.07389" lon="-0.61456">
        <ele>80.5</ele>
        <time>2025-07-04T12:07:52.301Z</time>
      </trkpt>
      <trkpt lat="49.07364" lon="-0.61426">
        <ele>80.55</ele>
        <time>2025-07-04T12:07:59.869Z</time>
      </trkpt>
      <trkpt lat="49.07339" lon="-0.61396">
        <ele>80.63</ele>
        <time>2025-07-04T12:08:07.442Z</time>
      </trkpt>
      <trkpt lat="49.07314" lon="-0.61367">
        <ele>80.75</ele>
        <time>2025-07-04T12:08:15.020Z</time>
      </trkpt>
      <trkpt lat="49.07307" lon="-0.61358">
        <ele>80.85</ele>
        <time>2025-07-04T12:08:22.599Z</time>
      </trkpt>
      <trkpt lat="49.07282" lon="-0.61329">
        <ele>80.94</ele>
        <time>2025-07-04T12:08:30.183Z</time>
      </trkpt>
      <trkpt lat="49.07257" lon="-0.61299">
        <ele>81.11</ele>
        <time>2025-07-04T12:08:37.772Z</time>
      </trkpt>
      <trkpt lat="49.07232" lon="-0.6127">
        <ele>81.32</ele>
        <time>2025-07-04T12:08:45.367Z</time>
      </trkpt>
      <trkpt lat="49.07208" lon="-0.6124">
        <ele>81.54</ele>
        <time>2025-07-04T12:08:52.967Z</time>
      </trkpt>
      <trkpt lat="49.07193" lon="-0.61223">
        <ele>81.7</ele>
        <time>2025-07-04T12:09:00.570Z</time>
      </trkpt>
      <trkpt lat="49.07171" lon="-0.61189">
        <ele>81.93</ele>
        <time>2025-07-04T12:09:08.178Z</time>
      </trkpt>
      <trkpt lat="49.07168" lon="-0.61184">
        <ele>82.13</ele>
        <time>2025-07-04T12:09:15.786Z</time>
      </trkpt>
      <trkpt lat="49.07158" lon="-0.61165">
        <ele>82.34</ele>
        <time>2025-07-04T12:09:23.397Z</time>
      </trkpt>
      <trkpt lat="49.07152" lon="-0.61152">
        <ele>82.56</ele>
        <time>2025-07-04T12:09:31.010Z</time>
      </trkpt>
      <trkpt lat="49.07146" lon="-0.61157">
        <ele>82.73</ele>
        <time>2025-07-04T12:09:38.624Z</time>
      </trkpt>
      <trkpt lat="49.07143" lon="-0.61157">
        <ele>82.9</ele>
        <time>2025-07-04T12:09:46.238Z</time>
      </trkpt>
      <trkpt lat="49.07113" lon="-0.61142">
        <ele>83.06</ele>
        <time>2025-07-04T12:09:53.857Z</time>
      </trkpt>
      <trkpt lat="49.07101" lon="-0.61136">
        <ele>83.22</ele>
        <time>2025-07-04T12:10:01.478Z</time>
      </trkpt>
      <trkpt lat="49.07093" lon="-0.61132">
        <ele>83.39</ele>
        <time>2025-07-04T12:10:09.101Z</time>
      </trkpt>
      <trkpt lat="49.07084" lon="-0.61131">
        <ele>83.53</ele>
        <time>2025-07-04T12:10:16.725Z</time>
      </trkpt>
      <trkpt lat="49.07053" lon="-0.61133">
        <ele>83.66</ele>
        <time>2025-07-04T12:10:24.354Z</time>
      </trkpt>
      <trkpt lat="49.0704" lon="-0.61134">
        <ele>83.81</ele>
        <time>2025-07-04T12:10:31.985Z</time>
      </trkpt>
      <trkpt lat="49.07009" lon="-0.61137">
        <ele>84.01</ele>
        <time>2025-07-04T12:10:39.621Z</time>
      </trkpt>
      <trkpt lat="49.07003" lon="-0.61137">
        <ele>84.13</ele>
        <time>2025-07-04T12:10:47.258Z</time>
      </trkpt>
      <trkpt lat="49.06982" lon="-0.61141">
        <ele>84.27</ele>
        <time>2025-07-04T12:10:54.898Z</time>
      </trkpt>
      <trkpt lat="49.06954" lon="-0.61153">
        <ele>84.38</ele>
        <time>2025-07-04T12:11:02.543Z</time>
      </trkpt>
      <trkpt lat="49.06925" lon="-0.61171">
        <ele>84.4</ele>
        <time>2025-07-04T12:11:10.193Z</time>
      </trkpt>
      <trkpt lat="49.06918" lon="-0.61175">
        <ele>84.43</ele>
        <time>2025-07-04T12:11:17.844Z</time>
      </trkpt>
      <trkpt lat="49.06899" lon="-0.6119">
        <ele>84.41</ele>
        <time>2025-07-04T12:11:25.499Z</time>
      </trkpt>
      <trkpt lat="49.06869" lon="-0.61204">
        <ele>84.33</ele>
        <time>2025-07-04T12:11:33.159Z</time>
      </trkpt>
      <trkpt lat="49.06867" lon="-0.61205">
        <ele>84.32</ele>
        <time>2025-07-04T12:11:40.819Z</time>
      </trkpt>
      <trkpt lat="49.06852" lon="-0.6121">
        <ele>84.29</ele>
        <time>2025-07-04T12:11:48.481Z</time>
      </trkpt>
      <trkpt lat="49.06833" lon="-0.61214">
        <ele>84.2</ele>
        <time>2025-07-04T12:11:56.147Z</time>
      </trkpt>
      <trkpt lat="49.06821" lon="-0.61215">
        <ele>84.14</ele>
        <time>2025-07-04T12:12:03.814Z</time>
      </trkpt>
      <trkpt lat="49.06806" lon="-0.61212">
        <ele>84.16</ele>
        <time>2025-07-04T12:12:11.484Z</time>
      </trkpt>
      <trkpt lat="49.06783" lon="-0.61205">
        <ele>84.18</ele>
        <time>2025-07-04T12:12:19.158Z</time>
      </trkpt>
      <trkpt lat="49.06752" lon="-0.61195">
        <ele>84.23</ele>
        <time>2025-07-04T12:12:26.837Z</time>
      </trkpt>
      <trkpt lat="49.06751" lon="-0.61195">
        <ele>84.17</ele>
        <time>2025-07-04T12:12:34.516Z</time>
      </trkpt>
      <trkpt lat="49.0674" lon="-0.61192">
        <ele>84.11</ele>
        <time>2025-07-04T12:12:42.197Z</time>
      </trkpt>
      <trkpt lat="49.06709" lon="-0.61189">
        <ele>84.05</ele>
        <time>2025-07-04T12:12:49.883Z</time>
      </trkpt>
      <trkpt lat="49.06677" lon="-0.61186">
        <ele>83.99</ele>
        <time>2025-07-04T12:12:57.574Z</time>
      </trkpt>
      <trkpt lat="49.0666" lon="-0.61184">
        <ele>83.93</ele>
        <time>2025-07-04T12:13:05.267Z</time>
      </trkpt>
      <trkpt lat="49.06632" lon="-0.61182">
        <ele>83.9</ele>
        <time>2025-07-04T12:13:12.965Z</time>
      </trkpt>
      <trkpt lat="49.06601" lon="-0.61177">
        <ele>83.85</ele>
        <time>2025-07-04T12:13:20.668Z</time>
      </trkpt>
      <trkpt lat="49.06569" lon="-0.61173">
        <ele>83.75</ele>
        <time>2025-07-04T12:13:28.376Z</time>
      </trkpt>
      <trkpt lat="49.06564" lon="-0.61172">
        <ele>83.73</ele>
        <time>2025-07-04T12:13:36.085Z</time>
      </trkpt>
      <trkpt lat="49.06533" lon="-0.61166">
        <ele>83.74</ele>
        <time>2025-07-04T12:13:43.799Z</time>
      </trkpt>
      <trkpt lat="49.0651" lon="-0.61162">
        <ele>83.73</ele>
        <time>2025-07-04T12:13:51.517Z</time>
      </trkpt>
      <trkpt lat="49.06492" lon="-0.61156">
        <ele>83.74</ele>
        <time>2025-07-04T12:13:59.238Z</time>
      </trkpt>
      <trkpt lat="49.06465" lon="-0.61144">
        <ele>83.77</ele>
        <time>2025-07-04T12:14:06.963Z</time>
      </trkpt>
      <trkpt lat="49.06434" lon="-0.61138">
        <ele>83.88</ele>
        <time>2025-07-04T12:14:14.693Z</time>
      </trkpt>
      <trkpt lat="49.06422" lon="-0.61136">
        <ele>84.03</ele>
        <time>2025-07-04T12:14:22.425Z</time>
      </trkpt>
      <trkpt lat="49.06391" lon="-0.61134">
        <ele>84.23</ele>
        <time>2025-07-04T12:14:30.162Z</time>
      </trkpt>
      <trkpt lat="49.06374" lon="-0.61133">
        <ele>84.44</ele>
        <time>2025-07-04T12:14:37.902Z</time>
      </trkpt>
      <trkpt lat="49.06345" lon="-0.61119">
        <ele>84.72</ele>
        <time>2025-07-04T12:14:45.647Z</time>
      </trkpt>
      <trkpt lat="49.06331" lon="-0.6111">
        <ele>85.08</ele>
        <time>2025-07-04T12:14:53.394Z</time>
      </trkpt>
      <trkpt lat="49.0632" lon="-0.61095">
        <ele>85.48</ele>
        <time>2025-07-04T12:15:01.143Z</time>
      </trkpt>
      <trkpt lat="49.06303" lon="-0.61055">
        <ele>85.98</ele>
        <time>2025-07-04T12:15:08.897Z</time>
      </trkpt>
      <trkpt lat="49.06302" lon="-0.61053">
        <ele>86.49</ele>
        <time>2025-07-04T12:15:16.652Z</time>
      </trkpt>
      <trkpt lat="49.06295" lon="-0.61044">
        <ele>87.06</ele>
        <time>2025-07-04T12:15:24.408Z</time>
      </trkpt>
      <trkpt lat="49.06286" lon="-0.61035">
        <ele>87.69</ele>
        <time>2025-07-04T12:15:32.166Z</time>
      </trkpt>
      <trkpt lat="49.06257" lon="-0.61016">
        <ele>88.42</ele>
        <time>2025-07-04T12:15:39.929Z</time>
      </trkpt>
      <trkpt lat="49.0624" lon="-0.61004">
        <ele>89.23</ele>
        <time>2025-07-04T12:15:47.695Z</time>
      </trkpt>
      <trkpt lat="49.06231" lon="-0.61003">
        <ele>90.08</ele>
        <time>2025-07-04T12:15:55.462Z</time>
      </trkpt>
      <trkpt lat="49.06223" lon="-0.61004">
        <ele>91</ele>
        <time>2025-07-04T12:16:03.231Z</time>
      </trkpt>
      <trkpt lat="49.06208" lon="-0.61013">
        <ele>91.99</ele>
        <time>2025-07-04T12:16:11.002Z</time>
      </trkpt>
      <trkpt lat="49.06184" lon="-0.61029">
        <ele>93.04</ele>
        <time>2025-07-04T12:16:18.777Z</time>
      </trkpt>
      <trkpt lat="49.0616" lon="-0.61046">
        <ele>94.18</ele>
        <time>2025-07-04T12:16:26.557Z</time>
      </trkpt>
      <trkpt lat="49.06143" lon="-0.6105">
        <ele>95.4</ele>
        <time>2025-07-04T12:16:34.339Z</time>
      </trkpt>
      <trkpt lat="49.06125" lon="-0.61044">
        <ele>96.7</ele>
        <time>2025-07-04T12:16:42.124Z</time>
      </trkpt>
      <trkpt lat="49.06119" lon="-0.61041">
        <ele>98.01</ele>
        <time>2025-07-04T12:16:49.910Z</time>
      </trkpt>
      <trkpt lat="49.06092" lon="-0.6102">
        <ele>99.43</ele>
        <time>2025-07-04T12:16:57.701Z</time>
      </trkpt>
      <trkpt lat="49.06065" lon="-0.60994">
        <ele>100.95</ele>
        <time>2025-07-04T12:17:05.497Z</time>
      </trkpt>
      <trkpt lat="49.06065" lon="-0.60994">
        <ele>102.43</ele>
        <time>2025-07-04T12:17:13.293Z</time>
      </trkpt>
      <trkpt lat="49.06043" lon="-0.6096">
        <ele>104.04</ele>
        <time>2025-07-04T12:17:21.094Z</time>
      </trkpt>
      <trkpt lat="49.06031" lon="-0.60943">
        <ele>105.69</ele>
        <time>2025-07-04T12:17:28.898Z</time>
      </trkpt>
      <trkpt lat="49.06013" lon="-0.60921">
        <ele>107.4</ele>
        <time>2025-07-04T12:17:36.706Z</time>
      </trkpt>
      <trkpt lat="49.05984" lon="-0.60903">
        <ele>109.19</ele>
        <time>2025-07-04T12:17:44.519Z</time>
      </trkpt>
      <trkpt lat="49.05976" lon="-0.60898">
        <ele>110.94</ele>
        <time>2025-07-04T12:17:52.333Z</time>
      </trkpt>
      <trkpt lat="49.05946" lon="-0.60882">
        <ele>112.8</ele>
        <time>2025-07-04T12:18:00.152Z</time>
      </trkpt>
      <trkpt lat="49.05925" lon="-0.6087">
        <ele>114.65</ele>
        <time>2025-07-04T12:18:07.975Z</time>
      </trkpt>
      <trkpt lat="49.05895" lon="-0.60855">
        <ele>116.54</ele>
        <time>2025-07-04T12:18:15.803Z</time>
      </trkpt>
      <trkpt lat="49.05891" lon="-0.60853">
        <ele>118.35</ele>
        <time>2025-07-04T12:18:23.632Z</time>
      </trkpt>
      <trkpt lat="49.05861" lon="-0.60838">
        <ele>120.29</ele>
        <time>2025-07-04T12:18:31.466Z</time>
      </trkpt>
      <trkpt lat="49.05831" lon="-0.60823">
        <ele>122.18</ele>
        <time>2025-07-04T12:18:39.305Z</time>
      </trkpt>
      <trkpt lat="49.05823" lon="-0.60819">
        <ele>124.02</ele>
        <time>2025-07-04T12:18:47.145Z</time>
      </trkpt>
      <trkpt lat="49.05793" lon="-0.60803">
        <ele>125.93</ele>
        <time>2025-07-04T12:18:54.990Z</time>
      </trkpt>
      <trkpt lat="49.05791" lon="-0.60802">
        <ele>127.71</ele>
        <time>2025-07-04T12:19:02.835Z</time>
      </trkpt>
      <trkpt lat="49.05772" lon="-0.60788">
        <ele>129.54</ele>
        <time>2025-07-04T12:19:10.684Z</time>
      </trkpt>
      <trkpt lat="49.05745" lon="-0.60763">
        <ele>131.33</ele>
        <time>2025-07-04T12:19:18.538Z</time>
      </trkpt>
      <trkpt lat="49.05742" lon="-0.6076">
        <ele>133.04</ele>
        <time>2025-07-04T12:19:26.392Z</time>
      </trkpt>
      <trkpt lat="49.05715" lon="-0.60735">
        <ele>134.77</ele>
        <time>2025-07-04T12:19:34.251Z</time>
      </trkpt>
      <trkpt lat="49.05688" lon="-0.6071">
        <ele>136.5</ele>
        <time>2025-07-04T12:19:42.116Z</time>
      </trkpt>
      <trkpt lat="49.05687" lon="-0.60709">
        <ele>138.12</ele>
        <time>2025-07-04T12:19:49.981Z</time>
      </trkpt>
      <trkpt lat="49.05665" lon="-0.60688">
        <ele>139.82</ele>
        <time>2025-07-04T12:19:57.850Z</time>
      </trkpt>
      <trkpt lat="49.05651" lon="-0.60669">
        <ele>141.42</ele>
        <time>2025-07-04T12:20:05.722Z</time>
      </trkpt>
      <trkpt lat="49.05644" lon="-0.60649">
        <ele>142.94</ele>
        <time>2025-07-04T12:20:13.596Z</time>
      </trkpt>
      <trkpt lat="49.05637" lon="-0.60602">
        <ele>144.37</ele>
        <time>2025-07-04T12:20:21.475Z</time>
      </trkpt>
      <trkpt lat="49.05636" lon="-0.60596">
        <ele>145.75</ele>
        <time>2025-07-04T12:20:29.355Z</time>
      </trkpt>
      <trkpt lat="49.05628" lon="-0.60567">
        <ele>147.09</ele>
        <time>2025-07-04T12:20:37.238Z</time>
      </trkpt>
      <trkpt lat="49.05611" lon="-0.60526">
        <ele>148.46</ele>
        <time>2025-07-04T12:20:45.126Z</time>
      </trkpt>
      <trkpt lat="49.05595" lon="-0.60486">
        <ele>149.81</ele>
        <time>2025-07-04T12:20:53.019Z</time>
      </trkpt>
      <trkpt lat="49.0559" lon="-0.60474">
        <ele>150.99</ele>
        <time>2025-07-04T12:21:00.914Z</time>
      </trkpt>
      <trkpt lat="49.05572" lon="-0.60434">
        <ele>152.19</ele>
        <time>2025-07-04T12:21:08.814Z</time>
      </trkpt>
      <trkpt lat="49.05555" lon="-0.60396">
        <ele>153.26</ele>
        <time>2025-07-04T12:21:16.719Z</time>
      </trkpt>
      <trkpt lat="49.05535" lon="-0.60359">
        <ele>154.21</ele>
        <time>2025-07-04T12:21:24.629Z</time>
      </trkpt>
      <trkpt lat="49.05516" lon="-0.60321">
        <ele>155.14</ele>
        <time>2025-07-04T12:21:32.544Z</time>
      </trkpt>
      <trkpt lat="49.05504" lon="-0.60299">
        <ele>155.95</ele>
        <time>2025-07-04T12:21:40.462Z</time>
      </trkpt>
      <trkpt lat="49.05484" lon="-0.60262">
        <ele>156.73</ele>
        <time>2025-07-04T12:21:48.385Z</time>
      </trkpt>
      <trkpt lat="49.05464" lon="-0.60225">
        <ele>157.39</ele>
        <time>2025-07-04T12:21:56.313Z</time>
      </trkpt>
      <trkpt lat="49.05462" lon="-0.60222">
        <ele>157.99</ele>
        <time>2025-07-04T12:22:04.241Z</time>
      </trkpt>
      <trkpt lat="49.05438" lon="-0.60192">
        <ele>158.5</ele>
        <time>2025-07-04T12:22:12.174Z</time>
      </trkpt>
      <trkpt lat="49.05436" lon="-0.6019">
        <ele>158.98</ele>
        <time>2025-07-04T12:22:20.108Z</time>
      </trkpt>
      <trkpt lat="49.05409" lon="-0.60165">
        <ele>159.41</ele>
        <time>2025-07-04T12:22:28.047Z</time>
      </trkpt>
      <trkpt lat="49.05382" lon="-0.6014">
        <ele>159.82</ele>
        <time>2025-07-04T12:22:35.991Z</time>
      </trkpt>
      <trkpt lat="49.05355" lon="-0.60115">
        <ele>160.13</ele>
        <time>2025-07-04T12:22:43.940Z</time>
      </trkpt>
      <trkpt lat="49.05343" lon="-0.60104">
        <ele>160.41</ele>
        <time>2025-07-04T12:22:51.891Z</time>
      </trkpt>
      <trkpt lat="49.05318" lon="-0.60075">
        <ele>160.64</ele>
        <time>2025-07-04T12:22:59.847Z</time>
      </trkpt>
      <trkpt lat="49.05293" lon="-0.60046">
        <ele>160.79</ele>
        <time>2025-07-04T12:23:07.808Z</time>
      </trkpt>
      <trkpt lat="49.05268" lon="-0.60017">
        <ele>160.91</ele>
        <time>2025-07-04T12:23:15.774Z</time>
      </trkpt>
      <trkpt lat="49.05243" lon="-0.59988">
        <ele>161.01</ele>
        <time>2025-07-04T12:23:23.745Z</time>
      </trkpt>
      <trkpt lat="49.05218" lon="-0.5996">
        <ele>161.08</ele>
        <time>2025-07-04T12:23:31.721Z</time>
      </trkpt>
      <trkpt lat="49.05204" lon="-0.59944">
        <ele>161.07</ele>
        <time>2025-07-04T12:23:39.700Z</time>
      </trkpt>
      <trkpt lat="49.05182" lon="-0.5991">
        <ele>161.01</ele>
        <time>2025-07-04T12:23:47.684Z</time>
      </trkpt>
      <trkpt lat="49.0516" lon="-0.59876">
        <ele>160.99</ele>
        <time>2025-07-04T12:23:55.673Z</time>
      </trkpt>
      <trkpt lat="49.0515" lon="-0.59861">
        <ele>160.89</ele>
        <time>2025-07-04T12:24:03.664Z</time>
      </trkpt>
      <trkpt lat="49.05128" lon="-0.59827">
        <ele>160.79</ele>
        <time>2025-07-04T12:24:11.660Z</time>
      </trkpt>
      <trkpt lat="49.05105" lon="-0.59794">
        <ele>160.69</ele>
        <time>2025-07-04T12:24:19.661Z</time>
      </trkpt>
      <trkpt lat="49.05083" lon="-0.5976">
        <ele>160.46</ele>
        <time>2025-07-04T12:24:27.667Z</time>
      </trkpt>
      <trkpt lat="49.05061" lon="-0.59726">
        <ele>160.21</ele>
        <time>2025-07-04T12:24:35.679Z</time>
      </trkpt>
      <trkpt lat="49.05038" lon="-0.59692">
        <ele>159.95</ele>
        <time>2025-07-04T12:24:43.696Z</time>
      </trkpt>
      <trkpt lat="49.05036" lon="-0.59689">
        <ele>159.69</ele>
        <time>2025-07-04T12:24:51.713Z</time>
      </trkpt>
      <trkpt lat="49.05014" lon="-0.59655">
        <ele>159.44</ele>
        <time>2025-07-04T12:24:59.735Z</time>
      </trkpt>
      <trkpt lat="49.04992" lon="-0.59621">
        <ele>159.14</ele>
        <time>2025-07-04T12:25:07.762Z</time>
      </trkpt>
      <trkpt lat="49.04972" lon="-0.5959">
        <ele>158.82</ele>
        <time>2025-07-04T12:25:15.794Z</time>
      </trkpt>
      <trkpt lat="49.0495" lon="-0.59556">
        <ele>158.53</ele>
        <time>2025-07-04T12:25:23.831Z</time>
      </trkpt>
      <trkpt lat="49.04928" lon="-0.59521">
        <ele>158.19</ele>
        <time>2025-07-04T12:25:31.873Z</time>
      </trkpt>
      <trkpt lat="49.04926" lon="-0.59518">
        <ele>157.88</ele>
        <time>2025-07-04T12:25:39.915Z</time>
      </trkpt>
      <trkpt lat="49.04904" lon="-0.59484">
        <ele>157.53</ele>
        <time>2025-07-04T12:25:47.962Z</time>
      </trkpt>
      <trkpt lat="49.04881" lon="-0.59451">
        <ele>157.2</ele>
        <time>2025-07-04T12:25:56.014Z</time>
      </trkpt>
      <trkpt lat="49.04877" lon="-0.59444">
        <ele>156.9</ele>
        <time>2025-07-04T12:26:04.067Z</time>
      </trkpt>
      <trkpt lat="49.04854" lon="-0.59411">
        <ele>156.62</ele>
        <time>2025-07-04T12:26:12.125Z</time>
      </trkpt>
      <trkpt lat="49.04852" lon="-0.59407">
        <ele>156.34</ele>
        <time>2025-07-04T12:26:20.184Z</time>
      </trkpt>
      <trkpt lat="49.04837" lon="-0.59388">
        <ele>156.11</ele>
        <time>2025-07-04T12:26:28.246Z</time>
      </trkpt>
      <trkpt lat="49.04811" lon="-0.59361">
        <ele>155.91</ele>
        <time>2025-07-04T12:26:36.313Z</time>
      </trkpt>
      <trkpt lat="49.04785" lon="-0.59335">
        <ele>155.73</ele>
        <time>2025-07-04T12:26:44.385Z</time>
      </trkpt>
      <trkpt lat="49.04759" lon="-0.59308">
        <ele>155.54</ele>
        <time>2025-07-04T12:26:52.462Z</time>
      </trkpt>
      <trkpt lat="49.04732" lon="-0.59281">
        <ele>155.37</ele>
        <time>2025-07-04T12:27:00.544Z</time>
      </trkpt>
      <trkpt lat="49.04731" lon="-0.5928">
        <ele>155.18</ele>
        <time>2025-07-04T12:27:08.626Z</time>
      </trkpt>
      <trkpt lat="49.04707" lon="-0.59249">
        <ele>154.99</ele>
        <time>2025-07-04T12:27:16.714Z</time>
      </trkpt>
      <trkpt lat="49.047" lon="-0.5924">
        <ele>154.83</ele>
        <time>2025-07-04T12:27:24.803Z</time>
      </trkpt>
      <trkpt lat="49.04677" lon="-0.59207">
        <ele>154.67</ele>
        <time>2025-07-04T12:27:32.897Z</time>
      </trkpt>
      <trkpt lat="49.04654" lon="-0.59174">
        <ele>154.54</ele>
        <time>2025-07-04T12:27:40.996Z</time>
      </trkpt>
      <trkpt lat="49.04632" lon="-0.59141">
        <ele>154.42</ele>
        <time>2025-07-04T12:27:49.100Z</time>
      </trkpt>
      <trkpt lat="49.04609" lon="-0.59108">
        <ele>154.39</ele>
        <time>2025-07-04T12:27:57.209Z</time>
      </trkpt>
      <trkpt lat="49.04586" lon="-0.59075">
        <ele>154.42</ele>
        <time>2025-07-04T12:28:05.323Z</time>
      </trkpt>
      <trkpt lat="49.04567" lon="-0.59048">
        <ele>154.49</ele>
        <time>2025-07-04T12:28:13.441Z</time>
      </trkpt>
      <trkpt lat="49.04543" lon="-0.59017">
        <ele>154.59</ele>
        <time>2025-07-04T12:28:21.564Z</time>
      </trkpt>
      <trkpt lat="49.04537" lon="-0.5901">
        <ele>154.72</ele>
        <time>2025-07-04T12:28:29.689Z</time>
      </trkpt>
      <trkpt lat="49.04519" lon="-0.58995">
        <ele>154.94</ele>
        <time>2025-07-04T12:28:37.817Z</time>
      </trkpt>
      <trkpt lat="49.0449" lon="-0.58976">
        <ele>155.22</ele>
        <time>2025-07-04T12:28:45.950Z</time>
      </trkpt>
      <trkpt lat="49.04486" lon="-0.58973">
        <ele>155.52</ele>
        <time>2025-07-04T12:28:54.084Z</time>
      </trkpt>
      <trkpt lat="49.04457" lon="-0.58956">
        <ele>155.86</ele>
        <time>2025-07-04T12:29:02.223Z</time>
      </trkpt>
      <trkpt lat="49.04436" lon="-0.58944">
        <ele>156.26</ele>
        <time>2025-07-04T12:29:10.365Z</time>
      </trkpt>
      <trkpt lat="49.04407" lon="-0.58926">
        <ele>156.76</ele>
        <time>2025-07-04T12:29:18.512Z</time>
      </trkpt>
      <trkpt lat="49.04401" lon="-0.58923">
        <ele>157.3</ele>
        <time>2025-07-04T12:29:26.660Z</time>
      </trkpt>
      <trkpt lat="49.04379" lon="-0.58907">
        <ele>157.91</ele>
        <time>2025-07-04T12:29:34.812Z</time>
      </trkpt>
      <trkpt lat="49.04351" lon="-0.58885">
        <ele>158.6</ele>
        <time>2025-07-04T12:29:42.969Z</time>
      </trkpt>
      <trkpt lat="49.04338" lon="-0.58875">
        <ele>159.36</ele>
        <time>2025-07-04T12:29:51.129Z</time>
      </trkpt>
      <trkpt lat="49.0431" lon="-0.58853">
        <ele>160.21</ele>
        <time>2025-07-04T12:29:59.294Z</time>
      </trkpt>
      <trkpt lat="49.04293" lon="-0.58839">
        <ele>161.08</ele>
        <time>2025-07-04T12:30:07.462Z</time>
      </trkpt>
      <trkpt lat="49.04265" lon="-0.58818">
        <ele>161.99</ele>
        <time>2025-07-04T12:30:15.635Z</time>
      </trkpt>
      <trkpt lat="49.04256" lon="-0.58812">
        <ele>162.97</ele>
        <time>2025-07-04T12:30:23.809Z</time>
      </trkpt>
      <trkpt lat="49.04244" lon="-0.58806">
        <ele>164</ele>
        <time>2025-07-04T12:30:31.985Z</time>
      </trkpt>
      <trkpt lat="49.04221" lon="-0.58803">
        <ele>165.13</ele>
        <time>2025-07-04T12:30:40.165Z</time>
      </trkpt>
      <trkpt lat="49.04202" lon="-0.58806">
        <ele>166.3</ele>
        <time>2025-07-04T12:30:48.348Z</time>
      </trkpt>
      <trkpt lat="49.04171" lon="-0.58818">
        <ele>167.56</ele>
        <time>2025-07-04T12:30:56.536Z</time>
      </trkpt>
      <trkpt lat="49.04144" lon="-0.58828">
        <ele>168.88</ele>
        <time>2025-07-04T12:31:04.729Z</time>
      </trkpt>
      <trkpt lat="49.04114" lon="-0.58841">
        <ele>170.16</ele>
        <time>2025-07-04T12:31:12.927Z</time>
      </trkpt>
      <trkpt lat="49.04083" lon="-0.58853">
        <ele>171.53</ele>
        <time>2025-07-04T12:31:21.130Z</time>
      </trkpt>
      <trkpt lat="49.04075" lon="-0.58857">
        <ele>172.91</ele>
        <time>2025-07-04T12:31:29.334Z</time>
      </trkpt>
      <trkpt lat="49.04053" lon="-0.58863">
        <ele>174.4</ele>
        <time>2025-07-04T12:31:37.542Z</time>
      </trkpt>
      <trkpt lat="49.04046" lon="-0.58863">
        <ele>175.85</ele>
        <time>2025-07-04T12:31:45.751Z</time>
      </trkpt>
      <trkpt lat="49.04035" lon="-0.58858">
        <ele>177.34</ele>
        <time>2025-07-04T12:31:53.962Z</time>
      </trkpt>
      <trkpt lat="49.0402" lon="-0.58845">
        <ele>178.88</ele>
        <time>2025-07-04T12:32:02.175Z</time>
      </trkpt>
      <trkpt lat="49.03995" lon="-0.58816">
        <ele>180.49</ele>
        <time>2025-07-04T12:32:10.393Z</time>
      </trkpt>
      <trkpt lat="49.03971" lon="-0.58786">
        <ele>182.06</ele>
        <time>2025-07-04T12:32:18.616Z</time>
      </trkpt>
      <trkpt lat="49.03946" lon="-0.58755">
        <ele>183.54</ele>
        <time>2025-07-04T12:32:26.844Z</time>
      </trkpt>
      <trkpt lat="49.03922" lon="-0.58725">
        <ele>184.94</ele>
        <time>2025-07-04T12:32:35.078Z</time>
      </trkpt>
      <trkpt lat="49.0392" lon="-0.58722">
        <ele>186.25</ele>
        <time>2025-07-04T12:32:43.312Z</time>
      </trkpt>
      <trkpt lat="49.03895" lon="-0.58692">
        <ele>187.59</ele>
        <time>2025-07-04T12:32:51.551Z</time>
      </trkpt>
      <trkpt lat="49.03871" lon="-0.58662">
        <ele>188.91</ele>
        <time>2025-07-04T12:32:59.795Z</time>
      </trkpt>
      <trkpt lat="49.03846" lon="-0.58632">
        <ele>190.1</ele>
        <time>2025-07-04T12:33:08.044Z</time>
      </trkpt>
      <trkpt lat="49.03826" lon="-0.58608">
        <ele>191.21</ele>
        <time>2025-07-04T12:33:16.297Z</time>
      </trkpt>
      <trkpt lat="49.03801" lon="-0.58578">
        <ele>192.26</ele>
        <time>2025-07-04T12:33:24.555Z</time>
      </trkpt>
      <trkpt lat="49.03782" lon="-0.58555">
        <ele>193.23</ele>
        <time>2025-07-04T12:33:32.817Z</time>
      </trkpt>
      <trkpt lat="49.0376" lon="-0.58526">
        <ele>194.07</ele>
        <time>2025-07-04T12:33:41.084Z</time>
      </trkpt>
      <trkpt lat="49.03741" lon="-0.58496">
        <ele>194.75</ele>
        <time>2025-07-04T12:33:49.355Z</time>
      </trkpt>
      <trkpt lat="49.03721" lon="-0.58459">
        <ele>195.38</ele>
        <time>2025-07-04T12:33:57.631Z</time>
      </trkpt>
      <trkpt lat="49.03701" lon="-0.58423">
        <ele>195.93</ele>
        <time>2025-07-04T12:34:05.912Z</time>
      </trkpt>
      <trkpt lat="49.03698" lon="-0.58418">
        <ele>196.37</ele>
        <time>2025-07-04T12:34:14.194Z</time>
      </trkpt>
      <trkpt lat="49.03678" lon="-0.58381">
        <ele>196.73</ele>
        <time>2025-07-04T12:34:22.481Z</time>
      </trkpt>
      <trkpt lat="49.03659" lon="-0.58343">
        <ele>196.98</ele>
        <time>2025-07-04T12:34:30.773Z</time>
      </trkpt>
      <trkpt lat="49.03644" lon="-0.58316">
        <ele>197.1</ele>
        <time>2025-07-04T12:34:39.069Z</time>
      </trkpt>
      <trkpt lat="49.03624" lon="-0.58279">
        <ele>197.17</ele>
        <time>2025-07-04T12:34:47.370Z</time>
      </trkpt>
      <trkpt lat="49.03605" lon="-0.58241">
        <ele>197.15</ele>
        <time>2025-07-04T12:34:55.676Z</time>
      </trkpt>
      <trkpt lat="49.03585" lon="-0.58204">
        <ele>197.07</ele>
        <time>2025-07-04T12:35:03.987Z</time>
      </trkpt>
      <trkpt lat="49.03565" lon="-0.58167">
        <ele>196.9</ele>
        <time>2025-07-04T12:35:12.303Z</time>
      </trkpt>
      <trkpt lat="49.03546" lon="-0.58129">
        <ele>196.65</ele>
        <time>2025-07-04T12:35:20.624Z</time>
      </trkpt>
      <trkpt lat="49.03544" lon="-0.58126">
        <ele>196.37</ele>
        <time>2025-07-04T12:35:28.945Z</time>
      </trkpt>
      <trkpt lat="49.03525" lon="-0.58088">
        <ele>195.96</ele>
        <time>2025-07-04T12:35:37.271Z</time>
      </trkpt>
      <trkpt lat="49.03505" lon="-0.5805">
        <ele>195.51</ele>
        <time>2025-07-04T12:35:45.602Z</time>
      </trkpt>
      <trkpt lat="49.03486" lon="-0.58013">
        <ele>195.08</ele>
        <time>2025-07-04T12:35:53.939Z</time>
      </trkpt>
      <trkpt lat="49.03482" lon="-0.58005">
        <ele>194.6</ele>
        <time>2025-07-04T12:36:02.277Z</time>
      </trkpt>
      <trkpt lat="49.03465" lon="-0.57965">
        <ele>194.07</ele>
        <time>2025-07-04T12:36:10.620Z</time>
      </trkpt>
      <trkpt lat="49.03453" lon="-0.57936">
        <ele>193.51</ele>
        <time>2025-07-04T12:36:18.966Z</time>
      </trkpt>
      <trkpt lat="49.03434" lon="-0.57898">
        <ele>192.91</ele>
        <time>2025-07-04T12:36:27.317Z</time>
      </trkpt>
      <trkpt lat="49.03432" lon="-0.57894">
        <ele>192.35</ele>
        <time>2025-07-04T12:36:35.669Z</time>
      </trkpt>
      <trkpt lat="49.03414" lon="-0.57855">
        <ele>191.79</ele>
        <time>2025-07-04T12:36:44.026Z</time>
      </trkpt>
      <trkpt lat="49.03409" lon="-0.57844">
        <ele>191.22</ele>
        <time>2025-07-04T12:36:52.384Z</time>
      </trkpt>
      <trkpt lat="49.03395" lon="-0.57806">
        <ele>190.6</ele>
        <time>2025-07-04T12:37:00.747Z</time>
      </trkpt>
      <trkpt lat="49.03379" lon="-0.57765">
        <ele>190.01</ele>
        <time>2025-07-04T12:37:09.115Z</time>
      </trkpt>
      <trkpt lat="49.03363" lon="-0.57726">
        <ele>189.49</ele>
        <time>2025-07-04T12:37:17.488Z</time>
      </trkpt>
      <trkpt lat="49.03345" lon="-0.57687">
        <ele>188.98</ele>
        <time>2025-07-04T12:37:25.866Z</time>
      </trkpt>
      <trkpt lat="49.03342" lon="-0.57681">
        <ele>188.5</ele>
        <time>2025-07-04T12:37:34.244Z</time>
      </trkpt>
      <trkpt lat="49.03326" lon="-0.57657">
        <ele>188.01</ele>
        <time>2025-07-04T12:37:42.626Z</time>
      </trkpt>
      <trkpt lat="49.03312" lon="-0.5764">
        <ele>187.57</ele>
        <time>2025-07-04T12:37:51.011Z</time>
      </trkpt>
      <trkpt lat="49.03285" lon="-0.57615">
        <ele>187.12</ele>
        <time>2025-07-04T12:37:59.401Z</time>
      </trkpt>
      <trkpt lat="49.03274" lon="-0.57605">
        <ele>186.75</ele>
        <time>2025-07-04T12:38:07.793Z</time>
      </trkpt>
      <trkpt lat="49.03248" lon="-0.57579">
        <ele>186.43</ele>
        <time>2025-07-04T12:38:16.190Z</time>
      </trkpt>
      <trkpt lat="49.03237" lon="-0.57568">
        <ele>186.16</ele>
        <time>2025-07-04T12:38:24.589Z</time>
      </trkpt>
      <trkpt lat="49.0321" lon="-0.57545">
        <ele>185.89</ele>
        <time>2025-07-04T12:38:32.993Z</time>
      </trkpt>
      <trkpt lat="49.03199" lon="-0.57538">
        <ele>185.74</ele>
        <time>2025-07-04T12:38:41.399Z</time>
      </trkpt>
      <trkpt lat="49.03168" lon="-0.57527">
        <ele>185.69</ele>
        <time>2025-07-04T12:38:49.810Z</time>
      </trkpt>
      <trkpt lat="49.03166" lon="-0.57526">
        <ele>185.67</ele>
        <time>2025-07-04T12:38:58.221Z</time>
      </trkpt>
      <trkpt lat="49.03145" lon="-0.5752">
        <ele>185.72</ele>
        <time>2025-07-04T12:39:06.636Z</time>
      </trkpt>
      <trkpt lat="49.03115" lon="-0.5752">
        <ele>185.82</ele>
        <time>2025-07-04T12:39:15.056Z</time>
      </trkpt>
      <trkpt lat="49.03103" lon="-0.57517">
        <ele>185.95</ele>
        <time>2025-07-04T12:39:23.478Z</time>
      </trkpt>
      <trkpt lat="49.03088" lon="-0.57509">
        <ele>186.13</ele>
        <time>2025-07-04T12:39:31.902Z</time>
      </trkpt>
      <trkpt lat="49.0306" lon="-0.57487">
        <ele>186.39</ele>
        <time>2025-07-04T12:39:40.331Z</time>
      </trkpt>
      <trkpt lat="49.03045" lon="-0.57475">
        <ele>186.62</ele>
        <time>2025-07-04T12:39:48.763Z</time>
      </trkpt>
      <trkpt lat="49.03017" lon="-0.57452">
        <ele>186.95</ele>
        <time>2025-07-04T12:39:57.200Z</time>
      </trkpt>
      <trkpt lat="49.03017" lon="-0.57452">
        <ele>187.21</ele>
        <time>2025-07-04T12:40:05.637Z</time>
      </trkpt>
      <trkpt lat="49.02989" lon="-0.57429">
        <ele>187.53</ele>
        <time>2025-07-04T12:40:14.079Z</time>
      </trkpt>
      <trkpt lat="49.02962" lon="-0.57406">
        <ele>187.88</ele>
        <time>2025-07-04T12:40:22.526Z</time>
      </trkpt>
      <trkpt lat="49.02934" lon="-0.57383">
        <ele>188.2</ele>
        <time>2025-07-04T12:40:30.978Z</time>
      </trkpt>
      <trkpt lat="49.02918" lon="-0.5737">
        <ele>188.51</ele>
        <time>2025-07-04T12:40:39.433Z</time>
      </trkpt>
      <trkpt lat="49.0289" lon="-0.57348">
        <ele>188.82</ele>
        <time>2025-07-04T12:40:47.893Z</time>
      </trkpt>
      <trkpt lat="49.02865" lon="-0.57328">
        <ele>189.11</ele>
        <time>2025-07-04T12:40:56.358Z</time>
      </trkpt>
      <trkpt lat="49.02869" lon="-0.57311">
        <ele>189.36</ele>
        <time>2025-07-04T12:41:04.824Z</time>
      </trkpt>
      <trkpt lat="49.0288" lon="-0.57274">
        <ele>189.62</ele>
        <time>2025-07-04T12:41:13.295Z</time>
      </trkpt>
      <trkpt lat="49.02895" lon="-0.57232">
        <ele>189.82</ele>
        <time>2025-07-04T12:41:21.771Z</time>
      </trkpt>
      <trkpt lat="49.02908" lon="-0.57193">
        <ele>189.98</ele>
        <time>2025-07-04T12:41:30.251Z</time>
      </trkpt>
      <trkpt lat="49.02923" lon="-0.57151">
        <ele>190.06</ele>
        <time>2025-07-04T12:41:38.736Z</time>
      </trkpt>
      <trkpt lat="49.02929" lon="-0.57132">
        <ele>190.15</ele>
        <time>2025-07-04T12:41:47.224Z</time>
      </trkpt>
      <trkpt lat="49.02943" lon="-0.57089">
        <ele>190.22</ele>
        <time>2025-07-04T12:41:55.717Z</time>
      </trkpt>
      <trkpt lat="49.02958" lon="-0.57047">
        <ele>190.27</ele>
        <time>2025-07-04T12:42:04.215Z</time>
      </trkpt>
      <trkpt lat="49.02972" lon="-0.57004">
        <ele>190.23</ele>
        <time>2025-07-04T12:42:12.718Z</time>
      </trkpt>
      <trkpt lat="49.02986" lon="-0.56962">
        <ele>190.14</ele>
        <time>2025-07-04T12:42:21.226Z</time>
      </trkpt>
      <trkpt lat="49.03001" lon="-0.56919">
        <ele>189.98</ele>
        <time>2025-07-04T12:42:29.739Z</time>
      </trkpt>
      <trkpt lat="49.03003" lon="-0.56912">
        <ele>189.82</ele>
        <time>2025-07-04T12:42:38.253Z</time>
      </trkpt>
      <trkpt lat="49.03016" lon="-0.56874">
        <ele>189.62</ele>
        <time>2025-07-04T12:42:46.771Z</time>
      </trkpt>
      <trkpt lat="49.03021" lon="-0.56848">
        <ele>189.38</ele>
        <time>2025-07-04T12:42:55.292Z</time>
      </trkpt>
      <trkpt lat="49.03025" lon="-0.56812">
        <ele>189.07</ele>
        <time>2025-07-04T12:43:03.817Z</time>
      </trkpt>
      <trkpt lat="49.03028" lon="-0.56764">
        <ele>188.73</ele>
        <time>2025-07-04T12:43:12.347Z</time>
      </trkpt>
      <trkpt lat="49.03031" lon="-0.56717">
        <ele>188.35</ele>
        <time>2025-07-04T12:43:20.882Z</time>
      </trkpt>
      <trkpt lat="49.03034" lon="-0.56669">
        <ele>188</ele>
        <time>2025-07-04T12:43:29.422Z</time>
      </trkpt>
      <trkpt lat="49.03036" lon="-0.56645">
        <ele>187.49</ele>
        <time>2025-07-04T12:43:37.965Z</time>
      </trkpt>
      <trkpt lat="49.03039" lon="-0.56597">
        <ele>186.97</ele>
        <time>2025-07-04T12:43:46.513Z</time>
      </trkpt>
      <trkpt lat="49.03042" lon="-0.5656">
        <ele>186.39</ele>
        <time>2025-07-04T12:43:55.065Z</time>
      </trkpt>
      <trkpt lat="49.03042" lon="-0.56528">
        <ele>185.8</ele>
        <time>2025-07-04T12:44:03.620Z</time>
      </trkpt>
      <trkpt lat="49.03037" lon="-0.56486">
        <ele>185.15</ele>
        <time>2025-07-04T12:44:12.179Z</time>
      </trkpt>
      <trkpt lat="49.03029" lon="-0.5644">
        <ele>184.48</ele>
        <time>2025-07-04T12:44:20.743Z</time>
      </trkpt>
      <trkpt lat="49.03021" lon="-0.56393">
        <ele>183.8</ele>
        <time>2025-07-04T12:44:29.312Z</time>
      </trkpt>
      <trkpt lat="49.03015" lon="-0.5636">
        <ele>183.12</ele>
        <time>2025-07-04T12:44:37.885Z</time>
      </trkpt>
      <trkpt lat="49.03004" lon="-0.56315">
        <ele>182.32</ele>
        <time>2025-07-04T12:44:46.463Z</time>
      </trkpt>
      <trkpt lat="49.02993" lon="-0.5627">
        <ele>181.57</ele>
        <time>2025-07-04T12:44:55.046Z</time>
      </trkpt>
      <trkpt lat="49.02992" lon="-0.56264">
        <ele>180.89</ele>
        <time>2025-07-04T12:45:03.630Z</time>
      </trkpt>
      <trkpt lat="49.0298" lon="-0.5622">
        <ele>180.15</ele>
        <time>2025-07-04T12:45:12.219Z</time>
      </trkpt>
      <trkpt lat="49.0297" lon="-0.56181">
        <ele>179.47</ele>
        <time>2025-07-04T12:45:20.812Z</time>
      </trkpt>
      <trkpt lat="49.0296" lon="-0.56144">
        <ele>178.85</ele>
        <time>2025-07-04T12:45:29.410Z</time>
      </trkpt>
      <trkpt lat="49.02959" lon="-0.56126">
        <ele>178.24</ele>
        <time>2025-07-04T12:45:38.009Z</time>
      </trkpt>
      <trkpt lat="49.02962" lon="-0.56106">
        <ele>177.66</ele>
        <time>2025-07-04T12:45:46.611Z</time>
      </trkpt>
      <trkpt lat="49.02968" lon="-0.56083">
        <ele>177.14</ele>
        <time>2025-07-04T12:45:55.215Z</time>
      </trkpt>
      <trkpt lat="49.02986" lon="-0.56044">
        <ele>176.61</ele>
        <time>2025-07-04T12:46:03.824Z</time>
      </trkpt>
      <trkpt lat="49.03001" lon="-0.56011">
        <ele>176.16</ele>
        <time>2025-07-04T12:46:12.437Z</time>
      </trkpt>
      <trkpt lat="49.03015" lon="-0.55969">
        <ele>175.78</ele>
        <time>2025-07-04T12:46:21.055Z</time>
      </trkpt>
      <trkpt lat="49.03021" lon="-0.55945">
        <ele>175.46</ele>
        <time>2025-07-04T12:46:29.676Z</time>
      </trkpt>
      <trkpt lat="49.03029" lon="-0.55899">
        <ele>175.18</ele>
        <time>2025-07-04T12:46:38.302Z</time>
      </trkpt>
      <trkpt lat="49.0303" lon="-0.55894">
        <ele>174.98</ele>
        <time>2025-07-04T12:46:46.929Z</time>
      </trkpt>
      <trkpt lat="49.03037" lon="-0.55847">
        <ele>174.83</ele>
        <time>2025-07-04T12:46:55.561Z</time>
      </trkpt>
      <trkpt lat="49.03042" lon="-0.55816">
        <ele>174.77</ele>
        <time>2025-07-04T12:47:04.196Z</time>
      </trkpt>
      <trkpt lat="49.03045" lon="-0.55793">
        <ele>174.75</ele>
        <time>2025-07-04T12:47:12.834Z</time>
      </trkpt>
      <trkpt lat="49.03043" lon="-0.55771">
        <ele>174.79</ele>
        <time>2025-07-04T12:47:21.474Z</time>
      </trkpt>
      <trkpt lat="49.03036" lon="-0.55753">
        <ele>174.9</ele>
        <time>2025-07-04T12:47:30.116Z</time>
      </trkpt>
      <trkpt lat="49.03023" lon="-0.5573">
        <ele>175.09</ele>
        <time>2025-07-04T12:47:38.761Z</time>
      </trkpt>
      <trkpt lat="49.03018" lon="-0.55715">
        <ele>175.37</ele>
        <time>2025-07-04T12:47:47.408Z</time>
      </trkpt>
      <trkpt lat="49.03015" lon="-0.55697">
        <ele>175.69</ele>
        <time>2025-07-04T12:47:56.057Z</time>
      </trkpt>
      <trkpt lat="49.03015" lon="-0.55654">
        <ele>176.08</ele>
        <time>2025-07-04T12:48:04.711Z</time>
      </trkpt>
      <trkpt lat="49.03016" lon="-0.55606">
        <ele>176.6</ele>
        <time>2025-07-04T12:48:13.370Z</time>
      </trkpt>
      <trkpt lat="49.03016" lon="-0.55591">
        <ele>177.19</ele>
        <time>2025-07-04T12:48:22.030Z</time>
      </trkpt>
      <trkpt lat="49.03014" lon="-0.55558">
        <ele>177.9</ele>
        <time>2025-07-04T12:48:30.694Z</time>
      </trkpt>
      <trkpt lat="49.03008" lon="-0.55511">
        <ele>178.68</ele>
        <time>2025-07-04T12:48:39.363Z</time>
      </trkpt>
      <trkpt lat="49.03002" lon="-0.55464">
        <ele>179.48</ele>
        <time>2025-07-04T12:48:48.037Z</time>
      </trkpt>
      <trkpt lat="49.03001" lon="-0.5546">
        <ele>180.26</ele>
        <time>2025-07-04T12:48:56.711Z</time>
      </trkpt>
      <trkpt lat="49.02996" lon="-0.55413">
        <ele>181.14</ele>
        <time>2025-07-04T12:49:05.390Z</time>
      </trkpt>
      <trkpt lat="49.02992" lon="-0.55365">
        <ele>182.03</ele>
        <time>2025-07-04T12:49:14.074Z</time>
      </trkpt>
      <trkpt lat="49.02987" lon="-0.55318">
        <ele>182.93</ele>
        <time>2025-07-04T12:49:22.763Z</time>
      </trkpt>
      <trkpt lat="49.02982" lon="-0.55271">
        <ele>183.85</ele>
        <time>2025-07-04T12:49:31.457Z</time>
      </trkpt>
      <trkpt lat="49.02979" lon="-0.55238">
        <ele>184.74</ele>
        <time>2025-07-04T12:49:40.155Z</time>
      </trkpt>
      <trkpt lat="49.02974" lon="-0.55191">
        <ele>185.63</ele>
        <time>2025-07-04T12:49:48.858Z</time>
      </trkpt>
      <trkpt lat="49.0297" lon="-0.55143">
        <ele>186.5</ele>
        <time>2025-07-04T12:49:57.566Z</time>
      </trkpt>
      <trkpt lat="49.02969" lon="-0.55134">
        <ele>187.27</ele>
        <time>2025-07-04T12:50:06.275Z</time>
      </trkpt>
      <trkpt lat="49.0297" lon="-0.55094">
        <ele>188.07</ele>
        <time>2025-07-04T12:50:14.988Z</time>
      </trkpt>
      <trkpt lat="49.02975" lon="-0.55056">
        <ele>188.85</ele>
        <time>2025-07-04T12:50:23.705Z</time>
      </trkpt>
      <trkpt lat="49.02983" lon="-0.5503">
        <ele>189.51</ele>
        <time>2025-07-04T12:50:32.425Z</time>
      </trkpt>
      <trkpt lat="49.03001" lon="-0.5499">
        <ele>190.11</ele>
        <time>2025-07-04T12:50:41.150Z</time>
      </trkpt>
      <trkpt lat="49.03018" lon="-0.54951">
        <ele>190.62</ele>
        <time>2025-07-04T12:50:49.880Z</time>
      </trkpt>
      <trkpt lat="49.03036" lon="-0.54911">
        <ele>191.05</ele>
        <time>2025-07-04T12:50:58.615Z</time>
      </trkpt>
      <trkpt lat="49.03036" lon="-0.5491">
        <ele>191.41</ele>
        <time>2025-07-04T12:51:07.350Z</time>
      </trkpt>
      <trkpt lat="49.03054" lon="-0.54871">
        <ele>191.68</ele>
        <time>2025-07-04T12:51:16.091Z</time>
      </trkpt>
      <trkpt lat="49.03071" lon="-0.54834">
        <ele>191.82</ele>
        <time>2025-07-04T12:51:24.836Z</time>
      </trkpt>
      <trkpt lat="49.03087" lon="-0.54793">
        <ele>191.97</ele>
        <time>2025-07-04T12:51:33.586Z</time>
      </trkpt>
      <trkpt lat="49.03091" lon="-0.54784">
        <ele>192.03</ele>
        <time>2025-07-04T12:51:42.337Z</time>
      </trkpt>
      <trkpt lat="49.03104" lon="-0.5474">
        <ele>192.03</ele>
        <time>2025-07-04T12:51:51.093Z</time>
      </trkpt>
      <trkpt lat="49.03105" lon="-0.54737">
        <ele>191.93</ele>
        <time>2025-07-04T12:51:59.850Z</time>
      </trkpt>
      <trkpt lat="49.03115" lon="-0.54712">
        <ele>191.75</ele>
        <time>2025-07-04T12:52:08.610Z</time>
      </trkpt>
      <trkpt lat="49.03131" lon="-0.54696">
        <ele>191.48</ele>
        <time>2025-07-04T12:52:17.373Z</time>
      </trkpt>
      <trkpt lat="49.03152" lon="-0.54687">
        <ele>191.13</ele>
        <time>2025-07-04T12:52:26.139Z</time>
      </trkpt>
      <trkpt lat="49.03181" lon="-0.54675">
        <ele>190.66</ele>
        <time>2025-07-04T12:52:34.910Z</time>
      </trkpt>
      <trkpt lat="49.03192" lon="-0.54668">
        <ele>190.19</ele>
        <time>2025-07-04T12:52:43.683Z</time>
      </trkpt>
      <trkpt lat="49.03206" lon="-0.54655">
        <ele>189.64</ele>
        <time>2025-07-04T12:52:52.459Z</time>
      </trkpt>
      <trkpt lat="49.0323" lon="-0.54625">
        <ele>189</ele>
        <time>2025-07-04T12:53:01.240Z</time>
      </trkpt>
      <trkpt lat="49.03245" lon="-0.54607">
        <ele>188.38</ele>
        <time>2025-07-04T12:53:10.024Z</time>
      </trkpt>
      <trkpt lat="49.03265" lon="-0.5457">
        <ele>187.69</ele>
        <time>2025-07-04T12:53:18.813Z</time>
      </trkpt>
      <trkpt lat="49.0327" lon="-0.54561">
        <ele>187.01</ele>
        <time>2025-07-04T12:53:27.603Z</time>
      </trkpt>
      <trkpt lat="49.03285" lon="-0.54519">
        <ele>186.23</ele>
        <time>2025-07-04T12:53:36.398Z</time>
      </trkpt>
      <trkpt lat="49.033" lon="-0.54477">
        <ele>185.43</ele>
        <time>2025-07-04T12:53:45.198Z</time>
      </trkpt>
      <trkpt lat="49.03302" lon="-0.54473">
        <ele>184.72</ele>
        <time>2025-07-04T12:53:53.999Z</time>
      </trkpt>
      <trkpt lat="49.03316" lon="-0.5443">
        <ele>183.94</ele>
        <time>2025-07-04T12:54:02.805Z</time>
      </trkpt>
      <trkpt lat="49.03326" lon="-0.54399">
        <ele>183.19</ele>
        <time>2025-07-04T12:54:11.614Z</time>
      </trkpt>
      <trkpt lat="49.03333" lon="-0.54365">
        <ele>182.46</ele>
        <time>2025-07-04T12:54:20.427Z</time>
      </trkpt>
      <trkpt lat="49.03339" lon="-0.54319">
        <ele>181.69</ele>
        <time>2025-07-04T12:54:29.245Z</time>
      </trkpt>
      <trkpt lat="49.0334" lon="-0.54297">
        <ele>180.96</ele>
        <time>2025-07-04T12:54:38.065Z</time>
      </trkpt>
      <trkpt lat="49.03346" lon="-0.5425">
        <ele>180.29</ele>
        <time>2025-07-04T12:54:46.890Z</time>
      </trkpt>
      <trkpt lat="49.03346" lon="-0.54248">
        <ele>179.59</ele>
        <time>2025-07-04T12:54:55.716Z</time>
      </trkpt>
      <trkpt lat="49.03354" lon="-0.54225">
        <ele>178.93</ele>
        <time>2025-07-04T12:55:04.544Z</time>
      </trkpt>
      <trkpt lat="49.03362" lon="-0.54214">
        <ele>178.24</ele>
        <time>2025-07-04T12:55:13.374Z</time>
      </trkpt>
      <trkpt lat="49.03376" lon="-0.54198">
        <ele>177.55</ele>
        <time>2025-07-04T12:55:22.207Z</time>
      </trkpt>
      <trkpt lat="49.03404" lon="-0.54175">
        <ele>176.86</ele>
        <time>2025-07-04T12:55:31.045Z</time>
      </trkpt>
      <trkpt lat="49.03413" lon="-0.54167">
        <ele>176.21</ele>
        <time>2025-07-04T12:55:39.885Z</time>
      </trkpt>
      <trkpt lat="49.03442" lon="-0.54148">
        <ele>175.52</ele>
        <time>2025-07-04T12:55:48.730Z</time>
      </trkpt>
      <trkpt lat="49.03457" lon="-0.54138">
        <ele>174.85</ele>
        <time>2025-07-04T12:55:57.577Z</time>
      </trkpt>
      <trkpt lat="49.03486" lon="-0.54119">
        <ele>174.14</ele>
        <time>2025-07-04T12:56:06.429Z</time>
      </trkpt>
      <trkpt lat="49.03511" lon="-0.54102">
        <ele>173.48</ele>
        <time>2025-07-04T12:56:15.286Z</time>
      </trkpt>
      <trkpt lat="49.0354" lon="-0.54083">
        <ele>172.82</ele>
        <time>2025-07-04T12:56:24.148Z</time>
      </trkpt>
      <trkpt lat="49.03569" lon="-0.54064">
        <ele>172.17</ele>
        <time>2025-07-04T12:56:33.015Z</time>
      </trkpt>
      <trkpt lat="49.03571" lon="-0.54063">
        <ele>171.55</ele>
        <time>2025-07-04T12:56:41.882Z</time>
      </trkpt>
      <trkpt lat="49.03594" lon="-0.54046">
        <ele>170.88</ele>
        <time>2025-07-04T12:56:50.753Z</time>
      </trkpt>
      <trkpt lat="49.03615" lon="-0.54025">
        <ele>170.23</ele>
        <time>2025-07-04T12:56:59.628Z</time>
      </trkpt>
      <trkpt lat="49.0363" lon="-0.54005">
        <ele>169.59</ele>
        <time>2025-07-04T12:57:08.507Z</time>
      </trkpt>
      <trkpt lat="49.0365" lon="-0.53968">
        <ele>168.98</ele>
        <time>2025-07-04T12:57:17.391Z</time>
      </trkpt>
      <trkpt lat="49.03652" lon="-0.53965">
        <ele>168.36</ele>
        <time>2025-07-04T12:57:26.275Z</time>
      </trkpt>
      <trkpt lat="49.03674" lon="-0.5393">
        <ele>167.74</ele>
        <time>2025-07-04T12:57:35.164Z</time>
      </trkpt>
      <trkpt lat="49.03684" lon="-0.53913">
        <ele>167.1</ele>
        <time>2025-07-04T12:57:44.056Z</time>
      </trkpt>
      <trkpt lat="49.03697" lon="-0.53895">
        <ele>166.4</ele>
        <time>2025-07-04T12:57:52.950Z</time>
      </trkpt>
      <trkpt lat="49.03723" lon="-0.53867">
        <ele>165.68</ele>
        <time>2025-07-04T12:58:01.849Z</time>
      </trkpt>
      <trkpt lat="49.03725" lon="-0.53865">
        <ele>164.98</ele>
        <time>2025-07-04T12:58:10.749Z</time>
      </trkpt>
      <trkpt lat="49.03751" lon="-0.53839">
        <ele>164.25</ele>
        <time>2025-07-04T12:58:19.654Z</time>
      </trkpt>
      <trkpt lat="49.03778" lon="-0.53813">
        <ele>163.51</ele>
        <time>2025-07-04T12:58:28.564Z</time>
      </trkpt>
      <trkpt lat="49.03784" lon="-0.53807">
        <ele>162.76</ele>
        <time>2025-07-04T12:58:37.475Z</time>
      </trkpt>
      <trkpt lat="49.03811" lon="-0.53781">
        <ele>161.99</ele>
        <time>2025-07-04T12:58:46.391Z</time>
      </trkpt>
      <trkpt lat="49.03837" lon="-0.53756">
        <ele>161.18</ele>
        <time>2025-07-04T12:58:55.312Z</time>
      </trkpt>
      <trkpt lat="49.0386" lon="-0.53734">
        <ele>160.35</ele>
        <time>2025-07-04T12:59:04.238Z</time>
      </trkpt>
      <trkpt lat="49.03887" lon="-0.53709">
        <ele>159.47</ele>
        <time>2025-07-04T12:59:13.169Z</time>
      </trkpt>
      <trkpt lat="49.03913" lon="-0.53683">
        <ele>158.54</ele>
        <time>2025-07-04T12:59:22.105Z</time>
      </trkpt>
      <trkpt lat="49.03918" lon="-0.53679">
        <ele>157.63</ele>
        <time>2025-07-04T12:59:31.041Z</time>
      </trkpt>
      <trkpt lat="49.03944" lon="-0.53652">
        <ele>156.7</ele>
        <time>2025-07-04T12:59:39.983Z</time>
      </trkpt>
      <trkpt lat="49.03966" lon="-0.53629">
        <ele>155.76</ele>
        <time>2025-07-04T12:59:48.929Z</time>
      </trkpt>
      <trkpt lat="49.03991" lon="-0.536">
        <ele>154.78</ele>
        <time>2025-07-04T12:59:57.880Z</time>
      </trkpt>
      <trkpt lat="49.03997" lon="-0.53593">
        <ele>153.78</ele>
        <time>2025-07-04T13:00:06.832Z</time>
      </trkpt>
      <trkpt lat="49.04012" lon="-0.53576">
        <ele>152.75</ele>
        <time>2025-07-04T13:00:15.787Z</time>
      </trkpt>
      <trkpt lat="49.04038" lon="-0.53548">
        <ele>151.69</ele>
        <time>2025-07-04T13:00:24.747Z</time>
      </trkpt>
      <trkpt lat="49.04051" lon="-0.53534">
        <ele>150.68</ele>
        <time>2025-07-04T13:00:33.710Z</time>
      </trkpt>
      <trkpt lat="49.04078" lon="-0.53509">
        <ele>149.63</ele>
        <time>2025-07-04T13:00:42.678Z</time>
      </trkpt>
      <trkpt lat="49.04104" lon="-0.53483">
        <ele>148.56</ele>
        <time>2025-07-04T13:00:51.651Z</time>
      </trkpt>
      <trkpt lat="49.04131" lon="-0.53458">
        <ele>147.47</ele>
        <time>2025-07-04T13:01:00.629Z</time>
      </trkpt>
      <trkpt lat="49.04156" lon="-0.53434">
        <ele>146.44</ele>
        <time>2025-07-04T13:01:09.612Z</time>
      </trkpt>
      <trkpt lat="49.04183" lon="-0.5341">
        <ele>145.47</ele>
        <time>2025-07-04T13:01:18.600Z</time>
      </trkpt>
      <trkpt lat="49.04203" lon="-0.53392">
        <ele>144.55</ele>
        <time>2025-07-04T13:01:27.591Z</time>
      </trkpt>
      <trkpt lat="49.0423" lon="-0.53367">
        <ele>143.58</ele>
        <time>2025-07-04T13:01:36.587Z</time>
      </trkpt>
      <trkpt lat="49.04235" lon="-0.53363">
        <ele>142.75</ele>
        <time>2025-07-04T13:01:45.584Z</time>
      </trkpt>
      <trkpt lat="49.04251" lon="-0.5335">
        <ele>141.92</ele>
        <time>2025-07-04T13:01:54.584Z</time>
      </trkpt>
      <trkpt lat="49.04266" lon="-0.5334">
        <ele>141.15</ele>
        <time>2025-07-04T13:02:03.587Z</time>
      </trkpt>
      <trkpt lat="49.04287" lon="-0.53334">
        <ele>140.4</ele>
        <time>2025-07-04T13:02:12.593Z</time>
      </trkpt>
      <trkpt lat="49.04314" lon="-0.53337">
        <ele>139.68</ele>
        <time>2025-07-04T13:02:21.604Z</time>
      </trkpt>
      <trkpt lat="49.04327" lon="-0.53342">
        <ele>139.15</ele>
        <time>2025-07-04T13:02:30.617Z</time>
      </trkpt>
      <trkpt lat="49.04344" lon="-0.53345">
        <ele>138.7</ele>
        <time>2025-07-04T13:02:39.632Z</time>
      </trkpt>
      <trkpt lat="49.04354" lon="-0.53341">
        <ele>138.32</ele>
        <time>2025-07-04T13:02:48.649Z</time>
      </trkpt>
      <trkpt lat="49.04363" lon="-0.53332">
        <ele>138.04</ele>
        <time>2025-07-04T13:02:57.668Z</time>
      </trkpt>
      <trkpt lat="49.04371" lon="-0.53316">
        <ele>137.85</ele>
        <time>2025-07-04T13:03:06.689Z</time>
      </trkpt>
      <trkpt lat="49.04382" lon="-0.53281">
        <ele>137.8</ele>
        <time>2025-07-04T13:03:15.714Z</time>
      </trkpt>
      <trkpt lat="49.04387" lon="-0.53267">
        <ele>137.83</ele>
        <time>2025-07-04T13:03:24.741Z</time>
      </trkpt>
      <trkpt lat="49.04394" lon="-0.53245">
        <ele>137.95</ele>
        <time>2025-07-04T13:03:33.770Z</time>
      </trkpt>
      <trkpt lat="49.04404" lon="-0.53223">
        <ele>138.21</ele>
        <time>2025-07-04T13:03:42.802Z</time>
      </trkpt>
      <trkpt lat="49.04426" lon="-0.53197">
        <ele>138.58</ele>
        <time>2025-07-04T13:03:51.839Z</time>
      </trkpt>
      <trkpt lat="49.04441" lon="-0.53185">
        <ele>138.93</ele>
        <time>2025-07-04T13:04:00.878Z</time>
      </trkpt>
      <trkpt lat="49.04461" lon="-0.53175">
        <ele>139.34</ele>
        <time>2025-07-04T13:04:09.921Z</time>
      </trkpt>
      <trkpt lat="49.04492" lon="-0.53173">
        <ele>139.85</ele>
        <time>2025-07-04T13:04:18.969Z</time>
      </trkpt>
      <trkpt lat="49.045" lon="-0.53173">
        <ele>140.35</ele>
        <time>2025-07-04T13:04:28.018Z</time>
      </trkpt>
      <trkpt lat="49.04516" lon="-0.53156">
        <ele>140.94</ele>
        <time>2025-07-04T13:04:37.070Z</time>
      </trkpt>
      <trkpt lat="49.04545" lon="-0.53136">
        <ele>141.52</ele>
        <time>2025-07-04T13:04:46.127Z</time>
      </trkpt>
      <trkpt lat="49.04571" lon="-0.53118">
        <ele>142.15</ele>
        <time>2025-07-04T13:04:55.189Z</time>
      </trkpt>
      <trkpt lat="49.0458" lon="-0.53109">
        <ele>142.84</ele>
        <time>2025-07-04T13:05:04.252Z</time>
      </trkpt>
      <trkpt lat="49.04588" lon="-0.53096">
        <ele>143.58</ele>
        <time>2025-07-04T13:05:13.317Z</time>
      </trkpt>
      <trkpt lat="49.04602" lon="-0.53062">
        <ele>144.35</ele>
        <time>2025-07-04T13:05:22.386Z</time>
      </trkpt>
      <trkpt lat="49.04613" lon="-0.5305">
        <ele>145.14</ele>
        <time>2025-07-04T13:05:31.458Z</time>
      </trkpt>
      <trkpt lat="49.04643" lon="-0.53036">
        <ele>145.96</ele>
        <time>2025-07-04T13:05:40.535Z</time>
      </trkpt>
      <trkpt lat="49.04646" lon="-0.53035">
        <ele>146.82</ele>
        <time>2025-07-04T13:05:49.612Z</time>
      </trkpt>
      <trkpt lat="49.04674" lon="-0.53013">
        <ele>147.72</ele>
        <time>2025-07-04T13:05:58.694Z</time>
      </trkpt>
      <trkpt lat="49.04686" lon="-0.53004">
        <ele>148.63</ele>
        <time>2025-07-04T13:06:07.778Z</time>
      </trkpt>
      <trkpt lat="49.04713" lon="-0.52979">
        <ele>149.58</ele>
        <time>2025-07-04T13:06:16.867Z</time>
      </trkpt>
      <trkpt lat="49.04722" lon="-0.5297">
        <ele>150.51</ele>
        <time>2025-07-04T13:06:25.958Z</time>
      </trkpt>
      <trkpt lat="49.04738" lon="-0.52948">
        <ele>151.49</ele>
        <time>2025-07-04T13:06:35.053Z</time>
      </trkpt>
      <trkpt lat="49.04758" lon="-0.52911">
        <ele>152.53</ele>
        <time>2025-07-04T13:06:44.153Z</time>
      </trkpt>
      <trkpt lat="49.0476" lon="-0.52908">
        <ele>153.48</ele>
        <time>2025-07-04T13:06:53.253Z</time>
      </trkpt>
      <trkpt lat="49.0477" lon="-0.52894">
        <ele>154.45</ele>
        <time>2025-07-04T13:07:02.355Z</time>
      </trkpt>
      <trkpt lat="49.04782" lon="-0.52884">
        <ele>155.4</ele>
        <time>2025-07-04T13:07:11.459Z</time>
      </trkpt>
      <trkpt lat="49.04809" lon="-0.52876">
        <ele>156.29</ele>
        <time>2025-07-04T13:07:20.568Z</time>
      </trkpt>
      <trkpt lat="49.0484" lon="-0.5287">
        <ele>157.19</ele>
        <time>2025-07-04T13:07:29.682Z</time>
      </trkpt>
      <trkpt lat="49.0485" lon="-0.52868">
        <ele>158.09</ele>
        <time>2025-07-04T13:07:38.797Z</time>
      </trkpt>
      <trkpt lat="49.04881" lon="-0.52859">
        <ele>159.06</ele>
        <time>2025-07-04T13:07:47.917Z</time>
      </trkpt>
      <trkpt lat="49.04903" lon="-0.52853">
        <ele>159.98</ele>
        <time>2025-07-04T13:07:57.041Z</time>
      </trkpt>
      <trkpt lat="49.04933" lon="-0.5284">
        <ele>160.93</ele>
        <time>2025-07-04T13:08:06.170Z</time>
      </trkpt>
      <trkpt lat="49.04955" lon="-0.5283">
        <ele>161.75</ele>
        <time>2025-07-04T13:08:15.303Z</time>
      </trkpt>
      <trkpt lat="49.04983" lon="-0.5281">
        <ele>162.58</ele>
        <time>2025-07-04T13:08:24.441Z</time>
      </trkpt>
      <trkpt lat="49.04987" lon="-0.52807">
        <ele>163.33</ele>
        <time>2025-07-04T13:08:33.579Z</time>
      </trkpt>
      <trkpt lat="49.05013" lon="-0.5278">
        <ele>164.15</ele>
        <time>2025-07-04T13:08:42.722Z</time>
      </trkpt>
      <trkpt lat="49.05032" lon="-0.52761">
        <ele>164.86</ele>
        <time>2025-07-04T13:08:51.869Z</time>
      </trkpt>
      <trkpt lat="49.05056" lon="-0.5273">
        <ele>165.5</ele>
        <time>2025-07-04T13:09:01.021Z</time>
      </trkpt>
      <trkpt lat="49.05065" lon="-0.52719">
        <ele>166.07</ele>
        <time>2025-07-04T13:09:10.175Z</time>
      </trkpt>
      <trkpt lat="49.05089" lon="-0.52687">
        <ele>166.6</ele>
        <time>2025-07-04T13:09:19.334Z</time>
      </trkpt>
      <trkpt lat="49.05112" lon="-0.52656">
        <ele>167.03</ele>
        <time>2025-07-04T13:09:28.498Z</time>
      </trkpt>
      <trkpt lat="49.05114" lon="-0.52653">
        <ele>167.42</ele>
        <time>2025-07-04T13:09:37.662Z</time>
      </trkpt>
      <trkpt lat="49.05135" lon="-0.52618">
        <ele>167.74</ele>
        <time>2025-07-04T13:09:46.831Z</time>
      </trkpt>
      <trkpt lat="49.05151" lon="-0.52578">
        <ele>168.03</ele>
        <time>2025-07-04T13:09:56.005Z</time>
      </trkpt>
      <trkpt lat="49.05159" lon="-0.52541">
        <ele>168.27</ele>
        <time>2025-07-04T13:10:05.183Z</time>
      </trkpt>
      <trkpt lat="49.05162" lon="-0.52493">
        <ele>168.43</ele>
        <time>2025-07-04T13:10:14.367Z</time>
      </trkpt>
      <trkpt lat="49.05163" lon="-0.52469">
        <ele>168.53</ele>
        <time>2025-07-04T13:10:23.553Z</time>
      </trkpt>
      <trkpt lat="49.05171" lon="-0.52429">
        <ele>168.54</ele>
        <time>2025-07-04T13:10:32.744Z</time>
      </trkpt>
      <trkpt lat="49.05202" lon="-0.5242">
        <ele>168.53</ele>
        <time>2025-07-04T13:10:41.940Z</time>
      </trkpt>
      <trkpt lat="49.05233" lon="-0.52411">
        <ele>168.47</ele>
        <time>2025-07-04T13:10:51.141Z</time>
      </trkpt>
      <trkpt lat="49.05236" lon="-0.5241">
        <ele>168.34</ele>
        <time>2025-07-04T13:11:00.342Z</time>
      </trkpt>
      <trkpt lat="49.05266" lon="-0.52397">
        <ele>168.13</ele>
        <time>2025-07-04T13:11:09.548Z</time>
      </trkpt>
      <trkpt lat="49.05297" lon="-0.52385">
        <ele>167.9</ele>
        <time>2025-07-04T13:11:18.759Z</time>
      </trkpt>
      <trkpt lat="49.05327" lon="-0.52372">
        <ele>167.62</ele>
        <time>2025-07-04T13:11:27.975Z</time>
      </trkpt>
      <trkpt lat="49.0533" lon="-0.52371">
        <ele>167.29</ele>
        <time>2025-07-04T13:11:37.192Z</time>
      </trkpt>
      <trkpt lat="49.05357" lon="-0.52347">
        <ele>166.9</ele>
        <time>2025-07-04T13:11:46.414Z</time>
      </trkpt>
      <trkpt lat="49.05385" lon="-0.52324">
        <ele>166.49</ele>
        <time>2025-07-04T13:11:55.641Z</time>
      </trkpt>
      <trkpt lat="49.05395" lon="-0.52315">
        <ele>166.04</ele>
        <time>2025-07-04T13:12:04.870Z</time>
      </trkpt>
      <trkpt lat="49.05422" lon="-0.52291">
        <ele>165.5</ele>
        <time>2025-07-04T13:12:14.104Z</time>
      </trkpt>
      <trkpt lat="49.05429" lon="-0.52285">
        <ele>164.96</ele>
        <time>2025-07-04T13:12:23.339Z</time>
      </trkpt>
      <trkpt lat="49.05457" lon="-0.52264">
        <ele>164.39</ele>
        <time>2025-07-04T13:12:32.579Z</time>
      </trkpt>
      <trkpt lat="49.05486" lon="-0.52244">
        <ele>163.76</ele>
        <time>2025-07-04T13:12:41.824Z</time>
      </trkpt>
      <trkpt lat="49.05514" lon="-0.52223">
        <ele>163.11</ele>
        <time>2025-07-04T13:12:51.074Z</time>
      </trkpt>
      <trkpt lat="49.05537" lon="-0.52207">
        <ele>162.46</ele>
        <time>2025-07-04T13:13:00.328Z</time>
      </trkpt>
      <trkpt lat="49.05566" lon="-0.52187">
        <ele>161.81</ele>
        <time>2025-07-04T13:13:09.587Z</time>
      </trkpt>
      <trkpt lat="49.05589" lon="-0.5217">
        <ele>161.12</ele>
        <time>2025-07-04T13:13:18.850Z</time>
      </trkpt>
      <trkpt lat="49.056" lon="-0.5216">
        <ele>160.42</ele>
        <time>2025-07-04T13:13:28.115Z</time>
      </trkpt>
      <trkpt lat="49.05626" lon="-0.52134">
        <ele>159.66</ele>
        <time>2025-07-04T13:13:37.385Z</time>
      </trkpt>
      <trkpt lat="49.05653" lon="-0.52108">
        <ele>158.95</ele>
        <time>2025-07-04T13:13:46.660Z</time>
      </trkpt>
      <trkpt lat="49.05661" lon="-0.521">
        <ele>158.21</ele>
        <time>2025-07-04T13:13:55.937Z</time>
      </trkpt>
      <trkpt lat="49.0569" lon="-0.52082">
        <ele>157.42</ele>
        <time>2025-07-04T13:14:05.219Z</time>
      </trkpt>
      <trkpt lat="49.05719" lon="-0.52063">
        <ele>156.62</ele>
        <time>2025-07-04T13:14:14.506Z</time>
      </trkpt>
      <trkpt lat="49.05738" lon="-0.52051">
        <ele>155.89</ele>
        <time>2025-07-04T13:14:23.796Z</time>
      </trkpt>
      <trkpt lat="49.05767" lon="-0.52032">
        <ele>155.15</ele>
        <time>2025-07-04T13:14:33.091Z</time>
      </trkpt>
      <trkpt lat="49.05796" lon="-0.52012">
        <ele>154.49</ele>
        <time>2025-07-04T13:14:42.391Z</time>
      </trkpt>
      <trkpt lat="49.05824" lon="-0.51993">
        <ele>153.83</ele>
        <time>2025-07-04T13:14:51.696Z</time>
      </trkpt>
      <trkpt lat="49.05853" lon="-0.51974">
        <ele>153.15</ele>
        <time>2025-07-04T13:15:01.006Z</time>
      </trkpt>
      <trkpt lat="49.05881" lon="-0.51953">
        <ele>152.43</ele>
        <time>2025-07-04T13:15:10.322Z</time>
      </trkpt>
      <trkpt lat="49.05883" lon="-0.51952">
        <ele>151.76</ele>
        <time>2025-07-04T13:15:19.638Z</time>
      </trkpt>
      <trkpt lat="49.0591" lon="-0.51928">
        <ele>151.02</ele>
        <time>2025-07-04T13:15:28.959Z</time>
      </trkpt>
      <trkpt lat="49.05932" lon="-0.51909">
        <ele>150.32</ele>
        <time>2025-07-04T13:15:38.284Z</time>
      </trkpt>
      <trkpt lat="49.05958" lon="-0.51881">
        <ele>149.63</ele>
        <time>2025-07-04T13:15:47.614Z</time>
      </trkpt>
      <trkpt lat="49.0598" lon="-0.51857">
        <ele>148.98</ele>
        <time>2025-07-04T13:15:56.948Z</time>
      </trkpt>
      <trkpt lat="49.06003" lon="-0.51825">
        <ele>148.42</ele>
        <time>2025-07-04T13:16:06.287Z</time>
      </trkpt>
      <trkpt lat="49.06027" lon="-0.51793">
        <ele>147.83</ele>
        <time>2025-07-04T13:16:15.631Z</time>
      </trkpt>
      <trkpt lat="49.06049" lon="-0.51763">
        <ele>147.21</ele>
        <time>2025-07-04T13:16:24.980Z</time>
      </trkpt>
      <trkpt lat="49.06072" lon="-0.5173">
        <ele>146.58</ele>
        <time>2025-07-04T13:16:34.334Z</time>
      </trkpt>
      <trkpt lat="49.06094" lon="-0.51697">
        <ele>146.01</ele>
        <time>2025-07-04T13:16:43.693Z</time>
      </trkpt>
      <trkpt lat="49.06108" lon="-0.51677">
        <ele>145.46</ele>
        <time>2025-07-04T13:16:53.055Z</time>
      </trkpt>
      <trkpt lat="49.06129" lon="-0.51652">
        <ele>144.93</ele>
        <time>2025-07-04T13:17:02.421Z</time>
      </trkpt>
      <trkpt lat="49.06137" lon="-0.51644">
        <ele>144.41</ele>
        <time>2025-07-04T13:17:11.789Z</time>
      </trkpt>
      <trkpt lat="49.06164" lon="-0.5162">
        <ele>143.9</ele>
        <time>2025-07-04T13:17:21.162Z</time>
      </trkpt>
      <trkpt lat="49.06187" lon="-0.516">
        <ele>143.39</ele>
        <time>2025-07-04T13:17:30.539Z</time>
      </trkpt>
      <trkpt lat="49.06215" lon="-0.51577">
        <ele>142.9</ele>
        <time>2025-07-04T13:17:39.921Z</time>
      </trkpt>
      <trkpt lat="49.06242" lon="-0.51554">
        <ele>142.38</ele>
        <time>2025-07-04T13:17:49.308Z</time>
      </trkpt>
      <trkpt lat="49.06247" lon="-0.5155">
        <ele>141.9</ele>
        <time>2025-07-04T13:17:58.696Z</time>
      </trkpt>
      <trkpt lat="49.06257" lon="-0.51537">
        <ele>141.41</ele>
        <time>2025-07-04T13:18:08.086Z</time>
      </trkpt>
      <trkpt lat="49.0628" lon="-0.51504">
        <ele>140.9</ele>
        <time>2025-07-04T13:18:17.481Z</time>
      </trkpt>
      <trkpt lat="49.06293" lon="-0.51486">
        <ele>140.43</ele>
        <time>2025-07-04T13:18:26.879Z</time>
      </trkpt>
      <trkpt lat="49.06315" lon="-0.51452">
        <ele>139.98</ele>
        <time>2025-07-04T13:18:36.282Z</time>
      </trkpt>
      <trkpt lat="49.06337" lon="-0.51417">
        <ele>139.52</ele>
        <time>2025-07-04T13:18:45.690Z</time>
      </trkpt>
      <trkpt lat="49.06355" lon="-0.51389">
        <ele>139.06</ele>
        <time>2025-07-04T13:18:55.102Z</time>
      </trkpt>
      <trkpt lat="49.06377" lon="-0.51355">
        <ele>138.53</ele>
        <time>2025-07-04T13:19:04.519Z</time>
      </trkpt>
      <trkpt lat="49.06399" lon="-0.5132">
        <ele>138.04</ele>
        <time>2025-07-04T13:19:13.942Z</time>
      </trkpt>
      <trkpt lat="49.06421" lon="-0.51286">
        <ele>137.55</ele>
        <time>2025-07-04T13:19:23.370Z</time>
      </trkpt>
      <trkpt lat="49.06443" lon="-0.51251">
        <ele>137.08</ele>
        <time>2025-07-04T13:19:32.803Z</time>
      </trkpt>
      <trkpt lat="49.06464" lon="-0.51217">
        <ele>136.62</ele>
        <time>2025-07-04T13:19:42.241Z</time>
      </trkpt>
      <trkpt lat="49.06474" lon="-0.51202">
        <ele>136.16</ele>
        <time>2025-07-04T13:19:51.681Z</time>
      </trkpt>
      <trkpt lat="49.06489" lon="-0.51183">
        <ele>135.69</ele>
        <time>2025-07-04T13:20:01.124Z</time>
      </trkpt>
      <trkpt lat="49.06514" lon="-0.51154">
        <ele>135.18</ele>
        <time>2025-07-04T13:20:10.572Z</time>
      </trkpt>
      <trkpt lat="49.06533" lon="-0.51131">
        <ele>134.66</ele>
        <time>2025-07-04T13:20:20.024Z</time>
      </trkpt>
      <trkpt lat="49.06547" lon="-0.51115">
        <ele>134.14</ele>
        <time>2025-07-04T13:20:29.479Z</time>
      </trkpt>
      <trkpt lat="49.0657" lon="-0.51082">
        <ele>133.65</ele>
        <time>2025-07-04T13:20:38.939Z</time>
      </trkpt>
      <trkpt lat="49.06583" lon="-0.51063">
        <ele>133.18</ele>
        <time>2025-07-04T13:20:48.402Z</time>
      </trkpt>
      <trkpt lat="49.06605" lon="-0.51028">
        <ele>132.74</ele>
        <time>2025-07-04T13:20:57.870Z</time>
      </trkpt>
      <trkpt lat="49.06627" lon="-0.50994">
        <ele>132.2</ele>
        <time>2025-07-04T13:21:07.343Z</time>
      </trkpt>
      <trkpt lat="49.06636" lon="-0.50979">
        <ele>131.66</ele>
        <time>2025-07-04T13:21:16.818Z</time>
      </trkpt>
      <trkpt lat="49.06656" lon="-0.50943">
        <ele>131.11</ele>
        <time>2025-07-04T13:21:26.298Z</time>
      </trkpt>
      <trkpt lat="49.06677" lon="-0.50906">
        <ele>130.58</ele>
        <time>2025-07-04T13:21:35.783Z</time>
      </trkpt>
      <trkpt lat="49.06682" lon="-0.50897">
        <ele>130.04</ele>
        <time>2025-07-04T13:21:45.269Z</time>
      </trkpt>
      <trkpt lat="49.067" lon="-0.50857">
        <ele>129.44</ele>
        <time>2025-07-04T13:21:54.760Z</time>
      </trkpt>
      <trkpt lat="49.06713" lon="-0.50828">
        <ele>128.85</ele>
        <time>2025-07-04T13:22:04.255Z</time>
      </trkpt>
      <trkpt lat="49.06732" lon="-0.5079">
        <ele>128.29</ele>
        <time>2025-07-04T13:22:13.755Z</time>
      </trkpt>
      <trkpt lat="49.06747" lon="-0.50759">
        <ele>127.8</ele>
        <time>2025-07-04T13:22:23.259Z</time>
      </trkpt>
      <trkpt lat="49.06766" lon="-0.50721">
        <ele>127.29</ele>
        <time>2025-07-04T13:22:32.768Z</time>
      </trkpt>
      <trkpt lat="49.06786" lon="-0.50684">
        <ele>126.73</ele>
        <time>2025-07-04T13:22:42.282Z</time>
      </trkpt>
      <trkpt lat="49.06805" lon="-0.50646">
        <ele>126.16</ele>
        <time>2025-07-04T13:22:51.801Z</time>
      </trkpt>
      <trkpt lat="49.06825" lon="-0.50608">
        <ele>125.63</ele>
        <time>2025-07-04T13:23:01.325Z</time>
      </trkpt>
      <trkpt lat="49.06826" lon="-0.50606">
        <ele>125.13</ele>
        <time>2025-07-04T13:23:10.850Z</time>
      </trkpt>
      <trkpt lat="49.06845" lon="-0.50568">
        <ele>124.64</ele>
        <time>2025-07-04T13:23:20.380Z</time>
      </trkpt>
      <trkpt lat="49.06865" lon="-0.50531">
        <ele>124.13</ele>
        <time>2025-07-04T13:23:29.915Z</time>
      </trkpt>
      <trkpt lat="49.06876" lon="-0.50509">
        <ele>123.64</ele>
        <time>2025-07-04T13:23:39.453Z</time>
      </trkpt>
      <trkpt lat="49.06895" lon="-0.50471">
        <ele>123.11</ele>
        <time>2025-07-04T13:23:48.996Z</time>
      </trkpt>
      <trkpt lat="49.06912" lon="-0.50438">
        <ele>122.6</ele>
        <time>2025-07-04T13:23:58.543Z</time>
      </trkpt>
      <trkpt lat="49.06932" lon="-0.50401">
        <ele>122.14</ele>
        <time>2025-07-04T13:24:08.095Z</time>
      </trkpt>
      <trkpt lat="49.06952" lon="-0.50364">
        <ele>121.73</ele>
        <time>2025-07-04T13:24:17.652Z</time>
      </trkpt>
      <trkpt lat="49.06953" lon="-0.50361">
        <ele>121.33</ele>
        <time>2025-07-04T13:24:27.209Z</time>
      </trkpt>
      <trkpt lat="49.06973" lon="-0.50324">
        <ele>120.98</ele>
        <time>2025-07-04T13:24:36.771Z</time>
      </trkpt>
      <trkpt lat="49.06993" lon="-0.50287">
        <ele>120.61</ele>
        <time>2025-07-04T13:24:46.339Z</time>
      </trkpt>
      <trkpt lat="49.07013" lon="-0.5025">
        <ele>120.23</ele>
        <time>2025-07-04T13:24:55.912Z</time>
      </trkpt>
      <trkpt lat="49.07026" lon="-0.50226">
        <ele>119.88</ele>
        <time>2025-07-04T13:25:05.488Z</time>
      </trkpt>
      <trkpt lat="49.07045" lon="-0.50188">
        <ele>119.59</ele>
        <time>2025-07-04T13:25:15.069Z</time>
      </trkpt>
      <trkpt lat="49.07059" lon="-0.50161">
        <ele>119.29</ele>
        <time>2025-07-04T13:25:24.653Z</time>
      </trkpt>
      <trkpt lat="49.07079" lon="-0.50124">
        <ele>118.95</ele>
        <time>2025-07-04T13:25:34.243Z</time>
      </trkpt>
      <trkpt lat="49.07093" lon="-0.50097">
        <ele>118.66</ele>
        <time>2025-07-04T13:25:43.836Z</time>
      </trkpt>
      <trkpt lat="49.07113" lon="-0.50059">
        <ele>118.43</ele>
        <time>2025-07-04T13:25:53.434Z</time>
      </trkpt>
      <trkpt lat="49.07129" lon="-0.50028">
        <ele>118.2</ele>
        <time>2025-07-04T13:26:03.036Z</time>
      </trkpt>
      <trkpt lat="49.07151" lon="-0.49994">
        <ele>118.02</ele>
        <time>2025-07-04T13:26:12.643Z</time>
      </trkpt>
      <trkpt lat="49.07174" lon="-0.4996">
        <ele>117.86</ele>
        <time>2025-07-04T13:26:22.255Z</time>
      </trkpt>
      <trkpt lat="49.07196" lon="-0.49926">
        <ele>117.7</ele>
        <time>2025-07-04T13:26:31.873Z</time>
      </trkpt>
      <trkpt lat="49.07202" lon="-0.49917">
        <ele>117.55</ele>
        <time>2025-07-04T13:26:41.492Z</time>
      </trkpt>
      <trkpt lat="49.07224" lon="-0.49882">
        <ele>117.41</ele>
        <time>2025-07-04T13:26:51.116Z</time>
      </trkpt>
      <trkpt lat="49.07245" lon="-0.49848">
        <ele>117.33</ele>
        <time>2025-07-04T13:27:00.745Z</time>
      </trkpt>
      <trkpt lat="49.07267" lon="-0.49813">
        <ele>117.17</ele>
        <time>2025-07-04T13:27:10.379Z</time>
      </trkpt>
      <trkpt lat="49.07282" lon="-0.49789">
        <ele>117.1</ele>
        <time>2025-07-04T13:27:20.017Z</time>
      </trkpt>
      <trkpt lat="49.07302" lon="-0.49752">
        <ele>117.08</ele>
        <time>2025-07-04T13:27:29.660Z</time>
      </trkpt>
      <trkpt lat="49.07303" lon="-0.4975">
        <ele>117.03</ele>
        <time>2025-07-04T13:27:39.303Z</time>
      </trkpt>
      <trkpt lat="49.07323" lon="-0.49713">
        <ele>117.04</ele>
        <time>2025-07-04T13:27:48.951Z</time>
      </trkpt>
      <trkpt lat="49.07332" lon="-0.49696">
        <ele>116.99</ele>
        <time>2025-07-04T13:27:58.601Z</time>
      </trkpt>
      <trkpt lat="49.07353" lon="-0.49664">
        <ele>116.89</ele>
        <time>2025-07-04T13:28:08.256Z</time>
      </trkpt>
      <trkpt lat="49.07377" lon="-0.49633">
        <ele>116.84</ele>
        <time>2025-07-04T13:28:17.916Z</time>
      </trkpt>
      <trkpt lat="49.07384" lon="-0.49623">
        <ele>116.83</ele>
        <time>2025-07-04T13:28:27.577Z</time>
      </trkpt>
      <trkpt lat="49.07404" lon="-0.49596">
        <ele>116.84</ele>
        <time>2025-07-04T13:28:37.243Z</time>
      </trkpt>
      <trkpt lat="49.0741" lon="-0.49584">
        <ele>116.85</ele>
        <time>2025-07-04T13:28:46.910Z</time>
      </trkpt>
      <trkpt lat="49.07413" lon="-0.49569">
        <ele>116.88</ele>
        <time>2025-07-04T13:28:56.579Z</time>
      </trkpt>
      <trkpt lat="49.07414" lon="-0.49561">
        <ele>116.91</ele>
        <time>2025-07-04T13:29:06.249Z</time>
      </trkpt>
      <trkpt lat="49.07412" lon="-0.49556">
        <ele>116.93</ele>
        <time>2025-07-04T13:29:15.919Z</time>
      </trkpt>
      <trkpt lat="49.07409" lon="-0.49543">
        <ele>116.95</ele>
        <time>2025-07-04T13:29:25.591Z</time>
      </trkpt>
      <trkpt lat="49.07411" lon="-0.49531">
        <ele>116.97</ele>
        <time>2025-07-04T13:29:35.264Z</time>
      </trkpt>
      <trkpt lat="49.07416" lon="-0.49521">
        <ele>117</ele>
        <time>2025-07-04T13:29:44.939Z</time>
      </trkpt>
      <trkpt lat="49.07424" lon="-0.49516">
        <ele>117.04</ele>
        <time>2025-07-04T13:29:54.615Z</time>
      </trkpt>
      <trkpt lat="49.07433" lon="-0.49518">
        <ele>117.1</ele>
        <time>2025-07-04T13:30:04.292Z</time>
      </trkpt>
      <trkpt lat="49.0744" lon="-0.49524">
        <ele>117.14</ele>
        <time>2025-07-04T13:30:13.971Z</time>
      </trkpt>
      <trkpt lat="49.07444" lon="-0.49535">
        <ele>117.16</ele>
        <time>2025-07-04T13:30:23.651Z</time>
      </trkpt>
      <trkpt lat="49.07455" lon="-0.49545">
        <ele>117.18</ele>
        <time>2025-07-04T13:30:33.333Z</time>
      </trkpt>
      <trkpt lat="49.07466" lon="-0.49549">
        <ele>117.2</ele>
        <time>2025-07-04T13:30:43.017Z</time>
      </trkpt>
      <trkpt lat="49.07479" lon="-0.49542">
        <ele>117.2</ele>
        <time>2025-07-04T13:30:52.703Z</time>
      </trkpt>
      <trkpt lat="49.07498" lon="-0.49522">
        <ele>117.19</ele>
        <time>2025-07-04T13:31:02.393Z</time>
      </trkpt>
      <trkpt lat="49.07516" lon="-0.49505">
        <ele>117.18</ele>
        <time>2025-07-04T13:31:12.086Z</time>
      </trkpt>
      <trkpt lat="49.07542" lon="-0.49484">
        <ele>117.23</ele>
        <time>2025-07-04T13:31:21.784Z</time>
      </trkpt>
      <trkpt lat="49.07544" lon="-0.49475">
        <ele>117.25</ele>
        <time>2025-07-04T13:31:31.483Z</time>
      </trkpt>
      <trkpt lat="49.07549" lon="-0.49474">
        <ele>117.25</ele>
        <time>2025-07-04T13:31:41.183Z</time>
      </trkpt>
      <trkpt lat="49.07552" lon="-0.49468">
        <ele>117.25</ele>
        <time>2025-07-04T13:31:50.883Z</time>
      </trkpt>
      <trkpt lat="49.07555" lon="-0.49463">
        <ele>117.25</ele>
        <time>2025-07-04T13:32:00.584Z</time>
      </trkpt>
      <trkpt lat="49.07569" lon="-0.49447">
        <ele>117.24</ele>
        <time>2025-07-04T13:32:10.288Z</time>
      </trkpt>
      <trkpt lat="49.07593" lon="-0.49417">
        <ele>117.24</ele>
        <time>2025-07-04T13:32:19.997Z</time>
      </trkpt>
      <trkpt lat="49.07603" lon="-0.49405">
        <ele>117.24</ele>
        <time>2025-07-04T13:32:29.708Z</time>
      </trkpt>
      <trkpt lat="49.07625" lon="-0.49371">
        <ele>117.24</ele>
        <time>2025-07-04T13:32:39.424Z</time>
      </trkpt>
      <trkpt lat="49.07648" lon="-0.49338">
        <ele>117.25</ele>
        <time>2025-07-04T13:32:49.145Z</time>
      </trkpt>
      <trkpt lat="49.0767" lon="-0.49305">
        <ele>117.25</ele>
        <time>2025-07-04T13:32:58.871Z</time>
      </trkpt>
      <trkpt lat="49.07693" lon="-0.49271">
        <ele>117.25</ele>
        <time>2025-07-04T13:33:08.602Z</time>
      </trkpt>
      <trkpt lat="49.07693" lon="-0.49271">
        <ele>117.26</ele>
        <time>2025-07-04T13:33:18.333Z</time>
      </trkpt>
      <trkpt lat="49.07714" lon="-0.49244">
        <ele>117.26</ele>
        <time>2025-07-04T13:33:28.069Z</time>
      </trkpt>
      <trkpt lat="49.0773" lon="-0.49226">
        <ele>117.27</ele>
        <time>2025-07-04T13:33:37.808Z</time>
      </trkpt>
      <trkpt lat="49.07754" lon="-0.49195">
        <ele>117.25</ele>
        <time>2025-07-04T13:33:47.552Z</time>
      </trkpt>
      <trkpt lat="49.07762" lon="-0.49185">
        <ele>117.25</ele>
        <time>2025-07-04T13:33:57.297Z</time>
      </trkpt>
      <trkpt lat="49.07769" lon="-0.49172">
        <ele>117.26</ele>
        <time>2025-07-04T13:34:07.044Z</time>
      </trkpt>
      <trkpt lat="49.07783" lon="-0.49149">
        <ele>117.3</ele>
        <time>2025-07-04T13:34:16.795Z</time>
      </trkpt>
      <trkpt lat="49.07801" lon="-0.49117">
        <ele>117.39</ele>
        <time>2025-07-04T13:34:26.550Z</time>
      </trkpt>
      <trkpt lat="49.07819" lon="-0.49078">
        <ele>117.43</ele>
        <time>2025-07-04T13:34:36.310Z</time>
      </trkpt>
      <trkpt lat="49.07821" lon="-0.49075">
        <ele>117.45</ele>
        <time>2025-07-04T13:34:46.070Z</time>
      </trkpt>
      <trkpt lat="49.07838" lon="-0.49035">
        <ele>117.47</ele>
        <time>2025-07-04T13:34:55.835Z</time>
      </trkpt>
      <trkpt lat="49.07848" lon="-0.4901">
        <ele>117.47</ele>
        <time>2025-07-04T13:35:05.604Z</time>
      </trkpt>
      <trkpt lat="49.07864" lon="-0.48968">
        <ele>117.51</ele>
        <time>2025-07-04T13:35:15.378Z</time>
      </trkpt>
      <trkpt lat="49.07879" lon="-0.48927">
        <ele>117.5</ele>
        <time>2025-07-04T13:35:25.157Z</time>
      </trkpt>
      <trkpt lat="49.0789" lon="-0.48899">
        <ele>117.53</ele>
        <time>2025-07-04T13:35:34.939Z</time>
      </trkpt>
      <trkpt lat="49.07907" lon="-0.48858">
        <ele>117.54</ele>
        <time>2025-07-04T13:35:44.726Z</time>
      </trkpt>
      <trkpt lat="49.07914" lon="-0.48841">
        <ele>117.54</ele>
        <time>2025-07-04T13:35:54.515Z</time>
      </trkpt>
      <trkpt lat="49.07932" lon="-0.48801">
        <ele>117.47</ele>
        <time>2025-07-04T13:36:04.309Z</time>
      </trkpt>
      <trkpt lat="49.07949" lon="-0.48762">
        <ele>117.46</ele>
        <time>2025-07-04T13:36:14.108Z</time>
      </trkpt>
      <trkpt lat="49.07967" lon="-0.48722">
        <ele>117.5</ele>
        <time>2025-07-04T13:36:23.912Z</time>
      </trkpt>
      <trkpt lat="49.07984" lon="-0.48682">
        <ele>117.56</ele>
        <time>2025-07-04T13:36:33.721Z</time>
      </trkpt>
      <trkpt lat="49.07998" lon="-0.48651">
        <ele>117.66</ele>
        <time>2025-07-04T13:36:43.534Z</time>
      </trkpt>
      <trkpt lat="49.08017" lon="-0.48612">
        <ele>117.77</ele>
        <time>2025-07-04T13:36:53.352Z</time>
      </trkpt>
      <trkpt lat="49.08035" lon="-0.48574">
        <ele>117.84</ele>
        <time>2025-07-04T13:37:03.175Z</time>
      </trkpt>
      <trkpt lat="49.08042" lon="-0.48559">
        <ele>117.9</ele>
        <time>2025-07-04T13:37:13.000Z</time>
      </trkpt>
      <trkpt lat="49.08058" lon="-0.48528">
        <ele>117.98</ele>
        <time>2025-07-04T13:37:22.829Z</time>
      </trkpt>
      <trkpt lat="49.08079" lon="-0.48492">
        <ele>118.04</ele>
        <time>2025-07-04T13:37:32.663Z</time>
      </trkpt>
      <trkpt lat="49.08086" lon="-0.48479">
        <ele>118.11</ele>
        <time>2025-07-04T13:37:42.499Z</time>
      </trkpt>
      <trkpt lat="49.08105" lon="-0.48451">
        <ele>118.2</ele>
        <time>2025-07-04T13:37:52.339Z</time>
      </trkpt>
      <trkpt lat="49.08129" lon="-0.4842">
        <ele>118.27</ele>
        <time>2025-07-04T13:38:02.185Z</time>
      </trkpt>
      <trkpt lat="49.08153" lon="-0.48389">
        <ele>118.37</ele>
        <time>2025-07-04T13:38:12.036Z</time>
      </trkpt>
      <trkpt lat="49.08163" lon="-0.48377">
        <ele>118.46</ele>
        <time>2025-07-04T13:38:21.889Z</time>
      </trkpt>
      <trkpt lat="49.08187" lon="-0.48346">
        <ele>118.57</ele>
        <time>2025-07-04T13:38:31.747Z</time>
      </trkpt>
      <trkpt lat="49.08193" lon="-0.48339">
        <ele>118.67</ele>
        <time>2025-07-04T13:38:41.606Z</time>
      </trkpt>
      <trkpt lat="49.08213" lon="-0.48303">
        <ele>118.78</ele>
        <time>2025-07-04T13:38:51.470Z</time>
      </trkpt>
      <trkpt lat="49.08232" lon="-0.48264">
        <ele>118.92</ele>
        <time>2025-07-04T13:39:01.339Z</time>
      </trkpt>
      <trkpt lat="49.08248" lon="-0.4823">
        <ele>119.04</ele>
        <time>2025-07-04T13:39:11.212Z</time>
      </trkpt>
      <trkpt lat="49.08271" lon="-0.48197">
        <ele>119.13</ele>
        <time>2025-07-04T13:39:21.090Z</time>
      </trkpt>
      <trkpt lat="49.08275" lon="-0.4819">
        <ele>119.22</ele>
        <time>2025-07-04T13:39:30.969Z</time>
      </trkpt>
      <trkpt lat="49.08292" lon="-0.48173">
        <ele>119.31</ele>
        <time>2025-07-04T13:39:40.852Z</time>
      </trkpt>
      <trkpt lat="49.08319" lon="-0.4815">
        <ele>119.4</ele>
        <time>2025-07-04T13:39:50.740Z</time>
      </trkpt>
      <trkpt lat="49.08338" lon="-0.48134">
        <ele>119.47</ele>
        <time>2025-07-04T13:40:00.631Z</time>
      </trkpt>
      <trkpt lat="49.08366" lon="-0.48112">
        <ele>119.53</ele>
        <time>2025-07-04T13:40:10.527Z</time>
      </trkpt>
      <trkpt lat="49.08369" lon="-0.48109">
        <ele>119.6</ele>
        <time>2025-07-04T13:40:20.424Z</time>
      </trkpt>
      <trkpt lat="49.08386" lon="-0.48096">
        <ele>119.67</ele>
        <time>2025-07-04T13:40:30.324Z</time>
      </trkpt>
      <trkpt lat="49.08408" lon="-0.48078">
        <ele>119.74</ele>
        <time>2025-07-04T13:40:40.228Z</time>
      </trkpt>
      <trkpt lat="49.08435" lon="-0.48053">
        <ele>119.8</ele>
        <time>2025-07-04T13:40:50.137Z</time>
      </trkpt>
      <trkpt lat="49.08462" lon="-0.48028">
        <ele>119.81</ele>
        <time>2025-07-04T13:41:00.051Z</time>
      </trkpt>
      <trkpt lat="49.08488" lon="-0.48002">
        <ele>119.71</ele>
        <time>2025-07-04T13:41:09.970Z</time>
      </trkpt>
      <trkpt lat="49.08493" lon="-0.47998">
        <ele>119.68</ele>
        <time>2025-07-04T13:41:19.890Z</time>
      </trkpt>
      <trkpt lat="49.08513" lon="-0.47978">
        <ele>119.63</ele>
        <time>2025-07-04T13:41:29.814Z</time>
      </trkpt>
      <trkpt lat="49.08538" lon="-0.4795">
        <ele>119.56</ele>
        <time>2025-07-04T13:41:39.743Z</time>
      </trkpt>
      <trkpt lat="49.08553" lon="-0.47933">
        <ele>119.45</ele>
        <time>2025-07-04T13:41:49.674Z</time>
      </trkpt>
      <trkpt lat="49.08577" lon="-0.47902">
        <ele>119.32</ele>
        <time>2025-07-04T13:41:59.611Z</time>
      </trkpt>
      <trkpt lat="49.08601" lon="-0.4787">
        <ele>119.19</ele>
        <time>2025-07-04T13:42:09.553Z</time>
      </trkpt>
      <trkpt lat="49.08617" lon="-0.47849">
        <ele>119.02</ele>
        <time>2025-07-04T13:42:19.498Z</time>
      </trkpt>
      <trkpt lat="49.08639" lon="-0.47814">
        <ele>118.84</ele>
        <time>2025-07-04T13:42:29.448Z</time>
      </trkpt>
      <trkpt lat="49.08646" lon="-0.47803">
        <ele>118.64</ele>
        <time>2025-07-04T13:42:39.400Z</time>
      </trkpt>
      <trkpt lat="49.08667" lon="-0.47768">
        <ele>118.41</ele>
        <time>2025-07-04T13:42:49.357Z</time>
      </trkpt>
      <trkpt lat="49.08688" lon="-0.47732">
        <ele>118.12</ele>
        <time>2025-07-04T13:42:59.319Z</time>
      </trkpt>
      <trkpt lat="49.0871" lon="-0.47697">
        <ele>117.8</ele>
        <time>2025-07-04T13:43:09.286Z</time>
      </trkpt>
      <trkpt lat="49.08731" lon="-0.47661">
        <ele>117.5</ele>
        <time>2025-07-04T13:43:19.258Z</time>
      </trkpt>
      <trkpt lat="49.08752" lon="-0.47626">
        <ele>117.11</ele>
        <time>2025-07-04T13:43:29.235Z</time>
      </trkpt>
      <trkpt lat="49.08773" lon="-0.47591">
        <ele>116.7</ele>
        <time>2025-07-04T13:43:39.217Z</time>
      </trkpt>
      <trkpt lat="49.08794" lon="-0.47555">
        <ele>116.29</ele>
        <time>2025-07-04T13:43:49.204Z</time>
      </trkpt>
      <trkpt lat="49.08816" lon="-0.4752">
        <ele>115.82</ele>
        <time>2025-07-04T13:43:59.196Z</time>
      </trkpt>
      <trkpt lat="49.08837" lon="-0.47484">
        <ele>115.32</ele>
        <time>2025-07-04T13:44:09.193Z</time>
      </trkpt>
      <trkpt lat="49.08852" lon="-0.47459">
        <ele>114.81</ele>
        <time>2025-07-04T13:44:19.194Z</time>
      </trkpt>
      <trkpt lat="49.08873" lon="-0.47423">
        <ele>114.26</ele>
        <time>2025-07-04T13:44:29.200Z</time>
      </trkpt>
      <trkpt lat="49.08894" lon="-0.47388">
        <ele>113.69</ele>
        <time>2025-07-04T13:44:39.211Z</time>
      </trkpt>
      <trkpt lat="49.08915" lon="-0.47352">
        <ele>113.13</ele>
        <time>2025-07-04T13:44:49.227Z</time>
      </trkpt>
      <trkpt lat="49.08936" lon="-0.47316">
        <ele>112.52</ele>
        <time>2025-07-04T13:44:59.248Z</time>
      </trkpt>
      <trkpt lat="49.08957" lon="-0.4728">
        <ele>111.88</ele>
        <time>2025-07-04T13:45:09.274Z</time>
      </trkpt>
      <trkpt lat="49.08978" lon="-0.47245">
        <ele>111.22</ele>
        <time>2025-07-04T13:45:19.305Z</time>
      </trkpt>
      <trkpt lat="49.08999" lon="-0.47209">
        <ele>110.49</ele>
        <time>2025-07-04T13:45:29.341Z</time>
      </trkpt>
      <trkpt lat="49.08999" lon="-0.47209">
        <ele>109.83</ele>
        <time>2025-07-04T13:45:39.377Z</time>
      </trkpt>
      <trkpt lat="49.09021" lon="-0.47175">
        <ele>109.08</ele>
        <time>2025-07-04T13:45:49.418Z</time>
      </trkpt>
      <trkpt lat="49.09043" lon="-0.47141">
        <ele>108.35</ele>
        <time>2025-07-04T13:45:59.464Z</time>
      </trkpt>
      <trkpt lat="49.09047" lon="-0.47135">
        <ele>107.65</ele>
        <time>2025-07-04T13:46:09.511Z</time>
      </trkpt>
      <trkpt lat="49.09073" lon="-0.47107">
        <ele>106.95</ele>
        <time>2025-07-04T13:46:19.563Z</time>
      </trkpt>
      <trkpt lat="49.09098" lon="-0.47079">
        <ele>106.2</ele>
        <time>2025-07-04T13:46:29.620Z</time>
      </trkpt>
      <trkpt lat="49.0912" lon="-0.47056">
        <ele>105.44</ele>
        <time>2025-07-04T13:46:39.681Z</time>
      </trkpt>
      <trkpt lat="49.09145" lon="-0.4703">
        <ele>104.69</ele>
        <time>2025-07-04T13:46:49.747Z</time>
      </trkpt>
      <trkpt lat="49.0917" lon="-0.47">
        <ele>103.93</ele>
        <time>2025-07-04T13:46:59.818Z</time>
      </trkpt>
      <trkpt lat="49.09195" lon="-0.46971">
        <ele>103.16</ele>
        <time>2025-07-04T13:47:09.894Z</time>
      </trkpt>
      <trkpt lat="49.09208" lon="-0.46955">
        <ele>102.38</ele>
        <time>2025-07-04T13:47:19.973Z</time>
      </trkpt>
      <trkpt lat="49.09232" lon="-0.46924">
        <ele>101.59</ele>
        <time>2025-07-04T13:47:30.057Z</time>
      </trkpt>
      <trkpt lat="49.09256" lon="-0.46893">
        <ele>100.82</ele>
        <time>2025-07-04T13:47:40.146Z</time>
      </trkpt>
      <trkpt lat="49.0928" lon="-0.46862">
        <ele>100.04</ele>
        <time>2025-07-04T13:47:50.240Z</time>
      </trkpt>
      <trkpt lat="49.09302" lon="-0.46834">
        <ele>99.27</ele>
        <time>2025-07-04T13:48:00.339Z</time>
      </trkpt>
      <trkpt lat="49.09307" lon="-0.46825">
        <ele>98.52</ele>
        <time>2025-07-04T13:48:10.439Z</time>
      </trkpt>
      <trkpt lat="49.09331" lon="-0.46794">
        <ele>97.75</ele>
        <time>2025-07-04T13:48:20.544Z</time>
      </trkpt>
      <trkpt lat="49.0934" lon="-0.46782">
        <ele>97</ele>
        <time>2025-07-04T13:48:30.651Z</time>
      </trkpt>
      <trkpt lat="49.09364" lon="-0.46751">
        <ele>96.25</ele>
        <time>2025-07-04T13:48:40.763Z</time>
      </trkpt>
      <trkpt lat="49.09387" lon="-0.46719">
        <ele>95.47</ele>
        <time>2025-07-04T13:48:50.880Z</time>
      </trkpt>
      <trkpt lat="49.09411" lon="-0.46688">
        <ele>94.63</ele>
        <time>2025-07-04T13:49:01.002Z</time>
      </trkpt>
      <trkpt lat="49.09435" lon="-0.46656">
        <ele>93.8</ele>
        <time>2025-07-04T13:49:11.129Z</time>
      </trkpt>
      <trkpt lat="49.09441" lon="-0.46648">
        <ele>93.02</ele>
        <time>2025-07-04T13:49:21.257Z</time>
      </trkpt>
      <trkpt lat="49.09461" lon="-0.46623">
        <ele>92.24</ele>
        <time>2025-07-04T13:49:31.389Z</time>
      </trkpt>
      <trkpt lat="49.09484" lon="-0.4659">
        <ele>91.4</ele>
        <time>2025-07-04T13:49:41.526Z</time>
      </trkpt>
      <trkpt lat="49.09507" lon="-0.46558">
        <ele>90.57</ele>
        <time>2025-07-04T13:49:51.669Z</time>
      </trkpt>
      <trkpt lat="49.09519" lon="-0.46541">
        <ele>89.75</ele>
        <time>2025-07-04T13:50:01.814Z</time>
      </trkpt>
      <trkpt lat="49.09543" lon="-0.46509">
        <ele>88.9</ele>
        <time>2025-07-04T13:50:11.964Z</time>
      </trkpt>
      <trkpt lat="49.09566" lon="-0.46478">
        <ele>87.98</ele>
        <time>2025-07-04T13:50:22.119Z</time>
      </trkpt>
      <trkpt lat="49.09586" lon="-0.46452">
        <ele>87.11</ele>
        <time>2025-07-04T13:50:32.278Z</time>
      </trkpt>
      <trkpt lat="49.09611" lon="-0.46422">
        <ele>86.22</ele>
        <time>2025-07-04T13:50:42.442Z</time>
      </trkpt>
      <trkpt lat="49.09635" lon="-0.46392">
        <ele>85.31</ele>
        <time>2025-07-04T13:50:52.611Z</time>
      </trkpt>
      <trkpt lat="49.0966" lon="-0.46362">
        <ele>84.31</ele>
        <time>2025-07-04T13:51:02.785Z</time>
      </trkpt>
      <trkpt lat="49.09684" lon="-0.46332">
        <ele>83.3</ele>
        <time>2025-07-04T13:51:12.965Z</time>
      </trkpt>
      <trkpt lat="49.09709" lon="-0.46302">
        <ele>82.34</ele>
        <time>2025-07-04T13:51:23.150Z</time>
      </trkpt>
      <trkpt lat="49.09716" lon="-0.46293">
        <ele>81.36</ele>
        <time>2025-07-04T13:51:33.336Z</time>
      </trkpt>
      <trkpt lat="49.09741" lon="-0.46263">
        <ele>80.37</ele>
        <time>2025-07-04T13:51:43.527Z</time>
      </trkpt>
      <trkpt lat="49.09765" lon="-0.46234">
        <ele>79.35</ele>
        <time>2025-07-04T13:51:53.723Z</time>
      </trkpt>
      <trkpt lat="49.09767" lon="-0.46232">
        <ele>78.31</ele>
        <time>2025-07-04T13:52:03.919Z</time>
      </trkpt>
      <trkpt lat="49.09778" lon="-0.46214">
        <ele>77.21</ele>
        <time>2025-07-04T13:52:14.118Z</time>
      </trkpt>
      <trkpt lat="49.09803" lon="-0.46185">
        <ele>76.04</ele>
        <time>2025-07-04T13:52:24.322Z</time>
      </trkpt>
      <trkpt lat="49.09806" lon="-0.46181">
        <ele>74.95</ele>
        <time>2025-07-04T13:52:34.527Z</time>
      </trkpt>
      <trkpt lat="49.0983" lon="-0.4615">
        <ele>73.79</ele>
        <time>2025-07-04T13:52:44.737Z</time>
      </trkpt>
      <trkpt lat="49.09854" lon="-0.46118">
        <ele>72.65</ele>
        <time>2025-07-04T13:52:54.952Z</time>
      </trkpt>
      <trkpt lat="49.09865" lon="-0.46103">
        <ele>71.51</ele>
        <time>2025-07-04T13:53:05.169Z</time>
      </trkpt>
      <trkpt lat="49.09887" lon="-0.46069">
        <ele>70.36</ele>
        <time>2025-07-04T13:53:15.391Z</time>
      </trkpt>
      <trkpt lat="49.09896" lon="-0.46055">
        <ele>69.24</ele>
        <time>2025-07-04T13:53:25.615Z</time>
      </trkpt>
      <trkpt lat="49.09915" lon="-0.46031">
        <ele>68.08</ele>
        <time>2025-07-04T13:53:35.843Z</time>
      </trkpt>
      <trkpt lat="49.09925" lon="-0.46022">
        <ele>66.93</ele>
        <time>2025-07-04T13:53:46.073Z</time>
      </trkpt>
      <trkpt lat="49.09949" lon="-0.45991">
        <ele>65.74</ele>
        <time>2025-07-04T13:53:56.308Z</time>
      </trkpt>
      <trkpt lat="49.09973" lon="-0.4596">
        <ele>64.61</ele>
        <time>2025-07-04T13:54:06.548Z</time>
      </trkpt>
      <trkpt lat="49.09998" lon="-0.4593">
        <ele>63.48</ele>
        <time>2025-07-04T13:54:16.793Z</time>
      </trkpt>
      <trkpt lat="49.10022" lon="-0.459">
        <ele>62.33</ele>
        <time>2025-07-04T13:54:27.043Z</time>
      </trkpt>
      <trkpt lat="49.10025" lon="-0.45897">
        <ele>61.32</ele>
        <time>2025-07-04T13:54:37.294Z</time>
      </trkpt>
      <trkpt lat="49.10051" lon="-0.45869">
        <ele>60.27</ele>
        <time>2025-07-04T13:54:47.550Z</time>
      </trkpt>
      <trkpt lat="49.10055" lon="-0.45865">
        <ele>59.34</ele>
        <time>2025-07-04T13:54:57.807Z</time>
      </trkpt>
      <trkpt lat="49.1008" lon="-0.45836">
        <ele>58.42</ele>
        <time>2025-07-04T13:55:08.069Z</time>
      </trkpt>
      <trkpt lat="49.10098" lon="-0.45816">
        <ele>57.63</ele>
        <time>2025-07-04T13:55:18.334Z</time>
      </trkpt>
      <trkpt lat="49.10123" lon="-0.45787">
        <ele>56.86</ele>
        <time>2025-07-04T13:55:28.604Z</time>
      </trkpt>
      <trkpt lat="49.10141" lon="-0.45765">
        <ele>56.1</ele>
        <time>2025-07-04T13:55:38.878Z</time>
      </trkpt>
      <trkpt lat="49.1016" lon="-0.4574">
        <ele>55.38</ele>
        <time>2025-07-04T13:55:49.156Z</time>
      </trkpt>
      <trkpt lat="49.10184" lon="-0.45709">
        <ele>54.66</ele>
        <time>2025-07-04T13:55:59.439Z</time>
      </trkpt>
      <trkpt lat="49.10208" lon="-0.45678">
        <ele>54.07</ele>
        <time>2025-07-04T13:56:09.727Z</time>
      </trkpt>
      <trkpt lat="49.10232" lon="-0.45647">
        <ele>53.57</ele>
        <time>2025-07-04T13:56:20.020Z</time>
      </trkpt>
      <trkpt lat="49.10237" lon="-0.45641">
        <ele>53.28</ele>
        <time>2025-07-04T13:56:30.314Z</time>
      </trkpt>
      <trkpt lat="49.10261" lon="-0.45611">
        <ele>53.06</ele>
        <time>2025-07-04T13:56:40.613Z</time>
      </trkpt>
      <trkpt lat="49.10279" lon="-0.45589">
        <ele>53.03</ele>
        <time>2025-07-04T13:56:50.916Z</time>
      </trkpt>
      <trkpt lat="49.10305" lon="-0.45562">
        <ele>53.04</ele>
        <time>2025-07-04T13:57:01.224Z</time>
      </trkpt>
      <trkpt lat="49.10324" lon="-0.45548">
        <ele>53.13</ele>
        <time>2025-07-04T13:57:11.535Z</time>
      </trkpt>
      <trkpt lat="49.10347" lon="-0.45538">
        <ele>53.38</ele>
        <time>2025-07-04T13:57:21.850Z</time>
      </trkpt>
      <trkpt lat="49.10378" lon="-0.45531">
        <ele>53.74</ele>
        <time>2025-07-04T13:57:32.170Z</time>
      </trkpt>
      <trkpt lat="49.10409" lon="-0.45524">
        <ele>54.27</ele>
        <time>2025-07-04T13:57:42.495Z</time>
      </trkpt>
      <trkpt lat="49.1044" lon="-0.45518">
        <ele>54.8</ele>
        <time>2025-07-04T13:57:52.825Z</time>
      </trkpt>
      <trkpt lat="49.10453" lon="-0.45515">
        <ele>55.34</ele>
        <time>2025-07-04T13:58:03.157Z</time>
      </trkpt>
      <trkpt lat="49.10484" lon="-0.45509">
        <ele>55.96</ele>
        <time>2025-07-04T13:58:13.494Z</time>
      </trkpt>
      <trkpt lat="49.10515" lon="-0.45502">
        <ele>56.66</ele>
        <time>2025-07-04T13:58:23.836Z</time>
      </trkpt>
      <trkpt lat="49.10547" lon="-0.45496">
        <ele>57.41</ele>
        <time>2025-07-04T13:58:34.183Z</time>
      </trkpt>
      <trkpt lat="49.10557" lon="-0.45494">
        <ele>58.13</ele>
        <time>2025-07-04T13:58:44.532Z</time>
      </trkpt>
      <trkpt lat="49.10572" lon="-0.45488">
        <ele>58.87</ele>
        <time>2025-07-04T13:58:54.884Z</time>
      </trkpt>
      <trkpt lat="49.10575" lon="-0.45487">
        <ele>59.63</ele>
        <time>2025-07-04T13:59:05.236Z</time>
      </trkpt>
      <trkpt lat="49.10606" lon="-0.45475">
        <ele>60.43</ele>
        <time>2025-07-04T13:59:15.593Z</time>
      </trkpt>
      <trkpt lat="49.10627" lon="-0.45467">
        <ele>61.24</ele>
        <time>2025-07-04T13:59:25.954Z</time>
      </trkpt>
      <trkpt lat="49.10656" lon="-0.45448">
        <ele>62.09</ele>
        <time>2025-07-04T13:59:36.320Z</time>
      </trkpt>
      <trkpt lat="49.10674" lon="-0.45436">
        <ele>62.89</ele>
        <time>2025-07-04T13:59:46.689Z</time>
      </trkpt>
      <trkpt lat="49.10702" lon="-0.45413">
        <ele>63.71</ele>
        <time>2025-07-04T13:59:57.063Z</time>
      </trkpt>
      <trkpt lat="49.10729" lon="-0.4539">
        <ele>64.5</ele>
        <time>2025-07-04T14:00:07.442Z</time>
      </trkpt>
      <trkpt lat="49.10736" lon="-0.45385">
        <ele>65.21</ele>
        <time>2025-07-04T14:00:17.822Z</time>
      </trkpt>
      <trkpt lat="49.10764" lon="-0.45363">
        <ele>65.87</ele>
        <time>2025-07-04T14:00:28.207Z</time>
      </trkpt>
      <trkpt lat="49.10792" lon="-0.45341">
        <ele>66.51</ele>
        <time>2025-07-04T14:00:38.597Z</time>
      </trkpt>
      <trkpt lat="49.10799" lon="-0.45335">
        <ele>67.12</ele>
        <time>2025-07-04T14:00:48.988Z</time>
      </trkpt>
      <trkpt lat="49.10828" lon="-0.45317">
        <ele>67.74</ele>
        <time>2025-07-04T14:00:59.384Z</time>
      </trkpt>
      <trkpt lat="49.10844" lon="-0.45307">
        <ele>68.29</ele>
        <time>2025-07-04T14:01:09.783Z</time>
      </trkpt>
      <trkpt lat="49.10875" lon="-0.45296">
        <ele>68.78</ele>
        <time>2025-07-04T14:01:20.187Z</time>
      </trkpt>
      <trkpt lat="49.10887" lon="-0.45291">
        <ele>69.22</ele>
        <time>2025-07-04T14:01:30.593Z</time>
      </trkpt>
      <trkpt lat="49.10895" lon="-0.45245">
        <ele>69.6</ele>
        <time>2025-07-04T14:01:41.004Z</time>
      </trkpt>
      <trkpt lat="49.10896" lon="-0.45241">
        <ele>69.93</ele>
        <time>2025-07-04T14:01:51.416Z</time>
      </trkpt>
      <trkpt lat="49.10902" lon="-0.45201">
        <ele>70.16</ele>
        <time>2025-07-04T14:02:01.832Z</time>
      </trkpt>
      <trkpt lat="49.10908" lon="-0.45154">
        <ele>70.39</ele>
        <time>2025-07-04T14:02:12.253Z</time>
      </trkpt>
      <trkpt lat="49.10913" lon="-0.45107">
        <ele>70.59</ele>
        <time>2025-07-04T14:02:22.679Z</time>
      </trkpt>
      <trkpt lat="49.10919" lon="-0.45059">
        <ele>70.75</ele>
        <time>2025-07-04T14:02:33.110Z</time>
      </trkpt>
      <trkpt lat="49.10921" lon="-0.4504">
        <ele>70.85</ele>
        <time>2025-07-04T14:02:43.543Z</time>
      </trkpt>
      <trkpt lat="49.10926" lon="-0.44993">
        <ele>70.87</ele>
        <time>2025-07-04T14:02:53.981Z</time>
      </trkpt>
      <trkpt lat="49.1093" lon="-0.44961">
        <ele>70.87</ele>
        <time>2025-07-04T14:03:04.423Z</time>
      </trkpt>
      <trkpt lat="49.10935" lon="-0.44914">
        <ele>70.81</ele>
        <time>2025-07-04T14:03:14.870Z</time>
      </trkpt>
      <trkpt lat="49.10936" lon="-0.449">
        <ele>70.77</ele>
        <time>2025-07-04T14:03:25.318Z</time>
      </trkpt>
      <trkpt lat="49.10937" lon="-0.44852">
        <ele>70.7</ele>
        <time>2025-07-04T14:03:35.771Z</time>
      </trkpt>
      <trkpt lat="49.10938" lon="-0.44821">
        <ele>70.56</ele>
        <time>2025-07-04T14:03:46.228Z</time>
      </trkpt>
      <trkpt lat="49.10935" lon="-0.44773">
        <ele>70.37</ele>
        <time>2025-07-04T14:03:56.690Z</time>
      </trkpt>
      <trkpt lat="49.10932" lon="-0.44726">
        <ele>70.19</ele>
        <time>2025-07-04T14:04:07.157Z</time>
      </trkpt>
      <trkpt lat="49.1093" lon="-0.44686">
        <ele>69.98</ele>
        <time>2025-07-04T14:04:17.628Z</time>
      </trkpt>
      <trkpt lat="49.10928" lon="-0.44638">
        <ele>69.7</ele>
        <time>2025-07-04T14:04:28.104Z</time>
      </trkpt>
      <trkpt lat="49.10925" lon="-0.4459">
        <ele>69.42</ele>
        <time>2025-07-04T14:04:38.585Z</time>
      </trkpt>
      <trkpt lat="49.10923" lon="-0.44543">
        <ele>69.1</ele>
        <time>2025-07-04T14:04:49.071Z</time>
      </trkpt>
      <trkpt lat="49.10922" lon="-0.44528">
        <ele>68.83</ele>
        <time>2025-07-04T14:04:59.558Z</time>
      </trkpt>
      <trkpt lat="49.10921" lon="-0.4448">
        <ele>68.56</ele>
        <time>2025-07-04T14:05:10.050Z</time>
      </trkpt>
      <trkpt lat="49.1092" lon="-0.44432">
        <ele>68.31</ele>
        <time>2025-07-04T14:05:20.548Z</time>
      </trkpt>
      <trkpt lat="49.10919" lon="-0.44384">
        <ele>67.99</ele>
        <time>2025-07-04T14:05:31.051Z</time>
      </trkpt>
      <trkpt lat="49.10918" lon="-0.44336">
        <ele>67.68</ele>
        <time>2025-07-04T14:05:41.559Z</time>
      </trkpt>
      <trkpt lat="49.10918" lon="-0.44322">
        <ele>67.37</ele>
        <time>2025-07-04T14:05:52.068Z</time>
      </trkpt>
      <trkpt lat="49.10916" lon="-0.44274">
        <ele>67.09</ele>
        <time>2025-07-04T14:06:02.582Z</time>
      </trkpt>
      <trkpt lat="49.10914" lon="-0.44226">
        <ele>66.79</ele>
        <time>2025-07-04T14:06:13.101Z</time>
      </trkpt>
      <trkpt lat="49.10913" lon="-0.44178">
        <ele>66.44</ele>
        <time>2025-07-04T14:06:23.625Z</time>
      </trkpt>
      <trkpt lat="49.10911" lon="-0.44131">
        <ele>66.13</ele>
        <time>2025-07-04T14:06:34.154Z</time>
      </trkpt>
      <trkpt lat="49.1091" lon="-0.44109">
        <ele>65.86</ele>
        <time>2025-07-04T14:06:44.686Z</time>
      </trkpt>
      <trkpt lat="49.10906" lon="-0.44061">
        <ele>65.6</ele>
        <time>2025-07-04T14:06:55.223Z</time>
      </trkpt>
      <trkpt lat="49.10905" lon="-0.44045">
        <ele>65.3</ele>
        <time>2025-07-04T14:07:05.761Z</time>
      </trkpt>
      <trkpt lat="49.10904" lon="-0.43997">
        <ele>64.99</ele>
        <time>2025-07-04T14:07:16.304Z</time>
      </trkpt>
      <trkpt lat="49.10903" lon="-0.4398">
        <ele>64.72</ele>
        <time>2025-07-04T14:07:26.849Z</time>
      </trkpt>
      <trkpt lat="49.10902" lon="-0.43932">
        <ele>64.42</ele>
        <time>2025-07-04T14:07:37.399Z</time>
      </trkpt>
      <trkpt lat="49.109" lon="-0.43884">
        <ele>64.16</ele>
        <time>2025-07-04T14:07:47.954Z</time>
      </trkpt>
      <trkpt lat="49.109" lon="-0.4388">
        <ele>63.92</ele>
        <time>2025-07-04T14:07:58.510Z</time>
      </trkpt>
      <trkpt lat="49.10898" lon="-0.43832">
        <ele>63.72</ele>
        <time>2025-07-04T14:08:09.071Z</time>
      </trkpt>
      <trkpt lat="49.10895" lon="-0.43784">
        <ele>63.48</ele>
        <time>2025-07-04T14:08:19.637Z</time>
      </trkpt>
      <trkpt lat="49.10893" lon="-0.43739">
        <ele>63.24</ele>
        <time>2025-07-04T14:08:30.208Z</time>
      </trkpt>
      <trkpt lat="49.10882" lon="-0.43694">
        <ele>63.09</ele>
        <time>2025-07-04T14:08:40.784Z</time>
      </trkpt>
      <trkpt lat="49.10871" lon="-0.43649">
        <ele>62.92</ele>
        <time>2025-07-04T14:08:51.365Z</time>
      </trkpt>
      <trkpt lat="49.10866" lon="-0.43631">
        <ele>62.77</ele>
        <time>2025-07-04T14:09:01.948Z</time>
      </trkpt>
      <trkpt lat="49.10857" lon="-0.43585">
        <ele>62.6</ele>
        <time>2025-07-04T14:09:12.536Z</time>
      </trkpt>
      <trkpt lat="49.10856" lon="-0.43582">
        <ele>62.5</ele>
        <time>2025-07-04T14:09:23.124Z</time>
      </trkpt>
      <trkpt lat="49.10855" lon="-0.43534">
        <ele>62.43</ele>
        <time>2025-07-04T14:09:33.717Z</time>
      </trkpt>
      <trkpt lat="49.10855" lon="-0.43497">
        <ele>62.38</ele>
        <time>2025-07-04T14:09:44.314Z</time>
      </trkpt>
      <trkpt lat="49.10852" lon="-0.43486">
        <ele>62.34</ele>
        <time>2025-07-04T14:09:54.912Z</time>
      </trkpt>
      <trkpt lat="49.10843" lon="-0.43453">
        <ele>62.29</ele>
        <time>2025-07-04T14:10:05.514Z</time>
      </trkpt>
      <trkpt lat="49.10851" lon="-0.43445">
        <ele>62.3</ele>
        <time>2025-07-04T14:10:16.118Z</time>
      </trkpt>
      <trkpt lat="49.10871" lon="-0.43418">
        <ele>62.37</ele>
        <time>2025-07-04T14:10:26.726Z</time>
      </trkpt>
      <trkpt lat="49.10892" lon="-0.43383">
        <ele>62.46</ele>
        <time>2025-07-04T14:10:37.339Z</time>
      </trkpt>
      <trkpt lat="49.10901" lon="-0.43368">
        <ele>62.53</ele>
        <time>2025-07-04T14:10:47.954Z</time>
      </trkpt>
      <trkpt lat="49.1091" lon="-0.43346">
        <ele>62.65</ele>
        <time>2025-07-04T14:10:58.572Z</time>
      </trkpt>
      <trkpt lat="49.10916" lon="-0.43329">
        <ele>62.79</ele>
        <time>2025-07-04T14:11:09.192Z</time>
      </trkpt>
      <trkpt lat="49.10926" lon="-0.43289">
        <ele>62.94</ele>
        <time>2025-07-04T14:11:19.816Z</time>
      </trkpt>
      <trkpt lat="49.10934" lon="-0.4325">
        <ele>63.13</ele>
        <time>2025-07-04T14:11:30.445Z</time>
      </trkpt>
      <trkpt lat="49.10945" lon="-0.43212">
        <ele>63.31</ele>
        <time>2025-07-04T14:11:41.078Z</time>
      </trkpt>
      <trkpt lat="49.10964" lon="-0.43174">
        <ele>63.51</ele>
        <time>2025-07-04T14:11:51.716Z</time>
      </trkpt>
      <trkpt lat="49.10967" lon="-0.43169">
        <ele>63.69</ele>
        <time>2025-07-04T14:12:02.355Z</time>
      </trkpt>
      <trkpt lat="49.10989" lon="-0.43134">
        <ele>63.86</ele>
        <time>2025-07-04T14:12:12.999Z</time>
      </trkpt>
      <trkpt lat="49.10997" lon="-0.43121">
        <ele>64.06</ele>
        <time>2025-07-04T14:12:23.645Z</time>
      </trkpt>
      <trkpt lat="49.11008" lon="-0.43107">
        <ele>64.26</ele>
        <time>2025-07-04T14:12:34.293Z</time>
      </trkpt>
      <trkpt lat="49.11025" lon="-0.43089">
        <ele>64.46</ele>
        <time>2025-07-04T14:12:44.944Z</time>
      </trkpt>
      <trkpt lat="49.11038" lon="-0.43079">
        <ele>64.66</ele>
        <time>2025-07-04T14:12:55.598Z</time>
      </trkpt>
      <trkpt lat="49.11068" lon="-0.43063">
        <ele>64.86</ele>
        <time>2025-07-04T14:13:06.257Z</time>
      </trkpt>
      <trkpt lat="49.11084" lon="-0.43055">
        <ele>65.06</ele>
        <time>2025-07-04T14:13:16.918Z</time>
      </trkpt>
      <trkpt lat="49.11092" lon="-0.43048">
        <ele>65.23</ele>
        <time>2025-07-04T14:13:27.581Z</time>
      </trkpt>
      <trkpt lat="49.111" lon="-0.43038">
        <ele>65.4</ele>
        <time>2025-07-04T14:13:38.245Z</time>
      </trkpt>
      <trkpt lat="49.11108" lon="-0.43023">
        <ele>65.53</ele>
        <time>2025-07-04T14:13:48.911Z</time>
      </trkpt>
      <trkpt lat="49.11115" lon="-0.42999">
        <ele>65.61</ele>
        <time>2025-07-04T14:13:59.580Z</time>
      </trkpt>
      <trkpt lat="49.11119" lon="-0.42954">
        <ele>65.65</ele>
        <time>2025-07-04T14:14:10.254Z</time>
      </trkpt>
      <trkpt lat="49.11122" lon="-0.42906">
        <ele>65.68</ele>
        <time>2025-07-04T14:14:20.933Z</time>
      </trkpt>
      <trkpt lat="49.11126" lon="-0.42859">
        <ele>65.78</ele>
        <time>2025-07-04T14:14:31.617Z</time>
      </trkpt>
      <trkpt lat="49.11129" lon="-0.42811">
        <ele>65.82</ele>
        <time>2025-07-04T14:14:42.306Z</time>
      </trkpt>
      <trkpt lat="49.11133" lon="-0.42763">
        <ele>65.83</ele>
        <time>2025-07-04T14:14:53.000Z</time>
      </trkpt>
      <trkpt lat="49.11135" lon="-0.42736">
        <ele>65.79</ele>
        <time>2025-07-04T14:15:03.697Z</time>
      </trkpt>
      <trkpt lat="49.11139" lon="-0.42695">
        <ele>65.76</ele>
        <time>2025-07-04T14:15:14.398Z</time>
      </trkpt>
      <trkpt lat="49.11147" lon="-0.42648">
        <ele>65.73</ele>
        <time>2025-07-04T14:15:25.104Z</time>
      </trkpt>
      <trkpt lat="49.11154" lon="-0.42602">
        <ele>65.73</ele>
        <time>2025-07-04T14:15:35.816Z</time>
      </trkpt>
      <trkpt lat="49.11162" lon="-0.42556">
        <ele>65.67</ele>
        <time>2025-07-04T14:15:46.533Z</time>
      </trkpt>
      <trkpt lat="49.11169" lon="-0.42509">
        <ele>65.6</ele>
        <time>2025-07-04T14:15:57.255Z</time>
      </trkpt>
      <trkpt lat="49.11171" lon="-0.425">
        <ele>65.51</ele>
        <time>2025-07-04T14:16:07.978Z</time>
      </trkpt>
      <trkpt lat="49.11179" lon="-0.42454">
        <ele>65.38</ele>
        <time>2025-07-04T14:16:18.706Z</time>
      </trkpt>
      <trkpt lat="49.11187" lon="-0.42407">
        <ele>65.23</ele>
        <time>2025-07-04T14:16:29.439Z</time>
      </trkpt>
      <trkpt lat="49.11195" lon="-0.42364">
        <ele>65.05</ele>
        <time>2025-07-04T14:16:40.176Z</time>
      </trkpt>
      <trkpt lat="49.11202" lon="-0.42317">
        <ele>64.82</ele>
        <time>2025-07-04T14:16:50.918Z</time>
      </trkpt>
      <trkpt lat="49.1121" lon="-0.42271">
        <ele>64.59</ele>
        <time>2025-07-04T14:17:01.665Z</time>
      </trkpt>
      <trkpt lat="49.11217" lon="-0.42224">
        <ele>64.44</ele>
        <time>2025-07-04T14:17:12.417Z</time>
      </trkpt>
      <trkpt lat="49.11224" lon="-0.42177">
        <ele>64.31</ele>
        <time>2025-07-04T14:17:23.175Z</time>
      </trkpt>
      <trkpt lat="49.11231" lon="-0.42131">
        <ele>64.1</ele>
        <time>2025-07-04T14:17:33.938Z</time>
      </trkpt>
      <trkpt lat="49.11233" lon="-0.42121">
        <ele>63.86</ele>
        <time>2025-07-04T14:17:44.702Z</time>
      </trkpt>
      <trkpt lat="49.1124" lon="-0.42074">
        <ele>63.65</ele>
        <time>2025-07-04T14:17:55.471Z</time>
      </trkpt>
      <trkpt lat="49.11246" lon="-0.42027">
        <ele>63.41</ele>
        <time>2025-07-04T14:18:06.245Z</time>
      </trkpt>
      <trkpt lat="49.11253" lon="-0.4198">
        <ele>63.19</ele>
        <time>2025-07-04T14:18:17.024Z</time>
      </trkpt>
      <trkpt lat="49.1126" lon="-0.41934">
        <ele>62.85</ele>
        <time>2025-07-04T14:18:27.808Z</time>
      </trkpt>
      <trkpt lat="49.11264" lon="-0.41902">
        <ele>62.49</ele>
        <time>2025-07-04T14:18:38.595Z</time>
      </trkpt>
      <trkpt lat="49.11269" lon="-0.41855">
        <ele>62.14</ele>
        <time>2025-07-04T14:18:49.387Z</time>
      </trkpt>
      <trkpt lat="49.11275" lon="-0.41808">
        <ele>61.87</ele>
        <time>2025-07-04T14:19:00.184Z</time>
      </trkpt>
      <trkpt lat="49.11279" lon="-0.41771">
        <ele>61.59</ele>
        <time>2025-07-04T14:19:10.985Z</time>
      </trkpt>
      <trkpt lat="49.11284" lon="-0.41724">
        <ele>61.26</ele>
        <time>2025-07-04T14:19:21.791Z</time>
      </trkpt>
      <trkpt lat="49.11289" lon="-0.41676">
        <ele>60.9</ele>
        <time>2025-07-04T14:19:32.602Z</time>
      </trkpt>
      <trkpt lat="49.11294" lon="-0.41629">
        <ele>60.6</ele>
        <time>2025-07-04T14:19:43.418Z</time>
      </trkpt>
      <trkpt lat="49.11299" lon="-0.41582">
        <ele>60.3</ele>
        <time>2025-07-04T14:19:54.239Z</time>
      </trkpt>
      <trkpt lat="49.11304" lon="-0.41534">
        <ele>59.96</ele>
        <time>2025-07-04T14:20:05.065Z</time>
      </trkpt>
      <trkpt lat="49.11307" lon="-0.4151">
        <ele>59.65</ele>
        <time>2025-07-04T14:20:15.894Z</time>
      </trkpt>
      <trkpt lat="49.11312" lon="-0.41463">
        <ele>59.36</ele>
        <time>2025-07-04T14:20:26.728Z</time>
      </trkpt>
      <trkpt lat="49.11317" lon="-0.41415">
        <ele>59.13</ele>
        <time>2025-07-04T14:20:37.567Z</time>
      </trkpt>
      <trkpt lat="49.11322" lon="-0.41368">
        <ele>58.86</ele>
        <time>2025-07-04T14:20:48.411Z</time>
      </trkpt>
      <trkpt lat="49.11326" lon="-0.41328">
        <ele>58.63</ele>
        <time>2025-07-04T14:20:59.259Z</time>
      </trkpt>
      <trkpt lat="49.11327" lon="-0.41301">
        <ele>58.39</ele>
        <time>2025-07-04T14:21:10.110Z</time>
      </trkpt>
      <trkpt lat="49.11328" lon="-0.41253">
        <ele>58.24</ele>
        <time>2025-07-04T14:21:20.966Z</time>
      </trkpt>
      <trkpt lat="49.11328" lon="-0.41236">
        <ele>58.08</ele>
        <time>2025-07-04T14:21:31.824Z</time>
      </trkpt>
      <trkpt lat="49.11323" lon="-0.41189">
        <ele>57.95</ele>
        <time>2025-07-04T14:21:42.687Z</time>
      </trkpt>
      <trkpt lat="49.11318" lon="-0.41141">
        <ele>57.83</ele>
        <time>2025-07-04T14:21:53.555Z</time>
      </trkpt>
      <trkpt lat="49.11315" lon="-0.41109">
        <ele>57.72</ele>
        <time>2025-07-04T14:22:04.427Z</time>
      </trkpt>
      <trkpt lat="49.11306" lon="-0.41066">
        <ele>57.54</ele>
        <time>2025-07-04T14:22:15.303Z</time>
      </trkpt>
      <trkpt lat="49.11298" lon="-0.41031">
        <ele>57.41</ele>
        <time>2025-07-04T14:22:26.183Z</time>
      </trkpt>
      <trkpt lat="49.11286" lon="-0.40987">
        <ele>57.38</ele>
        <time>2025-07-04T14:22:37.068Z</time>
      </trkpt>
      <trkpt lat="49.11281" lon="-0.40969">
        <ele>57.39</ele>
        <time>2025-07-04T14:22:47.955Z</time>
      </trkpt>
      <trkpt lat="49.11273" lon="-0.40932">
        <ele>57.46</ele>
        <time>2025-07-04T14:22:58.846Z</time>
      </trkpt>
      <trkpt lat="49.1127" lon="-0.4091">
        <ele>57.5</ele>
        <time>2025-07-04T14:23:09.740Z</time>
      </trkpt>
      <trkpt lat="49.11265" lon="-0.40863">
        <ele>57.49</ele>
        <time>2025-07-04T14:23:20.639Z</time>
      </trkpt>
      <trkpt lat="49.11261" lon="-0.40815">
        <ele>57.57</ele>
        <time>2025-07-04T14:23:31.543Z</time>
      </trkpt>
      <trkpt lat="49.11256" lon="-0.40768">
        <ele>57.71</ele>
        <time>2025-07-04T14:23:42.452Z</time>
      </trkpt>
      <trkpt lat="49.11255" lon="-0.40753">
        <ele>57.83</ele>
        <time>2025-07-04T14:23:53.362Z</time>
      </trkpt>
      <trkpt lat="49.11251" lon="-0.40705">
        <ele>57.91</ele>
        <time>2025-07-04T14:24:04.277Z</time>
      </trkpt>
      <trkpt lat="49.11247" lon="-0.40658">
        <ele>58.01</ele>
        <time>2025-07-04T14:24:15.197Z</time>
      </trkpt>
      <trkpt lat="49.11246" lon="-0.40645">
        <ele>58.19</ele>
        <time>2025-07-04T14:24:26.119Z</time>
      </trkpt>
      <trkpt lat="49.11241" lon="-0.40599">
        <ele>58.37</ele>
        <time>2025-07-04T14:24:37.046Z</time>
      </trkpt>
      <trkpt lat="49.11244" lon="-0.40585">
        <ele>58.54</ele>
        <time>2025-07-04T14:24:47.974Z</time>
      </trkpt>
      <trkpt lat="49.11252" lon="-0.40571">
        <ele>58.71</ele>
        <time>2025-07-04T14:24:58.904Z</time>
      </trkpt>
      <trkpt lat="49.11278" lon="-0.40543">
        <ele>58.86</ele>
        <time>2025-07-04T14:25:09.839Z</time>
      </trkpt>
      <trkpt lat="49.11303" lon="-0.40515">
        <ele>59.03</ele>
        <time>2025-07-04T14:25:20.779Z</time>
      </trkpt>
      <trkpt lat="49.11306" lon="-0.40512">
        <ele>59.22</ele>
        <time>2025-07-04T14:25:31.720Z</time>
      </trkpt>
      <trkpt lat="49.11329" lon="-0.40479">
        <ele>59.39</ele>
        <time>2025-07-04T14:25:42.666Z</time>
      </trkpt>
      <trkpt lat="49.1133" lon="-0.40478">
        <ele>59.57</ele>
        <time>2025-07-04T14:25:53.612Z</time>
      </trkpt>
      <trkpt lat="49.11344" lon="-0.40451">
        <ele>59.75</ele>
        <time>2025-07-04T14:26:04.562Z</time>
      </trkpt>
      <trkpt lat="49.11357" lon="-0.40419">
        <ele>59.91</ele>
        <time>2025-07-04T14:26:15.516Z</time>
      </trkpt>
      <trkpt lat="49.11369" lon="-0.40381">
        <ele>60.1</ele>
        <time>2025-07-04T14:26:26.474Z</time>
      </trkpt>
      <trkpt lat="49.11375" lon="-0.40343">
        <ele>60.25</ele>
        <time>2025-07-04T14:26:37.436Z</time>
      </trkpt>
      <trkpt lat="49.11378" lon="-0.40295">
        <ele>60.34</ele>
        <time>2025-07-04T14:26:48.403Z</time>
      </trkpt>
      <trkpt lat="49.11378" lon="-0.40292">
        <ele>60.4</ele>
        <time>2025-07-04T14:26:59.371Z</time>
      </trkpt>
      <trkpt lat="49.11376" lon="-0.4029">
        <ele>60.43</ele>
        <time>2025-07-04T14:27:10.339Z</time>
      </trkpt>
      <trkpt lat="49.11372" lon="-0.40283">
        <ele>60.41</ele>
        <time>2025-07-04T14:27:21.308Z</time>
      </trkpt>
      <trkpt lat="49.11371" lon="-0.40275">
        <ele>60.35</ele>
        <time>2025-07-04T14:27:32.278Z</time>
      </trkpt>
      <trkpt lat="49.11372" lon="-0.40266">
        <ele>60.24</ele>
        <time>2025-07-04T14:27:43.249Z</time>
      </trkpt>
      <trkpt lat="49.11376" lon="-0.40258">
        <ele>60.08</ele>
        <time>2025-07-04T14:27:54.221Z</time>
      </trkpt>
      <trkpt lat="49.11377" lon="-0.40257">
        <ele>59.86</ele>
        <time>2025-07-04T14:28:05.193Z</time>
      </trkpt>
      <trkpt lat="49.11373" lon="-0.40229">
        <ele>59.62</ele>
        <time>2025-07-04T14:28:16.168Z</time>
      </trkpt>
      <trkpt lat="49.11366" lon="-0.40182">
        <ele>59.29</ele>
        <time>2025-07-04T14:28:27.148Z</time>
      </trkpt>
      <trkpt lat="49.11365" lon="-0.40176">
        <ele>58.88</ele>
        <time>2025-07-04T14:28:38.129Z</time>
      </trkpt>
      <trkpt lat="49.11366" lon="-0.40138">
        <ele>58.38</ele>
        <time>2025-07-04T14:28:49.114Z</time>
      </trkpt>
      <trkpt lat="49.11376" lon="-0.40102">
        <ele>57.81</ele>
        <time>2025-07-04T14:29:00.103Z</time>
      </trkpt>
      <trkpt lat="49.11384" lon="-0.40084">
        <ele>57.19</ele>
        <time>2025-07-04T14:29:11.094Z</time>
      </trkpt>
      <trkpt lat="49.11399" lon="-0.40059">
        <ele>56.52</ele>
        <time>2025-07-04T14:29:22.089Z</time>
      </trkpt>
      <trkpt lat="49.1141" lon="-0.40045">
        <ele>55.77</ele>
        <time>2025-07-04T14:29:33.086Z</time>
      </trkpt>
      <trkpt lat="49.11429" lon="-0.4003">
        <ele>54.94</ele>
        <time>2025-07-04T14:29:44.086Z</time>
      </trkpt>
      <trkpt lat="49.11459" lon="-0.40015">
        <ele>53.98</ele>
        <time>2025-07-04T14:29:55.091Z</time>
      </trkpt>
      <trkpt lat="49.11485" lon="-0.40001">
        <ele>52.91</ele>
        <time>2025-07-04T14:30:06.101Z</time>
      </trkpt>
      <trkpt lat="49.11506" lon="-0.39986">
        <ele>51.73</ele>
        <time>2025-07-04T14:30:17.115Z</time>
      </trkpt>
      <trkpt lat="49.11519" lon="-0.39972">
        <ele>50.51</ele>
        <time>2025-07-04T14:30:28.131Z</time>
      </trkpt>
      <trkpt lat="49.11544" lon="-0.39943">
        <ele>49.22</ele>
        <time>2025-07-04T14:30:39.152Z</time>
      </trkpt>
      <trkpt lat="49.11569" lon="-0.39914">
        <ele>47.9</ele>
        <time>2025-07-04T14:30:50.178Z</time>
      </trkpt>
      <trkpt lat="49.11594" lon="-0.39885">
        <ele>46.54</ele>
        <time>2025-07-04T14:31:01.209Z</time>
      </trkpt>
      <trkpt lat="49.11619" lon="-0.39856">
        <ele>45.04</ele>
        <time>2025-07-04T14:31:12.245Z</time>
      </trkpt>
      <trkpt lat="49.11644" lon="-0.39827">
        <ele>43.51</ele>
        <time>2025-07-04T14:31:23.286Z</time>
      </trkpt>
      <trkpt lat="49.1167" lon="-0.39798">
        <ele>41.93</ele>
        <time>2025-07-04T14:31:34.332Z</time>
      </trkpt>
      <trkpt lat="49.11695" lon="-0.3977">
        <ele>40.31</ele>
        <time>2025-07-04T14:31:45.383Z</time>
      </trkpt>
      <trkpt lat="49.1172" lon="-0.39741">
        <ele>38.68</ele>
        <time>2025-07-04T14:31:56.439Z</time>
      </trkpt>
      <trkpt lat="49.11745" lon="-0.39712">
        <ele>37.07</ele>
        <time>2025-07-04T14:32:07.501Z</time>
      </trkpt>
      <trkpt lat="49.11755" lon="-0.397">
        <ele>35.48</ele>
        <time>2025-07-04T14:32:18.565Z</time>
      </trkpt>
      <trkpt lat="49.11779" lon="-0.39669">
        <ele>33.86</ele>
        <time>2025-07-04T14:32:29.634Z</time>
      </trkpt>
      <trkpt lat="49.11782" lon="-0.39665">
        <ele>32.29</ele>
        <time>2025-07-04T14:32:40.703Z</time>
      </trkpt>
      <trkpt lat="49.118" lon="-0.39627">
        <ele>30.62</ele>
        <time>2025-07-04T14:32:51.777Z</time>
      </trkpt>
      <trkpt lat="49.11815" lon="-0.39584">
        <ele>29</ele>
        <time>2025-07-04T14:33:02.856Z</time>
      </trkpt>
      <trkpt lat="49.11815" lon="-0.39583">
        <ele>27.46</ele>
        <time>2025-07-04T14:33:13.935Z</time>
      </trkpt>
      <trkpt lat="49.11825" lon="-0.39538">
        <ele>25.89</ele>
        <time>2025-07-04T14:33:25.019Z</time>
      </trkpt>
      <trkpt lat="49.11833" lon="-0.39502">
        <ele>24.37</ele>
        <time>2025-07-04T14:33:36.107Z</time>
      </trkpt>
      <trkpt lat="49.11837" lon="-0.39471">
        <ele>22.86</ele>
        <time>2025-07-04T14:33:47.199Z</time>
      </trkpt>
      <trkpt lat="49.11838" lon="-0.39452">
        <ele>21.4</ele>
        <time>2025-07-04T14:33:58.293Z</time>
      </trkpt>
      <trkpt lat="49.11836" lon="-0.39437">
        <ele>19.99</ele>
        <time>2025-07-04T14:34:09.388Z</time>
      </trkpt>
      <trkpt lat="49.11829" lon="-0.39412">
        <ele>18.62</ele>
        <time>2025-07-04T14:34:20.486Z</time>
      </trkpt>
      <trkpt lat="49.11811" lon="-0.39372">
        <ele>17.29</ele>
        <time>2025-07-04T14:34:31.589Z</time>
      </trkpt>
      <trkpt lat="49.118" lon="-0.39347">
        <ele>16</ele>
        <time>2025-07-04T14:34:42.695Z</time>
      </trkpt>
      <trkpt lat="49.11797" lon="-0.39337">
        <ele>14.75</ele>
        <time>2025-07-04T14:34:53.803Z</time>
      </trkpt>
      <trkpt lat="49.11797" lon="-0.39325">
        <ele>13.54</ele>
        <time>2025-07-04T14:35:04.912Z</time>
      </trkpt>
      <trkpt lat="49.11799" lon="-0.39315">
        <ele>12.39</ele>
        <time>2025-07-04T14:35:16.022Z</time>
      </trkpt>
      <trkpt lat="49.11811" lon="-0.39293">
        <ele>11.25</ele>
        <time>2025-07-04T14:35:27.135Z</time>
      </trkpt>
      <trkpt lat="49.11824" lon="-0.39272">
        <ele>10.14</ele>
        <time>2025-07-04T14:35:38.251Z</time>
      </trkpt>
      <trkpt lat="49.11827" lon="-0.39258">
        <ele>9.12</ele>
        <time>2025-07-04T14:35:49.369Z</time>
      </trkpt>
      <trkpt lat="49.11825" lon="-0.39245">
        <ele>8.19</ele>
        <time>2025-07-04T14:36:00.488Z</time>
      </trkpt>
      <trkpt lat="49.11819" lon="-0.39234">
        <ele>7.32</ele>
        <time>2025-07-04T14:36:11.608Z</time>
      </trkpt>
      <trkpt lat="49.11792" lon="-0.3921">
        <ele>6.54</ele>
        <time>2025-07-04T14:36:22.733Z</time>
      </trkpt>
      <trkpt lat="49.11765" lon="-0.39186">
        <ele>5.8</ele>
        <time>2025-07-04T14:36:33.864Z</time>
      </trkpt>
      <trkpt lat="49.11741" lon="-0.39165">
        <ele>5.11</ele>
        <time>2025-07-04T14:36:44.999Z</time>
      </trkpt>
      <trkpt lat="49.11715" lon="-0.39138">
        <ele>4.5</ele>
        <time>2025-07-04T14:36:56.139Z</time>
      </trkpt>
      <trkpt lat="49.11689" lon="-0.39112">
        <ele>4</ele>
        <time>2025-07-04T14:37:07.284Z</time>
      </trkpt>
      <trkpt lat="49.11663" lon="-0.39085">
        <ele>3.59</ele>
        <time>2025-07-04T14:37:18.434Z</time>
      </trkpt>
      <trkpt lat="49.11636" lon="-0.39058">
        <ele>3.26</ele>
        <time>2025-07-04T14:37:29.589Z</time>
      </trkpt>
      <trkpt lat="49.11635" lon="-0.39057">
        <ele>2.99</ele>
        <time>2025-07-04T14:37:40.744Z</time>
      </trkpt>
      <trkpt lat="49.11609" lon="-0.3903">
        <ele>2.73</ele>
        <time>2025-07-04T14:37:51.904Z</time>
      </trkpt>
      <trkpt lat="49.11583" lon="-0.39003">
        <ele>2.57</ele>
        <time>2025-07-04T14:38:03.069Z</time>
      </trkpt>
      <trkpt lat="49.11579" lon="-0.38999">
        <ele>2.53</ele>
        <time>2025-07-04T14:38:14.235Z</time>
      </trkpt>
      <trkpt lat="49.11554" lon="-0.38971">
        <ele>2.59</ele>
        <time>2025-07-04T14:38:25.406Z</time>
      </trkpt>
      <trkpt lat="49.11545" lon="-0.38961">
        <ele>2.71</ele>
        <time>2025-07-04T14:38:36.579Z</time>
      </trkpt>
      <trkpt lat="49.11532" lon="-0.38938">
        <ele>2.91</ele>
        <time>2025-07-04T14:38:47.755Z</time>
      </trkpt>
      <trkpt lat="49.11527" lon="-0.38923">
        <ele>3.17</ele>
        <time>2025-07-04T14:38:58.933Z</time>
      </trkpt>
      <trkpt lat="49.11524" lon="-0.389">
        <ele>3.51</ele>
        <time>2025-07-04T14:39:10.113Z</time>
      </trkpt>
      <trkpt lat="49.11524" lon="-0.3888">
        <ele>3.92</ele>
        <time>2025-07-04T14:39:21.295Z</time>
      </trkpt>
      <trkpt lat="49.11532" lon="-0.38842">
        <ele>4.36</ele>
        <time>2025-07-04T14:39:32.482Z</time>
      </trkpt>
      <trkpt lat="49.11538" lon="-0.38817">
        <ele>4.87</ele>
        <time>2025-07-04T14:39:43.671Z</time>
      </trkpt>
      <trkpt lat="49.11546" lon="-0.38783">
        <ele>5.45</ele>
        <time>2025-07-04T14:39:54.864Z</time>
      </trkpt>
      <trkpt lat="49.11557" lon="-0.38738">
        <ele>6.06</ele>
        <time>2025-07-04T14:40:06.062Z</time>
      </trkpt>
      <trkpt lat="49.1156" lon="-0.38724">
        <ele>6.74</ele>
        <time>2025-07-04T14:40:17.262Z</time>
      </trkpt>
      <trkpt lat="49.11571" lon="-0.38693">
        <ele>7.49</ele>
        <time>2025-07-04T14:40:28.466Z</time>
      </trkpt>
      <trkpt lat="49.11589" lon="-0.3866">
        <ele>8.29</ele>
        <time>2025-07-04T14:40:39.674Z</time>
      </trkpt>
      <trkpt lat="49.1161" lon="-0.38625">
        <ele>9.18</ele>
        <time>2025-07-04T14:40:50.887Z</time>
      </trkpt>
      <trkpt lat="49.11624" lon="-0.38602">
        <ele>10.04</ele>
        <time>2025-07-04T14:41:02.103Z</time>
      </trkpt>
      <trkpt lat="49.11632" lon="-0.38587">
        <ele>10.93</ele>
        <time>2025-07-04T14:41:13.321Z</time>
      </trkpt>
      <trkpt lat="49.11641" lon="-0.38565">
        <ele>11.85</ele>
        <time>2025-07-04T14:41:24.542Z</time>
      </trkpt>
      <trkpt lat="49.11645" lon="-0.38545">
        <ele>12.8</ele>
        <time>2025-07-04T14:41:35.765Z</time>
      </trkpt>
      <trkpt lat="49.11647" lon="-0.38508">
        <ele>13.77</ele>
        <time>2025-07-04T14:41:46.992Z</time>
      </trkpt>
      <trkpt lat="49.11648" lon="-0.3849">
        <ele>14.72</ele>
        <time>2025-07-04T14:41:58.221Z</time>
      </trkpt>
      <trkpt lat="49.11649" lon="-0.38442">
        <ele>15.73</ele>
        <time>2025-07-04T14:42:09.455Z</time>
      </trkpt>
      <trkpt lat="49.11649" lon="-0.38438">
        <ele>16.69</ele>
        <time>2025-07-04T14:42:20.690Z</time>
      </trkpt>
      <trkpt lat="49.11655" lon="-0.38391">
        <ele>17.7</ele>
        <time>2025-07-04T14:42:31.930Z</time>
      </trkpt>
      <trkpt lat="49.11661" lon="-0.3836">
        <ele>18.71</ele>
        <time>2025-07-04T14:42:43.173Z</time>
      </trkpt>
      <trkpt lat="49.11663" lon="-0.38312">
        <ele>19.71</ele>
        <time>2025-07-04T14:42:54.421Z</time>
      </trkpt>
      <trkpt lat="49.11663" lon="-0.3831">
        <ele>20.62</ele>
        <time>2025-07-04T14:43:05.669Z</time>
      </trkpt>
      <trkpt lat="49.11662" lon="-0.38262">
        <ele>21.56</ele>
        <time>2025-07-04T14:43:16.922Z</time>
      </trkpt>
      <trkpt lat="49.11662" lon="-0.38237">
        <ele>22.45</ele>
        <time>2025-07-04T14:43:28.178Z</time>
      </trkpt>
      <trkpt lat="49.11658" lon="-0.38189">
        <ele>23.36</ele>
        <time>2025-07-04T14:43:39.439Z</time>
      </trkpt>
      <trkpt lat="49.11655" lon="-0.38157">
        <ele>24.26</ele>
        <time>2025-07-04T14:43:50.703Z</time>
      </trkpt>
      <trkpt lat="49.1165" lon="-0.3811">
        <ele>25.13</ele>
        <time>2025-07-04T14:44:01.972Z</time>
      </trkpt>
      <trkpt lat="49.11646" lon="-0.38079">
        <ele>25.89</ele>
        <time>2025-07-04T14:44:13.245Z</time>
      </trkpt>
      <trkpt lat="49.11645" lon="-0.3804">
        <ele>26.69</ele>
        <time>2025-07-04T14:44:24.522Z</time>
      </trkpt>
      <trkpt lat="49.11645" lon="-0.37992">
        <ele>27.42</ele>
        <time>2025-07-04T14:44:35.804Z</time>
      </trkpt>
      <trkpt lat="49.11645" lon="-0.37984">
        <ele>28.09</ele>
        <time>2025-07-04T14:44:47.087Z</time>
      </trkpt>
      <trkpt lat="49.11643" lon="-0.37953">
        <ele>28.71</ele>
        <time>2025-07-04T14:44:58.373Z</time>
      </trkpt>
      <trkpt lat="49.11639" lon="-0.37905">
        <ele>29.32</ele>
        <time>2025-07-04T14:45:09.664Z</time>
      </trkpt>
      <trkpt lat="49.11638" lon="-0.37897">
        <ele>29.89</ele>
        <time>2025-07-04T14:45:20.956Z</time>
      </trkpt>
      <trkpt lat="49.11636" lon="-0.37872">
        <ele>30.43</ele>
        <time>2025-07-04T14:45:32.251Z</time>
      </trkpt>
      <trkpt lat="49.11637" lon="-0.37827">
        <ele>30.96</ele>
        <time>2025-07-04T14:45:43.550Z</time>
      </trkpt>
      <trkpt lat="49.11636" lon="-0.37825">
        <ele>31.44</ele>
        <time>2025-07-04T14:45:54.850Z</time>
      </trkpt>
      <trkpt lat="49.11634" lon="-0.37823">
        <ele>31.89</ele>
        <time>2025-07-04T14:46:06.150Z</time>
      </trkpt>
      <trkpt lat="49.11633" lon="-0.37819">
        <ele>32.32</ele>
        <time>2025-07-04T14:46:17.450Z</time>
      </trkpt>
      <trkpt lat="49.11633" lon="-0.37812">
        <ele>32.74</ele>
        <time>2025-07-04T14:46:28.751Z</time>
      </trkpt>
      <trkpt lat="49.11635" lon="-0.37808">
        <ele>33.13</ele>
        <time>2025-07-04T14:46:40.053Z</time>
      </trkpt>
      <trkpt lat="49.11636" lon="-0.37806">
        <ele>33.49</ele>
        <time>2025-07-04T14:46:51.355Z</time>
      </trkpt>
      <trkpt lat="49.1164" lon="-0.37771">
        <ele>33.87</ele>
        <time>2025-07-04T14:47:02.661Z</time>
      </trkpt>
      <trkpt lat="49.11643" lon="-0.37723">
        <ele>34.19</ele>
        <time>2025-07-04T14:47:13.972Z</time>
      </trkpt>
      <trkpt lat="49.11645" lon="-0.37685">
        <ele>34.51</ele>
        <time>2025-07-04T14:47:25.287Z</time>
      </trkpt>
      <trkpt lat="49.11645" lon="-0.37637">
        <ele>34.82</ele>
        <time>2025-07-04T14:47:36.607Z</time>
      </trkpt>
      <trkpt lat="49.11645" lon="-0.37597">
        <ele>35.15</ele>
        <time>2025-07-04T14:47:47.931Z</time>
      </trkpt>
      <trkpt lat="49.11645" lon="-0.37549">
        <ele>35.45</ele>
        <time>2025-07-04T14:47:59.260Z</time>
      </trkpt>
      <trkpt lat="49.11644" lon="-0.37501">
        <ele>35.74</ele>
        <time>2025-07-04T14:48:10.594Z</time>
      </trkpt>
      <trkpt lat="49.11644" lon="-0.37453">
        <ele>36.08</ele>
        <time>2025-07-04T14:48:21.933Z</time>
      </trkpt>
      <trkpt lat="49.11644" lon="-0.37444">
        <ele>36.35</ele>
        <time>2025-07-04T14:48:33.273Z</time>
      </trkpt>
      <trkpt lat="49.11644" lon="-0.37424">
        <ele>36.62</ele>
        <time>2025-07-04T14:48:44.615Z</time>
      </trkpt>
      <trkpt lat="49.11647" lon="-0.37387">
        <ele>36.88</ele>
        <time>2025-07-04T14:48:55.961Z</time>
      </trkpt>
      <trkpt lat="49.11653" lon="-0.37366">
        <ele>37.12</ele>
        <time>2025-07-04T14:49:07.310Z</time>
      </trkpt>
      <trkpt lat="49.11669" lon="-0.37325">
        <ele>37.37</ele>
        <time>2025-07-04T14:49:18.664Z</time>
      </trkpt>
      <trkpt lat="49.11683" lon="-0.37288">
        <ele>37.59</ele>
        <time>2025-07-04T14:49:30.022Z</time>
      </trkpt>
      <trkpt lat="49.11697" lon="-0.37245">
        <ele>37.82</ele>
        <time>2025-07-04T14:49:41.385Z</time>
      </trkpt>
      <trkpt lat="49.11706" lon="-0.37215">
        <ele>38.12</ele>
        <time>2025-07-04T14:49:52.752Z</time>
      </trkpt>
      <trkpt lat="49.11719" lon="-0.37171">
        <ele>38.42</ele>
        <time>2025-07-04T14:50:04.124Z</time>
      </trkpt>
      <trkpt lat="49.11732" lon="-0.37128">
        <ele>38.71</ele>
        <time>2025-07-04T14:50:15.501Z</time>
      </trkpt>
      <trkpt lat="49.11745" lon="-0.37084">
        <ele>39.02</ele>
        <time>2025-07-04T14:50:26.883Z</time>
      </trkpt>
      <trkpt lat="49.11758" lon="-0.3704">
        <ele>39.31</ele>
        <time>2025-07-04T14:50:38.270Z</time>
      </trkpt>
      <trkpt lat="49.11759" lon="-0.37035">
        <ele>39.63</ele>
        <time>2025-07-04T14:50:49.657Z</time>
      </trkpt>
      <trkpt lat="49.1177" lon="-0.3699">
        <ele>40.02</ele>
        <time>2025-07-04T14:51:01.049Z</time>
      </trkpt>
      <trkpt lat="49.11782" lon="-0.36946">
        <ele>40.34</ele>
        <time>2025-07-04T14:51:12.446Z</time>
      </trkpt>
      <trkpt lat="49.11793" lon="-0.36901">
        <ele>40.73</ele>
        <time>2025-07-04T14:51:23.848Z</time>
      </trkpt>
      <trkpt lat="49.11804" lon="-0.36856">
        <ele>41.12</ele>
        <time>2025-07-04T14:51:35.255Z</time>
      </trkpt>
      <trkpt lat="49.11816" lon="-0.36811">
        <ele>41.57</ele>
        <time>2025-07-04T14:51:46.667Z</time>
      </trkpt>
      <trkpt lat="49.11816" lon="-0.3681">
        <ele>41.99</ele>
        <time>2025-07-04T14:51:58.080Z</time>
      </trkpt>
      <trkpt lat="49.11825" lon="-0.36764">
        <ele>42.44</ele>
        <time>2025-07-04T14:52:09.498Z</time>
      </trkpt>
      <trkpt lat="49.11833" lon="-0.36727">
        <ele>42.89</ele>
        <time>2025-07-04T14:52:20.920Z</time>
      </trkpt>
      <trkpt lat="49.11841" lon="-0.36681">
        <ele>43.39</ele>
        <time>2025-07-04T14:52:32.347Z</time>
      </trkpt>
      <trkpt lat="49.1185" lon="-0.36634">
        <ele>43.92</ele>
        <time>2025-07-04T14:52:43.779Z</time>
      </trkpt>
      <trkpt lat="49.11858" lon="-0.36588">
        <ele>44.48</ele>
        <time>2025-07-04T14:52:55.216Z</time>
      </trkpt>
      <trkpt lat="49.11866" lon="-0.36542">
        <ele>45.09</ele>
        <time>2025-07-04T14:53:06.658Z</time>
      </trkpt>
      <trkpt lat="49.11874" lon="-0.36496">
        <ele>45.77</ele>
        <time>2025-07-04T14:53:18.105Z</time>
      </trkpt>
      <trkpt lat="49.11876" lon="-0.36487">
        <ele>46.44</ele>
        <time>2025-07-04T14:53:29.553Z</time>
      </trkpt>
      <trkpt lat="49.11885" lon="-0.36441">
        <ele>47.16</ele>
        <time>2025-07-04T14:53:41.006Z</time>
      </trkpt>
      <trkpt lat="49.11893" lon="-0.36395">
        <ele>47.86</ele>
        <time>2025-07-04T14:53:52.464Z</time>
      </trkpt>
      <trkpt lat="49.11902" lon="-0.36349">
        <ele>48.59</ele>
        <time>2025-07-04T14:54:03.927Z</time>
      </trkpt>
      <trkpt lat="49.1191" lon="-0.36302">
        <ele>49.33</ele>
        <time>2025-07-04T14:54:15.395Z</time>
      </trkpt>
      <trkpt lat="49.11919" lon="-0.36256">
        <ele>50.16</ele>
        <time>2025-07-04T14:54:26.868Z</time>
      </trkpt>
      <trkpt lat="49.11922" lon="-0.36238">
        <ele>50.99</ele>
        <time>2025-07-04T14:54:38.343Z</time>
      </trkpt>
      <trkpt lat="49.11931" lon="-0.36192">
        <ele>51.9</ele>
        <time>2025-07-04T14:54:49.823Z</time>
      </trkpt>
      <trkpt lat="49.11939" lon="-0.36146">
        <ele>52.82</ele>
        <time>2025-07-04T14:55:01.308Z</time>
      </trkpt>
      <trkpt lat="49.11947" lon="-0.36106">
        <ele>53.74</ele>
        <time>2025-07-04T14:55:12.798Z</time>
      </trkpt>
      <trkpt lat="49.11955" lon="-0.3606">
        <ele>54.67</ele>
        <time>2025-07-04T14:55:24.293Z</time>
      </trkpt>
      <trkpt lat="49.11964" lon="-0.36014">
        <ele>55.63</ele>
        <time>2025-07-04T14:55:35.793Z</time>
      </trkpt>
      <trkpt lat="49.11972" lon="-0.35967">
        <ele>56.58</ele>
        <time>2025-07-04T14:55:47.298Z</time>
      </trkpt>
      <trkpt lat="49.11981" lon="-0.35921">
        <ele>57.6</ele>
        <time>2025-07-04T14:55:58.808Z</time>
      </trkpt>
      <trkpt lat="49.11988" lon="-0.35883">
        <ele>58.55</ele>
        <time>2025-07-04T14:56:10.322Z</time>
      </trkpt>
      <trkpt lat="49.11996" lon="-0.35837">
        <ele>59.48</ele>
        <time>2025-07-04T14:56:21.841Z</time>
      </trkpt>
      <trkpt lat="49.12005" lon="-0.35791">
        <ele>60.41</ele>
        <time>2025-07-04T14:56:33.365Z</time>
      </trkpt>
      <trkpt lat="49.12013" lon="-0.35744">
        <ele>61.37</ele>
        <time>2025-07-04T14:56:44.894Z</time>
      </trkpt>
      <trkpt lat="49.12021" lon="-0.35698">
        <ele>62.27</ele>
        <time>2025-07-04T14:56:56.428Z</time>
      </trkpt>
      <trkpt lat="49.1203" lon="-0.35652">
        <ele>63</ele>
        <time>2025-07-04T14:57:07.967Z</time>
      </trkpt>
      <trkpt lat="49.12034" lon="-0.35629">
        <ele>63.75</ele>
        <time>2025-07-04T14:57:19.509Z</time>
      </trkpt>
      <trkpt lat="49.12042" lon="-0.35583">
        <ele>64.47</ele>
        <time>2025-07-04T14:57:31.056Z</time>
      </trkpt>
      <trkpt lat="49.12051" lon="-0.35537">
        <ele>65.18</ele>
        <time>2025-07-04T14:57:42.608Z</time>
      </trkpt>
      <trkpt lat="49.12051" lon="-0.35536">
        <ele>65.83</ele>
        <time>2025-07-04T14:57:54.160Z</time>
      </trkpt>
      <trkpt lat="49.12059" lon="-0.3549">
        <ele>66.44</ele>
        <time>2025-07-04T14:58:05.717Z</time>
      </trkpt>
      <trkpt lat="49.1206" lon="-0.35484">
        <ele>67.01</ele>
        <time>2025-07-04T14:58:17.274Z</time>
      </trkpt>
      <trkpt lat="49.1206" lon="-0.35458">
        <ele>67.54</ele>
        <time>2025-07-04T14:58:28.834Z</time>
      </trkpt>
      <trkpt lat="49.12058" lon="-0.3545">
        <ele>68.03</ele>
        <time>2025-07-04T14:58:40.395Z</time>
      </trkpt>
      <trkpt lat="49.12055" lon="-0.35442">
        <ele>68.49</ele>
        <time>2025-07-04T14:58:51.957Z</time>
      </trkpt>
      <trkpt lat="49.12055" lon="-0.35433">
        <ele>68.9</ele>
        <time>2025-07-04T14:59:03.520Z</time>
      </trkpt>
      <trkpt lat="49.12057" lon="-0.35425">
        <ele>69.26</ele>
        <time>2025-07-04T14:59:15.084Z</time>
      </trkpt>
      <trkpt lat="49.12062" lon="-0.35421">
        <ele>69.58</ele>
        <time>2025-07-04T14:59:26.649Z</time>
      </trkpt>
      <trkpt lat="49.12069" lon="-0.35401">
        <ele>69.86</ele>
        <time>2025-07-04T14:59:38.216Z</time>
      </trkpt>
      <trkpt lat="49.12076" lon="-0.3538">
        <ele>70.11</ele>
        <time>2025-07-04T14:59:49.786Z</time>
      </trkpt>
      <trkpt lat="49.12081" lon="-0.35333">
        <ele>70.32</ele>
        <time>2025-07-04T15:00:01.361Z</time>
      </trkpt>
      <trkpt lat="49.12085" lon="-0.35285">
        <ele>70.5</ele>
        <time>2025-07-04T15:00:12.941Z</time>
      </trkpt>
      <trkpt lat="49.12089" lon="-0.35248">
        <ele>70.62</ele>
        <time>2025-07-04T15:00:24.525Z</time>
      </trkpt>
      <trkpt lat="49.12092" lon="-0.352">
        <ele>70.71</ele>
        <time>2025-07-04T15:00:36.114Z</time>
      </trkpt>
      <trkpt lat="49.12095" lon="-0.35163">
        <ele>70.83</ele>
        <time>2025-07-04T15:00:47.707Z</time>
      </trkpt>
      <trkpt lat="49.12096" lon="-0.35115">
        <ele>70.92</ele>
        <time>2025-07-04T15:00:59.305Z</time>
      </trkpt>
      <trkpt lat="49.12097" lon="-0.35077">
        <ele>70.95</ele>
        <time>2025-07-04T15:01:10.907Z</time>
      </trkpt>
      <trkpt lat="49.12096" lon="-0.35029">
        <ele>70.94</ele>
        <time>2025-07-04T15:01:22.514Z</time>
      </trkpt>
      <trkpt lat="49.12096" lon="-0.34981">
        <ele>70.89</ele>
        <time>2025-07-04T15:01:34.126Z</time>
      </trkpt>
      <trkpt lat="49.12095" lon="-0.34933">
        <ele>70.82</ele>
        <time>2025-07-04T15:01:45.743Z</time>
      </trkpt>
      <trkpt lat="49.12094" lon="-0.34885">
        <ele>70.73</ele>
        <time>2025-07-04T15:01:57.365Z</time>
      </trkpt>
      <trkpt lat="49.12094" lon="-0.34837">
        <ele>70.58</ele>
        <time>2025-07-04T15:02:08.992Z</time>
      </trkpt>
      <trkpt lat="49.12093" lon="-0.34789">
        <ele>70.43</ele>
        <time>2025-07-04T15:02:20.624Z</time>
      </trkpt>
      <trkpt lat="49.12092" lon="-0.34741">
        <ele>70.31</ele>
        <time>2025-07-04T15:02:32.261Z</time>
      </trkpt>
      <trkpt lat="49.12092" lon="-0.34693">
        <ele>70.07</ele>
        <time>2025-07-04T15:02:43.903Z</time>
      </trkpt>
      <trkpt lat="49.12091" lon="-0.34657">
        <ele>69.86</ele>
        <time>2025-07-04T15:02:55.549Z</time>
      </trkpt>
      <trkpt lat="49.12091" lon="-0.34609">
        <ele>69.65</ele>
        <time>2025-07-04T15:03:07.200Z</time>
      </trkpt>
      <trkpt lat="49.1209" lon="-0.34561">
        <ele>69.37</ele>
        <time>2025-07-04T15:03:18.856Z</time>
      </trkpt>
      <trkpt lat="49.1209" lon="-0.34539">
        <ele>69.09</ele>
        <time>2025-07-04T15:03:30.514Z</time>
      </trkpt>
      <trkpt lat="49.12091" lon="-0.34491">
        <ele>68.8</ele>
        <time>2025-07-04T15:03:42.177Z</time>
      </trkpt>
      <trkpt lat="49.12092" lon="-0.34443">
        <ele>68.51</ele>
        <time>2025-07-04T15:03:53.845Z</time>
      </trkpt>
      <trkpt lat="49.12093" lon="-0.34399">
        <ele>68.25</ele>
        <time>2025-07-04T15:04:05.518Z</time>
      </trkpt>
      <trkpt lat="49.12094" lon="-0.34351">
        <ele>67.94</ele>
        <time>2025-07-04T15:04:17.196Z</time>
      </trkpt>
      <trkpt lat="49.12096" lon="-0.34303">
        <ele>67.6</ele>
        <time>2025-07-04T15:04:28.879Z</time>
      </trkpt>
      <trkpt lat="49.12097" lon="-0.34255">
        <ele>67.2</ele>
        <time>2025-07-04T15:04:40.567Z</time>
      </trkpt>
      <trkpt lat="49.12098" lon="-0.34207">
        <ele>66.78</ele>
        <time>2025-07-04T15:04:52.260Z</time>
      </trkpt>
      <trkpt lat="49.12099" lon="-0.34159">
        <ele>66.34</ele>
        <time>2025-07-04T15:05:03.958Z</time>
      </trkpt>
      <trkpt lat="49.121" lon="-0.34135">
        <ele>65.91</ele>
        <time>2025-07-04T15:05:15.659Z</time>
      </trkpt>
      <trkpt lat="49.121" lon="-0.34087">
        <ele>65.47</ele>
        <time>2025-07-04T15:05:27.365Z</time>
      </trkpt>
      <trkpt lat="49.12101" lon="-0.34039">
        <ele>65.05</ele>
        <time>2025-07-04T15:05:39.076Z</time>
      </trkpt>
      <trkpt lat="49.12101" lon="-0.34025">
        <ele>64.64</ele>
        <time>2025-07-04T15:05:50.788Z</time>
      </trkpt>
      <trkpt lat="49.12101" lon="-0.33977">
        <ele>64.2</ele>
        <time>2025-07-04T15:06:02.505Z</time>
      </trkpt>
      <trkpt lat="49.121" lon="-0.33929">
        <ele>63.73</ele>
        <time>2025-07-04T15:06:14.227Z</time>
      </trkpt>
      <trkpt lat="49.121" lon="-0.33881">
        <ele>63.27</ele>
        <time>2025-07-04T15:06:25.954Z</time>
      </trkpt>
      <trkpt lat="49.121" lon="-0.33833">
        <ele>62.91</ele>
        <time>2025-07-04T15:06:37.686Z</time>
      </trkpt>
      <trkpt lat="49.121" lon="-0.33833">
        <ele>62.52</ele>
        <time>2025-07-04T15:06:49.418Z</time>
      </trkpt>
      <trkpt lat="49.12099" lon="-0.33785">
        <ele>62.22</ele>
        <time>2025-07-04T15:07:01.155Z</time>
      </trkpt>
      <trkpt lat="49.12097" lon="-0.33737">
        <ele>61.82</ele>
        <time>2025-07-04T15:07:12.898Z</time>
      </trkpt>
      <trkpt lat="49.12096" lon="-0.33689">
        <ele>61.4</ele>
        <time>2025-07-04T15:07:24.646Z</time>
      </trkpt>
      <trkpt lat="49.12094" lon="-0.33641">
        <ele>60.99</ele>
        <time>2025-07-04T15:07:36.399Z</time>
      </trkpt>
      <trkpt lat="49.12093" lon="-0.33593">
        <ele>60.67</ele>
        <time>2025-07-04T15:07:48.157Z</time>
      </trkpt>
      <trkpt lat="49.12092" lon="-0.33546">
        <ele>60.39</ele>
        <time>2025-07-04T15:07:59.920Z</time>
      </trkpt>
      <trkpt lat="49.1209" lon="-0.33498">
        <ele>60.1</ele>
        <time>2025-07-04T15:08:11.688Z</time>
      </trkpt>
      <trkpt lat="49.12089" lon="-0.33459">
        <ele>59.81</ele>
        <time>2025-07-04T15:08:23.460Z</time>
      </trkpt>
      <trkpt lat="49.12087" lon="-0.33411">
        <ele>59.6</ele>
        <time>2025-07-04T15:08:35.237Z</time>
      </trkpt>
      <trkpt lat="49.12086" lon="-0.33363">
        <ele>59.43</ele>
        <time>2025-07-04T15:08:47.019Z</time>
      </trkpt>
      <trkpt lat="49.12085" lon="-0.33349">
        <ele>59.25</ele>
        <time>2025-07-04T15:08:58.802Z</time>
      </trkpt>
      <trkpt lat="49.12086" lon="-0.33302">
        <ele>59.08</ele>
        <time>2025-07-04T15:09:10.590Z</time>
      </trkpt>
      <trkpt lat="49.12088" lon="-0.33284">
        <ele>58.91</ele>
        <time>2025-07-04T15:09:22.380Z</time>
      </trkpt>
      <trkpt lat="49.12095" lon="-0.33246">
        <ele>58.8</ele>
        <time>2025-07-04T15:09:34.174Z</time>
      </trkpt>
      <trkpt lat="49.12106" lon="-0.33201">
        <ele>58.66</ele>
        <time>2025-07-04T15:09:45.973Z</time>
      </trkpt>
      <trkpt lat="49.12114" lon="-0.33168">
        <ele>58.52</ele>
        <time>2025-07-04T15:09:57.776Z</time>
      </trkpt>
      <trkpt lat="49.12127" lon="-0.33124">
        <ele>58.4</ele>
        <time>2025-07-04T15:10:09.584Z</time>
      </trkpt>
      <trkpt lat="49.12139" lon="-0.33083">
        <ele>58.35</ele>
        <time>2025-07-04T15:10:21.397Z</time>
      </trkpt>
      <trkpt lat="49.12153" lon="-0.3304">
        <ele>58.27</ele>
        <time>2025-07-04T15:10:33.215Z</time>
      </trkpt>
      <trkpt lat="49.12166" lon="-0.32997">
        <ele>58.26</ele>
        <time>2025-07-04T15:10:45.038Z</time>
      </trkpt>
      <trkpt lat="49.12174" lon="-0.32973">
        <ele>58.24</ele>
        <time>2025-07-04T15:10:56.864Z</time>
      </trkpt>
      <trkpt lat="49.12189" lon="-0.32931">
        <ele>58.2</ele>
        <time>2025-07-04T15:11:08.695Z</time>
      </trkpt>
      <trkpt lat="49.12199" lon="-0.32905">
        <ele>58.16</ele>
        <time>2025-07-04T15:11:20.529Z</time>
      </trkpt>
      <trkpt lat="49.12206" lon="-0.32889">
        <ele>58.18</ele>
        <time>2025-07-04T15:11:32.365Z</time>
      </trkpt>
      <trkpt lat="49.1222" lon="-0.32852">
        <ele>58.21</ele>
        <time>2025-07-04T15:11:44.205Z</time>
      </trkpt>
      <trkpt lat="49.12227" lon="-0.32805">
        <ele>58.3</ele>
        <time>2025-07-04T15:11:56.051Z</time>
      </trkpt>
      <trkpt lat="49.12227" lon="-0.32802">
        <ele>58.39</ele>
        <time>2025-07-04T15:12:07.897Z</time>
      </trkpt>
      <trkpt lat="49.12226" lon="-0.32773">
        <ele>58.5</ele>
        <time>2025-07-04T15:12:19.746Z</time>
      </trkpt>
      <trkpt lat="49.12222" lon="-0.32725">
        <ele>58.63</ele>
        <time>2025-07-04T15:12:31.600Z</time>
      </trkpt>
      <trkpt lat="49.12219" lon="-0.32678">
        <ele>58.81</ele>
        <time>2025-07-04T15:12:43.459Z</time>
      </trkpt>
      <trkpt lat="49.12216" lon="-0.32644">
        <ele>58.97</ele>
        <time>2025-07-04T15:12:55.322Z</time>
      </trkpt>
      <trkpt lat="49.12219" lon="-0.32611">
        <ele>59.14</ele>
        <time>2025-07-04T15:13:07.188Z</time>
      </trkpt>
      <trkpt lat="49.12226" lon="-0.32574">
        <ele>59.32</ele>
        <time>2025-07-04T15:13:19.058Z</time>
      </trkpt>
      <trkpt lat="49.12233" lon="-0.32549">
        <ele>59.52</ele>
        <time>2025-07-04T15:13:30.931Z</time>
      </trkpt>
      <trkpt lat="49.12246" lon="-0.32506">
        <ele>59.75</ele>
        <time>2025-07-04T15:13:42.809Z</time>
      </trkpt>
      <trkpt lat="49.12248" lon="-0.325">
        <ele>59.94</ele>
        <time>2025-07-04T15:13:54.688Z</time>
      </trkpt>
      <trkpt lat="49.12268" lon="-0.32465">
        <ele>60.21</ele>
        <time>2025-07-04T15:14:06.572Z</time>
      </trkpt>
      <trkpt lat="49.12295" lon="-0.32441">
        <ele>60.4</ele>
        <time>2025-07-04T15:14:18.461Z</time>
      </trkpt>
      <trkpt lat="49.12297" lon="-0.32439">
        <ele>60.59</ele>
        <time>2025-07-04T15:14:30.350Z</time>
      </trkpt>
      <trkpt lat="49.1231" lon="-0.32432">
        <ele>60.77</ele>
        <time>2025-07-04T15:14:42.241Z</time>
      </trkpt>
      <trkpt lat="49.12341" lon="-0.32423">
        <ele>60.94</ele>
        <time>2025-07-04T15:14:54.137Z</time>
      </trkpt>
      <trkpt lat="49.12372" lon="-0.32414">
        <ele>61.11</ele>
        <time>2025-07-04T15:15:06.038Z</time>
      </trkpt>
      <trkpt lat="49.12391" lon="-0.32409">
        <ele>61.27</ele>
        <time>2025-07-04T15:15:17.942Z</time>
      </trkpt>
      <trkpt lat="49.12405" lon="-0.32404">
        <ele>61.43</ele>
        <time>2025-07-04T15:15:29.849Z</time>
      </trkpt>
      <trkpt lat="49.12424" lon="-0.32393">
        <ele>61.58</ele>
        <time>2025-07-04T15:15:41.759Z</time>
      </trkpt>
      <trkpt lat="49.12441" lon="-0.32378">
        <ele>61.69</ele>
        <time>2025-07-04T15:15:53.672Z</time>
      </trkpt>
      <trkpt lat="49.12459" lon="-0.32353">
        <ele>61.75</ele>
        <time>2025-07-04T15:16:05.589Z</time>
      </trkpt>
      <trkpt lat="49.12477" lon="-0.32313">
        <ele>61.84</ele>
        <time>2025-07-04T15:16:17.511Z</time>
      </trkpt>
      <trkpt lat="49.12485" lon="-0.32294">
        <ele>61.88</ele>
        <time>2025-07-04T15:16:29.435Z</time>
      </trkpt>
      <trkpt lat="49.12502" lon="-0.32254">
        <ele>61.88</ele>
        <time>2025-07-04T15:16:41.364Z</time>
      </trkpt>
      <trkpt lat="49.12519" lon="-0.32213">
        <ele>61.85</ele>
        <time>2025-07-04T15:16:53.298Z</time>
      </trkpt>
      <trkpt lat="49.12536" lon="-0.32173">
        <ele>61.8</ele>
        <time>2025-07-04T15:17:05.238Z</time>
      </trkpt>
      <trkpt lat="49.12553" lon="-0.32132">
        <ele>61.73</ele>
        <time>2025-07-04T15:17:17.183Z</time>
      </trkpt>
      <trkpt lat="49.12569" lon="-0.32093">
        <ele>61.64</ele>
        <time>2025-07-04T15:17:29.132Z</time>
      </trkpt>
      <trkpt lat="49.12579" lon="-0.32068">
        <ele>61.52</ele>
        <time>2025-07-04T15:17:41.085Z</time>
      </trkpt>
      <trkpt lat="49.12593" lon="-0.32025">
        <ele>61.43</ele>
        <time>2025-07-04T15:17:53.043Z</time>
      </trkpt>
      <trkpt lat="49.12595" lon="-0.32017">
        <ele>61.29</ele>
        <time>2025-07-04T15:18:05.001Z</time>
      </trkpt>
      <trkpt lat="49.12606" lon="-0.31972">
        <ele>61.12</ele>
        <time>2025-07-04T15:18:16.964Z</time>
      </trkpt>
      <trkpt lat="49.12617" lon="-0.31927">
        <ele>60.94</ele>
        <time>2025-07-04T15:18:28.933Z</time>
      </trkpt>
      <trkpt lat="49.12627" lon="-0.31882">
        <ele>60.69</ele>
        <time>2025-07-04T15:18:40.907Z</time>
      </trkpt>
      <trkpt lat="49.12638" lon="-0.31837">
        <ele>60.49</ele>
        <time>2025-07-04T15:18:52.886Z</time>
      </trkpt>
      <trkpt lat="49.12645" lon="-0.31808">
        <ele>60.27</ele>
        <time>2025-07-04T15:19:04.868Z</time>
      </trkpt>
      <trkpt lat="49.12653" lon="-0.31768">
        <ele>60.04</ele>
        <time>2025-07-04T15:19:16.854Z</time>
      </trkpt>
      <trkpt lat="49.12655" lon="-0.3172">
        <ele>59.66</ele>
        <time>2025-07-04T15:19:28.845Z</time>
      </trkpt>
      <trkpt lat="49.12657" lon="-0.31672">
        <ele>59.22</ele>
        <time>2025-07-04T15:19:40.841Z</time>
      </trkpt>
      <trkpt lat="49.1266" lon="-0.31624">
        <ele>58.83</ele>
        <time>2025-07-04T15:19:52.842Z</time>
      </trkpt>
      <trkpt lat="49.12662" lon="-0.31577">
        <ele>58.53</ele>
        <time>2025-07-04T15:20:04.848Z</time>
      </trkpt>
      <trkpt lat="49.12663" lon="-0.31553">
        <ele>58.18</ele>
        <time>2025-07-04T15:20:16.857Z</time>
      </trkpt>
      <trkpt lat="49.12663" lon="-0.31505">
        <ele>57.84</ele>
        <time>2025-07-04T15:20:28.871Z</time>
      </trkpt>
      <trkpt lat="49.12663" lon="-0.31467">
        <ele>57.49</ele>
        <time>2025-07-04T15:20:40.889Z</time>
      </trkpt>
      <trkpt lat="49.12665" lon="-0.31419">
        <ele>57.14</ele>
        <time>2025-07-04T15:20:52.912Z</time>
      </trkpt>
      <trkpt lat="49.12668" lon="-0.31371">
        <ele>56.69</ele>
        <time>2025-07-04T15:21:04.940Z</time>
      </trkpt>
      <trkpt lat="49.12668" lon="-0.31371">
        <ele>56.32</ele>
        <time>2025-07-04T15:21:16.968Z</time>
      </trkpt>
      <trkpt lat="49.12666" lon="-0.31323">
        <ele>55.87</ele>
        <time>2025-07-04T15:21:29.001Z</time>
      </trkpt>
      <trkpt lat="49.12664" lon="-0.31275">
        <ele>55.48</ele>
        <time>2025-07-04T15:21:41.039Z</time>
      </trkpt>
      <trkpt lat="49.12664" lon="-0.31274">
        <ele>55.1</ele>
        <time>2025-07-04T15:21:53.077Z</time>
      </trkpt>
      <trkpt lat="49.12661" lon="-0.31254">
        <ele>54.73</ele>
        <time>2025-07-04T15:22:05.117Z</time>
      </trkpt>
      <trkpt lat="49.12679" lon="-0.31258">
        <ele>54.33</ele>
        <time>2025-07-04T15:22:17.160Z</time>
      </trkpt>
      <trkpt lat="49.12695" lon="-0.31262">
        <ele>53.92</ele>
        <time>2025-07-04T15:22:29.206Z</time>
      </trkpt>
      <trkpt lat="49.12716" lon="-0.31268">
        <ele>53.55</ele>
        <time>2025-07-04T15:22:41.255Z</time>
      </trkpt>
      <trkpt lat="49.12727" lon="-0.31282">
        <ele>53.19</ele>
        <time>2025-07-04T15:22:53.307Z</time>
      </trkpt>
      <trkpt lat="49.12732" lon="-0.31292">
        <ele>52.82</ele>
        <time>2025-07-04T15:23:05.360Z</time>
      </trkpt>
      <trkpt lat="49.12739" lon="-0.31303">
        <ele>52.45</ele>
        <time>2025-07-04T15:23:17.415Z</time>
      </trkpt>
      <trkpt lat="49.12744" lon="-0.31322">
        <ele>52.05</ele>
        <time>2025-07-04T15:23:29.472Z</time>
      </trkpt>
      <trkpt lat="49.12761" lon="-0.31305">
        <ele>51.62</ele>
        <time>2025-07-04T15:23:41.532Z</time>
      </trkpt>
      <trkpt lat="49.12781" lon="-0.3129">
        <ele>51.21</ele>
        <time>2025-07-04T15:23:53.596Z</time>
      </trkpt>
      <trkpt lat="49.12808" lon="-0.31272">
        <ele>50.8</ele>
        <time>2025-07-04T15:24:05.664Z</time>
      </trkpt>
      <trkpt lat="49.12812" lon="-0.31269">
        <ele>50.39</ele>
        <time>2025-07-04T15:24:17.733Z</time>
      </trkpt>
      <trkpt lat="49.12818" lon="-0.31268">
        <ele>49.97</ele>
        <time>2025-07-04T15:24:29.803Z</time>
      </trkpt>
      <trkpt lat="49.12844" lon="-0.31242">
        <ele>49.53</ele>
        <time>2025-07-04T15:24:41.878Z</time>
      </trkpt>
      <trkpt lat="49.12864" lon="-0.31222">
        <ele>49.04</ele>
        <time>2025-07-04T15:24:53.957Z</time>
      </trkpt>
      <trkpt lat="49.12868" lon="-0.31221">
        <ele>48.58</ele>
        <time>2025-07-04T15:25:06.036Z</time>
      </trkpt>
      <trkpt lat="49.12872" lon="-0.31222">
        <ele>48.1</ele>
        <time>2025-07-04T15:25:18.116Z</time>
      </trkpt>
      <trkpt lat="49.12875" lon="-0.31223">
        <ele>47.63</ele>
        <time>2025-07-04T15:25:30.197Z</time>
      </trkpt>
      <trkpt lat="49.12878" lon="-0.31214">
        <ele>47.14</ele>
        <time>2025-07-04T15:25:42.279Z</time>
      </trkpt>
      <trkpt lat="49.12889" lon="-0.31192">
        <ele>46.63</ele>
        <time>2025-07-04T15:25:54.364Z</time>
      </trkpt>
      <trkpt lat="49.1291" lon="-0.31157">
        <ele>46.14</ele>
        <time>2025-07-04T15:26:06.454Z</time>
      </trkpt>
      <trkpt lat="49.12916" lon="-0.31148">
        <ele>45.61</ele>
        <time>2025-07-04T15:26:18.545Z</time>
      </trkpt>
      <trkpt lat="49.12933" lon="-0.31118">
        <ele>45.03</ele>
        <time>2025-07-04T15:26:30.640Z</time>
      </trkpt>
      <trkpt lat="49.12945" lon="-0.31084">
        <ele>44.45</ele>
        <time>2025-07-04T15:26:42.739Z</time>
      </trkpt>
      <trkpt lat="49.12953" lon="-0.31055">
        <ele>43.91</ele>
        <time>2025-07-04T15:26:54.841Z</time>
      </trkpt>
      <trkpt lat="49.12965" lon="-0.31011">
        <ele>43.38</ele>
        <time>2025-07-04T15:27:06.948Z</time>
      </trkpt>
      <trkpt lat="49.12973" lon="-0.30983">
        <ele>42.86</ele>
        <time>2025-07-04T15:27:19.059Z</time>
      </trkpt>
      <trkpt lat="49.12987" lon="-0.3094">
        <ele>42.3</ele>
        <time>2025-07-04T15:27:31.175Z</time>
      </trkpt>
      <trkpt lat="49.12995" lon="-0.30916">
        <ele>41.79</ele>
        <time>2025-07-04T15:27:43.293Z</time>
      </trkpt>
      <trkpt lat="49.13005" lon="-0.30876">
        <ele>41.26</ele>
        <time>2025-07-04T15:27:55.416Z</time>
      </trkpt>
      <trkpt lat="49.13011" lon="-0.30851">
        <ele>40.73</ele>
        <time>2025-07-04T15:28:07.542Z</time>
      </trkpt>
      <trkpt lat="49.13024" lon="-0.30807">
        <ele>40.19</ele>
        <time>2025-07-04T15:28:19.673Z</time>
      </trkpt>
      <trkpt lat="49.13026" lon="-0.308">
        <ele>39.69</ele>
        <time>2025-07-04T15:28:31.805Z</time>
      </trkpt>
      <trkpt lat="49.13039" lon="-0.30757">
        <ele>39.16</ele>
        <time>2025-07-04T15:28:43.942Z</time>
      </trkpt>
      <trkpt lat="49.13051" lon="-0.30713">
        <ele>38.61</ele>
        <time>2025-07-04T15:28:56.084Z</time>
      </trkpt>
      <trkpt lat="49.13063" lon="-0.30668">
        <ele>38.1</ele>
        <time>2025-07-04T15:29:08.231Z</time>
      </trkpt>
      <trkpt lat="49.13075" lon="-0.30624">
        <ele>37.71</ele>
        <time>2025-07-04T15:29:20.383Z</time>
      </trkpt>
      <trkpt lat="49.13075" lon="-0.30623">
        <ele>37.29</ele>
        <time>2025-07-04T15:29:32.535Z</time>
      </trkpt>
      <trkpt lat="49.13086" lon="-0.30578">
        <ele>36.9</ele>
        <time>2025-07-04T15:29:44.692Z</time>
      </trkpt>
      <trkpt lat="49.13097" lon="-0.30533">
        <ele>36.47</ele>
        <time>2025-07-04T15:29:56.854Z</time>
      </trkpt>
      <trkpt lat="49.13107" lon="-0.30488">
        <ele>36.06</ele>
        <time>2025-07-04T15:30:09.021Z</time>
      </trkpt>
      <trkpt lat="49.13114" lon="-0.3046">
        <ele>35.72</ele>
        <time>2025-07-04T15:30:21.191Z</time>
      </trkpt>
      <trkpt lat="49.13125" lon="-0.30415">
        <ele>35.41</ele>
        <time>2025-07-04T15:30:33.366Z</time>
      </trkpt>
      <trkpt lat="49.13135" lon="-0.3037">
        <ele>35.14</ele>
        <time>2025-07-04T15:30:45.546Z</time>
      </trkpt>
      <trkpt lat="49.13138" lon="-0.30357">
        <ele>34.86</ele>
        <time>2025-07-04T15:30:57.728Z</time>
      </trkpt>
      <trkpt lat="49.13149" lon="-0.30312">
        <ele>34.6</ele>
        <time>2025-07-04T15:31:09.915Z</time>
      </trkpt>
      <trkpt lat="49.13159" lon="-0.30267">
        <ele>34.37</ele>
        <time>2025-07-04T15:31:22.107Z</time>
      </trkpt>
      <trkpt lat="49.13167" lon="-0.30235">
        <ele>34.17</ele>
        <time>2025-07-04T15:31:34.302Z</time>
      </trkpt>
      <trkpt lat="49.13177" lon="-0.3019">
        <ele>33.97</ele>
        <time>2025-07-04T15:31:46.502Z</time>
      </trkpt>
      <trkpt lat="49.13185" lon="-0.30157">
        <ele>33.77</ele>
        <time>2025-07-04T15:31:58.706Z</time>
      </trkpt>
      <trkpt lat="49.13191" lon="-0.30131">
        <ele>33.61</ele>
        <time>2025-07-04T15:32:10.913Z</time>
      </trkpt>
      <trkpt lat="49.132" lon="-0.301">
        <ele>33.49</ele>
        <time>2025-07-04T15:32:23.123Z</time>
      </trkpt>
      <trkpt lat="49.13206" lon="-0.30066">
        <ele>33.41</ele>
        <time>2025-07-04T15:32:35.337Z</time>
      </trkpt>
      <trkpt lat="49.1321" lon="-0.30052">
        <ele>33.32</ele>
        <time>2025-07-04T15:32:47.553Z</time>
      </trkpt>
      <trkpt lat="49.13224" lon="-0.30009">
        <ele>33.25</ele>
        <time>2025-07-04T15:32:59.774Z</time>
      </trkpt>
      <trkpt lat="49.1323" lon="-0.29992">
        <ele>33.19</ele>
        <time>2025-07-04T15:33:11.997Z</time>
      </trkpt>
      <trkpt lat="49.13245" lon="-0.2995">
        <ele>33.18</ele>
        <time>2025-07-04T15:33:24.225Z</time>
      </trkpt>
      <trkpt lat="49.13256" lon="-0.29917">
        <ele>33.2</ele>
        <time>2025-07-04T15:33:36.457Z</time>
      </trkpt>
      <trkpt lat="49.13271" lon="-0.29875">
        <ele>33.19</ele>
        <time>2025-07-04T15:33:48.694Z</time>
      </trkpt>
      <trkpt lat="49.13273" lon="-0.29869">
        <ele>33.18</ele>
        <time>2025-07-04T15:34:00.931Z</time>
      </trkpt>
      <trkpt lat="49.13288" lon="-0.29827">
        <ele>33.14</ele>
        <time>2025-07-04T15:34:13.173Z</time>
      </trkpt>
      <trkpt lat="49.13292" lon="-0.29814">
        <ele>33.15</ele>
        <time>2025-07-04T15:34:25.417Z</time>
      </trkpt>
      <trkpt lat="49.13308" lon="-0.29776">
        <ele>33.15</ele>
        <time>2025-07-04T15:34:37.666Z</time>
      </trkpt>
      <trkpt lat="49.13326" lon="-0.29744">
        <ele>33.13</ele>
        <time>2025-07-04T15:34:49.919Z</time>
      </trkpt>
      <trkpt lat="49.13343" lon="-0.29713">
        <ele>33.14</ele>
        <time>2025-07-04T15:35:02.176Z</time>
      </trkpt>
      <trkpt lat="49.13364" lon="-0.29678">
        <ele>33.15</ele>
        <time>2025-07-04T15:35:14.438Z</time>
      </trkpt>
      <trkpt lat="49.13368" lon="-0.29672">
        <ele>33.18</ele>
        <time>2025-07-04T15:35:26.701Z</time>
      </trkpt>
      <trkpt lat="49.13372" lon="-0.29655">
        <ele>33.22</ele>
        <time>2025-07-04T15:35:38.966Z</time>
      </trkpt>
      <trkpt lat="49.13372" lon="-0.29647">
        <ele>33.26</ele>
        <time>2025-07-04T15:35:51.232Z</time>
      </trkpt>
      <trkpt lat="49.13371" lon="-0.29646">
        <ele>33.31</ele>
        <time>2025-07-04T15:36:03.498Z</time>
      </trkpt>
      <trkpt lat="49.13368" lon="-0.29643">
        <ele>33.35</ele>
        <time>2025-07-04T15:36:15.765Z</time>
      </trkpt>
      <trkpt lat="49.13365" lon="-0.29634">
        <ele>33.4</ele>
        <time>2025-07-04T15:36:28.033Z</time>
      </trkpt>
      <trkpt lat="49.13366" lon="-0.29628">
        <ele>33.44</ele>
        <time>2025-07-04T15:36:40.301Z</time>
      </trkpt>
      <trkpt lat="49.13368" lon="-0.29625">
        <ele>33.49</ele>
        <time>2025-07-04T15:36:52.570Z</time>
      </trkpt>
      <trkpt lat="49.13374" lon="-0.29622">
        <ele>33.53</ele>
        <time>2025-07-04T15:37:04.840Z</time>
      </trkpt>
      <trkpt lat="49.1338" lon="-0.29627">
        <ele>33.57</ele>
        <time>2025-07-04T15:37:17.111Z</time>
      </trkpt>
      <trkpt lat="49.13381" lon="-0.29631">
        <ele>33.61</ele>
        <time>2025-07-04T15:37:29.382Z</time>
      </trkpt>
      <trkpt lat="49.13382" lon="-0.29633">
        <ele>33.64</ele>
        <time>2025-07-04T15:37:41.654Z</time>
      </trkpt>
      <trkpt lat="49.13392" lon="-0.2963">
        <ele>33.69</ele>
        <time>2025-07-04T15:37:53.927Z</time>
      </trkpt>
      <trkpt lat="49.13419" lon="-0.29606">
        <ele>33.75</ele>
        <time>2025-07-04T15:38:06.205Z</time>
      </trkpt>
      <trkpt lat="49.13444" lon="-0.29585">
        <ele>33.76</ele>
        <time>2025-07-04T15:38:18.488Z</time>
      </trkpt>
      <trkpt lat="49.13472" lon="-0.29562">
        <ele>33.76</ele>
        <time>2025-07-04T15:38:30.776Z</time>
      </trkpt>
      <trkpt lat="49.13478" lon="-0.29557">
        <ele>33.74</ele>
        <time>2025-07-04T15:38:43.065Z</time>
      </trkpt>
      <trkpt lat="49.13507" lon="-0.29538">
        <ele>33.72</ele>
        <time>2025-07-04T15:38:55.359Z</time>
      </trkpt>
      <trkpt lat="49.13515" lon="-0.29533">
        <ele>33.68</ele>
        <time>2025-07-04T15:39:07.655Z</time>
      </trkpt>
      <trkpt lat="49.13543" lon="-0.2952">
        <ele>33.6</ele>
        <time>2025-07-04T15:39:19.955Z</time>
      </trkpt>
      <trkpt lat="49.13543" lon="-0.29513">
        <ele>33.53</ele>
        <time>2025-07-04T15:39:32.256Z</time>
      </trkpt>
      <trkpt lat="49.13547" lon="-0.29507">
        <ele>33.45</ele>
        <time>2025-07-04T15:39:44.558Z</time>
      </trkpt>
      <trkpt lat="49.13552" lon="-0.29506">
        <ele>33.36</ele>
        <time>2025-07-04T15:39:56.861Z</time>
      </trkpt>
      <trkpt lat="49.13556" lon="-0.29511">
        <ele>33.28</ele>
        <time>2025-07-04T15:40:09.164Z</time>
      </trkpt>
      <trkpt lat="49.13556" lon="-0.29521">
        <ele>33.19</ele>
        <time>2025-07-04T15:40:21.469Z</time>
      </trkpt>
      <trkpt lat="49.13569" lon="-0.29527">
        <ele>33.08</ele>
        <time>2025-07-04T15:40:33.776Z</time>
      </trkpt>
      <trkpt lat="49.13578" lon="-0.29529">
        <ele>32.94</ele>
        <time>2025-07-04T15:40:46.084Z</time>
      </trkpt>
      <trkpt lat="49.13609" lon="-0.29528">
        <ele>32.78</ele>
        <time>2025-07-04T15:40:58.397Z</time>
      </trkpt>
      <trkpt lat="49.13612" lon="-0.29528">
        <ele>32.65</ele>
        <time>2025-07-04T15:41:10.711Z</time>
      </trkpt>
      <trkpt lat="49.13631" lon="-0.29527">
        <ele>32.51</ele>
        <time>2025-07-04T15:41:23.028Z</time>
      </trkpt>
      <trkpt lat="49.13632" lon="-0.29521">
        <ele>32.37</ele>
        <time>2025-07-04T15:41:35.345Z</time>
      </trkpt>
      <trkpt lat="49.13637" lon="-0.29511">
        <ele>32.21</ele>
        <time>2025-07-04T15:41:47.664Z</time>
      </trkpt>
      <trkpt lat="49.13648" lon="-0.29499">
        <ele>32.04</ele>
        <time>2025-07-04T15:41:59.985Z</time>
      </trkpt>
      <trkpt lat="49.13678" lon="-0.29483">
        <ele>31.88</ele>
        <time>2025-07-04T15:42:12.311Z</time>
      </trkpt>
      <trkpt lat="49.13684" lon="-0.29479">
        <ele>31.72</ele>
        <time>2025-07-04T15:42:24.638Z</time>
      </trkpt>
      <trkpt lat="49.13714" lon="-0.29466">
        <ele>31.59</ele>
        <time>2025-07-04T15:42:36.970Z</time>
      </trkpt>
      <trkpt lat="49.13745" lon="-0.29454">
        <ele>31.38</ele>
        <time>2025-07-04T15:42:49.307Z</time>
      </trkpt>
      <trkpt lat="49.13775" lon="-0.29441">
        <ele>31.17</ele>
        <time>2025-07-04T15:43:01.649Z</time>
      </trkpt>
      <trkpt lat="49.13801" lon="-0.2943">
        <ele>30.99</ele>
        <time>2025-07-04T15:43:13.995Z</time>
      </trkpt>
      <trkpt lat="49.13831" lon="-0.29417">
        <ele>30.89</ele>
        <time>2025-07-04T15:43:26.346Z</time>
      </trkpt>
      <trkpt lat="49.13862" lon="-0.29404">
        <ele>30.71</ele>
        <time>2025-07-04T15:43:38.702Z</time>
      </trkpt>
      <trkpt lat="49.1387" lon="-0.29401">
        <ele>30.53</ele>
        <time>2025-07-04T15:43:51.060Z</time>
      </trkpt>
      <trkpt lat="49.13885" lon="-0.29393">
        <ele>30.35</ele>
        <time>2025-07-04T15:44:03.420Z</time>
      </trkpt>
      <trkpt lat="49.13915" lon="-0.29376">
        <ele>30.17</ele>
        <time>2025-07-04T15:44:15.785Z</time>
      </trkpt>
      <trkpt lat="49.13944" lon="-0.2936">
        <ele>30.01</ele>
        <time>2025-07-04T15:44:28.155Z</time>
      </trkpt>
      <trkpt lat="49.13963" lon="-0.29349">
        <ele>29.83</ele>
        <time>2025-07-04T15:44:40.529Z</time>
      </trkpt>
      <trkpt lat="49.13992" lon="-0.29329">
        <ele>29.64</ele>
        <time>2025-07-04T15:44:52.908Z</time>
      </trkpt>
      <trkpt lat="49.14009" lon="-0.29317">
        <ele>29.45</ele>
        <time>2025-07-04T15:45:05.290Z</time>
      </trkpt>
      <trkpt lat="49.14037" lon="-0.29295">
        <ele>29.29</ele>
        <time>2025-07-04T15:45:17.677Z</time>
      </trkpt>
      <trkpt lat="49.14065" lon="-0.29273">
        <ele>29.17</ele>
        <time>2025-07-04T15:45:30.069Z</time>
      </trkpt>
      <trkpt lat="49.14086" lon="-0.29256">
        <ele>29.04</ele>
        <time>2025-07-04T15:45:42.465Z</time>
      </trkpt>
      <trkpt lat="49.1409" lon="-0.2925">
        <ele>28.9</ele>
        <time>2025-07-04T15:45:54.862Z</time>
      </trkpt>
      <trkpt lat="49.14118" lon="-0.29227">
        <ele>28.75</ele>
        <time>2025-07-04T15:46:07.264Z</time>
      </trkpt>
      <trkpt lat="49.14145" lon="-0.29204">
        <ele>28.59</ele>
        <time>2025-07-04T15:46:19.671Z</time>
      </trkpt>
      <trkpt lat="49.14173" lon="-0.29181">
        <ele>28.45</ele>
        <time>2025-07-04T15:46:32.083Z</time>
      </trkpt>
      <trkpt lat="49.142" lon="-0.29159">
        <ele>28.28</ele>
        <time>2025-07-04T15:46:44.500Z</time>
      </trkpt>
      <trkpt lat="49.14228" lon="-0.29136">
        <ele>28.11</ele>
        <time>2025-07-04T15:46:56.922Z</time>
      </trkpt>
      <trkpt lat="49.14255" lon="-0.29113">
        <ele>28.01</ele>
        <time>2025-07-04T15:47:09.349Z</time>
      </trkpt>
      <trkpt lat="49.14275" lon="-0.29096">
        <ele>27.91</ele>
        <time>2025-07-04T15:47:21.779Z</time>
      </trkpt>
      <trkpt lat="49.14303" lon="-0.29074">
        <ele>27.79</ele>
        <time>2025-07-04T15:47:34.214Z</time>
      </trkpt>
      <trkpt lat="49.14303" lon="-0.29074">
        <ele>27.67</ele>
        <time>2025-07-04T15:47:46.649Z</time>
      </trkpt>
      <trkpt lat="49.14331" lon="-0.29051">
        <ele>27.56</ele>
        <time>2025-07-04T15:47:59.089Z</time>
      </trkpt>
      <trkpt lat="49.14358" lon="-0.29028">
        <ele>27.42</ele>
        <time>2025-07-04T15:48:11.534Z</time>
      </trkpt>
      <trkpt lat="49.14366" lon="-0.29022">
        <ele>27.31</ele>
        <time>2025-07-04T15:48:23.981Z</time>
      </trkpt>
      <trkpt lat="49.14394" lon="-0.29002">
        <ele>27.21</ele>
        <time>2025-07-04T15:48:36.433Z</time>
      </trkpt>
      <trkpt lat="49.14408" lon="-0.28992">
        <ele>27.11</ele>
        <time>2025-07-04T15:48:48.887Z</time>
      </trkpt>
      <trkpt lat="49.14437" lon="-0.28973">
        <ele>27.06</ele>
        <time>2025-07-04T15:49:01.346Z</time>
      </trkpt>
      <trkpt lat="49.14466" lon="-0.28953">
        <ele>27</ele>
        <time>2025-07-04T15:49:13.810Z</time>
      </trkpt>
      <trkpt lat="49.14475" lon="-0.28947">
        <ele>26.91</ele>
        <time>2025-07-04T15:49:26.276Z</time>
      </trkpt>
      <trkpt lat="49.14481" lon="-0.2894">
        <ele>26.81</ele>
        <time>2025-07-04T15:49:38.743Z</time>
      </trkpt>
      <trkpt lat="49.1451" lon="-0.28921">
        <ele>26.67</ele>
        <time>2025-07-04T15:49:51.215Z</time>
      </trkpt>
      <trkpt lat="49.14529" lon="-0.28909">
        <ele>26.55</ele>
        <time>2025-07-04T15:50:03.691Z</time>
      </trkpt>
      <trkpt lat="49.14558" lon="-0.28889">
        <ele>26.4</ele>
        <time>2025-07-04T15:50:16.172Z</time>
      </trkpt>
      <trkpt lat="49.1457" lon="-0.28881">
        <ele>26.3</ele>
        <time>2025-07-04T15:50:28.655Z</time>
      </trkpt>
      <trkpt lat="49.14582" lon="-0.28873">
        <ele>26.23</ele>
        <time>2025-07-04T15:50:41.140Z</time>
      </trkpt>
      <trkpt lat="49.14586" lon="-0.28873">
        <ele>26.16</ele>
        <time>2025-07-04T15:50:53.625Z</time>
      </trkpt>
      <trkpt lat="49.14615" lon="-0.28853">
        <ele>26.13</ele>
        <time>2025-07-04T15:51:06.116Z</time>
      </trkpt>
      <trkpt lat="49.14616" lon="-0.28852">
        <ele>26.05</ele>
        <time>2025-07-04T15:51:18.607Z</time>
      </trkpt>
      <trkpt lat="49.14645" lon="-0.28832">
        <ele>25.98</ele>
        <time>2025-07-04T15:51:31.103Z</time>
      </trkpt>
      <trkpt lat="49.14673" lon="-0.28812">
        <ele>25.88</ele>
        <time>2025-07-04T15:51:43.604Z</time>
      </trkpt>
      <trkpt lat="49.14687" lon="-0.28803">
        <ele>25.8</ele>
        <time>2025-07-04T15:51:56.107Z</time>
      </trkpt>
      <trkpt lat="49.14715" lon="-0.28783">
        <ele>25.77</ele>
        <time>2025-07-04T15:52:08.615Z</time>
      </trkpt>
      <trkpt lat="49.14733" lon="-0.2877">
        <ele>25.71</ele>
        <time>2025-07-04T15:52:21.126Z</time>
      </trkpt>
      <trkpt lat="49.14745" lon="-0.2876">
        <ele>25.66</ele>
        <time>2025-07-04T15:52:33.640Z</time>
      </trkpt>
      <trkpt lat="49.14767" lon="-0.28742">
        <ele>25.6</ele>
        <time>2025-07-04T15:52:46.158Z</time>
      </trkpt>
      <trkpt lat="49.14787" lon="-0.2873">
        <ele>25.55</ele>
        <time>2025-07-04T15:52:58.679Z</time>
      </trkpt>
      <trkpt lat="49.1479" lon="-0.28725">
        <ele>25.49</ele>
        <time>2025-07-04T15:53:11.201Z</time>
      </trkpt>
      <trkpt lat="49.14795" lon="-0.28723">
        <ele>25.44</ele>
        <time>2025-07-04T15:53:23.724Z</time>
      </trkpt>
      <trkpt lat="49.14799" lon="-0.28724">
        <ele>25.39</ele>
        <time>2025-07-04T15:53:36.247Z</time>
      </trkpt>
      <trkpt lat="49.14802" lon="-0.28728">
        <ele>25.35</ele>
        <time>2025-07-04T15:53:48.771Z</time>
      </trkpt>
      <trkpt lat="49.14803" lon="-0.28731">
        <ele>25.3</ele>
        <time>2025-07-04T15:54:01.295Z</time>
      </trkpt>
      <trkpt lat="49.1481" lon="-0.2873">
        <ele>25.26</ele>
        <time>2025-07-04T15:54:13.820Z</time>
      </trkpt>
      <trkpt lat="49.14814" lon="-0.28731">
        <ele>25.2</ele>
        <time>2025-07-04T15:54:26.346Z</time>
      </trkpt>
      <trkpt lat="49.14845" lon="-0.28724">
        <ele>25.15</ele>
        <time>2025-07-04T15:54:38.877Z</time>
      </trkpt>
      <trkpt lat="49.1485" lon="-0.28723">
        <ele>25.09</ele>
        <time>2025-07-04T15:54:51.409Z</time>
      </trkpt>
      <trkpt lat="49.14864" lon="-0.28714">
        <ele>25.01</ele>
        <time>2025-07-04T15:55:03.943Z</time>
      </trkpt>
      <trkpt lat="49.14879" lon="-0.28709">
        <ele>24.92</ele>
        <time>2025-07-04T15:55:16.480Z</time>
      </trkpt>
      <trkpt lat="49.1491" lon="-0.28706">
        <ele>24.82</ele>
        <time>2025-07-04T15:55:29.022Z</time>
      </trkpt>
      <trkpt lat="49.1494" lon="-0.28704">
        <ele>24.75</ele>
        <time>2025-07-04T15:55:41.568Z</time>
      </trkpt>
      <trkpt lat="49.14949" lon="-0.28703">
        <ele>24.69</ele>
        <time>2025-07-04T15:55:54.116Z</time>
      </trkpt>
      <trkpt lat="49.14954" lon="-0.28705">
        <ele>24.65</ele>
        <time>2025-07-04T15:56:06.665Z</time>
      </trkpt>
      <trkpt lat="49.14974" lon="-0.28711">
        <ele>24.61</ele>
        <time>2025-07-04T15:56:19.217Z</time>
      </trkpt>
      <trkpt lat="49.14983" lon="-0.28713">
        <ele>24.59</ele>
        <time>2025-07-04T15:56:31.770Z</time>
      </trkpt>
      <trkpt lat="49.14991" lon="-0.28717">
        <ele>24.59</ele>
        <time>2025-07-04T15:56:44.325Z</time>
      </trkpt>
      <trkpt lat="49.14998" lon="-0.28724">
        <ele>24.6</ele>
        <time>2025-07-04T15:56:56.881Z</time>
      </trkpt>
      <trkpt lat="49.15008" lon="-0.28725">
        <ele>24.61</ele>
        <time>2025-07-04T15:57:09.439Z</time>
      </trkpt>
      <trkpt lat="49.15013" lon="-0.28722">
        <ele>24.62</ele>
        <time>2025-07-04T15:57:21.998Z</time>
      </trkpt>
      <trkpt lat="49.15032" lon="-0.28708">
        <ele>24.63</ele>
        <time>2025-07-04T15:57:34.560Z</time>
      </trkpt>
      <trkpt lat="49.15041" lon="-0.28705">
        <ele>24.64</ele>
        <time>2025-07-04T15:57:47.123Z</time>
      </trkpt>
      <trkpt lat="49.15067" lon="-0.28703">
        <ele>24.67</ele>
        <time>2025-07-04T15:57:59.691Z</time>
      </trkpt>
      <trkpt lat="49.15092" lon="-0.28698">
        <ele>24.7</ele>
        <time>2025-07-04T15:58:12.263Z</time>
      </trkpt>
      <trkpt lat="49.1512" lon="-0.28687">
        <ele>24.75</ele>
        <time>2025-07-04T15:58:24.839Z</time>
      </trkpt>
      <trkpt lat="49.15149" lon="-0.28669">
        <ele>24.82</ele>
        <time>2025-07-04T15:58:37.420Z</time>
      </trkpt>
      <trkpt lat="49.15179" lon="-0.28652">
        <ele>24.84</ele>
        <time>2025-07-04T15:58:50.006Z</time>
      </trkpt>
      <trkpt lat="49.15208" lon="-0.28634">
        <ele>24.79</ele>
        <time>2025-07-04T15:59:02.597Z</time>
      </trkpt>
      <trkpt lat="49.15223" lon="-0.28625">
        <ele>24.73</ele>
        <time>2025-07-04T15:59:15.191Z</time>
      </trkpt>
      <trkpt lat="49.15243" lon="-0.28616">
        <ele>24.65</ele>
        <time>2025-07-04T15:59:27.788Z</time>
      </trkpt>
      <trkpt lat="49.15264" lon="-0.28611">
        <ele>24.57</ele>
        <time>2025-07-04T15:59:40.389Z</time>
      </trkpt>
      <trkpt lat="49.15283" lon="-0.28611">
        <ele>24.5</ele>
        <time>2025-07-04T15:59:52.993Z</time>
      </trkpt>
      <trkpt lat="49.15314" lon="-0.28616">
        <ele>24.45</ele>
        <time>2025-07-04T16:00:05.602Z</time>
      </trkpt>
      <trkpt lat="49.15323" lon="-0.28618">
        <ele>24.39</ele>
        <time>2025-07-04T16:00:18.212Z</time>
      </trkpt>
      <trkpt lat="49.15343" lon="-0.28621">
        <ele>24.34</ele>
        <time>2025-07-04T16:00:30.826Z</time>
      </trkpt>
      <trkpt lat="49.15356" lon="-0.28621">
        <ele>24.28</ele>
        <time>2025-07-04T16:00:43.442Z</time>
      </trkpt>
      <trkpt lat="49.15377" lon="-0.28616">
        <ele>24.21</ele>
        <time>2025-07-04T16:00:56.061Z</time>
      </trkpt>
      <trkpt lat="49.15387" lon="-0.28612">
        <ele>24.12</ele>
        <time>2025-07-04T16:01:08.682Z</time>
      </trkpt>
      <trkpt lat="49.15389" lon="-0.2861">
        <ele>24.02</ele>
        <time>2025-07-04T16:01:21.303Z</time>
      </trkpt>
      <trkpt lat="49.15392" lon="-0.28605">
        <ele>23.91</ele>
        <time>2025-07-04T16:01:33.925Z</time>
      </trkpt>
      <trkpt lat="49.15395" lon="-0.28602">
        <ele>23.79</ele>
        <time>2025-07-04T16:01:46.547Z</time>
      </trkpt>
      <trkpt lat="49.15404" lon="-0.28601">
        <ele>23.66</ele>
        <time>2025-07-04T16:01:59.171Z</time>
      </trkpt>
      <trkpt lat="49.15412" lon="-0.28608">
        <ele>23.51</ele>
        <time>2025-07-04T16:02:11.796Z</time>
      </trkpt>
      <trkpt lat="49.15435" lon="-0.28604">
        <ele>23.34</ele>
        <time>2025-07-04T16:02:24.425Z</time>
      </trkpt>
      <trkpt lat="49.15462" lon="-0.2859">
        <ele>23.15</ele>
        <time>2025-07-04T16:02:37.059Z</time>
      </trkpt>
      <trkpt lat="49.15492" lon="-0.28576">
        <ele>22.95</ele>
        <time>2025-07-04T16:02:49.698Z</time>
      </trkpt>
      <trkpt lat="49.1552" lon="-0.28563">
        <ele>22.75</ele>
        <time>2025-07-04T16:03:02.341Z</time>
      </trkpt>
      <trkpt lat="49.1555" lon="-0.2855">
        <ele>22.59</ele>
        <time>2025-07-04T16:03:14.989Z</time>
      </trkpt>
      <trkpt lat="49.15581" lon="-0.28537">
        <ele>22.46</ele>
        <time>2025-07-04T16:03:27.642Z</time>
      </trkpt>
      <trkpt lat="49.15589" lon="-0.28534">
        <ele>22.3</ele>
        <time>2025-07-04T16:03:40.297Z</time>
      </trkpt>
      <trkpt lat="49.1562" lon="-0.28522">
        <ele>22.14</ele>
        <time>2025-07-04T16:03:52.957Z</time>
      </trkpt>
      <trkpt lat="49.15649" lon="-0.28511">
        <ele>21.96</ele>
        <time>2025-07-04T16:04:05.622Z</time>
      </trkpt>
      <trkpt lat="49.15669" lon="-0.28502">
        <ele>21.78</ele>
        <time>2025-07-04T16:04:18.290Z</time>
      </trkpt>
      <trkpt lat="49.15673" lon="-0.285">
        <ele>21.61</ele>
        <time>2025-07-04T16:04:30.959Z</time>
      </trkpt>
      <trkpt lat="49.15682" lon="-0.2849">
        <ele>21.44</ele>
        <time>2025-07-04T16:04:43.629Z</time>
      </trkpt>
      <trkpt lat="49.15682" lon="-0.28486">
        <ele>21.27</ele>
        <time>2025-07-04T16:04:56.300Z</time>
      </trkpt>
      <trkpt lat="49.15683" lon="-0.28479">
        <ele>21.11</ele>
        <time>2025-07-04T16:05:08.972Z</time>
      </trkpt>
      <trkpt lat="49.15686" lon="-0.2847">
        <ele>20.94</ele>
        <time>2025-07-04T16:05:21.645Z</time>
      </trkpt>
      <trkpt lat="49.15692" lon="-0.28463">
        <ele>20.79</ele>
        <time>2025-07-04T16:05:34.319Z</time>
      </trkpt>
      <trkpt lat="49.15699" lon="-0.2846">
        <ele>20.65</ele>
        <time>2025-07-04T16:05:46.994Z</time>
      </trkpt>
      <trkpt lat="49.15706" lon="-0.2846">
        <ele>20.51</ele>
        <time>2025-07-04T16:05:59.670Z</time>
      </trkpt>
      <trkpt lat="49.1571" lon="-0.28463">
        <ele>20.37</ele>
        <time>2025-07-04T16:06:12.347Z</time>
      </trkpt>
      <trkpt lat="49.15712" lon="-0.28464">
        <ele>20.24</ele>
        <time>2025-07-04T16:06:25.024Z</time>
      </trkpt>
      <trkpt lat="49.1572" lon="-0.28462">
        <ele>20.11</ele>
        <time>2025-07-04T16:06:37.702Z</time>
      </trkpt>
      <trkpt lat="49.15738" lon="-0.28451">
        <ele>20.01</ele>
        <time>2025-07-04T16:06:50.384Z</time>
      </trkpt>
      <trkpt lat="49.15751" lon="-0.28439">
        <ele>19.91</ele>
        <time>2025-07-04T16:07:03.068Z</time>
      </trkpt>
      <trkpt lat="49.15778" lon="-0.28417">
        <ele>19.79</ele>
        <time>2025-07-04T16:07:15.757Z</time>
      </trkpt>
      <trkpt lat="49.15808" lon="-0.28404">
        <ele>19.68</ele>
        <time>2025-07-04T16:07:28.451Z</time>
      </trkpt>
      <trkpt lat="49.15815" lon="-0.28401">
        <ele>19.56</ele>
        <time>2025-07-04T16:07:41.146Z</time>
      </trkpt>
      <trkpt lat="49.15846" lon="-0.28394">
        <ele>19.43</ele>
        <time>2025-07-04T16:07:53.846Z</time>
      </trkpt>
      <trkpt lat="49.1587" lon="-0.28389">
        <ele>19.34</ele>
        <time>2025-07-04T16:08:06.550Z</time>
      </trkpt>
      <trkpt lat="49.15901" lon="-0.28383">
        <ele>19.25</ele>
        <time>2025-07-04T16:08:19.259Z</time>
      </trkpt>
      <trkpt lat="49.15904" lon="-0.28382">
        <ele>19.16</ele>
        <time>2025-07-04T16:08:31.968Z</time>
      </trkpt>
      <trkpt lat="49.15935" lon="-0.28377">
        <ele>19.04</ele>
        <time>2025-07-04T16:08:44.683Z</time>
      </trkpt>
      <trkpt lat="49.15961" lon="-0.28372">
        <ele>18.97</ele>
        <time>2025-07-04T16:08:57.402Z</time>
      </trkpt>
      <trkpt lat="49.15992" lon="-0.28365">
        <ele>18.93</ele>
        <time>2025-07-04T16:09:10.126Z</time>
      </trkpt>
      <trkpt lat="49.16023" lon="-0.28358">
        <ele>18.82</ele>
        <time>2025-07-04T16:09:22.855Z</time>
      </trkpt>
      <trkpt lat="49.16054" lon="-0.28352">
        <ele>18.76</ele>
        <time>2025-07-04T16:09:35.589Z</time>
      </trkpt>
      <trkpt lat="49.16086" lon="-0.28345">
        <ele>18.71</ele>
        <time>2025-07-04T16:09:48.328Z</time>
      </trkpt>
      <trkpt lat="49.16117" lon="-0.28338">
        <ele>18.69</ele>
        <time>2025-07-04T16:10:01.072Z</time>
      </trkpt>
      <trkpt lat="49.16148" lon="-0.28331">
        <ele>18.7</ele>
        <time>2025-07-04T16:10:13.821Z</time>
      </trkpt>
      <trkpt lat="49.16154" lon="-0.2833">
        <ele>18.67</ele>
        <time>2025-07-04T16:10:26.571Z</time>
      </trkpt>
      <trkpt lat="49.16185" lon="-0.28327">
        <ele>18.56</ele>
        <time>2025-07-04T16:10:39.326Z</time>
      </trkpt>
      <trkpt lat="49.16217" lon="-0.28323">
        <ele>18.46</ele>
        <time>2025-07-04T16:10:52.086Z</time>
      </trkpt>
      <trkpt lat="49.16248" lon="-0.2832">
        <ele>18.46</ele>
        <time>2025-07-04T16:11:04.851Z</time>
      </trkpt>
      <trkpt lat="49.1628" lon="-0.28316">
        <ele>18.52</ele>
        <time>2025-07-04T16:11:17.621Z</time>
      </trkpt>
      <trkpt lat="49.16311" lon="-0.28313">
        <ele>18.52</ele>
        <time>2025-07-04T16:11:30.396Z</time>
      </trkpt>
      <trkpt lat="49.16328" lon="-0.28311">
        <ele>18.51</ele>
        <time>2025-07-04T16:11:43.174Z</time>
      </trkpt>
      <trkpt lat="49.16359" lon="-0.28308">
        <ele>18.51</ele>
        <time>2025-07-04T16:11:55.957Z</time>
      </trkpt>
      <trkpt lat="49.16391" lon="-0.28305">
        <ele>18.56</ele>
        <time>2025-07-04T16:12:08.745Z</time>
      </trkpt>
      <trkpt lat="49.16422" lon="-0.28302">
        <ele>18.58</ele>
        <time>2025-07-04T16:12:21.538Z</time>
      </trkpt>
      <trkpt lat="49.16454" lon="-0.28299">
        <ele>18.57</ele>
        <time>2025-07-04T16:12:34.336Z</time>
      </trkpt>
      <trkpt lat="49.1647" lon="-0.28297">
        <ele>18.59</ele>
        <time>2025-07-04T16:12:47.137Z</time>
      </trkpt>
      <trkpt lat="49.16501" lon="-0.28295">
        <ele>18.61</ele>
        <time>2025-07-04T16:12:59.943Z</time>
      </trkpt>
      <trkpt lat="49.16522" lon="-0.28293">
        <ele>18.68</ele>
        <time>2025-07-04T16:13:12.752Z</time>
      </trkpt>
      <trkpt lat="49.16553" lon="-0.28291">
        <ele>18.79</ele>
        <time>2025-07-04T16:13:25.566Z</time>
      </trkpt>
      <trkpt lat="49.16558" lon="-0.28291">
        <ele>18.87</ele>
        <time>2025-07-04T16:13:38.381Z</time>
      </trkpt>
      <trkpt lat="49.16589" lon="-0.28289">
        <ele>19.01</ele>
        <time>2025-07-04T16:13:51.201Z</time>
      </trkpt>
      <trkpt lat="49.16593" lon="-0.28289">
        <ele>19.08</ele>
        <time>2025-07-04T16:14:04.021Z</time>
      </trkpt>
      <trkpt lat="49.16624" lon="-0.28291">
        <ele>19.22</ele>
        <time>2025-07-04T16:14:16.846Z</time>
      </trkpt>
      <trkpt lat="49.1663" lon="-0.28291">
        <ele>19.3</ele>
        <time>2025-07-04T16:14:29.672Z</time>
      </trkpt>
      <trkpt lat="49.16661" lon="-0.28292">
        <ele>19.41</ele>
        <time>2025-07-04T16:14:42.503Z</time>
      </trkpt>
      <trkpt lat="49.16666" lon="-0.28292">
        <ele>19.48</ele>
        <time>2025-07-04T16:14:55.335Z</time>
      </trkpt>
      <trkpt lat="49.16697" lon="-0.28294">
        <ele>19.53</ele>
        <time>2025-07-04T16:15:08.172Z</time>
      </trkpt>
      <trkpt lat="49.16699" lon="-0.28294">
        <ele>19.59</ele>
        <time>2025-07-04T16:15:21.009Z</time>
      </trkpt>
      <trkpt lat="49.16716" lon="-0.28295">
        <ele>19.63</ele>
        <time>2025-07-04T16:15:33.849Z</time>
      </trkpt>
      <trkpt lat="49.16747" lon="-0.28297">
        <ele>19.64</ele>
        <time>2025-07-04T16:15:46.694Z</time>
      </trkpt>
      <trkpt lat="49.16777" lon="-0.28299">
        <ele>19.59</ele>
        <time>2025-07-04T16:15:59.544Z</time>
      </trkpt>
      <trkpt lat="49.1679" lon="-0.283">
        <ele>19.58</ele>
        <time>2025-07-04T16:16:12.396Z</time>
      </trkpt>
      <trkpt lat="49.16798" lon="-0.28295">
        <ele>19.57</ele>
        <time>2025-07-04T16:16:25.249Z</time>
      </trkpt>
      <trkpt lat="49.16829" lon="-0.28298">
        <ele>19.52</ele>
        <time>2025-07-04T16:16:38.107Z</time>
      </trkpt>
      <trkpt lat="49.16861" lon="-0.28302">
        <ele>19.57</ele>
        <time>2025-07-04T16:16:50.970Z</time>
      </trkpt>
      <trkpt lat="49.16892" lon="-0.28305">
        <ele>19.67</ele>
        <time>2025-07-04T16:17:03.838Z</time>
      </trkpt>
      <trkpt lat="49.16924" lon="-0.28309">
        <ele>19.71</ele>
        <time>2025-07-04T16:17:16.711Z</time>
      </trkpt>
      <trkpt lat="49.16935" lon="-0.2831">
        <ele>19.73</ele>
        <time>2025-07-04T16:17:29.586Z</time>
      </trkpt>
      <trkpt lat="49.16966" lon="-0.28314">
        <ele>19.75</ele>
        <time>2025-07-04T16:17:42.466Z</time>
      </trkpt>
      <trkpt lat="49.16998" lon="-0.28318">
        <ele>19.74</ele>
        <time>2025-07-04T16:17:55.351Z</time>
      </trkpt>
      <trkpt lat="49.17004" lon="-0.28319">
        <ele>19.73</ele>
        <time>2025-07-04T16:18:08.237Z</time>
      </trkpt>
      <trkpt lat="49.17035" lon="-0.28316">
        <ele>19.71</ele>
        <time>2025-07-04T16:18:21.128Z</time>
      </trkpt>
      <trkpt lat="49.1705" lon="-0.28314">
        <ele>19.68</ele>
        <time>2025-07-04T16:18:34.022Z</time>
      </trkpt>
      <trkpt lat="49.17081" lon="-0.28307">
        <ele>19.63</ele>
        <time>2025-07-04T16:18:46.921Z</time>
      </trkpt>
      <trkpt lat="49.17086" lon="-0.28306">
        <ele>19.58</ele>
        <time>2025-07-04T16:18:59.821Z</time>
      </trkpt>
      <trkpt lat="49.17108" lon="-0.28301">
        <ele>19.51</ele>
        <time>2025-07-04T16:19:12.724Z</time>
      </trkpt>
      <trkpt lat="49.17126" lon="-0.28293">
        <ele>19.44</ele>
        <time>2025-07-04T16:19:25.630Z</time>
      </trkpt>
      <trkpt lat="49.17148" lon="-0.28279">
        <ele>19.35</ele>
        <time>2025-07-04T16:19:38.540Z</time>
      </trkpt>
      <trkpt lat="49.1716" lon="-0.28272">
        <ele>19.29</ele>
        <time>2025-07-04T16:19:51.452Z</time>
      </trkpt>
      <trkpt lat="49.17188" lon="-0.2825">
        <ele>19.27</ele>
        <time>2025-07-04T16:20:04.369Z</time>
      </trkpt>
      <trkpt lat="49.17197" lon="-0.28243">
        <ele>19.23</ele>
        <time>2025-07-04T16:20:17.288Z</time>
      </trkpt>
      <trkpt lat="49.172" lon="-0.28238">
        <ele>19.16</ele>
        <time>2025-07-04T16:20:30.207Z</time>
      </trkpt>
      <trkpt lat="49.17203" lon="-0.28235">
        <ele>19.09</ele>
        <time>2025-07-04T16:20:43.127Z</time>
      </trkpt>
      <trkpt lat="49.17219" lon="-0.28219">
        <ele>19.01</ele>
        <time>2025-07-04T16:20:56.050Z</time>
      </trkpt>
      <trkpt lat="49.17223" lon="-0.28214">
        <ele>18.92</ele>
        <time>2025-07-04T16:21:08.974Z</time>
      </trkpt>
      <trkpt lat="49.17224" lon="-0.28212">
        <ele>18.84</ele>
        <time>2025-07-04T16:21:21.898Z</time>
      </trkpt>
      <trkpt lat="49.17226" lon="-0.28207">
        <ele>18.74</ele>
        <time>2025-07-04T16:21:34.823Z</time>
      </trkpt>
      <trkpt lat="49.17233" lon="-0.28202">
        <ele>18.65</ele>
        <time>2025-07-04T16:21:47.749Z</time>
      </trkpt>
      <trkpt lat="49.1724" lon="-0.28207">
        <ele>18.56</ele>
        <time>2025-07-04T16:22:00.676Z</time>
      </trkpt>
      <trkpt lat="49.1724" lon="-0.28208">
        <ele>18.46</ele>
        <time>2025-07-04T16:22:13.603Z</time>
      </trkpt>
      <trkpt lat="49.17248" lon="-0.28206">
        <ele>18.35</ele>
        <time>2025-07-04T16:22:26.532Z</time>
      </trkpt>
      <trkpt lat="49.17257" lon="-0.28204">
        <ele>18.23</ele>
        <time>2025-07-04T16:22:39.462Z</time>
      </trkpt>
      <trkpt lat="49.17287" lon="-0.28188">
        <ele>18.12</ele>
        <time>2025-07-04T16:22:52.397Z</time>
      </trkpt>
      <trkpt lat="49.17303" lon="-0.2818">
        <ele>18</ele>
        <time>2025-07-04T16:23:05.335Z</time>
      </trkpt>
      <trkpt lat="49.17333" lon="-0.28166">
        <ele>17.91</ele>
        <time>2025-07-04T16:23:18.278Z</time>
      </trkpt>
      <trkpt lat="49.17341" lon="-0.28162">
        <ele>17.77</ele>
        <time>2025-07-04T16:23:31.222Z</time>
      </trkpt>
      <trkpt lat="49.17362" lon="-0.28155">
        <ele>17.64</ele>
        <time>2025-07-04T16:23:44.170Z</time>
      </trkpt>
      <trkpt lat="49.1738" lon="-0.28149">
        <ele>17.51</ele>
        <time>2025-07-04T16:23:57.121Z</time>
      </trkpt>
      <trkpt lat="49.17411" lon="-0.28141">
        <ele>17.31</ele>
        <time>2025-07-04T16:24:10.077Z</time>
      </trkpt>
      <trkpt lat="49.17442" lon="-0.28132">
        <ele>17.07</ele>
        <time>2025-07-04T16:24:23.038Z</time>
      </trkpt>
      <trkpt lat="49.17468" lon="-0.28125">
        <ele>16.9</ele>
        <time>2025-07-04T16:24:36.003Z</time>
      </trkpt>
      <trkpt lat="49.17499" lon="-0.2812">
        <ele>16.76</ele>
        <time>2025-07-04T16:24:48.973Z</time>
      </trkpt>
      <trkpt lat="49.17505" lon="-0.28119">
        <ele>16.58</ele>
        <time>2025-07-04T16:25:01.944Z</time>
      </trkpt>
      <trkpt lat="49.17534" lon="-0.28101">
        <ele>16.36</ele>
        <time>2025-07-04T16:25:14.920Z</time>
      </trkpt>
      <trkpt lat="49.17544" lon="-0.28095">
        <ele>16.12</ele>
        <time>2025-07-04T16:25:27.898Z</time>
      </trkpt>
      <trkpt lat="49.17572" lon="-0.28073">
        <ele>15.88</ele>
        <time>2025-07-04T16:25:40.881Z</time>
      </trkpt>
      <trkpt lat="49.17586" lon="-0.28062">
        <ele>15.68</ele>
        <time>2025-07-04T16:25:53.866Z</time>
      </trkpt>
      <trkpt lat="49.17614" lon="-0.2804">
        <ele>15.49</ele>
        <time>2025-07-04T16:26:06.856Z</time>
      </trkpt>
      <trkpt lat="49.1764" lon="-0.2802">
        <ele>15.31</ele>
        <time>2025-07-04T16:26:19.851Z</time>
      </trkpt>
      <trkpt lat="49.17659" lon="-0.28006">
        <ele>15.1</ele>
        <time>2025-07-04T16:26:32.849Z</time>
      </trkpt>
      <trkpt lat="49.17684" lon="-0.27991">
        <ele>14.92</ele>
        <time>2025-07-04T16:26:45.852Z</time>
      </trkpt>
      <trkpt lat="49.17687" lon="-0.27989">
        <ele>14.72</ele>
        <time>2025-07-04T16:26:58.855Z</time>
      </trkpt>
      <trkpt lat="49.17687" lon="-0.2799">
        <ele>14.53</ele>
        <time>2025-07-04T16:27:11.858Z</time>
      </trkpt>
      <trkpt lat="49.17715" lon="-0.27978">
        <ele>14.28</ele>
        <time>2025-07-04T16:27:24.866Z</time>
      </trkpt>
      <trkpt lat="49.17746" lon="-0.27969">
        <ele>14.11</ele>
        <time>2025-07-04T16:27:37.879Z</time>
      </trkpt>
      <trkpt lat="49.17771" lon="-0.27962">
        <ele>13.91</ele>
        <time>2025-07-04T16:27:50.896Z</time>
      </trkpt>
      <trkpt lat="49.17802" lon="-0.27963">
        <ele>13.71</ele>
        <time>2025-07-04T16:28:03.918Z</time>
      </trkpt>
      <trkpt lat="49.17816" lon="-0.27963">
        <ele>13.57</ele>
        <time>2025-07-04T16:28:16.942Z</time>
      </trkpt>
      <trkpt lat="49.17847" lon="-0.27969">
        <ele>13.41</ele>
        <time>2025-07-04T16:28:29.971Z</time>
      </trkpt>
      <trkpt lat="49.17866" lon="-0.27972">
        <ele>13.27</ele>
        <time>2025-07-04T16:28:43.003Z</time>
      </trkpt>
      <trkpt lat="49.17897" lon="-0.27983">
        <ele>13.15</ele>
        <time>2025-07-04T16:28:56.040Z</time>
      </trkpt>
      <trkpt lat="49.17901" lon="-0.27985">
        <ele>13.08</ele>
        <time>2025-07-04T16:29:09.078Z</time>
      </trkpt>
      <trkpt lat="49.17931" lon="-0.28002">
        <ele>13.07</ele>
        <time>2025-07-04T16:29:22.121Z</time>
      </trkpt>
      <trkpt lat="49.17942" lon="-0.28008">
        <ele>13.06</ele>
        <time>2025-07-04T16:29:35.166Z</time>
      </trkpt>
      <trkpt lat="49.17969" lon="-0.28031">
        <ele>13.08</ele>
        <time>2025-07-04T16:29:48.216Z</time>
      </trkpt>
      <trkpt lat="49.17982" lon="-0.28042">
        <ele>13.09</ele>
        <time>2025-07-04T16:30:01.268Z</time>
      </trkpt>
      <trkpt lat="49.18008" lon="-0.28069">
        <ele>13.11</ele>
        <time>2025-07-04T16:30:14.325Z</time>
      </trkpt>
      <trkpt lat="49.18034" lon="-0.28096">
        <ele>13.17</ele>
        <time>2025-07-04T16:30:27.387Z</time>
      </trkpt>
      <trkpt lat="49.1806" lon="-0.28122">
        <ele>13.27</ele>
        <time>2025-07-04T16:30:40.454Z</time>
      </trkpt>
      <trkpt lat="49.18086" lon="-0.28149">
        <ele>13.33</ele>
        <time>2025-07-04T16:30:53.527Z</time>
      </trkpt>
      <trkpt lat="49.18097" lon="-0.2816">
        <ele>13.45</ele>
        <time>2025-07-04T16:31:06.602Z</time>
      </trkpt>
      <trkpt lat="49.18101" lon="-0.28141">
        <ele>13.59</ele>
        <time>2025-07-04T16:31:19.679Z</time>
      </trkpt>
      <trkpt lat="49.18111" lon="-0.28127">
        <ele>13.76</ele>
        <time>2025-07-04T16:31:32.758Z</time>
      </trkpt>
      <trkpt lat="49.18122" lon="-0.28117">
        <ele>13.95</ele>
        <time>2025-07-04T16:31:45.839Z</time>
      </trkpt>
      <trkpt lat="49.18128" lon="-0.28109">
        <ele>14.15</ele>
        <time>2025-07-04T16:31:58.921Z</time>
      </trkpt>
      <trkpt lat="49.18145" lon="-0.28069">
        <ele>14.44</ele>
        <time>2025-07-04T16:32:12.008Z</time>
      </trkpt>
      <trkpt lat="49.18152" lon="-0.28054">
        <ele>14.68</ele>
        <time>2025-07-04T16:32:25.097Z</time>
      </trkpt>
      <trkpt lat="49.18168" lon="-0.28021">
        <ele>14.99</ele>
        <time>2025-07-04T16:32:38.190Z</time>
      </trkpt>
      <trkpt lat="49.18173" lon="-0.28019">
        <ele>15.28</ele>
        <time>2025-07-04T16:32:51.284Z</time>
      </trkpt>
      <trkpt lat="49.18196" lon="-0.28036">
        <ele>15.61</ele>
        <time>2025-07-04T16:33:04.382Z</time>
      </trkpt>
      <trkpt lat="49.18214" lon="-0.28055">
        <ele>15.94</ele>
        <time>2025-07-04T16:33:17.484Z</time>
      </trkpt>
      <trkpt lat="49.18224" lon="-0.2806">
        <ele>16.29</ele>
        <time>2025-07-04T16:33:30.588Z</time>
      </trkpt>
      <trkpt lat="49.18234" lon="-0.28062">
        <ele>16.64</ele>
        <time>2025-07-04T16:33:43.693Z</time>
      </trkpt>
      <trkpt lat="49.18234" lon="-0.28014">
        <ele>16.98</ele>
        <time>2025-07-04T16:33:56.803Z</time>
      </trkpt>
      <trkpt lat="49.18234" lon="-0.28013">
        <ele>17.35</ele>
        <time>2025-07-04T16:34:09.913Z</time>
      </trkpt>
      <trkpt lat="49.18234" lon="-0.27965">
        <ele>17.73</ele>
        <time>2025-07-04T16:34:23.028Z</time>
      </trkpt>
      <trkpt lat="49.18234" lon="-0.27917">
        <ele>18.19</ele>
        <time>2025-07-04T16:34:36.148Z</time>
      </trkpt>
      <trkpt lat="49.18235" lon="-0.27869">
        <ele>18.63</ele>
        <time>2025-07-04T16:34:49.273Z</time>
      </trkpt>
      <trkpt lat="49.18235" lon="-0.27821">
        <ele>19.03</ele>
        <time>2025-07-04T16:35:02.403Z</time>
      </trkpt>
      <trkpt lat="49.18235" lon="-0.27797">
        <ele>19.43</ele>
        <time>2025-07-04T16:35:15.536Z</time>
      </trkpt>
      <trkpt lat="49.18263" lon="-0.27776">
        <ele>19.85</ele>
        <time>2025-07-04T16:35:28.674Z</time>
      </trkpt>
      <trkpt lat="49.18292" lon="-0.27755">
        <ele>20.35</ele>
        <time>2025-07-04T16:35:41.817Z</time>
      </trkpt>
      <trkpt lat="49.18295" lon="-0.27753">
        <ele>20.77</ele>
        <time>2025-07-04T16:35:54.961Z</time>
      </trkpt>
      <trkpt lat="49.18323" lon="-0.27731">
        <ele>21.23</ele>
        <time>2025-07-04T16:36:08.110Z</time>
      </trkpt>
      <trkpt lat="49.18325" lon="-0.27729">
        <ele>21.63</ele>
        <time>2025-07-04T16:36:21.259Z</time>
      </trkpt>
      <trkpt lat="49.18339" lon="-0.27706">
        <ele>22.02</ele>
        <time>2025-07-04T16:36:34.411Z</time>
      </trkpt>
      <trkpt lat="49.18345" lon="-0.27681">
        <ele>22.42</ele>
        <time>2025-07-04T16:36:47.566Z</time>
      </trkpt>
      <trkpt lat="49.1835" lon="-0.27637">
        <ele>22.83</ele>
        <time>2025-07-04T16:37:00.726Z</time>
      </trkpt>
      <trkpt lat="49.18353" lon="-0.27626">
        <ele>23.2</ele>
        <time>2025-07-04T16:37:13.887Z</time>
      </trkpt>
      <trkpt lat="49.18357" lon="-0.27619">
        <ele>23.54</ele>
        <time>2025-07-04T16:37:27.049Z</time>
      </trkpt>
      <trkpt lat="49.18382" lon="-0.27598">
        <ele>23.85</ele>
        <time>2025-07-04T16:37:40.216Z</time>
      </trkpt>
      <trkpt lat="49.18404" lon="-0.2758">
        <ele>24.23</ele>
        <time>2025-07-04T16:37:53.387Z</time>
      </trkpt>
      <trkpt lat="49.18412" lon="-0.27585">
        <ele>24.57</ele>
        <time>2025-07-04T16:38:06.559Z</time>
      </trkpt>
      <trkpt lat="49.18416" lon="-0.27587">
        <ele>24.91</ele>
        <time>2025-07-04T16:38:19.732Z</time>
      </trkpt>
      <trkpt lat="49.18441" lon="-0.27589">
        <ele>25.26</ele>
        <time>2025-07-04T16:38:32.909Z</time>
      </trkpt>
      <trkpt lat="49.18466" lon="-0.27599">
        <ele>25.59</ele>
        <time>2025-07-04T16:38:46.090Z</time>
      </trkpt>
      <trkpt lat="49.18493" lon="-0.27573">
        <ele>25.93</ele>
        <time>2025-07-04T16:38:59.276Z</time>
      </trkpt>
      <trkpt lat="49.18505" lon="-0.27561">
        <ele>26.24</ele>
        <time>2025-07-04T16:39:12.464Z</time>
      </trkpt>
      <trkpt lat="49.18531" lon="-0.27533">
        <ele>26.56</ele>
        <time>2025-07-04T16:39:25.657Z</time>
      </trkpt>
      <trkpt lat="49.18553" lon="-0.27509">
        <ele>26.88</ele>
        <time>2025-07-04T16:39:38.855Z</time>
      </trkpt>
      <trkpt lat="49.18558" lon="-0.2752">
        <ele>27.17</ele>
        <time>2025-07-04T16:39:52.054Z</time>
      </trkpt>
      <trkpt lat="49.1858" lon="-0.27499">
        <ele>27.45</ele>
        <time>2025-07-04T16:40:05.257Z</time>
      </trkpt>
      <trkpt lat="49.18581" lon="-0.27488">
        <ele>27.73</ele>
        <time>2025-07-04T16:40:18.461Z</time>
      </trkpt>
      <trkpt lat="49.18582" lon="-0.27483">
        <ele>28</ele>
        <time>2025-07-04T16:40:31.666Z</time>
      </trkpt>
      <trkpt lat="49.18598" lon="-0.27442">
        <ele>28.26</ele>
        <time>2025-07-04T16:40:44.876Z</time>
      </trkpt>
      <trkpt lat="49.18614" lon="-0.274">
        <ele>28.52</ele>
        <time>2025-07-04T16:40:58.091Z</time>
      </trkpt>
      <trkpt lat="49.1863" lon="-0.2736">
        <ele>28.78</ele>
        <time>2025-07-04T16:41:11.311Z</time>
      </trkpt>
      <trkpt lat="49.18645" lon="-0.27318">
        <ele>29.07</ele>
        <time>2025-07-04T16:41:24.536Z</time>
      </trkpt>
      <trkpt lat="49.18661" lon="-0.27276">
        <ele>29.34</ele>
        <time>2025-07-04T16:41:37.766Z</time>
      </trkpt>
      <trkpt lat="49.18676" lon="-0.27235">
        <ele>29.53</ele>
        <time>2025-07-04T16:41:51.001Z</time>
      </trkpt>
      <trkpt lat="49.18688" lon="-0.27203">
        <ele>29.69</ele>
        <time>2025-07-04T16:42:04.240Z</time>
      </trkpt>
      <trkpt lat="49.1868" lon="-0.27163">
        <ele>29.85</ele>
        <time>2025-07-04T16:42:17.483Z</time>
      </trkpt>
      <trkpt lat="49.1868" lon="-0.27155">
        <ele>30.02</ele>
        <time>2025-07-04T16:42:30.727Z</time>
      </trkpt>
      <trkpt lat="49.1869" lon="-0.27138">
        <ele>30.18</ele>
        <time>2025-07-04T16:42:43.974Z</time>
      </trkpt>
      <trkpt lat="49.18705" lon="-0.27143">
        <ele>30.33</ele>
        <time>2025-07-04T16:42:57.223Z</time>
      </trkpt>
      <trkpt lat="49.18708" lon="-0.27146">
        <ele>30.47</ele>
        <time>2025-07-04T16:43:10.473Z</time>
      </trkpt>
      <trkpt lat="49.18715" lon="-0.2713">
        <ele>30.61</ele>
        <time>2025-07-04T16:43:23.725Z</time>
      </trkpt>
      <trkpt lat="49.1873" lon="-0.27088">
        <ele>30.77</ele>
        <time>2025-07-04T16:43:36.982Z</time>
      </trkpt>
      <trkpt lat="49.18745" lon="-0.27045">
        <ele>30.92</ele>
        <time>2025-07-04T16:43:50.244Z</time>
      </trkpt>
      <trkpt lat="49.18759" lon="-0.27003">
        <ele>31.02</ele>
        <time>2025-07-04T16:44:03.511Z</time>
      </trkpt>
      <trkpt lat="49.18764" lon="-0.2699">
        <ele>31.1</ele>
        <time>2025-07-04T16:44:16.779Z</time>
      </trkpt>
      <trkpt lat="49.18768" lon="-0.26978">
        <ele>31.18</ele>
        <time>2025-07-04T16:44:30.049Z</time>
      </trkpt>
      <trkpt lat="49.18783" lon="-0.26937">
        <ele>31.25</ele>
        <time>2025-07-04T16:44:43.324Z</time>
      </trkpt>
      <trkpt lat="49.18794" lon="-0.26903">
        <ele>31.33</ele>
        <time>2025-07-04T16:44:56.603Z</time>
      </trkpt>
      <trkpt lat="49.18791" lon="-0.26897">
        <ele>31.41</ele>
        <time>2025-07-04T16:45:09.882Z</time>
      </trkpt>
      <trkpt lat="49.18792" lon="-0.26889">
        <ele>31.47</ele>
        <time>2025-07-04T16:45:23.162Z</time>
      </trkpt>
      <trkpt lat="49.18795" lon="-0.26883">
        <ele>31.52</ele>
        <time>2025-07-04T16:45:36.443Z</time>
      </trkpt>
      <trkpt lat="49.188" lon="-0.26883">
        <ele>31.55</ele>
        <time>2025-07-04T16:45:49.725Z</time>
      </trkpt>
      <trkpt lat="49.18802" lon="-0.26885">
        <ele>31.57</ele>
        <time>2025-07-04T16:46:03.007Z</time>
      </trkpt>
      <trkpt lat="49.18806" lon="-0.26875">
        <ele>31.61</ele>
        <time>2025-07-04T16:46:16.290Z</time>
      </trkpt>
      <trkpt lat="49.18811" lon="-0.26867">
        <ele>31.62</ele>
        <time>2025-07-04T16:46:29.575Z</time>
      </trkpt>
      <trkpt lat="49.18818" lon="-0.26859">
        <ele>31.63</ele>
        <time>2025-07-04T16:46:42.861Z</time>
      </trkpt>
      <trkpt lat="49.18827" lon="-0.26846">
        <ele>31.64</ele>
        <time>2025-07-04T16:46:56.149Z</time>
      </trkpt>
      <trkpt lat="49.18844" lon="-0.26806">
        <ele>31.66</ele>
        <time>2025-07-04T16:47:09.442Z</time>
      </trkpt>
      <trkpt lat="49.1885" lon="-0.26791">
        <ele>31.65</ele>
        <time>2025-07-04T16:47:22.737Z</time>
      </trkpt>
      <trkpt lat="49.1886" lon="-0.26767">
        <ele>31.61</ele>
        <time>2025-07-04T16:47:36.035Z</time>
      </trkpt>
      <trkpt lat="49.18878" lon="-0.26727">
        <ele>31.61</ele>
        <time>2025-07-04T16:47:49.338Z</time>
      </trkpt>
      <trkpt lat="49.18888" lon="-0.26705">
        <ele>31.59</ele>
        <time>2025-07-04T16:48:02.644Z</time>
      </trkpt>
      <trkpt lat="49.18909" lon="-0.2667">
        <ele>31.53</ele>
        <time>2025-07-04T16:48:15.955Z</time>
      </trkpt>
      <trkpt lat="49.18912" lon="-0.26665">
        <ele>31.49</ele>
        <time>2025-07-04T16:48:29.266Z</time>
      </trkpt>
      <trkpt lat="49.18935" lon="-0.26631">
        <ele>31.42</ele>
        <time>2025-07-04T16:48:42.582Z</time>
      </trkpt>
      <trkpt lat="49.18957" lon="-0.26598">
        <ele>31.43</ele>
        <time>2025-07-04T16:48:55.903Z</time>
      </trkpt>
      <trkpt lat="49.18971" lon="-0.26577">
        <ele>31.42</ele>
        <time>2025-07-04T16:49:09.228Z</time>
      </trkpt>
      <trkpt lat="49.18981" lon="-0.26562">
        <ele>31.37</ele>
        <time>2025-07-04T16:49:22.555Z</time>
      </trkpt>
      <trkpt lat="49.19011" lon="-0.26548">
        <ele>31.29</ele>
        <time>2025-07-04T16:49:35.887Z</time>
      </trkpt>
      <trkpt lat="49.19031" lon="-0.26539">
        <ele>31.23</ele>
        <time>2025-07-04T16:49:49.222Z</time>
      </trkpt>
      <trkpt lat="49.19061" lon="-0.26526">
        <ele>31.18</ele>
        <time>2025-07-04T16:50:02.562Z</time>
      </trkpt>
      <trkpt lat="49.19067" lon="-0.26523">
        <ele>31.13</ele>
        <time>2025-07-04T16:50:15.903Z</time>
      </trkpt>
      <trkpt lat="49.19097" lon="-0.26509">
        <ele>31.06</ele>
        <time>2025-07-04T16:50:29.249Z</time>
      </trkpt>
      <trkpt lat="49.19117" lon="-0.265">
        <ele>31</ele>
        <time>2025-07-04T16:50:42.599Z</time>
      </trkpt>
      <trkpt lat="49.19148" lon="-0.26488">
        <ele>30.93</ele>
        <time>2025-07-04T16:50:55.954Z</time>
      </trkpt>
      <trkpt lat="49.19159" lon="-0.26484">
        <ele>30.88</ele>
        <time>2025-07-04T16:51:09.310Z</time>
      </trkpt>
      <trkpt lat="49.1919" lon="-0.26474">
        <ele>30.83</ele>
        <time>2025-07-04T16:51:22.672Z</time>
      </trkpt>
      <trkpt lat="49.19215" lon="-0.26466">
        <ele>30.8</ele>
        <time>2025-07-04T16:51:36.038Z</time>
      </trkpt>
      <trkpt lat="49.19246" lon="-0.26459">
        <ele>30.79</ele>
        <time>2025-07-04T16:51:49.409Z</time>
      </trkpt>
      <trkpt lat="49.19269" lon="-0.26453">
        <ele>30.76</ele>
        <time>2025-07-04T16:52:02.783Z</time>
      </trkpt>
      <trkpt lat="49.19283" lon="-0.26452">
        <ele>30.72</ele>
        <time>2025-07-04T16:52:16.160Z</time>
      </trkpt>
      <trkpt lat="49.19279" lon="-0.26411">
        <ele>30.66</ele>
        <time>2025-07-04T16:52:29.541Z</time>
      </trkpt>
      <trkpt lat="49.19309" lon="-0.26397">
        <ele>30.65</ele>
        <time>2025-07-04T16:52:42.927Z</time>
      </trkpt>
      <trkpt lat="49.19321" lon="-0.26392">
        <ele>30.62</ele>
        <time>2025-07-04T16:52:56.315Z</time>
      </trkpt>
      <trkpt lat="49.19351" lon="-0.26378">
        <ele>30.59</ele>
        <time>2025-07-04T16:53:09.708Z</time>
      </trkpt>
      <trkpt lat="49.19381" lon="-0.26364">
        <ele>30.58</ele>
        <time>2025-07-04T16:53:23.106Z</time>
      </trkpt>
      <trkpt lat="49.19397" lon="-0.26356">
        <ele>30.54</ele>
        <time>2025-07-04T16:53:36.507Z</time>
      </trkpt>
      <trkpt lat="49.19413" lon="-0.26349">
        <ele>30.5</ele>
        <time>2025-07-04T16:53:49.910Z</time>
      </trkpt>
      <trkpt lat="49.19426" lon="-0.2634">
        <ele>30.48</ele>
        <time>2025-07-04T16:54:03.316Z</time>
      </trkpt>
      <trkpt lat="49.19432" lon="-0.26334">
        <ele>30.46</ele>
        <time>2025-07-04T16:54:16.723Z</time>
      </trkpt>
      <trkpt lat="49.19439" lon="-0.26324">
        <ele>30.44</ele>
        <time>2025-07-04T16:54:30.131Z</time>
      </trkpt>
      <trkpt lat="49.19446" lon="-0.2631">
        <ele>30.41</ele>
        <time>2025-07-04T16:54:43.541Z</time>
      </trkpt>
      <trkpt lat="49.19448" lon="-0.26302">
        <ele>30.4</ele>
        <time>2025-07-04T16:54:56.952Z</time>
      </trkpt>
      <trkpt lat="49.19457" lon="-0.26256">
        <ele>30.38</ele>
        <time>2025-07-04T16:55:10.368Z</time>
      </trkpt>
      <trkpt lat="49.19463" lon="-0.26225">
        <ele>30.36</ele>
        <time>2025-07-04T16:55:23.788Z</time>
      </trkpt>
      <trkpt lat="49.19472" lon="-0.26179">
        <ele>30.4</ele>
        <time>2025-07-04T16:55:37.213Z</time>
      </trkpt>
      <trkpt lat="49.1948" lon="-0.26133">
        <ele>30.4</ele>
        <time>2025-07-04T16:55:50.643Z</time>
      </trkpt>
      <trkpt lat="49.19483" lon="-0.26117">
        <ele>30.41</ele>
        <time>2025-07-04T16:56:04.074Z</time>
      </trkpt>
      <trkpt lat="49.19494" lon="-0.26072">
        <ele>30.42</ele>
        <time>2025-07-04T16:56:17.510Z</time>
      </trkpt>
      <trkpt lat="49.19506" lon="-0.26027">
        <ele>30.45</ele>
        <time>2025-07-04T16:56:30.951Z</time>
      </trkpt>
      <trkpt lat="49.19508" lon="-0.26018">
        <ele>30.47</ele>
        <time>2025-07-04T16:56:44.393Z</time>
      </trkpt>
      <trkpt lat="49.19519" lon="-0.25973">
        <ele>30.47</ele>
        <time>2025-07-04T16:56:57.841Z</time>
      </trkpt>
      <trkpt lat="49.19522" lon="-0.25962">
        <ele>30.5</ele>
        <time>2025-07-04T16:57:11.290Z</time>
      </trkpt>
      <trkpt lat="49.19534" lon="-0.25917">
        <ele>30.53</ele>
        <time>2025-07-04T16:57:24.744Z</time>
      </trkpt>
      <trkpt lat="49.19536" lon="-0.25908">
        <ele>30.58</ele>
        <time>2025-07-04T16:57:38.199Z</time>
      </trkpt>
      <trkpt lat="49.19549" lon="-0.25864">
        <ele>30.63</ele>
        <time>2025-07-04T16:57:51.659Z</time>
      </trkpt>
      <trkpt lat="49.19559" lon="-0.25832">
        <ele>30.65</ele>
        <time>2025-07-04T16:58:05.123Z</time>
      </trkpt>
      <trkpt lat="49.19572" lon="-0.25798">
        <ele>30.69</ele>
        <time>2025-07-04T16:58:18.591Z</time>
      </trkpt>
      <trkpt lat="49.1959" lon="-0.25759">
        <ele>30.69</ele>
        <time>2025-07-04T16:58:32.064Z</time>
      </trkpt>
      <trkpt lat="49.19609" lon="-0.2572">
        <ele>30.74</ele>
        <time>2025-07-04T16:58:45.542Z</time>
      </trkpt>
      <trkpt lat="49.19616" lon="-0.25704">
        <ele>30.82</ele>
        <time>2025-07-04T16:58:59.022Z</time>
      </trkpt>
      <trkpt lat="49.19634" lon="-0.25664">
        <ele>30.92</ele>
        <time>2025-07-04T16:59:12.507Z</time>
      </trkpt>
      <trkpt lat="49.1964" lon="-0.25651">
        <ele>31.02</ele>
        <time>2025-07-04T16:59:25.994Z</time>
      </trkpt>
      <trkpt lat="49.19646" lon="-0.25629">
        <ele>31.11</ele>
        <time>2025-07-04T16:59:39.483Z</time>
      </trkpt>
      <trkpt lat="49.19658" lon="-0.25584">
        <ele>31.2</ele>
        <time>2025-07-04T16:59:52.977Z</time>
      </trkpt>
      <trkpt lat="49.19669" lon="-0.2554">
        <ele>31.27</ele>
        <time>2025-07-04T17:00:06.476Z</time>
      </trkpt>
      <trkpt lat="49.1967" lon="-0.25538">
        <ele>31.37</ele>
        <time>2025-07-04T17:00:19.975Z</time>
      </trkpt>
      <trkpt lat="49.19684" lon="-0.25495">
        <ele>31.5</ele>
        <time>2025-07-04T17:00:33.480Z</time>
      </trkpt>
      <trkpt lat="49.19689" lon="-0.25481">
        <ele>31.62</ele>
        <time>2025-07-04T17:00:46.986Z</time>
      </trkpt>
      <trkpt lat="49.19706" lon="-0.2544">
        <ele>31.79</ele>
        <time>2025-07-04T17:01:00.497Z</time>
      </trkpt>
      <trkpt lat="49.19714" lon="-0.2542">
        <ele>31.95</ele>
        <time>2025-07-04T17:01:14.011Z</time>
      </trkpt>
      <trkpt lat="49.19734" lon="-0.25383">
        <ele>32.04</ele>
        <time>2025-07-04T17:01:27.530Z</time>
      </trkpt>
      <trkpt lat="49.19754" lon="-0.25345">
        <ele>32.1</ele>
        <time>2025-07-04T17:01:41.054Z</time>
      </trkpt>
      <trkpt lat="49.19774" lon="-0.25308">
        <ele>32.19</ele>
        <time>2025-07-04T17:01:54.583Z</time>
      </trkpt>
      <trkpt lat="49.19793" lon="-0.25271">
        <ele>32.37</ele>
        <time>2025-07-04T17:02:08.117Z</time>
      </trkpt>
      <trkpt lat="49.19797" lon="-0.25264">
        <ele>32.49</ele>
        <time>2025-07-04T17:02:21.652Z</time>
      </trkpt>
      <trkpt lat="49.19818" lon="-0.25228">
        <ele>32.64</ele>
        <time>2025-07-04T17:02:35.192Z</time>
      </trkpt>
      <trkpt lat="49.19838" lon="-0.25191">
        <ele>32.76</ele>
        <time>2025-07-04T17:02:48.737Z</time>
      </trkpt>
      <trkpt lat="49.19847" lon="-0.25176">
        <ele>32.85</ele>
        <time>2025-07-04T17:03:02.284Z</time>
      </trkpt>
      <trkpt lat="49.19869" lon="-0.25141">
        <ele>32.9</ele>
        <time>2025-07-04T17:03:15.836Z</time>
      </trkpt>
      <trkpt lat="49.19891" lon="-0.25107">
        <ele>32.95</ele>
        <time>2025-07-04T17:03:29.393Z</time>
      </trkpt>
      <trkpt lat="49.19912" lon="-0.25072">
        <ele>33.02</ele>
        <time>2025-07-04T17:03:42.955Z</time>
      </trkpt>
      <trkpt lat="49.19934" lon="-0.25038">
        <ele>33.13</ele>
        <time>2025-07-04T17:03:56.522Z</time>
      </trkpt>
      <trkpt lat="49.19956" lon="-0.25004">
        <ele>33.11</ele>
        <time>2025-07-04T17:04:10.094Z</time>
      </trkpt>
      <trkpt lat="49.19979" lon="-0.2497">
        <ele>33.06</ele>
        <time>2025-07-04T17:04:23.671Z</time>
      </trkpt>
      <trkpt lat="49.19987" lon="-0.24958">
        <ele>33.06</ele>
        <time>2025-07-04T17:04:37.250Z</time>
      </trkpt>
      <trkpt lat="49.2001" lon="-0.24925">
        <ele>33.07</ele>
        <time>2025-07-04T17:04:50.834Z</time>
      </trkpt>
      <trkpt lat="49.20023" lon="-0.24905">
        <ele>33.05</ele>
        <time>2025-07-04T17:05:04.421Z</time>
      </trkpt>
      <trkpt lat="49.20043" lon="-0.24868">
        <ele>33.05</ele>
        <time>2025-07-04T17:05:18.013Z</time>
      </trkpt>
      <trkpt lat="49.20063" lon="-0.24831">
        <ele>33.01</ele>
        <time>2025-07-04T17:05:31.610Z</time>
      </trkpt>
      <trkpt lat="49.20083" lon="-0.24793">
        <ele>32.9</ele>
        <time>2025-07-04T17:05:45.212Z</time>
      </trkpt>
      <trkpt lat="49.20102" lon="-0.24756">
        <ele>32.83</ele>
        <time>2025-07-04T17:05:58.819Z</time>
      </trkpt>
      <trkpt lat="49.20122" lon="-0.24719">
        <ele>32.8</ele>
        <time>2025-07-04T17:06:12.431Z</time>
      </trkpt>
      <trkpt lat="49.20126" lon="-0.24712">
        <ele>32.72</ele>
        <time>2025-07-04T17:06:26.044Z</time>
      </trkpt>
      <trkpt lat="49.20146" lon="-0.24675">
        <ele>32.57</ele>
        <time>2025-07-04T17:06:39.662Z</time>
      </trkpt>
      <trkpt lat="49.20166" lon="-0.24638">
        <ele>32.38</ele>
        <time>2025-07-04T17:06:53.285Z</time>
      </trkpt>
      <trkpt lat="49.20186" lon="-0.246">
        <ele>32.24</ele>
        <time>2025-07-04T17:07:06.913Z</time>
      </trkpt>
      <trkpt lat="49.20206" lon="-0.24563">
        <ele>32.15</ele>
        <time>2025-07-04T17:07:20.546Z</time>
      </trkpt>
      <trkpt lat="49.20226" lon="-0.24526">
        <ele>32.09</ele>
        <time>2025-07-04T17:07:34.184Z</time>
      </trkpt>
      <trkpt lat="49.20245" lon="-0.24489">
        <ele>31.95</ele>
        <time>2025-07-04T17:07:47.827Z</time>
      </trkpt>
      <trkpt lat="49.20255" lon="-0.24471">
        <ele>31.77</ele>
        <time>2025-07-04T17:08:01.473Z</time>
      </trkpt>
      <trkpt lat="49.20286" lon="-0.24473">
        <ele>31.51</ele>
        <time>2025-07-04T17:08:15.124Z</time>
      </trkpt>
      <trkpt lat="49.20318" lon="-0.24475">
        <ele>31.24</ele>
        <time>2025-07-04T17:08:28.780Z</time>
      </trkpt>
      <trkpt lat="49.20344" lon="-0.24477">
        <ele>31.03</ele>
        <time>2025-07-04T17:08:42.440Z</time>
      </trkpt>
      <trkpt lat="49.20375" lon="-0.24481">
        <ele>30.83</ele>
        <time>2025-07-04T17:08:56.105Z</time>
      </trkpt>
      <trkpt lat="49.20381" lon="-0.24482">
        <ele>30.62</ele>
        <time>2025-07-04T17:09:09.771Z</time>
      </trkpt>
      <trkpt lat="49.20412" lon="-0.24486">
        <ele>30.35</ele>
        <time>2025-07-04T17:09:23.442Z</time>
      </trkpt>
      <trkpt lat="49.20444" lon="-0.2449">
        <ele>30.09</ele>
        <time>2025-07-04T17:09:37.118Z</time>
      </trkpt>
      <trkpt lat="49.20475" lon="-0.24494">
        <ele>29.86</ele>
        <time>2025-07-04T17:09:50.799Z</time>
      </trkpt>
      <trkpt lat="49.20506" lon="-0.24498">
        <ele>29.63</ele>
        <time>2025-07-04T17:10:04.485Z</time>
      </trkpt>
      <trkpt lat="49.20537" lon="-0.24501">
        <ele>29.38</ele>
        <time>2025-07-04T17:10:18.176Z</time>
      </trkpt>
      <trkpt lat="49.20569" lon="-0.24504">
        <ele>29.1</ele>
        <time>2025-07-04T17:10:31.872Z</time>
      </trkpt>
      <trkpt lat="49.206" lon="-0.24507">
        <ele>28.85</ele>
        <time>2025-07-04T17:10:45.573Z</time>
      </trkpt>
      <trkpt lat="49.20632" lon="-0.2451">
        <ele>28.62</ele>
        <time>2025-07-04T17:10:59.279Z</time>
      </trkpt>
      <trkpt lat="49.20663" lon="-0.24514">
        <ele>28.35</ele>
        <time>2025-07-04T17:11:12.990Z</time>
      </trkpt>
      <trkpt lat="49.20668" lon="-0.24514">
        <ele>28.1</ele>
        <time>2025-07-04T17:11:26.702Z</time>
      </trkpt>
      <trkpt lat="49.20699" lon="-0.24518">
        <ele>27.84</ele>
        <time>2025-07-04T17:11:40.419Z</time>
      </trkpt>
      <trkpt lat="49.20731" lon="-0.24522">
        <ele>27.64</ele>
        <time>2025-07-04T17:11:54.141Z</time>
      </trkpt>
      <trkpt lat="49.20757" lon="-0.24526">
        <ele>27.43</ele>
        <time>2025-07-04T17:12:07.867Z</time>
      </trkpt>
      <trkpt lat="49.20787" lon="-0.2453">
        <ele>27.13</ele>
        <time>2025-07-04T17:12:21.598Z</time>
      </trkpt>
      <trkpt lat="49.20818" lon="-0.24535">
        <ele>26.83</ele>
        <time>2025-07-04T17:12:35.334Z</time>
      </trkpt>
      <trkpt lat="49.20847" lon="-0.2454">
        <ele>26.58</ele>
        <time>2025-07-04T17:12:49.075Z</time>
      </trkpt>
      <trkpt lat="49.20878" lon="-0.24548">
        <ele>26.37</ele>
        <time>2025-07-04T17:13:02.821Z</time>
      </trkpt>
      <trkpt lat="49.209" lon="-0.24553">
        <ele>26.11</ele>
        <time>2025-07-04T17:13:16.571Z</time>
      </trkpt>
      <trkpt lat="49.20931" lon="-0.24562">
        <ele>25.84</ele>
        <time>2025-07-04T17:13:30.326Z</time>
      </trkpt>
      <trkpt lat="49.20953" lon="-0.24568">
        <ele>25.51</ele>
        <time>2025-07-04T17:13:44.084Z</time>
      </trkpt>
      <trkpt lat="49.20976" lon="-0.24573">
        <ele>25.19</ele>
        <time>2025-07-04T17:13:57.846Z</time>
      </trkpt>
      <trkpt lat="49.20985" lon="-0.24574">
        <ele>24.88</ele>
        <time>2025-07-04T17:14:11.609Z</time>
      </trkpt>
      <trkpt lat="49.2099" lon="-0.24571">
        <ele>24.56</ele>
        <time>2025-07-04T17:14:25.373Z</time>
      </trkpt>
      <trkpt lat="49.20991" lon="-0.24578">
        <ele>24.26</ele>
        <time>2025-07-04T17:14:39.138Z</time>
      </trkpt>
      <trkpt lat="49.21004" lon="-0.24553">
        <ele>23.9</ele>
        <time>2025-07-04T17:14:52.906Z</time>
      </trkpt>
      <trkpt lat="49.21027" lon="-0.24522">
        <ele>23.53</ele>
        <time>2025-07-04T17:15:06.679Z</time>
      </trkpt>
      <trkpt lat="49.21051" lon="-0.24491">
        <ele>23.2</ele>
        <time>2025-07-04T17:15:20.457Z</time>
      </trkpt>
      <trkpt lat="49.21064" lon="-0.24475">
        <ele>22.9</ele>
        <time>2025-07-04T17:15:34.238Z</time>
      </trkpt>
      <trkpt lat="49.21089" lon="-0.24445">
        <ele>22.59</ele>
        <time>2025-07-04T17:15:48.024Z</time>
      </trkpt>
      <trkpt lat="49.21094" lon="-0.24439">
        <ele>22.24</ele>
        <time>2025-07-04T17:16:01.811Z</time>
      </trkpt>
      <trkpt lat="49.21114" lon="-0.24411">
        <ele>21.82</ele>
        <time>2025-07-04T17:16:15.602Z</time>
      </trkpt>
      <trkpt lat="49.21132" lon="-0.24372">
        <ele>21.34</ele>
        <time>2025-07-04T17:16:29.398Z</time>
      </trkpt>
      <trkpt lat="49.21135" lon="-0.24365">
        <ele>20.97</ele>
        <time>2025-07-04T17:16:43.195Z</time>
      </trkpt>
      <trkpt lat="49.21137" lon="-0.24356">
        <ele>20.6</ele>
        <time>2025-07-04T17:16:56.993Z</time>
      </trkpt>
      <trkpt lat="49.21143" lon="-0.24361">
        <ele>20.21</ele>
        <time>2025-07-04T17:17:10.792Z</time>
      </trkpt>
      <trkpt lat="49.21147" lon="-0.24363">
        <ele>19.83</ele>
        <time>2025-07-04T17:17:24.592Z</time>
      </trkpt>
      <trkpt lat="49.21178" lon="-0.24369">
        <ele>19.44</ele>
        <time>2025-07-04T17:17:38.397Z</time>
      </trkpt>
      <trkpt lat="49.21185" lon="-0.2437">
        <ele>19.07</ele>
        <time>2025-07-04T17:17:52.203Z</time>
      </trkpt>
      <trkpt lat="49.21216" lon="-0.2437">
        <ele>18.7</ele>
        <time>2025-07-04T17:18:06.014Z</time>
      </trkpt>
      <trkpt lat="49.21248" lon="-0.2437">
        <ele>18.3</ele>
        <time>2025-07-04T17:18:19.830Z</time>
      </trkpt>
      <trkpt lat="49.21252" lon="-0.2437">
        <ele>17.94</ele>
        <time>2025-07-04T17:18:33.647Z</time>
      </trkpt>
      <trkpt lat="49.21283" lon="-0.24372">
        <ele>17.56</ele>
        <time>2025-07-04T17:18:47.469Z</time>
      </trkpt>
      <trkpt lat="49.21315" lon="-0.24373">
        <ele>17.18</ele>
        <time>2025-07-04T17:19:01.296Z</time>
      </trkpt>
      <trkpt lat="49.21346" lon="-0.24375">
        <ele>16.79</ele>
        <time>2025-07-04T17:19:15.128Z</time>
      </trkpt>
      <trkpt lat="49.21351" lon="-0.24375">
        <ele>16.46</ele>
        <time>2025-07-04T17:19:28.961Z</time>
      </trkpt>
      <trkpt lat="49.21378" lon="-0.24379">
        <ele>16.12</ele>
        <time>2025-07-04T17:19:42.798Z</time>
      </trkpt>
      <trkpt lat="49.21396" lon="-0.24384">
        <ele>15.81</ele>
        <time>2025-07-04T17:19:56.638Z</time>
      </trkpt>
      <trkpt lat="49.21424" lon="-0.24405">
        <ele>15.51</ele>
        <time>2025-07-04T17:20:10.483Z</time>
      </trkpt>
      <trkpt lat="49.21431" lon="-0.2441">
        <ele>15.23</ele>
        <time>2025-07-04T17:20:24.329Z</time>
      </trkpt>
      <trkpt lat="49.21459" lon="-0.24431">
        <ele>14.91</ele>
        <time>2025-07-04T17:20:38.180Z</time>
      </trkpt>
      <trkpt lat="49.21477" lon="-0.24444">
        <ele>14.63</ele>
        <time>2025-07-04T17:20:52.034Z</time>
      </trkpt>
      <trkpt lat="49.21484" lon="-0.2445">
        <ele>14.39</ele>
        <time>2025-07-04T17:21:05.890Z</time>
      </trkpt>
      <trkpt lat="49.21489" lon="-0.24441">
        <ele>14.16</ele>
        <time>2025-07-04T17:21:19.747Z</time>
      </trkpt>
      <trkpt lat="49.21494" lon="-0.24432">
        <ele>13.96</ele>
        <time>2025-07-04T17:21:33.605Z</time>
      </trkpt>
      <trkpt lat="49.215" lon="-0.24427">
        <ele>13.79</ele>
        <time>2025-07-04T17:21:47.464Z</time>
      </trkpt>
      <trkpt lat="49.2151" lon="-0.2443">
        <ele>13.62</ele>
        <time>2025-07-04T17:22:01.325Z</time>
      </trkpt>
      <trkpt lat="49.21526" lon="-0.24448">
        <ele>13.51</ele>
        <time>2025-07-04T17:22:15.189Z</time>
      </trkpt>
      <trkpt lat="49.21556" lon="-0.24462">
        <ele>13.42</ele>
        <time>2025-07-04T17:22:29.058Z</time>
      </trkpt>
      <trkpt lat="49.21569" lon="-0.24468">
        <ele>13.31</ele>
        <time>2025-07-04T17:22:42.929Z</time>
      </trkpt>
      <trkpt lat="49.21599" lon="-0.2448">
        <ele>13.19</ele>
        <time>2025-07-04T17:22:56.805Z</time>
      </trkpt>
      <trkpt lat="49.2161" lon="-0.24484">
        <ele>13.1</ele>
        <time>2025-07-04T17:23:10.683Z</time>
      </trkpt>
      <trkpt lat="49.21621" lon="-0.24485">
        <ele>13.05</ele>
        <time>2025-07-04T17:23:24.563Z</time>
      </trkpt>
      <trkpt lat="49.21632" lon="-0.2448">
        <ele>13.01</ele>
        <time>2025-07-04T17:23:38.445Z</time>
      </trkpt>
      <trkpt lat="49.21636" lon="-0.24472">
        <ele>12.97</ele>
        <time>2025-07-04T17:23:52.328Z</time>
      </trkpt>
      <trkpt lat="49.21649" lon="-0.24428">
        <ele>12.98</ele>
        <time>2025-07-04T17:24:06.216Z</time>
      </trkpt>
      <trkpt lat="49.21662" lon="-0.24385">
        <ele>13.01</ele>
        <time>2025-07-04T17:24:20.109Z</time>
      </trkpt>
      <trkpt lat="49.21666" lon="-0.24372">
        <ele>12.98</ele>
        <time>2025-07-04T17:24:34.003Z</time>
      </trkpt>
      <trkpt lat="49.21674" lon="-0.24348">
        <ele>12.92</ele>
        <time>2025-07-04T17:24:47.900Z</time>
      </trkpt>
      <trkpt lat="49.2169" lon="-0.24306">
        <ele>12.87</ele>
        <time>2025-07-04T17:25:01.802Z</time>
      </trkpt>
      <trkpt lat="49.21698" lon="-0.24284">
        <ele>12.89</ele>
        <time>2025-07-04T17:25:15.707Z</time>
      </trkpt>
      <trkpt lat="49.21716" lon="-0.24245">
        <ele>12.87</ele>
        <time>2025-07-04T17:25:29.617Z</time>
      </trkpt>
      <trkpt lat="49.21723" lon="-0.24229">
        <ele>12.94</ele>
        <time>2025-07-04T17:25:43.529Z</time>
      </trkpt>
      <trkpt lat="49.21742" lon="-0.24191">
        <ele>13.08</ele>
        <time>2025-07-04T17:25:57.446Z</time>
      </trkpt>
      <trkpt lat="49.21744" lon="-0.24188">
        <ele>13.17</ele>
        <time>2025-07-04T17:26:11.363Z</time>
      </trkpt>
      <trkpt lat="49.21764" lon="-0.24151">
        <ele>13.31</ele>
        <time>2025-07-04T17:26:25.285Z</time>
      </trkpt>
      <trkpt lat="49.21767" lon="-0.24145">
        <ele>13.41</ele>
        <time>2025-07-04T17:26:39.208Z</time>
      </trkpt>
      <trkpt lat="49.21789" lon="-0.24111">
        <ele>13.53</ele>
        <time>2025-07-04T17:26:53.136Z</time>
      </trkpt>
      <trkpt lat="49.21801" lon="-0.24094">
        <ele>13.66</ele>
        <time>2025-07-04T17:27:07.067Z</time>
      </trkpt>
      <trkpt lat="49.21825" lon="-0.24063">
        <ele>13.8</ele>
        <time>2025-07-04T17:27:21.003Z</time>
      </trkpt>
      <trkpt lat="49.21846" lon="-0.24036">
        <ele>13.95</ele>
        <time>2025-07-04T17:27:34.943Z</time>
      </trkpt>
      <trkpt lat="49.21871" lon="-0.24007">
        <ele>14.09</ele>
        <time>2025-07-04T17:27:48.888Z</time>
      </trkpt>
      <trkpt lat="49.21896" lon="-0.23977">
        <ele>14.26</ele>
        <time>2025-07-04T17:28:02.838Z</time>
      </trkpt>
      <trkpt lat="49.21921" lon="-0.23948">
        <ele>14.45</ele>
        <time>2025-07-04T17:28:16.793Z</time>
      </trkpt>
      <trkpt lat="49.21946" lon="-0.23919">
        <ele>14.61</ele>
        <time>2025-07-04T17:28:30.753Z</time>
      </trkpt>
      <trkpt lat="49.21947" lon="-0.23917">
        <ele>14.76</ele>
        <time>2025-07-04T17:28:44.714Z</time>
      </trkpt>
      <trkpt lat="49.21972" lon="-0.23888">
        <ele>14.88</ele>
        <time>2025-07-04T17:28:58.680Z</time>
      </trkpt>
      <trkpt lat="49.21997" lon="-0.23859">
        <ele>15.04</ele>
        <time>2025-07-04T17:29:12.651Z</time>
      </trkpt>
      <trkpt lat="49.22022" lon="-0.2383">
        <ele>15.24</ele>
        <time>2025-07-04T17:29:26.627Z</time>
      </trkpt>
      <trkpt lat="49.22047" lon="-0.238">
        <ele>15.39</ele>
        <time>2025-07-04T17:29:40.608Z</time>
      </trkpt>
      <trkpt lat="49.22063" lon="-0.23782">
        <ele>15.59</ele>
        <time>2025-07-04T17:29:54.592Z</time>
      </trkpt>
      <trkpt lat="49.22088" lon="-0.23753">
        <ele>15.78</ele>
        <time>2025-07-04T17:30:08.581Z</time>
      </trkpt>
      <trkpt lat="49.22107" lon="-0.23731">
        <ele>15.93</ele>
        <time>2025-07-04T17:30:22.574Z</time>
      </trkpt>
      <trkpt lat="49.22131" lon="-0.23699">
        <ele>16.08</ele>
        <time>2025-07-04T17:30:36.572Z</time>
      </trkpt>
      <trkpt lat="49.22134" lon="-0.23695">
        <ele>16.24</ele>
        <time>2025-07-04T17:30:50.571Z</time>
      </trkpt>
      <trkpt lat="49.22155" lon="-0.2366">
        <ele>16.44</ele>
        <time>2025-07-04T17:31:04.575Z</time>
      </trkpt>
      <trkpt lat="49.22164" lon="-0.23638">
        <ele>16.6</ele>
        <time>2025-07-04T17:31:18.581Z</time>
      </trkpt>
      <trkpt lat="49.22178" lon="-0.23595">
        <ele>16.77</ele>
        <time>2025-07-04T17:31:32.592Z</time>
      </trkpt>
      <trkpt lat="49.22193" lon="-0.23552">
        <ele>16.94</ele>
        <time>2025-07-04T17:31:46.608Z</time>
      </trkpt>
      <trkpt lat="49.22194" lon="-0.23548">
        <ele>17.11</ele>
        <time>2025-07-04T17:32:00.625Z</time>
      </trkpt>
      <trkpt lat="49.22206" lon="-0.23504">
        <ele>17.3</ele>
        <time>2025-07-04T17:32:14.647Z</time>
      </trkpt>
      <trkpt lat="49.22218" lon="-0.23459">
        <ele>17.47</ele>
        <time>2025-07-04T17:32:28.674Z</time>
      </trkpt>
      <trkpt lat="49.22222" lon="-0.23445">
        <ele>17.67</ele>
        <time>2025-07-04T17:32:42.703Z</time>
      </trkpt>
      <trkpt lat="49.22228" lon="-0.23439">
        <ele>17.88</ele>
        <time>2025-07-04T17:32:56.733Z</time>
      </trkpt>
      <trkpt lat="49.22224" lon="-0.23424">
        <ele>18.11</ele>
        <time>2025-07-04T17:33:10.764Z</time>
      </trkpt>
      <trkpt lat="49.22225" lon="-0.23392">
        <ele>18.38</ele>
        <time>2025-07-04T17:33:24.799Z</time>
      </trkpt>
      <trkpt lat="49.2223" lon="-0.23367">
        <ele>18.67</ele>
        <time>2025-07-04T17:33:38.837Z</time>
      </trkpt>
      <trkpt lat="49.22244" lon="-0.23324">
        <ele>18.98</ele>
        <time>2025-07-04T17:33:52.880Z</time>
      </trkpt>
      <trkpt lat="49.22258" lon="-0.23281">
        <ele>19.28</ele>
        <time>2025-07-04T17:34:06.928Z</time>
      </trkpt>
      <trkpt lat="49.2226" lon="-0.23273">
        <ele>19.6</ele>
        <time>2025-07-04T17:34:20.977Z</time>
      </trkpt>
      <trkpt lat="49.22267" lon="-0.23259">
        <ele>19.94</ele>
        <time>2025-07-04T17:34:35.027Z</time>
      </trkpt>
      <trkpt lat="49.22275" lon="-0.23254">
        <ele>20.32</ele>
        <time>2025-07-04T17:34:49.079Z</time>
      </trkpt>
      <trkpt lat="49.22281" lon="-0.23207">
        <ele>20.74</ele>
        <time>2025-07-04T17:35:03.136Z</time>
      </trkpt>
      <trkpt lat="49.22283" lon="-0.23194">
        <ele>21.2</ele>
        <time>2025-07-04T17:35:17.194Z</time>
      </trkpt>
      <trkpt lat="49.22291" lon="-0.23148">
        <ele>21.72</ele>
        <time>2025-07-04T17:35:31.257Z</time>
      </trkpt>
      <trkpt lat="49.22296" lon="-0.23122">
        <ele>22.25</ele>
        <time>2025-07-04T17:35:45.323Z</time>
      </trkpt>
      <trkpt lat="49.22306" lon="-0.23077">
        <ele>22.82</ele>
        <time>2025-07-04T17:35:59.394Z</time>
      </trkpt>
      <trkpt lat="49.22317" lon="-0.23031">
        <ele>23.44</ele>
        <time>2025-07-04T17:36:13.470Z</time>
      </trkpt>
      <trkpt lat="49.22317" lon="-0.2303">
        <ele>24.09</ele>
        <time>2025-07-04T17:36:27.546Z</time>
      </trkpt>
      <trkpt lat="49.22329" lon="-0.22986">
        <ele>24.82</ele>
        <time>2025-07-04T17:36:41.627Z</time>
      </trkpt>
      <trkpt lat="49.22335" lon="-0.22965">
        <ele>25.56</ele>
        <time>2025-07-04T17:36:55.711Z</time>
      </trkpt>
      <trkpt lat="49.2235" lon="-0.22922">
        <ele>26.38</ele>
        <time>2025-07-04T17:37:09.800Z</time>
      </trkpt>
      <trkpt lat="49.22364" lon="-0.2288">
        <ele>27.26</ele>
        <time>2025-07-04T17:37:23.894Z</time>
      </trkpt>
      <trkpt lat="49.22379" lon="-0.22837">
        <ele>28.21</ele>
        <time>2025-07-04T17:37:37.993Z</time>
      </trkpt>
      <trkpt lat="49.22384" lon="-0.22821">
        <ele>29.19</ele>
        <time>2025-07-04T17:37:52.094Z</time>
      </trkpt>
      <trkpt lat="49.22398" lon="-0.22778">
        <ele>30.24</ele>
        <time>2025-07-04T17:38:06.200Z</time>
      </trkpt>
      <trkpt lat="49.22401" lon="-0.22768">
        <ele>31.27</ele>
        <time>2025-07-04T17:38:20.307Z</time>
      </trkpt>
      <trkpt lat="49.22406" lon="-0.22741">
        <ele>32.33</ele>
        <time>2025-07-04T17:38:34.417Z</time>
      </trkpt>
      <trkpt lat="49.22409" lon="-0.22726">
        <ele>33.42</ele>
        <time>2025-07-04T17:38:48.528Z</time>
      </trkpt>
      <trkpt lat="49.22412" lon="-0.22721">
        <ele>34.56</ele>
        <time>2025-07-04T17:39:02.640Z</time>
      </trkpt>
      <trkpt lat="49.22417" lon="-0.22692">
        <ele>35.73</ele>
        <time>2025-07-04T17:39:16.755Z</time>
      </trkpt>
      <trkpt lat="49.22419" lon="-0.22644">
        <ele>36.97</ele>
        <time>2025-07-04T17:39:30.875Z</time>
      </trkpt>
      <trkpt lat="49.2242" lon="-0.22606">
        <ele>38.25</ele>
        <time>2025-07-04T17:39:44.999Z</time>
      </trkpt>
      <trkpt lat="49.22423" lon="-0.22558">
        <ele>39.58</ele>
        <time>2025-07-04T17:39:59.128Z</time>
      </trkpt>
      <trkpt lat="49.22426" lon="-0.22523">
        <ele>40.91</ele>
        <time>2025-07-04T17:40:13.261Z</time>
      </trkpt>
      <trkpt lat="49.22429" lon="-0.22483">
        <ele>42.29</ele>
        <time>2025-07-04T17:40:27.398Z</time>
      </trkpt>
      <trkpt lat="49.22436" lon="-0.22436">
        <ele>43.73</ele>
        <time>2025-07-04T17:40:41.540Z</time>
      </trkpt>
      <trkpt lat="49.22443" lon="-0.22391">
        <ele>45.24</ele>
        <time>2025-07-04T17:40:55.687Z</time>
      </trkpt>
      <trkpt lat="49.22451" lon="-0.22345">
        <ele>46.66</ele>
        <time>2025-07-04T17:41:09.839Z</time>
      </trkpt>
      <trkpt lat="49.2246" lon="-0.22298">
        <ele>48.04</ele>
        <time>2025-07-04T17:41:23.996Z</time>
      </trkpt>
      <trkpt lat="49.22462" lon="-0.22286">
        <ele>49.35</ele>
        <time>2025-07-04T17:41:38.155Z</time>
      </trkpt>
      <trkpt lat="49.22475" lon="-0.22243">
        <ele>50.72</ele>
        <time>2025-07-04T17:41:52.319Z</time>
      </trkpt>
      <trkpt lat="49.22476" lon="-0.22241">
        <ele>51.95</ele>
        <time>2025-07-04T17:42:06.483Z</time>
      </trkpt>
      <trkpt lat="49.22494" lon="-0.22201">
        <ele>53.26</ele>
        <time>2025-07-04T17:42:20.652Z</time>
      </trkpt>
      <trkpt lat="49.22496" lon="-0.22196">
        <ele>54.42</ele>
        <time>2025-07-04T17:42:34.822Z</time>
      </trkpt>
      <trkpt lat="49.22516" lon="-0.22158">
        <ele>55.59</ele>
        <time>2025-07-04T17:42:48.997Z</time>
      </trkpt>
      <trkpt lat="49.22531" lon="-0.22129">
        <ele>56.65</ele>
        <time>2025-07-04T17:43:03.176Z</time>
      </trkpt>
      <trkpt lat="49.22549" lon="-0.22089">
        <ele>57.75</ele>
        <time>2025-07-04T17:43:17.360Z</time>
      </trkpt>
      <trkpt lat="49.22551" lon="-0.22084">
        <ele>58.68</ele>
        <time>2025-07-04T17:43:31.544Z</time>
      </trkpt>
      <trkpt lat="49.22565" lon="-0.22041">
        <ele>59.65</ele>
        <time>2025-07-04T17:43:45.733Z</time>
      </trkpt>
      <trkpt lat="49.22579" lon="-0.21998">
        <ele>60.55</ele>
        <time>2025-07-04T17:43:59.927Z</time>
      </trkpt>
      <trkpt lat="49.22582" lon="-0.21987">
        <ele>61.25</ele>
        <time>2025-07-04T17:44:14.123Z</time>
      </trkpt>
      <trkpt lat="49.22595" lon="-0.21943">
        <ele>61.82</ele>
        <time>2025-07-04T17:44:28.324Z</time>
      </trkpt>
      <trkpt lat="49.22607" lon="-0.21899">
        <ele>62.28</ele>
        <time>2025-07-04T17:44:42.530Z</time>
      </trkpt>
      <trkpt lat="49.2262" lon="-0.21855">
        <ele>62.66</ele>
        <time>2025-07-04T17:44:56.741Z</time>
      </trkpt>
      <trkpt lat="49.22627" lon="-0.21829">
        <ele>63</ele>
        <time>2025-07-04T17:45:10.955Z</time>
      </trkpt>
      <trkpt lat="49.2263" lon="-0.2181">
        <ele>63.28</ele>
        <time>2025-07-04T17:45:25.171Z</time>
      </trkpt>
      <trkpt lat="49.22637" lon="-0.21774">
        <ele>63.5</ele>
        <time>2025-07-04T17:45:39.391Z</time>
      </trkpt>
      <trkpt lat="49.22646" lon="-0.21728">
        <ele>63.76</ele>
        <time>2025-07-04T17:45:53.616Z</time>
      </trkpt>
      <trkpt lat="49.22655" lon="-0.21682">
        <ele>63.94</ele>
        <time>2025-07-04T17:46:07.846Z</time>
      </trkpt>
      <trkpt lat="49.22664" lon="-0.21636">
        <ele>63.89</ele>
        <time>2025-07-04T17:46:22.081Z</time>
      </trkpt>
      <trkpt lat="49.22664" lon="-0.21635">
        <ele>63.85</ele>
        <time>2025-07-04T17:46:36.316Z</time>
      </trkpt>
      <trkpt lat="49.22673" lon="-0.21589">
        <ele>63.61</ele>
        <time>2025-07-04T17:46:50.556Z</time>
      </trkpt>
      <trkpt lat="49.22673" lon="-0.21587">
        <ele>63.45</ele>
        <time>2025-07-04T17:47:04.796Z</time>
      </trkpt>
      <trkpt lat="49.22682" lon="-0.2155">
        <ele>63.16</ele>
        <time>2025-07-04T17:47:19.040Z</time>
      </trkpt>
      <trkpt lat="49.2269" lon="-0.21523">
        <ele>62.87</ele>
        <time>2025-07-04T17:47:33.287Z</time>
      </trkpt>
      <trkpt lat="49.22703" lon="-0.21488">
        <ele>62.56</ele>
        <time>2025-07-04T17:47:47.539Z</time>
      </trkpt>
      <trkpt lat="49.22719" lon="-0.21454">
        <ele>62.25</ele>
        <time>2025-07-04T17:48:01.795Z</time>
      </trkpt>
      <trkpt lat="49.2273" lon="-0.21435">
        <ele>61.9</ele>
        <time>2025-07-04T17:48:16.054Z</time>
      </trkpt>
      <trkpt lat="49.22752" lon="-0.21401">
        <ele>61.49</ele>
        <time>2025-07-04T17:48:30.318Z</time>
      </trkpt>
      <trkpt lat="49.2276" lon="-0.21389">
        <ele>61.06</ele>
        <time>2025-07-04T17:48:44.583Z</time>
      </trkpt>
      <trkpt lat="49.22783" lon="-0.21355">
        <ele>60.66</ele>
        <time>2025-07-04T17:48:58.853Z</time>
      </trkpt>
      <trkpt lat="49.22805" lon="-0.21322">
        <ele>60.19</ele>
        <time>2025-07-04T17:49:13.129Z</time>
      </trkpt>
      <trkpt lat="49.22813" lon="-0.2131">
        <ele>59.71</ele>
        <time>2025-07-04T17:49:27.406Z</time>
      </trkpt>
      <trkpt lat="49.22828" lon="-0.21288">
        <ele>59.19</ele>
        <time>2025-07-04T17:49:41.687Z</time>
      </trkpt>
      <trkpt lat="49.22833" lon="-0.21276">
        <ele>58.68</ele>
        <time>2025-07-04T17:49:55.969Z</time>
      </trkpt>
      <trkpt lat="49.22854" lon="-0.21241">
        <ele>58.14</ele>
        <time>2025-07-04T17:50:10.256Z</time>
      </trkpt>
      <trkpt lat="49.22876" lon="-0.21206">
        <ele>57.63</ele>
        <time>2025-07-04T17:50:24.548Z</time>
      </trkpt>
      <trkpt lat="49.22881" lon="-0.21197">
        <ele>57.13</ele>
        <time>2025-07-04T17:50:38.841Z</time>
      </trkpt>
      <trkpt lat="49.22897" lon="-0.21172">
        <ele>56.63</ele>
        <time>2025-07-04T17:50:53.138Z</time>
      </trkpt>
      <trkpt lat="49.22879" lon="-0.21133">
        <ele>56.12</ele>
        <time>2025-07-04T17:51:07.440Z</time>
      </trkpt>
      <trkpt lat="49.22872" lon="-0.21119">
        <ele>55.65</ele>
        <time>2025-07-04T17:51:21.744Z</time>
      </trkpt>
      <trkpt lat="49.22873" lon="-0.21114">
        <ele>55.2</ele>
        <time>2025-07-04T17:51:36.048Z</time>
      </trkpt>
      <trkpt lat="49.22876" lon="-0.21115">
        <ele>54.77</ele>
        <time>2025-07-04T17:51:50.353Z</time>
      </trkpt>
      <trkpt lat="49.22882" lon="-0.21123">
        <ele>54.36</ele>
        <time>2025-07-04T17:52:04.659Z</time>
      </trkpt>
      <trkpt lat="49.22892" lon="-0.21119">
        <ele>53.98</ele>
        <time>2025-07-04T17:52:18.967Z</time>
      </trkpt>
      <trkpt lat="49.22898" lon="-0.21117">
        <ele>53.61</ele>
        <time>2025-07-04T17:52:33.276Z</time>
      </trkpt>
      <trkpt lat="49.22912" lon="-0.21116">
        <ele>53.27</ele>
        <time>2025-07-04T17:52:47.587Z</time>
      </trkpt>
      <trkpt lat="49.22918" lon="-0.21113">
        <ele>52.94</ele>
        <time>2025-07-04T17:53:01.899Z</time>
      </trkpt>
      <trkpt lat="49.22925" lon="-0.21105">
        <ele>52.63</ele>
        <time>2025-07-04T17:53:16.213Z</time>
      </trkpt>
      <trkpt lat="49.22942" lon="-0.21074">
        <ele>52.36</ele>
        <time>2025-07-04T17:53:30.531Z</time>
      </trkpt>
      <trkpt lat="49.22961" lon="-0.21036">
        <ele>52.06</ele>
        <time>2025-07-04T17:53:44.854Z</time>
      </trkpt>
      <trkpt lat="49.22975" lon="-0.21009">
        <ele>51.81</ele>
        <time>2025-07-04T17:53:59.180Z</time>
      </trkpt>
      <trkpt lat="49.22993" lon="-0.2097">
        <ele>51.54</ele>
        <time>2025-07-04T17:54:13.511Z</time>
      </trkpt>
      <trkpt lat="49.23005" lon="-0.20945">
        <ele>51.32</ele>
        <time>2025-07-04T17:54:27.846Z</time>
      </trkpt>
      <trkpt lat="49.23021" lon="-0.20904">
        <ele>51.13</ele>
        <time>2025-07-04T17:54:42.186Z</time>
      </trkpt>
      <trkpt lat="49.23027" lon="-0.2089">
        <ele>50.98</ele>
        <time>2025-07-04T17:54:56.527Z</time>
      </trkpt>
      <trkpt lat="49.2304" lon="-0.20847">
        <ele>50.84</ele>
        <time>2025-07-04T17:55:10.873Z</time>
      </trkpt>
      <trkpt lat="49.23047" lon="-0.20825">
        <ele>50.74</ele>
        <time>2025-07-04T17:55:25.222Z</time>
      </trkpt>
      <trkpt lat="49.23055" lon="-0.20794">
        <ele>50.69</ele>
        <time>2025-07-04T17:55:39.574Z</time>
      </trkpt>
      <trkpt lat="49.23065" lon="-0.20748">
        <ele>50.7</ele>
        <time>2025-07-04T17:55:53.932Z</time>
      </trkpt>
      <trkpt lat="49.23066" lon="-0.20742">
        <ele>50.69</ele>
        <time>2025-07-04T17:56:08.290Z</time>
      </trkpt>
      <trkpt lat="49.23076" lon="-0.20696">
        <ele>50.73</ele>
        <time>2025-07-04T17:56:22.653Z</time>
      </trkpt>
      <trkpt lat="49.23084" lon="-0.20656">
        <ele>50.78</ele>
        <time>2025-07-04T17:56:37.021Z</time>
      </trkpt>
      <trkpt lat="49.23095" lon="-0.20611">
        <ele>50.78</ele>
        <time>2025-07-04T17:56:51.394Z</time>
      </trkpt>
      <trkpt lat="49.23095" lon="-0.2061">
        <ele>50.85</ele>
        <time>2025-07-04T17:57:05.767Z</time>
      </trkpt>
      <trkpt lat="49.23097" lon="-0.20605">
        <ele>50.94</ele>
        <time>2025-07-04T17:57:20.140Z</time>
      </trkpt>
      <trkpt lat="49.23089" lon="-0.20631">
        <ele>51.07</ele>
        <time>2025-07-04T17:57:34.516Z</time>
      </trkpt>
      <trkpt lat="49.23079" lon="-0.20677">
        <ele>51.2</ele>
        <time>2025-07-04T17:57:48.897Z</time>
      </trkpt>
      <trkpt lat="49.23074" lon="-0.207">
        <ele>51.32</ele>
        <time>2025-07-04T17:58:03.281Z</time>
      </trkpt>
      <trkpt lat="49.23065" lon="-0.20746">
        <ele>51.44</ele>
        <time>2025-07-04T17:58:17.670Z</time>
      </trkpt>
      <trkpt lat="49.23059" lon="-0.20776">
        <ele>51.56</ele>
        <time>2025-07-04T17:58:32.062Z</time>
      </trkpt>
      <trkpt lat="49.23048" lon="-0.20821">
        <ele>51.7</ele>
        <time>2025-07-04T17:58:46.459Z</time>
      </trkpt>
      <trkpt lat="49.23038" lon="-0.20858">
        <ele>51.89</ele>
        <time>2025-07-04T17:59:00.861Z</time>
      </trkpt>
      <trkpt lat="49.23023" lon="-0.209">
        <ele>52.09</ele>
        <time>2025-07-04T17:59:15.268Z</time>
      </trkpt>
      <trkpt lat="49.23016" lon="-0.20918">
        <ele>52.27</ele>
        <time>2025-07-04T17:59:29.677Z</time>
      </trkpt>
      <trkpt lat="49.22999" lon="-0.20958">
        <ele>52.48</ele>
        <time>2025-07-04T17:59:44.091Z</time>
      </trkpt>
      <trkpt lat="49.22986" lon="-0.20987">
        <ele>52.7</ele>
        <time>2025-07-04T17:59:58.509Z</time>
      </trkpt>
      <trkpt lat="49.22967" lon="-0.21025">
        <ele>52.9</ele>
        <time>2025-07-04T18:00:12.932Z</time>
      </trkpt>
      <trkpt lat="49.22953" lon="-0.21052">
        <ele>53.06</ele>
        <time>2025-07-04T18:00:27.358Z</time>
      </trkpt>
      <trkpt lat="49.2294" lon="-0.21079">
        <ele>53.25</ele>
        <time>2025-07-04T18:00:41.788Z</time>
      </trkpt>
      <trkpt lat="49.22921" lon="-0.2111">
        <ele>53.36</ele>
        <time>2025-07-04T18:00:56.222Z</time>
      </trkpt>
      <trkpt lat="49.22915" lon="-0.21115">
        <ele>53.48</ele>
        <time>2025-07-04T18:01:10.657Z</time>
      </trkpt>
      <trkpt lat="49.22902" lon="-0.21116">
        <ele>53.58</ele>
        <time>2025-07-04T18:01:25.094Z</time>
      </trkpt>
      <trkpt lat="49.22882" lon="-0.21123">
        <ele>54.36</ele>
        <time>2025-07-04T18:01:39.535Z</time>
      </trkpt>
      <trkpt lat="49.22902" lon="-0.2116">
        <ele>53.75</ele>
        <time>2025-07-04T18:01:53.981Z</time>
      </trkpt>
      <trkpt lat="49.22903" lon="-0.21162">
        <ele>53.8</ele>
        <time>2025-07-04T18:02:08.427Z</time>
      </trkpt>
      <trkpt lat="49.22916" lon="-0.2114">
        <ele>53.84</ele>
        <time>2025-07-04T18:02:22.876Z</time>
      </trkpt>
      <trkpt lat="49.22934" lon="-0.21109">
        <ele>53.85</ele>
        <time>2025-07-04T18:02:37.329Z</time>
      </trkpt>
      <trkpt lat="49.22955" lon="-0.21073">
        <ele>53.82</ele>
        <time>2025-07-04T18:02:51.787Z</time>
      </trkpt>
      <trkpt lat="49.22976" lon="-0.21037">
        <ele>53.73</ele>
        <time>2025-07-04T18:03:06.250Z</time>
      </trkpt>
      <trkpt lat="49.22976" lon="-0.21036">
        <ele>53.67</ele>
        <time>2025-07-04T18:03:20.714Z</time>
      </trkpt>
      <trkpt lat="49.22989" lon="-0.21016">
        <ele>53.57</ele>
        <time>2025-07-04T18:03:35.180Z</time>
      </trkpt>
      <trkpt lat="49.23008" lon="-0.20977">
        <ele>53.46</ele>
        <time>2025-07-04T18:03:49.652Z</time>
      </trkpt>
      <trkpt lat="49.23009" lon="-0.20975">
        <ele>53.31</ele>
        <time>2025-07-04T18:04:04.124Z</time>
      </trkpt>
      <trkpt lat="49.23026" lon="-0.20934">
        <ele>53.09</ele>
        <time>2025-07-04T18:04:18.601Z</time>
      </trkpt>
      <trkpt lat="49.23036" lon="-0.20909">
        <ele>52.87</ele>
        <time>2025-07-04T18:04:33.081Z</time>
      </trkpt>
      <trkpt lat="49.23049" lon="-0.20865">
        <ele>52.64</ele>
        <time>2025-07-04T18:04:47.566Z</time>
      </trkpt>
      <trkpt lat="49.23062" lon="-0.20822">
        <ele>52.4</ele>
        <time>2025-07-04T18:05:02.056Z</time>
      </trkpt>
      <trkpt lat="49.23063" lon="-0.2082">
        <ele>52.14</ele>
        <time>2025-07-04T18:05:16.546Z</time>
      </trkpt>
      <trkpt lat="49.23073" lon="-0.20774">
        <ele>51.87</ele>
        <time>2025-07-04T18:05:31.041Z</time>
      </trkpt>
      <trkpt lat="49.23083" lon="-0.20729">
        <ele>51.62</ele>
        <time>2025-07-04T18:05:45.541Z</time>
      </trkpt>
      <trkpt lat="49.23091" lon="-0.20691">
        <ele>51.33</ele>
        <time>2025-07-04T18:06:00.046Z</time>
      </trkpt>
      <trkpt lat="49.23102" lon="-0.20646">
        <ele>50.97</ele>
        <time>2025-07-04T18:06:14.556Z</time>
      </trkpt>
      <trkpt lat="49.2311" lon="-0.20616">
        <ele>50.54</ele>
        <time>2025-07-04T18:06:29.069Z</time>
      </trkpt>
      <trkpt lat="49.23125" lon="-0.20574">
        <ele>50.06</ele>
        <time>2025-07-04T18:06:43.587Z</time>
      </trkpt>
      <trkpt lat="49.23129" lon="-0.20563">
        <ele>49.61</ele>
        <time>2025-07-04T18:06:58.106Z</time>
      </trkpt>
      <trkpt lat="49.23146" lon="-0.20523">
        <ele>49.16</ele>
        <time>2025-07-04T18:07:12.630Z</time>
      </trkpt>
      <trkpt lat="49.2316" lon="-0.2049">
        <ele>48.69</ele>
        <time>2025-07-04T18:07:27.158Z</time>
      </trkpt>
      <trkpt lat="49.23177" lon="-0.20449">
        <ele>48.07</ele>
        <time>2025-07-04T18:07:41.691Z</time>
      </trkpt>
      <trkpt lat="49.23194" lon="-0.20409">
        <ele>47.44</ele>
        <time>2025-07-04T18:07:56.230Z</time>
      </trkpt>
      <trkpt lat="49.2321" lon="-0.20368">
        <ele>46.86</ele>
        <time>2025-07-04T18:08:10.774Z</time>
      </trkpt>
      <trkpt lat="49.23222" lon="-0.2034">
        <ele>46.29</ele>
        <time>2025-07-04T18:08:25.321Z</time>
      </trkpt>
      <trkpt lat="49.23237" lon="-0.20298">
        <ele>45.71</ele>
        <time>2025-07-04T18:08:39.873Z</time>
      </trkpt>
      <trkpt lat="49.23245" lon="-0.20276">
        <ele>45.16</ele>
        <time>2025-07-04T18:08:54.428Z</time>
      </trkpt>
      <trkpt lat="49.23262" lon="-0.20235">
        <ele>44.6</ele>
        <time>2025-07-04T18:09:08.988Z</time>
      </trkpt>
      <trkpt lat="49.23278" lon="-0.20195">
        <ele>44.08</ele>
        <time>2025-07-04T18:09:23.553Z</time>
      </trkpt>
      <trkpt lat="49.23291" lon="-0.20164">
        <ele>43.56</ele>
        <time>2025-07-04T18:09:38.122Z</time>
      </trkpt>
      <trkpt lat="49.23308" lon="-0.20123">
        <ele>43.02</ele>
        <time>2025-07-04T18:09:52.696Z</time>
      </trkpt>
      <trkpt lat="49.23322" lon="-0.20089">
        <ele>42.53</ele>
        <time>2025-07-04T18:10:07.274Z</time>
      </trkpt>
      <trkpt lat="49.23332" lon="-0.20071">
        <ele>42.05</ele>
        <time>2025-07-04T18:10:21.854Z</time>
      </trkpt>
      <trkpt lat="49.23349" lon="-0.2003">
        <ele>41.57</ele>
        <time>2025-07-04T18:10:36.439Z</time>
      </trkpt>
      <trkpt lat="49.23349" lon="-0.2003">
        <ele>41.11</ele>
        <time>2025-07-04T18:10:51.024Z</time>
      </trkpt>
      <trkpt lat="49.23366" lon="-0.19989">
        <ele>40.72</ele>
        <time>2025-07-04T18:11:05.614Z</time>
      </trkpt>
      <trkpt lat="49.23383" lon="-0.19949">
        <ele>40.3</ele>
        <time>2025-07-04T18:11:20.209Z</time>
      </trkpt>
      <trkpt lat="49.23399" lon="-0.19908">
        <ele>39.82</ele>
        <time>2025-07-04T18:11:34.810Z</time>
      </trkpt>
      <trkpt lat="49.23416" lon="-0.19868">
        <ele>39.4</ele>
        <time>2025-07-04T18:11:49.416Z</time>
      </trkpt>
      <trkpt lat="49.23424" lon="-0.19849">
        <ele>38.98</ele>
        <time>2025-07-04T18:12:04.024Z</time>
      </trkpt>
      <trkpt lat="49.23441" lon="-0.19808">
        <ele>38.56</ele>
        <time>2025-07-04T18:12:18.637Z</time>
      </trkpt>
      <trkpt lat="49.23457" lon="-0.19768">
        <ele>38.14</ele>
        <time>2025-07-04T18:12:33.255Z</time>
      </trkpt>
      <trkpt lat="49.23467" lon="-0.19744">
        <ele>37.72</ele>
        <time>2025-07-04T18:12:47.876Z</time>
      </trkpt>
      <trkpt lat="49.23484" lon="-0.19704">
        <ele>37.3</ele>
        <time>2025-07-04T18:13:02.502Z</time>
      </trkpt>
      <trkpt lat="49.23499" lon="-0.19668">
        <ele>36.89</ele>
        <time>2025-07-04T18:13:17.132Z</time>
      </trkpt>
      <trkpt lat="49.23517" lon="-0.19628">
        <ele>36.45</ele>
        <time>2025-07-04T18:13:31.767Z</time>
      </trkpt>
      <trkpt lat="49.23534" lon="-0.19588">
        <ele>36.06</ele>
        <time>2025-07-04T18:13:46.407Z</time>
      </trkpt>
      <trkpt lat="49.23535" lon="-0.19587">
        <ele>35.7</ele>
        <time>2025-07-04T18:14:01.048Z</time>
      </trkpt>
      <trkpt lat="49.23554" lon="-0.19549">
        <ele>35.32</ele>
        <time>2025-07-04T18:14:15.694Z</time>
      </trkpt>
      <trkpt lat="49.23573" lon="-0.19511">
        <ele>34.95</ele>
        <time>2025-07-04T18:14:30.345Z</time>
      </trkpt>
      <trkpt lat="49.23592" lon="-0.19472">
        <ele>34.58</ele>
        <time>2025-07-04T18:14:45.001Z</time>
      </trkpt>
      <trkpt lat="49.23611" lon="-0.19434">
        <ele>34.22</ele>
        <time>2025-07-04T18:14:59.662Z</time>
      </trkpt>
      <trkpt lat="49.2363" lon="-0.19396">
        <ele>33.85</ele>
        <time>2025-07-04T18:15:14.328Z</time>
      </trkpt>
      <trkpt lat="49.2365" lon="-0.19358">
        <ele>33.54</ele>
        <time>2025-07-04T18:15:28.999Z</time>
      </trkpt>
      <trkpt lat="49.23669" lon="-0.1932">
        <ele>33.22</ele>
        <time>2025-07-04T18:15:43.675Z</time>
      </trkpt>
      <trkpt lat="49.23671" lon="-0.19315">
        <ele>32.88</ele>
        <time>2025-07-04T18:15:58.351Z</time>
      </trkpt>
      <trkpt lat="49.2369" lon="-0.19276">
        <ele>32.54</ele>
        <time>2025-07-04T18:16:13.033Z</time>
      </trkpt>
      <trkpt lat="49.23708" lon="-0.19238">
        <ele>32.15</ele>
        <time>2025-07-04T18:16:27.720Z</time>
      </trkpt>
      <trkpt lat="49.2372" lon="-0.19214">
        <ele>31.78</ele>
        <time>2025-07-04T18:16:42.410Z</time>
      </trkpt>
      <trkpt lat="49.23738" lon="-0.19175">
        <ele>31.45</ele>
        <time>2025-07-04T18:16:57.105Z</time>
      </trkpt>
      <trkpt lat="49.23749" lon="-0.19152">
        <ele>31.12</ele>
        <time>2025-07-04T18:17:11.803Z</time>
      </trkpt>
      <trkpt lat="49.23768" lon="-0.19114">
        <ele>30.82</ele>
        <time>2025-07-04T18:17:26.506Z</time>
      </trkpt>
      <trkpt lat="49.23787" lon="-0.19076">
        <ele>30.52</ele>
        <time>2025-07-04T18:17:41.214Z</time>
      </trkpt>
      <trkpt lat="49.23804" lon="-0.19042">
        <ele>30.11</ele>
        <time>2025-07-04T18:17:55.926Z</time>
      </trkpt>
      <trkpt lat="49.23823" lon="-0.19004">
        <ele>29.66</ele>
        <time>2025-07-04T18:18:10.643Z</time>
      </trkpt>
      <trkpt lat="49.23842" lon="-0.18968">
        <ele>29.23</ele>
        <time>2025-07-04T18:18:25.365Z</time>
      </trkpt>
      <trkpt lat="49.23861" lon="-0.18941">
        <ele>28.84</ele>
        <time>2025-07-04T18:18:40.091Z</time>
      </trkpt>
      <trkpt lat="49.23881" lon="-0.1892">
        <ele>28.45</ele>
        <time>2025-07-04T18:18:54.821Z</time>
      </trkpt>
      <trkpt lat="49.23898" lon="-0.18906">
        <ele>28.06</ele>
        <time>2025-07-04T18:19:09.554Z</time>
      </trkpt>
      <trkpt lat="49.23926" lon="-0.18885">
        <ele>27.66</ele>
        <time>2025-07-04T18:19:24.292Z</time>
      </trkpt>
      <trkpt lat="49.23933" lon="-0.1888">
        <ele>27.28</ele>
        <time>2025-07-04T18:19:39.031Z</time>
      </trkpt>
      <trkpt lat="49.23958" lon="-0.18866">
        <ele>26.89</ele>
        <time>2025-07-04T18:19:53.775Z</time>
      </trkpt>
      <trkpt lat="49.23975" lon="-0.18853">
        <ele>26.52</ele>
        <time>2025-07-04T18:20:08.522Z</time>
      </trkpt>
      <trkpt lat="49.24002" lon="-0.18829">
        <ele>26.16</ele>
        <time>2025-07-04T18:20:23.274Z</time>
      </trkpt>
      <trkpt lat="49.24012" lon="-0.1882">
        <ele>25.79</ele>
        <time>2025-07-04T18:20:38.028Z</time>
      </trkpt>
      <trkpt lat="49.24038" lon="-0.18793">
        <ele>25.4</ele>
        <time>2025-07-04T18:20:52.787Z</time>
      </trkpt>
      <trkpt lat="49.24059" lon="-0.18771">
        <ele>25.02</ele>
        <time>2025-07-04T18:21:07.550Z</time>
      </trkpt>
      <trkpt lat="49.24084" lon="-0.18742">
        <ele>24.69</ele>
        <time>2025-07-04T18:21:22.318Z</time>
      </trkpt>
      <trkpt lat="49.24109" lon="-0.18713">
        <ele>24.27</ele>
        <time>2025-07-04T18:21:37.091Z</time>
      </trkpt>
      <trkpt lat="49.24134" lon="-0.18684">
        <ele>23.81</ele>
        <time>2025-07-04T18:21:51.869Z</time>
      </trkpt>
      <trkpt lat="49.24157" lon="-0.18657">
        <ele>23.47</ele>
        <time>2025-07-04T18:22:06.651Z</time>
      </trkpt>
      <trkpt lat="49.24174" lon="-0.18634">
        <ele>23.14</ele>
        <time>2025-07-04T18:22:21.437Z</time>
      </trkpt>
      <trkpt lat="49.2419" lon="-0.18618">
        <ele>22.79</ele>
        <time>2025-07-04T18:22:36.226Z</time>
      </trkpt>
      <trkpt lat="49.24216" lon="-0.18592">
        <ele>22.46</ele>
        <time>2025-07-04T18:22:51.020Z</time>
      </trkpt>
      <trkpt lat="49.24243" lon="-0.18566">
        <ele>22.13</ele>
        <time>2025-07-04T18:23:05.819Z</time>
      </trkpt>
      <trkpt lat="49.24244" lon="-0.18565">
        <ele>21.81</ele>
        <time>2025-07-04T18:23:20.618Z</time>
      </trkpt>
      <trkpt lat="49.24271" lon="-0.18539">
        <ele>21.5</ele>
        <time>2025-07-04T18:23:35.422Z</time>
      </trkpt>
      <trkpt lat="49.24297" lon="-0.18513">
        <ele>21.19</ele>
        <time>2025-07-04T18:23:50.231Z</time>
      </trkpt>
      <trkpt lat="49.24324" lon="-0.18488">
        <ele>20.89</ele>
        <time>2025-07-04T18:24:05.046Z</time>
      </trkpt>
      <trkpt lat="49.24344" lon="-0.18468">
        <ele>20.56</ele>
        <time>2025-07-04T18:24:19.864Z</time>
      </trkpt>
      <trkpt lat="49.24371" lon="-0.18443">
        <ele>20.25</ele>
        <time>2025-07-04T18:24:34.687Z</time>
      </trkpt>
      <trkpt lat="49.24398" lon="-0.18418">
        <ele>19.94</ele>
        <time>2025-07-04T18:24:49.515Z</time>
      </trkpt>
      <trkpt lat="49.24425" lon="-0.18393">
        <ele>19.64</ele>
        <time>2025-07-04T18:25:04.348Z</time>
      </trkpt>
      <trkpt lat="49.24426" lon="-0.18392">
        <ele>19.36</ele>
        <time>2025-07-04T18:25:19.182Z</time>
      </trkpt>
      <trkpt lat="49.24453" lon="-0.18366">
        <ele>19.08</ele>
        <time>2025-07-04T18:25:34.021Z</time>
      </trkpt>
      <trkpt lat="49.2447" lon="-0.18349">
        <ele>18.81</ele>
        <time>2025-07-04T18:25:48.863Z</time>
      </trkpt>
      <trkpt lat="49.24497" lon="-0.18325">
        <ele>18.51</ele>
        <time>2025-07-04T18:26:03.710Z</time>
      </trkpt>
      <trkpt lat="49.24525" lon="-0.18302">
        <ele>18.24</ele>
        <time>2025-07-04T18:26:18.562Z</time>
      </trkpt>
      <trkpt lat="49.24529" lon="-0.18298">
        <ele>17.97</ele>
        <time>2025-07-04T18:26:33.415Z</time>
      </trkpt>
      <trkpt lat="49.24545" lon="-0.18278">
        <ele>17.68</ele>
        <time>2025-07-04T18:26:48.271Z</time>
      </trkpt>
      <trkpt lat="49.24561" lon="-0.18253">
        <ele>17.41</ele>
        <time>2025-07-04T18:27:03.131Z</time>
      </trkpt>
      <trkpt lat="49.2458" lon="-0.18215">
        <ele>17.19</ele>
        <time>2025-07-04T18:27:17.996Z</time>
      </trkpt>
      <trkpt lat="49.246" lon="-0.18177">
        <ele>17.01</ele>
        <time>2025-07-04T18:27:32.866Z</time>
      </trkpt>
      <trkpt lat="49.24613" lon="-0.18152">
        <ele>16.83</ele>
        <time>2025-07-04T18:27:47.739Z</time>
      </trkpt>
      <trkpt lat="49.24631" lon="-0.18113">
        <ele>16.64</ele>
        <time>2025-07-04T18:28:02.617Z</time>
      </trkpt>
      <trkpt lat="49.24649" lon="-0.18073">
        <ele>16.37</ele>
        <time>2025-07-04T18:28:17.500Z</time>
      </trkpt>
      <trkpt lat="49.24667" lon="-0.18034">
        <ele>16.1</ele>
        <time>2025-07-04T18:28:32.389Z</time>
      </trkpt>
      <trkpt lat="49.24686" lon="-0.17995">
        <ele>15.87</ele>
        <time>2025-07-04T18:28:47.283Z</time>
      </trkpt>
      <trkpt lat="49.24704" lon="-0.17956">
        <ele>15.62</ele>
        <time>2025-07-04T18:29:02.182Z</time>
      </trkpt>
      <trkpt lat="49.24722" lon="-0.17916">
        <ele>15.42</ele>
        <time>2025-07-04T18:29:17.086Z</time>
      </trkpt>
      <trkpt lat="49.2474" lon="-0.17877">
        <ele>15.24</ele>
        <time>2025-07-04T18:29:31.995Z</time>
      </trkpt>
      <trkpt lat="49.24758" lon="-0.17838">
        <ele>15.05</ele>
        <time>2025-07-04T18:29:46.909Z</time>
      </trkpt>
      <trkpt lat="49.24761" lon="-0.17832">
        <ele>14.87</ele>
        <time>2025-07-04T18:30:01.823Z</time>
      </trkpt>
      <trkpt lat="49.2478" lon="-0.17794">
        <ele>14.69</ele>
        <time>2025-07-04T18:30:16.743Z</time>
      </trkpt>
      <trkpt lat="49.24799" lon="-0.17756">
        <ele>14.54</ele>
        <time>2025-07-04T18:30:31.668Z</time>
      </trkpt>
      <trkpt lat="49.24818" lon="-0.17717">
        <ele>14.39</ele>
        <time>2025-07-04T18:30:46.598Z</time>
      </trkpt>
      <trkpt lat="49.24837" lon="-0.17679">
        <ele>14.25</ele>
        <time>2025-07-04T18:31:01.533Z</time>
      </trkpt>
      <trkpt lat="49.24857" lon="-0.17641">
        <ele>14.09</ele>
        <time>2025-07-04T18:31:16.473Z</time>
      </trkpt>
      <trkpt lat="49.24865" lon="-0.17624">
        <ele>13.94</ele>
        <time>2025-07-04T18:31:31.415Z</time>
      </trkpt>
      <trkpt lat="49.24882" lon="-0.17583">
        <ele>13.76</ele>
        <time>2025-07-04T18:31:46.362Z</time>
      </trkpt>
      <trkpt lat="49.24888" lon="-0.17567">
        <ele>13.64</ele>
        <time>2025-07-04T18:32:01.311Z</time>
      </trkpt>
      <trkpt lat="49.249" lon="-0.17523">
        <ele>13.53</ele>
        <time>2025-07-04T18:32:16.265Z</time>
      </trkpt>
      <trkpt lat="49.24912" lon="-0.17482">
        <ele>13.45</ele>
        <time>2025-07-04T18:32:31.224Z</time>
      </trkpt>
      <trkpt lat="49.24923" lon="-0.17437">
        <ele>13.42</ele>
        <time>2025-07-04T18:32:46.188Z</time>
      </trkpt>
      <trkpt lat="49.24933" lon="-0.17391">
        <ele>13.37</ele>
        <time>2025-07-04T18:33:01.157Z</time>
      </trkpt>
      <trkpt lat="49.24944" lon="-0.17346">
        <ele>13.32</ele>
        <time>2025-07-04T18:33:16.131Z</time>
      </trkpt>
      <trkpt lat="49.24954" lon="-0.17301">
        <ele>13.29</ele>
        <time>2025-07-04T18:33:31.110Z</time>
      </trkpt>
      <trkpt lat="49.24958" lon="-0.17286">
        <ele>13.28</ele>
        <time>2025-07-04T18:33:46.090Z</time>
      </trkpt>
      <trkpt lat="49.24972" lon="-0.17243">
        <ele>13.27</ele>
        <time>2025-07-04T18:34:01.076Z</time>
      </trkpt>
      <trkpt lat="49.24986" lon="-0.172">
        <ele>13.3</ele>
        <time>2025-07-04T18:34:16.067Z</time>
      </trkpt>
      <trkpt lat="49.25" lon="-0.17157">
        <ele>13.25</ele>
        <time>2025-07-04T18:34:31.063Z</time>
      </trkpt>
      <trkpt lat="49.25014" lon="-0.17115">
        <ele>13.22</ele>
        <time>2025-07-04T18:34:46.064Z</time>
      </trkpt>
      <trkpt lat="49.25023" lon="-0.17084">
        <ele>13.23</ele>
        <time>2025-07-04T18:35:01.068Z</time>
      </trkpt>
      <trkpt lat="49.25033" lon="-0.17039">
        <ele>13.31</ele>
        <time>2025-07-04T18:35:16.077Z</time>
      </trkpt>
      <trkpt lat="49.25039" lon="-0.17014">
        <ele>13.38</ele>
        <time>2025-07-04T18:35:31.089Z</time>
      </trkpt>
      <trkpt lat="49.25046" lon="-0.16967">
        <ele>13.53</ele>
        <time>2025-07-04T18:35:46.106Z</time>
      </trkpt>
      <trkpt lat="49.25047" lon="-0.16962">
        <ele>13.59</ele>
        <time>2025-07-04T18:36:01.123Z</time>
      </trkpt>
      <trkpt lat="49.25048" lon="-0.16914">
        <ele>13.63</ele>
        <time>2025-07-04T18:36:16.145Z</time>
      </trkpt>
      <trkpt lat="49.2505" lon="-0.16866">
        <ele>13.63</ele>
        <time>2025-07-04T18:36:31.173Z</time>
      </trkpt>
      <trkpt lat="49.25051" lon="-0.1683">
        <ele>13.69</ele>
        <time>2025-07-04T18:36:46.204Z</time>
      </trkpt>
      <trkpt lat="49.25051" lon="-0.16782">
        <ele>13.79</ele>
        <time>2025-07-04T18:37:01.240Z</time>
      </trkpt>
      <trkpt lat="49.25052" lon="-0.16734">
        <ele>13.86</ele>
        <time>2025-07-04T18:37:16.281Z</time>
      </trkpt>
      <trkpt lat="49.25052" lon="-0.16686">
        <ele>13.94</ele>
        <time>2025-07-04T18:37:31.327Z</time>
      </trkpt>
      <trkpt lat="49.25053" lon="-0.16638">
        <ele>13.88</ele>
        <time>2025-07-04T18:37:46.378Z</time>
      </trkpt>
      <trkpt lat="49.25054" lon="-0.16591">
        <ele>13.76</ele>
        <time>2025-07-04T18:38:01.434Z</time>
      </trkpt>
      <trkpt lat="49.25059" lon="-0.16544">
        <ele>13.66</ele>
        <time>2025-07-04T18:38:16.495Z</time>
      </trkpt>
      <trkpt lat="49.2506" lon="-0.16536">
        <ele>13.62</ele>
        <time>2025-07-04T18:38:31.557Z</time>
      </trkpt>
      <trkpt lat="49.25068" lon="-0.1649">
        <ele>13.6</ele>
        <time>2025-07-04T18:38:46.624Z</time>
      </trkpt>
      <trkpt lat="49.25069" lon="-0.16487">
        <ele>13.53</ele>
        <time>2025-07-04T18:39:01.692Z</time>
      </trkpt>
      <trkpt lat="49.2508" lon="-0.16442">
        <ele>13.5</ele>
        <time>2025-07-04T18:39:16.765Z</time>
      </trkpt>
      <trkpt lat="49.25081" lon="-0.16437">
        <ele>13.4</ele>
        <time>2025-07-04T18:39:31.838Z</time>
      </trkpt>
      <trkpt lat="49.25096" lon="-0.16395">
        <ele>13.25</ele>
        <time>2025-07-04T18:39:46.916Z</time>
      </trkpt>
      <trkpt lat="49.2511" lon="-0.16358">
        <ele>13.06</ele>
        <time>2025-07-04T18:40:01.999Z</time>
      </trkpt>
      <trkpt lat="49.25129" lon="-0.16319">
        <ele>12.87</ele>
        <time>2025-07-04T18:40:17.087Z</time>
      </trkpt>
      <trkpt lat="49.25129" lon="-0.16319">
        <ele>12.71</ele>
        <time>2025-07-04T18:40:32.175Z</time>
      </trkpt>
      <trkpt lat="49.2515" lon="-0.16284">
        <ele>12.53</ele>
        <time>2025-07-04T18:40:47.268Z</time>
      </trkpt>
      <trkpt lat="49.25159" lon="-0.1627">
        <ele>12.33</ele>
        <time>2025-07-04T18:41:02.363Z</time>
      </trkpt>
      <trkpt lat="49.25184" lon="-0.1624">
        <ele>12.21</ele>
        <time>2025-07-04T18:41:17.463Z</time>
      </trkpt>
      <trkpt lat="49.252" lon="-0.1622">
        <ele>12.01</ele>
        <time>2025-07-04T18:41:32.566Z</time>
      </trkpt>
      <trkpt lat="49.25214" lon="-0.16206">
        <ele>11.77</ele>
        <time>2025-07-04T18:41:47.672Z</time>
      </trkpt>
      <trkpt lat="49.25223" lon="-0.162">
        <ele>11.5</ele>
        <time>2025-07-04T18:42:02.779Z</time>
      </trkpt>
      <trkpt lat="49.25227" lon="-0.16193">
        <ele>11.23</ele>
        <time>2025-07-04T18:42:17.887Z</time>
      </trkpt>
      <trkpt lat="49.2525" lon="-0.16172">
        <ele>10.88</ele>
        <time>2025-07-04T18:42:33.000Z</time>
      </trkpt>
      <trkpt lat="49.25278" lon="-0.1615">
        <ele>10.55</ele>
        <time>2025-07-04T18:42:48.118Z</time>
      </trkpt>
      <trkpt lat="49.25301" lon="-0.16132">
        <ele>10.28</ele>
        <time>2025-07-04T18:43:03.240Z</time>
      </trkpt>
      <trkpt lat="49.25329" lon="-0.1611">
        <ele>10.02</ele>
        <time>2025-07-04T18:43:18.367Z</time>
      </trkpt>
      <trkpt lat="49.25345" lon="-0.16097">
        <ele>9.71</ele>
        <time>2025-07-04T18:43:33.497Z</time>
      </trkpt>
      <trkpt lat="49.25346" lon="-0.16083">
        <ele>9.43</ele>
        <time>2025-07-04T18:43:48.628Z</time>
      </trkpt>
      <trkpt lat="49.25351" lon="-0.16074">
        <ele>9.13</ele>
        <time>2025-07-04T18:44:03.761Z</time>
      </trkpt>
      <trkpt lat="49.2536" lon="-0.16072">
        <ele>8.8</ele>
        <time>2025-07-04T18:44:18.895Z</time>
      </trkpt>
      <trkpt lat="49.25367" lon="-0.16079">
        <ele>8.46</ele>
        <time>2025-07-04T18:44:34.030Z</time>
      </trkpt>
      <trkpt lat="49.25376" lon="-0.16074">
        <ele>8.14</ele>
        <time>2025-07-04T18:44:49.167Z</time>
      </trkpt>
      <trkpt lat="49.25383" lon="-0.16074">
        <ele>7.81</ele>
        <time>2025-07-04T18:45:04.305Z</time>
      </trkpt>
      <trkpt lat="49.25412" lon="-0.16054">
        <ele>7.46</ele>
        <time>2025-07-04T18:45:19.448Z</time>
      </trkpt>
      <trkpt lat="49.2544" lon="-0.16034">
        <ele>7.13</ele>
        <time>2025-07-04T18:45:34.596Z</time>
      </trkpt>
      <trkpt lat="49.25464" lon="-0.16017">
        <ele>6.81</ele>
        <time>2025-07-04T18:45:49.748Z</time>
      </trkpt>
      <trkpt lat="49.2549" lon="-0.16003">
        <ele>6.53</ele>
        <time>2025-07-04T18:46:04.905Z</time>
      </trkpt>
      <trkpt lat="49.25521" lon="-0.15992">
        <ele>6.3</ele>
        <time>2025-07-04T18:46:20.067Z</time>
      </trkpt>
      <trkpt lat="49.25551" lon="-0.1598">
        <ele>6.05</ele>
        <time>2025-07-04T18:46:35.234Z</time>
      </trkpt>
      <trkpt lat="49.25557" lon="-0.15978">
        <ele>5.79</ele>
        <time>2025-07-04T18:46:50.402Z</time>
      </trkpt>
      <trkpt lat="49.25588" lon="-0.15974">
        <ele>5.49</ele>
        <time>2025-07-04T18:47:05.575Z</time>
      </trkpt>
      <trkpt lat="49.25602" lon="-0.15972">
        <ele>5.23</ele>
        <time>2025-07-04T18:47:20.750Z</time>
      </trkpt>
      <trkpt lat="49.25633" lon="-0.15974">
        <ele>4.99</ele>
        <time>2025-07-04T18:47:35.930Z</time>
      </trkpt>
      <trkpt lat="49.25646" lon="-0.15975">
        <ele>4.79</ele>
        <time>2025-07-04T18:47:51.112Z</time>
      </trkpt>
      <trkpt lat="49.25663" lon="-0.15977">
        <ele>4.65</ele>
        <time>2025-07-04T18:48:06.297Z</time>
      </trkpt>
      <trkpt lat="49.25694" lon="-0.15985">
        <ele>4.55</ele>
        <time>2025-07-04T18:48:21.487Z</time>
      </trkpt>
      <trkpt lat="49.25725" lon="-0.15994">
        <ele>4.38</ele>
        <time>2025-07-04T18:48:36.682Z</time>
      </trkpt>
      <trkpt lat="49.25744" lon="-0.15999">
        <ele>4.17</ele>
        <time>2025-07-04T18:48:51.880Z</time>
      </trkpt>
      <trkpt lat="49.25775" lon="-0.16007">
        <ele>3.99</ele>
        <time>2025-07-04T18:49:07.083Z</time>
      </trkpt>
      <trkpt lat="49.25806" lon="-0.16016">
        <ele>3.9</ele>
        <time>2025-07-04T18:49:22.291Z</time>
      </trkpt>
      <trkpt lat="49.25837" lon="-0.16024">
        <ele>3.75</ele>
        <time>2025-07-04T18:49:37.504Z</time>
      </trkpt>
      <trkpt lat="49.25868" lon="-0.16032">
        <ele>3.62</ele>
        <time>2025-07-04T18:49:52.722Z</time>
      </trkpt>
      <trkpt lat="49.25878" lon="-0.16035">
        <ele>3.54</ele>
        <time>2025-07-04T18:50:07.942Z</time>
      </trkpt>
      <trkpt lat="49.25909" lon="-0.16043">
        <ele>3.47</ele>
        <time>2025-07-04T18:50:23.167Z</time>
      </trkpt>
      <trkpt lat="49.2594" lon="-0.16051">
        <ele>3.35</ele>
        <time>2025-07-04T18:50:38.397Z</time>
      </trkpt>
      <trkpt lat="49.25971" lon="-0.16058">
        <ele>3.31</ele>
        <time>2025-07-04T18:50:53.632Z</time>
      </trkpt>
      <trkpt lat="49.25993" lon="-0.16064">
        <ele>3.27</ele>
        <time>2025-07-04T18:51:08.870Z</time>
      </trkpt>
      <trkpt lat="49.26024" lon="-0.16069">
        <ele>3.2</ele>
        <time>2025-07-04T18:51:24.113Z</time>
      </trkpt>
      <trkpt lat="49.26048" lon="-0.16073">
        <ele>3.11</ele>
        <time>2025-07-04T18:51:39.360Z</time>
      </trkpt>
      <trkpt lat="49.26079" lon="-0.16074">
        <ele>3.07</ele>
        <time>2025-07-04T18:51:54.612Z</time>
      </trkpt>
      <trkpt lat="49.2608" lon="-0.16074">
        <ele>3.04</ele>
        <time>2025-07-04T18:52:09.864Z</time>
      </trkpt>
      <trkpt lat="49.26111" lon="-0.16071">
        <ele>2.97</ele>
        <time>2025-07-04T18:52:25.121Z</time>
      </trkpt>
      <trkpt lat="49.26132" lon="-0.16069">
        <ele>2.93</ele>
        <time>2025-07-04T18:52:40.382Z</time>
      </trkpt>
      <trkpt lat="49.26163" lon="-0.16061">
        <ele>2.94</ele>
        <time>2025-07-04T18:52:55.648Z</time>
      </trkpt>
      <trkpt lat="49.26175" lon="-0.16058">
        <ele>2.97</ele>
        <time>2025-07-04T18:53:10.916Z</time>
      </trkpt>
      <trkpt lat="49.26203" lon="-0.16047">
        <ele>3.03</ele>
        <time>2025-07-04T18:53:26.188Z</time>
      </trkpt>
      <trkpt lat="49.26233" lon="-0.16031">
        <ele>3.05</ele>
        <time>2025-07-04T18:53:41.465Z</time>
      </trkpt>
      <trkpt lat="49.26262" lon="-0.16016">
        <ele>3.09</ele>
        <time>2025-07-04T18:53:56.747Z</time>
      </trkpt>
      <trkpt lat="49.26292" lon="-0.16">
        <ele>3.16</ele>
        <time>2025-07-04T18:54:12.034Z</time>
      </trkpt>
      <trkpt lat="49.26322" lon="-0.15984">
        <ele>3.22</ele>
        <time>2025-07-04T18:54:27.326Z</time>
      </trkpt>
      <trkpt lat="49.26352" lon="-0.15969">
        <ele>3.24</ele>
        <time>2025-07-04T18:54:42.624Z</time>
      </trkpt>
      <trkpt lat="49.26382" lon="-0.15953">
        <ele>3.28</ele>
        <time>2025-07-04T18:54:57.927Z</time>
      </trkpt>
      <trkpt lat="49.26411" lon="-0.15937">
        <ele>3.28</ele>
        <time>2025-07-04T18:55:13.235Z</time>
      </trkpt>
      <trkpt lat="49.26427" lon="-0.15929">
        <ele>3.3</ele>
        <time>2025-07-04T18:55:28.545Z</time>
      </trkpt>
      <trkpt lat="49.26457" lon="-0.15914">
        <ele>3.31</ele>
        <time>2025-07-04T18:55:43.860Z</time>
      </trkpt>
      <trkpt lat="49.26487" lon="-0.15898">
        <ele>3.4</ele>
        <time>2025-07-04T18:55:59.180Z</time>
      </trkpt>
      <trkpt lat="49.26516" lon="-0.15883">
        <ele>3.46</ele>
        <time>2025-07-04T18:56:14.505Z</time>
      </trkpt>
      <trkpt lat="49.26528" lon="-0.15877">
        <ele>3.52</ele>
        <time>2025-07-04T18:56:29.832Z</time>
      </trkpt>
      <trkpt lat="49.26548" lon="-0.15869">
        <ele>3.58</ele>
        <time>2025-07-04T18:56:45.163Z</time>
      </trkpt>
      <trkpt lat="49.26579" lon="-0.15862">
        <ele>3.65</ele>
        <time>2025-07-04T18:57:00.499Z</time>
      </trkpt>
      <trkpt lat="49.2661" lon="-0.15855">
        <ele>3.71</ele>
        <time>2025-07-04T18:57:15.840Z</time>
      </trkpt>
      <trkpt lat="49.26616" lon="-0.15854">
        <ele>3.78</ele>
        <time>2025-07-04T18:57:31.182Z</time>
      </trkpt>
      <trkpt lat="49.26647" lon="-0.15849">
        <ele>3.84</ele>
        <time>2025-07-04T18:57:46.529Z</time>
      </trkpt>
      <trkpt lat="49.26659" lon="-0.15847">
        <ele>3.9</ele>
        <time>2025-07-04T18:58:01.878Z</time>
      </trkpt>
      <trkpt lat="49.2669" lon="-0.15845">
        <ele>4.04</ele>
        <time>2025-07-04T18:58:17.232Z</time>
      </trkpt>
      <trkpt lat="49.26709" lon="-0.15844">
        <ele>4.12</ele>
        <time>2025-07-04T18:58:32.589Z</time>
      </trkpt>
      <trkpt lat="49.2674" lon="-0.15841">
        <ele>4.18</ele>
        <time>2025-07-04T18:58:47.951Z</time>
      </trkpt>
      <trkpt lat="49.26772" lon="-0.15838">
        <ele>4.21</ele>
        <time>2025-07-04T18:59:03.318Z</time>
      </trkpt>
      <trkpt lat="49.26788" lon="-0.15836">
        <ele>4.23</ele>
        <time>2025-07-04T18:59:18.687Z</time>
      </trkpt>
      <trkpt lat="49.26819" lon="-0.15828">
        <ele>4.28</ele>
        <time>2025-07-04T18:59:34.061Z</time>
      </trkpt>
      <trkpt lat="49.26829" lon="-0.15826">
        <ele>4.3</ele>
        <time>2025-07-04T18:59:49.437Z</time>
      </trkpt>
      <trkpt lat="49.26854" lon="-0.15814">
        <ele>4.34</ele>
        <time>2025-07-04T19:00:04.817Z</time>
      </trkpt>
      <trkpt lat="49.26884" lon="-0.15797">
        <ele>4.23</ele>
        <time>2025-07-04T19:00:20.202Z</time>
      </trkpt>
      <trkpt lat="49.26888" lon="-0.15795">
        <ele>4.2</ele>
        <time>2025-07-04T19:00:35.588Z</time>
      </trkpt>
      <trkpt lat="49.26908" lon="-0.15781">
        <ele>4.07</ele>
        <time>2025-07-04T19:00:50.977Z</time>
      </trkpt>
      <trkpt lat="49.26935" lon="-0.15757">
        <ele>4.03</ele>
        <time>2025-07-04T19:01:06.371Z</time>
      </trkpt>
      <trkpt lat="49.26954" lon="-0.15738">
        <ele>4.04</ele>
        <time>2025-07-04T19:01:21.769Z</time>
      </trkpt>
      <trkpt lat="49.26973" lon="-0.15717">
        <ele>4.07</ele>
        <time>2025-07-04T19:01:37.171Z</time>
      </trkpt>
      <trkpt lat="49.26995" lon="-0.15683">
        <ele>4.17</ele>
        <time>2025-07-04T19:01:52.578Z</time>
      </trkpt>
      <trkpt lat="49.27018" lon="-0.1565">
        <ele>4.23</ele>
        <time>2025-07-04T19:02:07.990Z</time>
      </trkpt>
      <trkpt lat="49.27019" lon="-0.15648">
        <ele>4.23</ele>
        <time>2025-07-04T19:02:23.402Z</time>
      </trkpt>
      <trkpt lat="49.27041" lon="-0.15613">
        <ele>4.26</ele>
        <time>2025-07-04T19:02:38.819Z</time>
      </trkpt>
      <trkpt lat="49.27063" lon="-0.15579">
        <ele>4.26</ele>
        <time>2025-07-04T19:02:54.241Z</time>
      </trkpt>
      <trkpt lat="49.27085" lon="-0.15544">
        <ele>4.25</ele>
        <time>2025-07-04T19:03:09.668Z</time>
      </trkpt>
      <trkpt lat="49.27094" lon="-0.1553">
        <ele>4.24</ele>
        <time>2025-07-04T19:03:25.097Z</time>
      </trkpt>
      <trkpt lat="49.27116" lon="-0.15496">
        <ele>4.24</ele>
        <time>2025-07-04T19:03:40.531Z</time>
      </trkpt>
      <trkpt lat="49.27138" lon="-0.15461">
        <ele>4.26</ele>
        <time>2025-07-04T19:03:55.970Z</time>
      </trkpt>
      <trkpt lat="49.2716" lon="-0.15427">
        <ele>4.22</ele>
        <time>2025-07-04T19:04:11.414Z</time>
      </trkpt>
      <trkpt lat="49.27182" lon="-0.15393">
        <ele>4.17</ele>
        <time>2025-07-04T19:04:26.864Z</time>
      </trkpt>
      <trkpt lat="49.27204" lon="-0.15358">
        <ele>4.19</ele>
        <time>2025-07-04T19:04:42.319Z</time>
      </trkpt>
      <trkpt lat="49.27218" lon="-0.15337">
        <ele>4.25</ele>
        <time>2025-07-04T19:04:57.777Z</time>
      </trkpt>
      <trkpt lat="49.27241" lon="-0.15304">
        <ele>4.37</ele>
        <time>2025-07-04T19:05:13.240Z</time>
      </trkpt>
      <trkpt lat="49.27248" lon="-0.15293">
        <ele>4.4</ele>
        <time>2025-07-04T19:05:28.704Z</time>
      </trkpt>
      <trkpt lat="49.27271" lon="-0.15261">
        <ele>4.41</ele>
        <time>2025-07-04T19:05:44.173Z</time>
      </trkpt>
      <trkpt lat="49.27281" lon="-0.15248">
        <ele>4.42</ele>
        <time>2025-07-04T19:05:59.644Z</time>
      </trkpt>
      <trkpt lat="49.27307" lon="-0.15221">
        <ele>4.44</ele>
        <time>2025-07-04T19:06:15.120Z</time>
      </trkpt>
      <trkpt lat="49.27327" lon="-0.15201">
        <ele>4.5</ele>
        <time>2025-07-04T19:06:30.600Z</time>
      </trkpt>
      <trkpt lat="49.27354" lon="-0.15176">
        <ele>4.54</ele>
        <time>2025-07-04T19:06:46.085Z</time>
      </trkpt>
      <trkpt lat="49.2738" lon="-0.1515">
        <ele>4.52</ele>
        <time>2025-07-04T19:07:01.575Z</time>
      </trkpt>
      <trkpt lat="49.27384" lon="-0.15147">
        <ele>4.54</ele>
        <time>2025-07-04T19:07:17.066Z</time>
      </trkpt>
      <trkpt lat="49.27411" lon="-0.15121">
        <ele>4.54</ele>
        <time>2025-07-04T19:07:32.562Z</time>
      </trkpt>
      <trkpt lat="49.27428" lon="-0.15104">
        <ele>4.56</ele>
        <time>2025-07-04T19:07:48.061Z</time>
      </trkpt>
      <trkpt lat="49.27454" lon="-0.15078">
        <ele>4.56</ele>
        <time>2025-07-04T19:08:03.565Z</time>
      </trkpt>
      <trkpt lat="49.27481" lon="-0.15052">
        <ele>4.57</ele>
        <time>2025-07-04T19:08:19.075Z</time>
      </trkpt>
      <trkpt lat="49.27484" lon="-0.15049">
        <ele>4.61</ele>
        <time>2025-07-04T19:08:34.585Z</time>
      </trkpt>
      <trkpt lat="49.27509" lon="-0.1502">
        <ele>4.65</ele>
        <time>2025-07-04T19:08:50.100Z</time>
      </trkpt>
      <trkpt lat="49.27514" lon="-0.15014">
        <ele>4.69</ele>
        <time>2025-07-04T19:09:05.616Z</time>
      </trkpt>
      <trkpt lat="49.27538" lon="-0.14982">
        <ele>4.77</ele>
        <time>2025-07-04T19:09:21.137Z</time>
      </trkpt>
      <trkpt lat="49.27561" lon="-0.14951">
        <ele>4.79</ele>
        <time>2025-07-04T19:09:36.663Z</time>
      </trkpt>
      <trkpt lat="49.27564" lon="-0.14947">
        <ele>4.82</ele>
        <time>2025-07-04T19:09:52.190Z</time>
      </trkpt>
      <trkpt lat="49.27586" lon="-0.14913">
        <ele>4.84</ele>
        <time>2025-07-04T19:10:07.722Z</time>
      </trkpt>
      <trkpt lat="49.27601" lon="-0.14889">
        <ele>4.9</ele>
        <time>2025-07-04T19:10:23.257Z</time>
      </trkpt>
      <trkpt lat="49.27624" lon="-0.14855">
        <ele>5</ele>
        <time>2025-07-04T19:10:38.797Z</time>
      </trkpt>
      <trkpt lat="49.27646" lon="-0.14822">
        <ele>5.09</ele>
        <time>2025-07-04T19:10:54.342Z</time>
      </trkpt>
      <trkpt lat="49.27669" lon="-0.14788">
        <ele>5.12</ele>
        <time>2025-07-04T19:11:09.892Z</time>
      </trkpt>
      <trkpt lat="49.27691" lon="-0.14755">
        <ele>5.11</ele>
        <time>2025-07-04T19:11:25.447Z</time>
      </trkpt>
      <trkpt lat="49.27714" lon="-0.14721">
        <ele>5.11</ele>
        <time>2025-07-04T19:11:41.007Z</time>
      </trkpt>
      <trkpt lat="49.27736" lon="-0.14688">
        <ele>5.17</ele>
        <time>2025-07-04T19:11:56.573Z</time>
      </trkpt>
      <trkpt lat="49.27759" lon="-0.14654">
        <ele>5.19</ele>
        <time>2025-07-04T19:12:12.144Z</time>
      </trkpt>
      <trkpt lat="49.27782" lon="-0.14621">
        <ele>5.15</ele>
        <time>2025-07-04T19:12:27.720Z</time>
      </trkpt>
      <trkpt lat="49.27804" lon="-0.14587">
        <ele>5.19</ele>
        <time>2025-07-04T19:12:43.301Z</time>
      </trkpt>
      <trkpt lat="49.27827" lon="-0.14554">
        <ele>5.29</ele>
        <time>2025-07-04T19:12:58.887Z</time>
      </trkpt>
      <trkpt lat="49.27849" lon="-0.1452">
        <ele>5.41</ele>
        <time>2025-07-04T19:13:14.478Z</time>
      </trkpt>
      <trkpt lat="49.27872" lon="-0.14487">
        <ele>5.46</ele>
        <time>2025-07-04T19:13:30.074Z</time>
      </trkpt>
      <trkpt lat="49.27895" lon="-0.14453">
        <ele>5.47</ele>
        <time>2025-07-04T19:13:45.675Z</time>
      </trkpt>
      <trkpt lat="49.27907" lon="-0.14435">
        <ele>5.48</ele>
        <time>2025-07-04T19:14:01.279Z</time>
      </trkpt>
      <trkpt lat="49.2793" lon="-0.14402">
        <ele>5.54</ele>
        <time>2025-07-04T19:14:16.888Z</time>
      </trkpt>
      <trkpt lat="49.27935" lon="-0.14395">
        <ele>5.58</ele>
        <time>2025-07-04T19:14:32.498Z</time>
      </trkpt>
      <trkpt lat="49.27958" lon="-0.14362">
        <ele>5.63</ele>
        <time>2025-07-04T19:14:48.113Z</time>
      </trkpt>
      <trkpt lat="49.27974" lon="-0.1434">
        <ele>5.63</ele>
        <time>2025-07-04T19:15:03.731Z</time>
      </trkpt>
      <trkpt lat="49.27996" lon="-0.14306">
        <ele>5.6</ele>
        <time>2025-07-04T19:15:19.354Z</time>
      </trkpt>
      <trkpt lat="49.28019" lon="-0.14272">
        <ele>5.61</ele>
        <time>2025-07-04T19:15:34.982Z</time>
      </trkpt>
      <trkpt lat="49.28041" lon="-0.14239">
        <ele>5.55</ele>
        <time>2025-07-04T19:15:50.615Z</time>
      </trkpt>
      <trkpt lat="49.28051" lon="-0.14224">
        <ele>5.56</ele>
        <time>2025-07-04T19:16:06.251Z</time>
      </trkpt>
      <trkpt lat="49.28073" lon="-0.1419">
        <ele>5.66</ele>
        <time>2025-07-04T19:16:21.892Z</time>
      </trkpt>
      <trkpt lat="49.28096" lon="-0.14156">
        <ele>5.69</ele>
        <time>2025-07-04T19:16:37.538Z</time>
      </trkpt>
      <trkpt lat="49.28118" lon="-0.14122">
        <ele>5.67</ele>
        <time>2025-07-04T19:16:53.189Z</time>
      </trkpt>
      <trkpt lat="49.2814" lon="-0.14088">
        <ele>5.63</ele>
        <time>2025-07-04T19:17:08.845Z</time>
      </trkpt>
      <trkpt lat="49.28149" lon="-0.14075">
        <ele>5.6</ele>
        <time>2025-07-04T19:17:24.503Z</time>
      </trkpt>
      <trkpt lat="49.28169" lon="-0.14038">
        <ele>5.62</ele>
        <time>2025-07-04T19:17:40.166Z</time>
      </trkpt>
      <trkpt lat="49.28189" lon="-0.14001">
        <ele>5.64</ele>
        <time>2025-07-04T19:17:55.834Z</time>
      </trkpt>
      <trkpt lat="49.28199" lon="-0.13984">
        <ele>5.62</ele>
        <time>2025-07-04T19:18:11.504Z</time>
      </trkpt>
      <trkpt lat="49.28214" lon="-0.13953">
        <ele>5.61</ele>
        <time>2025-07-04T19:18:27.178Z</time>
      </trkpt>
      <trkpt lat="49.28231" lon="-0.13913">
        <ele>5.58</ele>
        <time>2025-07-04T19:18:42.857Z</time>
      </trkpt>
      <trkpt lat="49.28242" lon="-0.13887">
        <ele>5.5</ele>
        <time>2025-07-04T19:18:58.539Z</time>
      </trkpt>
      <trkpt lat="49.28258" lon="-0.13846">
        <ele>5.48</ele>
        <time>2025-07-04T19:19:14.226Z</time>
      </trkpt>
      <trkpt lat="49.28259" lon="-0.13844">
        <ele>5.46</ele>
        <time>2025-07-04T19:19:29.914Z</time>
      </trkpt>
      <trkpt lat="49.28274" lon="-0.13802">
        <ele>5.42</ele>
        <time>2025-07-04T19:19:45.607Z</time>
      </trkpt>
      <trkpt lat="49.28285" lon="-0.1377">
        <ele>5.42</ele>
        <time>2025-07-04T19:20:01.303Z</time>
      </trkpt>
      <trkpt lat="49.28297" lon="-0.13726">
        <ele>5.35</ele>
        <time>2025-07-04T19:20:17.004Z</time>
      </trkpt>
      <trkpt lat="49.28302" lon="-0.13704">
        <ele>5.3</ele>
        <time>2025-07-04T19:20:32.708Z</time>
      </trkpt>
      <trkpt lat="49.28307" lon="-0.13656">
        <ele>5.37</ele>
        <time>2025-07-04T19:20:48.417Z</time>
      </trkpt>
      <trkpt lat="49.28307" lon="-0.13656">
        <ele>5.36</ele>
        <time>2025-07-04T19:21:04.126Z</time>
      </trkpt>
      <trkpt lat="49.28306" lon="-0.13654">
        <ele>5.37</ele>
        <time>2025-07-04T19:21:19.835Z</time>
      </trkpt>
      <trkpt lat="49.28304" lon="-0.1365">
        <ele>5.37</ele>
        <time>2025-07-04T19:21:35.545Z</time>
      </trkpt>
      <trkpt lat="49.28303" lon="-0.13646">
        <ele>5.38</ele>
        <time>2025-07-04T19:21:51.255Z</time>
      </trkpt>
      <trkpt lat="49.28302" lon="-0.13637">
        <ele>5.39</ele>
        <time>2025-07-04T19:22:06.966Z</time>
      </trkpt>
      <trkpt lat="49.28304" lon="-0.13628">
        <ele>5.41</ele>
        <time>2025-07-04T19:22:22.678Z</time>
      </trkpt>
      <trkpt lat="49.28309" lon="-0.13622">
        <ele>4.81</ele>
        <time>2025-07-04T19:22:38.391Z</time>
      </trkpt>
      <trkpt lat="49.28315" lon="-0.1362">
        <ele>5.45</ele>
        <time>2025-07-04T19:22:54.105Z</time>
      </trkpt>
      <trkpt lat="49.2833" lon="-0.13578">
        <ele>5.51</ele>
        <time>2025-07-04T19:23:09.824Z</time>
      </trkpt>
      <trkpt lat="49.28332" lon="-0.13572">
        <ele>5.52</ele>
        <time>2025-07-04T19:23:25.544Z</time>
      </trkpt>
      <trkpt lat="49.28341" lon="-0.13526">
        <ele>5.52</ele>
        <time>2025-07-04T19:23:41.269Z</time>
      </trkpt>
      <trkpt lat="49.28351" lon="-0.1348">
        <ele>5.53</ele>
        <time>2025-07-04T19:23:56.999Z</time>
      </trkpt>
      <trkpt lat="49.2836" lon="-0.13434">
        <ele>5.55</ele>
        <time>2025-07-04T19:24:12.734Z</time>
      </trkpt>
      <trkpt lat="49.28362" lon="-0.13424">
        <ele>5.54</ele>
        <time>2025-07-04T19:24:28.470Z</time>
      </trkpt>
      <trkpt lat="49.28371" lon="-0.13378">
        <ele>5.54</ele>
        <time>2025-07-04T19:24:44.211Z</time>
      </trkpt>
      <trkpt lat="49.2838" lon="-0.13332">
        <ele>5.51</ele>
        <time>2025-07-04T19:24:59.957Z</time>
      </trkpt>
      <trkpt lat="49.28388" lon="-0.13289">
        <ele>5.53</ele>
        <time>2025-07-04T19:25:15.708Z</time>
      </trkpt>
      <trkpt lat="49.28398" lon="-0.13243">
        <ele>5.58</ele>
        <time>2025-07-04T19:25:31.464Z</time>
      </trkpt>
      <trkpt lat="49.284" lon="-0.13235">
        <ele>5.59</ele>
        <time>2025-07-04T19:25:47.221Z</time>
      </trkpt>
      <trkpt lat="49.28409" lon="-0.13189">
        <ele>5.62</ele>
        <time>2025-07-04T19:26:02.983Z</time>
      </trkpt>
      <trkpt lat="49.28418" lon="-0.13143">
        <ele>5.58</ele>
        <time>2025-07-04T19:26:18.750Z</time>
      </trkpt>
      <trkpt lat="49.28427" lon="-0.13097">
        <ele>5.62</ele>
        <time>2025-07-04T19:26:34.522Z</time>
      </trkpt>
      <trkpt lat="49.28436" lon="-0.13051">
        <ele>5.66</ele>
        <time>2025-07-04T19:26:50.299Z</time>
      </trkpt>
      <trkpt lat="49.28445" lon="-0.13005">
        <ele>5.7</ele>
        <time>2025-07-04T19:27:06.081Z</time>
      </trkpt>
      <trkpt lat="49.28454" lon="-0.12959">
        <ele>5.73</ele>
        <time>2025-07-04T19:27:21.868Z</time>
      </trkpt>
      <trkpt lat="49.28464" lon="-0.12913">
        <ele>5.79</ele>
        <time>2025-07-04T19:27:37.660Z</time>
      </trkpt>
      <trkpt lat="49.28473" lon="-0.12866">
        <ele>5.83</ele>
        <time>2025-07-04T19:27:53.457Z</time>
      </trkpt>
      <trkpt lat="49.28478" lon="-0.12839">
        <ele>5.8</ele>
        <time>2025-07-04T19:28:09.257Z</time>
      </trkpt>
      <trkpt lat="49.28487" lon="-0.12793">
        <ele>5.77</ele>
        <time>2025-07-04T19:28:25.062Z</time>
      </trkpt>
      <trkpt lat="49.28496" lon="-0.12747">
        <ele>5.6</ele>
        <time>2025-07-04T19:28:40.872Z</time>
      </trkpt>
      <trkpt lat="49.28501" lon="-0.1272">
        <ele>5.52</ele>
        <time>2025-07-04T19:28:56.685Z</time>
      </trkpt>
      <trkpt lat="49.2851" lon="-0.12674">
        <ele>5.47</ele>
        <time>2025-07-04T19:29:12.503Z</time>
      </trkpt>
      <trkpt lat="49.28518" lon="-0.12637">
        <ele>5.4</ele>
        <time>2025-07-04T19:29:28.325Z</time>
      </trkpt>
      <trkpt lat="49.28523" lon="-0.1259">
        <ele>5.35</ele>
        <time>2025-07-04T19:29:44.152Z</time>
      </trkpt>
      <trkpt lat="49.28524" lon="-0.12583">
        <ele>5.33</ele>
        <time>2025-07-04T19:29:59.980Z</time>
      </trkpt>
      <trkpt lat="49.28517" lon="-0.12571">
        <ele>5.3</ele>
        <time>2025-07-04T19:30:15.810Z</time>
      </trkpt>
      <trkpt lat="49.28515" lon="-0.12559">
        <ele>5.28</ele>
        <time>2025-07-04T19:30:31.641Z</time>
      </trkpt>
      <trkpt lat="49.28516" lon="-0.12549">
        <ele>5.28</ele>
        <time>2025-07-04T19:30:47.473Z</time>
      </trkpt>
      <trkpt lat="49.28519" lon="-0.1254">
        <ele>5.28</ele>
        <time>2025-07-04T19:31:03.306Z</time>
      </trkpt>
      <trkpt lat="49.28526" lon="-0.12534">
        <ele>5.26</ele>
        <time>2025-07-04T19:31:19.140Z</time>
      </trkpt>
      <trkpt lat="49.28537" lon="-0.12515">
        <ele>5.25</ele>
        <time>2025-07-04T19:31:34.977Z</time>
      </trkpt>
      <trkpt lat="49.28543" lon="-0.125">
        <ele>5.23</ele>
        <time>2025-07-04T19:31:50.816Z</time>
      </trkpt>
      <trkpt lat="49.28549" lon="-0.12482">
        <ele>5.22</ele>
        <time>2025-07-04T19:32:06.657Z</time>
      </trkpt>
      <trkpt lat="49.28558" lon="-0.12436">
        <ele>5.2</ele>
        <time>2025-07-04T19:32:22.503Z</time>
      </trkpt>
      <trkpt lat="49.28561" lon="-0.12422">
        <ele>5.2</ele>
        <time>2025-07-04T19:32:38.351Z</time>
      </trkpt>
      <trkpt lat="49.2857" lon="-0.12376">
        <ele>5.17</ele>
        <time>2025-07-04T19:32:54.204Z</time>
      </trkpt>
      <trkpt lat="49.28574" lon="-0.12353">
        <ele>5.1</ele>
        <time>2025-07-04T19:33:10.059Z</time>
      </trkpt>
      <trkpt lat="49.28577" lon="-0.12336">
        <ele>5.08</ele>
        <time>2025-07-04T19:33:25.916Z</time>
      </trkpt>
    </trkseg>
  </trk>
</gpx>